GFSSGP_sfc_wetblb_000.txt.gz
Wetbulb
68.85 69.70 71.03 67.87 58.62 56.28 53.03 53.55 55.72 54.44 53.94 55.36 55.17 53.79 52.74 53.00 50.43 48.54 63.59 65.92 66.50 66.59 69.54 70.93 74.12 73.53 72.73 72.61 72.69 72.39 72.35 71.30 69.10 67.74 67.34 66.72 66.14 65.85 65.79 66.16 66.94 67.71 67.94 68.45 68.96 68.41 68.71 69.49 69.77
70.04 69.52 68.29 64.78 55.33 51.77 53.70 54.65 53.58 55.31 55.18 55.61 54.53 53.46 52.65 51.25 55.63 57.26 60.60 65.82 66.49 66.07 68.97 68.90 73.98 74.09 73.86 73.47 72.92 72.31 72.08 71.28 69.86 68.47 67.99 67.48 66.82 66.24 66.13 66.44 66.93 67.34 67.85 68.29 68.70 68.73 68.90 69.49 69.68
68.82 68.02 63.57 59.78 55.68 51.45 52.50 54.54 54.94 55.08 55.53 55.01 53.78 55.06 53.88 53.83 57.70 59.52 63.25 65.34 65.71 65.62 66.18 67.92 72.53 74.36 74.14 73.49 72.18 71.81 71.51 70.49 69.81 69.09 68.68 68.32 67.79 67.07 66.60 66.47 66.86 67.23 67.50 68.01 68.51 69.04 68.90 69.04 69.76
66.80 65.93 63.12 55.76 53.06 54.30 53.64 55.54 56.11 54.62 54.62 55.39 54.78 52.29 56.62 59.75 59.58 61.55 63.45 63.76 63.30 63.11 63.89 67.27 68.39 70.81 72.68 72.85 72.39 72.35 70.84 70.01 69.16 68.59 68.61 67.97 68.08 67.55 67.12 66.47 66.62 66.47 66.93 67.41 68.08 68.22 68.90 69.71 69.71
66.39 62.47 56.13 54.28 53.42 54.81 56.32 56.99 55.70 54.55 54.83 54.27 54.04 52.65 54.69 59.60 61.89 62.59 62.04 62.01 62.10 62.83 64.42 65.60 69.03 70.28 71.48 71.66 71.15 70.74 70.21 69.84 68.76 68.03 67.89 68.09 68.25 67.44 67.03 66.84 66.55 66.40 66.28 66.30 66.87 68.12 68.45 68.95 70.45
60.51 60.65 53.87 51.52 52.94 55.47 57.06 57.00 55.09 54.45 55.03 53.94 52.69 53.34 55.38 61.18 61.24 61.50 62.29 63.51 64.01 63.59 66.32 66.81 68.71 69.75 68.84 69.87 69.04 67.78 67.07 66.81 66.57 66.50 66.49 66.63 66.61 66.85 66.83 66.75 66.67 66.42 66.13 65.90 66.08 67.16 68.25 68.32 69.67
58.65 56.69 53.34 53.40 53.15 54.13 54.77 56.09 54.27 54.21 54.18 53.53 55.40 52.30 56.84 59.07 60.91 61.92 61.62 62.14 62.90 63.85 63.20 64.27 65.04 65.52 64.82 63.30 63.27 64.05 64.36 64.65 65.04 65.06 65.19 65.58 65.75 66.15 66.51 66.47 66.70 66.22 65.99 66.12 65.68 66.33 67.89 67.97 68.39
60.31 57.41 53.35 54.29 52.95 52.94 56.10 54.87 55.18 54.04 53.63 56.14 56.59 52.09 53.99 59.95 60.86 60.98 60.61 60.71 61.10 61.55 61.61 62.99 64.26 63.81 65.03 65.23 63.24 63.48 63.89 63.82 63.82 64.11 64.23 64.91 65.04 65.35 65.97 65.87 65.89 65.98 65.76 65.90 65.58 65.70 67.22 67.72 67.99
61.36 53.64 51.33 52.88 53.32 54.74 57.74 55.41 55.64 55.68 54.48 54.94 56.32 56.32 57.86 59.58 59.77 59.53 59.93 59.87 61.22 60.98 61.39 63.12 63.35 64.41 64.91 64.67 64.13 63.77 63.72 63.22 62.94 63.00 62.98 63.36 64.64 65.05 66.00 65.55 65.51 65.48 65.31 65.64 65.53 65.77 66.97 67.54 67.58
56.92 52.30 52.40 55.69 57.06 56.33 57.28 56.49 56.60 53.53 53.72 53.89 54.97 56.74 57.11 58.27 58.69 58.34 58.37 58.47 59.04 59.59 60.84 61.56 63.76 64.47 64.23 63.75 65.26 65.52 64.60 62.54 61.74 62.10 61.89 62.96 63.72 64.91 64.27 64.19 64.36 65.26 65.34 65.50 65.52 65.85 66.95 67.46 68.45
55.94 52.11 54.89 55.61 57.61 57.64 56.25 55.85 56.41 54.05 53.15 55.18 54.60 56.63 57.14 57.75 58.64 58.51 57.90 58.40 58.69 60.48 60.48 60.83 63.72 64.35 64.25 64.47 64.61 64.33 63.06 62.89 62.46 62.60 63.95 62.47 63.17 64.89 64.83 63.92 64.13 65.29 65.05 65.67 66.11 66.04 67.04 67.78 68.32
53.25 54.69 55.43 56.23 57.32 55.90 54.80 56.23 54.02 54.13 55.40 56.70 56.85 57.37 58.08 57.58 58.27 58.42 57.91 58.45 59.67 59.49 60.34 62.84 64.02 64.39 65.08 64.88 64.37 63.33 62.82 62.92 62.42 63.67 62.81 63.82 63.43 64.05 63.78 63.82 63.03 64.79 65.55 65.60 66.57 65.71 67.25 68.08 68.66
53.94 54.39 55.95 57.04 56.52 55.33 55.12 53.91 53.46 54.31 56.19 56.95 56.92 57.29 57.47 58.01 58.82 59.03 59.00 60.40 60.38 59.34 62.94 63.84 64.27 65.02 65.21 64.93 64.45 63.89 63.62 63.91 64.04 63.85 63.72 64.37 63.66 62.84 62.82 62.72 63.06 63.93 64.85 65.36 66.08 66.06 66.95 67.99 68.08
55.69 55.33 55.41 56.04 55.06 54.23 52.90 53.25 52.79 55.06 56.31 56.26 56.27 56.81 57.33 57.66 58.41 58.86 59.33 59.69 60.08 60.01 63.27 63.51 64.27 65.36 65.38 65.11 64.98 64.46 64.65 64.67 64.19 63.51 63.57 64.55 63.70 63.70 64.08 62.72 62.90 64.61 65.04 64.81 65.92 65.99 66.64 67.40 67.87
56.21 52.86 54.50 54.19 54.01 53.04 53.50 51.42 51.69 56.09 56.17 54.92 55.82 56.72 57.07 57.89 58.27 58.56 59.49 59.84 60.32 61.91 63.29 63.09 63.79 64.81 65.60 65.75 65.55 65.21 65.10 64.56 64.25 63.96 64.77 64.77 65.20 64.93 64.04 63.08 61.83 63.39 65.72 66.11 66.16 66.55 67.38 66.86 67.39
52.78 53.17 49.76 54.35 53.14 52.80 52.19 47.87 53.17 56.26 55.07 54.96 55.84 56.05 56.20 57.39 58.15 58.81 60.17 60.75 61.04 62.67 61.42 63.27 63.96 65.12 65.63 65.84 65.85 65.65 65.75 65.63 65.36 65.36 65.23 65.33 65.45 65.39 65.20 65.31 65.11 66.22 66.16 66.05 65.42 65.63 65.40 65.64 66.09
52.31 47.79 49.95 51.70 54.61 52.95 52.02 50.80 53.94 55.93 55.22 55.01 55.83 56.16 55.88 56.89 58.07 59.46 60.94 61.03 60.38 61.24 61.45 62.77 64.11 64.44 65.34 65.70 65.77 66.17 66.43 65.67 66.12 65.55 65.02 65.20 65.40 65.67 66.09 66.17 66.15 66.51 65.53 65.99 65.93 64.76 65.43 65.05 65.44
48.29 48.57 49.66 49.70 52.83 52.45 51.76 51.38 53.61 54.97 54.95 55.01 55.90 56.42 56.14 56.39 57.42 59.59 61.34 61.07 60.49 60.86 61.96 62.95 64.33 64.94 65.09 65.82 66.02 66.16 66.83 66.62 66.20 63.60 61.79 63.98 65.61 65.31 66.28 66.41 66.30 66.32 64.93 65.67 65.97 65.89 65.73 65.65 65.91
51.46 49.96 49.39 51.82 53.22 51.49 51.97 52.16 53.09 54.82 54.98 55.21 56.06 56.27 56.43 56.67 58.63 60.11 61.16 61.10 60.62 60.39 61.39 63.44 62.97 64.60 63.49 64.31 64.36 64.54 63.74 62.91 65.54 63.96 62.26 61.63 64.60 64.91 65.30 65.40 65.24 65.32 64.91 65.48 66.30 66.12 65.60 65.40 66.93
51.27 49.81 49.76 52.00 52.99 51.80 51.41 50.51 52.99 54.22 54.43 55.94 56.33 56.64 56.58 57.21 57.65 59.32 60.68 60.85 60.54 58.96 60.25 63.09 62.84 63.34 63.10 64.28 65.47 65.19 64.82 64.67 61.73 62.08 62.37 62.91 62.88 65.05 65.21 65.75 65.01 65.45 64.22 65.34 65.89 66.22 64.72 66.23 67.46
50.69 49.65 49.85 49.48 51.97 52.18 50.67 49.07 51.47 53.45 54.75 55.77 56.64 57.75 57.82 57.56 57.41 58.58 59.66 60.21 60.32 59.97 60.69 61.58 62.53 63.39 63.99 65.99 65.63 66.56 66.47 65.52 65.49 62.86 64.00 63.41 63.21 64.40 65.08 65.01 64.97 65.15 65.07 64.43 66.13 66.85 66.03 64.00 66.61
48.28 52.12 50.83 49.92 48.71 44.78 50.53 42.97 49.43 51.86 52.41 54.27 56.14 56.73 57.52 57.50 58.07 59.13 59.73 59.63 59.91 60.41 61.78 61.23 62.56 63.79 64.32 66.29 64.96 64.81 64.27 62.58 63.80 65.68 65.20 63.82 64.77 63.01 64.39 65.31 65.43 65.71 65.10 66.77 67.65 68.68 67.06 66.84 64.05
49.55 52.40 51.16 50.49 48.54 48.05 47.61 45.34 48.30 50.90 50.11 51.71 53.86 57.15 57.65 58.00 58.08 58.56 59.51 59.67 59.60 61.17 61.82 63.89 63.51 63.63 65.34 66.05 64.99 63.72 63.95 66.10 66.33 66.73 64.68 65.35 65.67 65.29 64.83 64.88 65.57 66.08 67.17 66.97 66.91 67.24 67.32 66.71 63.43
52.73 50.65 50.40 50.06 48.28 42.60 46.77 45.87 45.73 49.14 49.58 51.76 54.13 56.89 57.81 57.38 57.88 59.12 60.03 59.93 59.51 61.39 61.59 62.75 62.85 62.87 64.28 65.63 65.42 64.37 63.06 63.28 63.80 64.02 63.88 63.14 65.57 66.19 65.06 64.13 64.29 66.50 66.88 67.12 68.14 67.70 67.92 67.69 67.14
51.65 49.15 43.07 41.79 42.07 40.85 47.28 44.47 47.03 50.94 52.20 53.59 54.55 55.89 57.77 57.60 57.60 58.33 58.81 58.77 59.22 60.42 61.16 62.17 61.50 61.85 62.35 63.56 64.50 64.15 64.56 63.65 62.78 62.84 62.21 63.30 63.42 65.44 64.84 64.36 65.52 65.81 66.46 66.51 67.60 67.63 67.49 67.38 65.37
49.55 49.38 44.00 37.40 39.34 42.47 46.70 42.69 48.14 52.11 54.42 56.54 57.34 58.43 58.42 57.38 57.86 58.32 59.22 59.42 58.82 59.94 61.43 62.02 61.38 61.39 61.60 62.76 63.38 64.30 64.33 63.21 62.11 64.98 63.77 63.65 64.17 62.51 63.91 63.61 65.94 65.35 66.21 66.12 67.48 67.30 67.29 67.55 64.76
49.43 46.68 51.19 45.92 46.77 42.80 45.10 47.56 51.76 53.23 54.16 55.79 56.64 57.13 57.03 57.26 57.74 58.44 59.48 59.87 58.84 59.84 61.73 62.62 62.35 61.27 61.41 62.16 63.34 63.65 63.72 64.04 63.40 67.14 66.76 64.01 63.75 64.49 65.03 64.94 63.94 65.95 66.14 65.65 67.16 68.41 67.17 66.48 63.86
51.12 52.14 45.03 46.34 38.91 37.87 43.08 44.30 46.41 49.44 52.66 56.68 56.64 56.83 57.10 57.57 57.69 58.80 59.49 59.73 59.28 60.31 62.20 63.45 63.90 61.04 62.13 61.69 62.37 62.32 63.22 63.64 64.82 66.31 65.88 65.31 65.05 62.66 61.88 64.58 65.61 65.91 66.54 67.09 67.13 67.22 66.66 65.46 64.50
48.84 48.04 48.85 48.97 46.66 41.24 40.05 44.42 52.21 51.56 54.89 56.53 58.33 57.88 57.47 57.57 57.73 58.82 59.64 59.90 59.35 60.69 61.38 62.79 63.75 62.17 61.34 61.54 62.16 62.72 62.20 63.42 64.25 64.15 64.67 64.91 63.31 64.08 62.78 60.89 61.73 62.79 65.11 65.11 67.30 66.73 64.44 63.96 63.14
51.50 49.12 49.66 44.79 43.56 45.85 45.03 45.07 53.94 54.53 57.77 59.04 59.49 58.38 58.48 58.74 58.58 59.25 59.85 59.31 58.76 60.09 60.90 61.90 63.26 62.18 60.19 60.98 61.46 62.28 62.14 63.22 63.41 63.91 64.68 65.76 65.59 64.85 63.24 62.80 62.01 61.87 62.06 63.63 65.51 65.97 65.36 65.22 64.08

GFSSGP_sfc_wetblb_003.txt.gz
Wetbulb
67.24 65.27 69.91 68.64 59.37 57.27 53.81 54.98 57.63 55.38 55.77 57.83 57.74 56.25 54.46 54.95 52.51 50.20 63.59 65.17 65.11 65.87 69.70 72.13 73.89 72.94 72.65 72.90 72.76 72.89 72.80 72.05 70.94 69.84 68.28 67.82 67.41 66.99 66.65 66.49 66.46 66.73 67.37 67.99 68.71 69.56 69.31 69.42 70.39
66.86 69.48 69.37 65.08 55.84 52.40 52.80 56.84 54.59 56.57 57.66 57.94 57.10 56.12 54.79 53.41 56.91 57.54 60.84 65.85 65.78 66.51 69.02 69.63 73.77 73.97 73.74 73.74 73.55 73.35 72.53 72.05 71.07 70.24 68.89 68.39 67.96 67.62 67.25 67.09 66.90 66.77 67.37 67.80 68.31 68.93 69.47 69.45 70.22
70.41 69.73 63.62 60.45 56.70 52.81 52.12 55.70 56.36 57.35 57.23 57.10 56.32 56.90 55.77 56.25 58.33 58.96 65.00 66.50 66.45 66.61 68.17 69.87 74.42 74.42 74.17 73.82 73.70 73.45 72.28 71.51 70.26 69.22 69.27 69.28 68.79 68.39 68.04 67.60 67.18 67.16 67.07 67.77 68.15 68.87 69.39 69.56 69.69
67.42 66.32 63.70 55.30 53.44 55.63 54.98 56.31 57.33 56.89 57.25 57.39 56.68 54.13 58.28 61.27 60.03 61.85 64.74 64.69 64.39 64.25 65.05 70.47 71.80 71.79 72.37 73.37 73.12 72.71 71.96 70.68 69.83 68.46 69.00 69.38 68.75 68.47 68.03 67.94 67.64 67.30 66.95 67.36 67.83 68.70 68.99 69.57 70.38
66.92 63.04 56.98 54.87 54.93 56.43 57.25 57.93 57.57 55.29 56.22 55.81 55.73 54.23 55.98 61.44 63.06 63.49 63.59 63.66 63.17 63.76 64.53 65.95 70.41 69.51 70.27 71.24 71.62 71.76 70.87 70.43 69.29 68.65 68.44 68.31 67.97 67.95 67.66 67.91 67.59 67.45 67.23 66.61 66.72 67.57 68.61 68.84 69.41
60.76 61.15 54.04 52.56 53.30 56.60 57.56 57.73 56.42 55.85 56.09 55.98 54.72 54.81 56.32 63.36 62.52 63.16 63.42 63.69 64.34 64.10 65.70 66.48 69.53 69.69 69.95 68.86 68.09 67.44 67.05 66.81 66.84 66.76 66.91 66.86 66.69 66.82 66.62 67.07 67.66 67.45 67.12 66.59 66.59 66.54 67.38 68.65 68.40
58.83 56.97 54.30 54.40 54.02 54.92 56.42 58.36 55.76 55.50 55.70 55.33 56.87 53.53 57.81 60.39 62.20 63.65 63.34 63.81 64.04 64.61 64.14 65.26 65.20 66.64 67.20 66.29 64.62 63.78 64.24 64.68 64.91 65.02 65.09 65.17 65.47 66.02 66.23 66.51 67.28 67.15 66.93 66.69 66.16 66.21 66.53 67.84 68.08
60.00 57.79 54.31 54.86 53.37 53.84 57.96 57.57 58.70 56.02 55.67 58.22 57.78 53.12 54.52 60.93 63.15 63.17 62.78 62.32 62.52 63.12 62.64 63.72 64.17 62.81 64.18 65.20 65.64 63.43 64.22 64.29 63.97 64.06 64.04 64.14 64.85 65.47 65.92 65.92 66.49 66.59 66.93 66.36 66.79 66.30 65.95 67.01 68.14
62.16 54.87 52.66 53.54 53.54 55.12 58.20 56.87 58.79 58.91 57.11 56.88 57.17 57.08 58.99 61.56 62.14 61.27 61.33 60.74 61.25 62.14 62.34 63.29 62.47 64.07 65.18 65.53 64.96 64.29 65.63 64.52 63.89 63.84 63.48 63.53 64.24 65.43 65.56 66.31 66.48 66.19 66.45 66.18 66.03 66.19 65.67 66.86 67.84
58.07 54.52 53.75 56.32 56.46 55.75 57.08 57.54 58.01 57.16 56.63 55.84 56.53 58.49 59.08 60.14 60.34 59.69 59.90 59.61 60.31 60.59 61.54 61.84 62.76 65.07 65.54 64.53 65.60 66.09 65.24 65.10 64.51 63.68 62.91 63.39 64.12 64.53 65.06 64.60 65.02 65.23 65.75 65.71 65.78 66.05 65.77 66.75 67.26
58.27 54.66 56.54 55.91 56.29 57.08 56.87 56.56 58.34 56.15 54.57 56.41 55.05 56.63 58.89 59.48 59.97 59.68 59.32 59.59 60.43 61.51 62.11 61.50 63.72 65.48 65.65 65.09 65.20 64.71 64.85 63.51 63.29 63.26 63.26 63.31 62.77 64.28 65.08 65.56 64.56 65.56 65.49 65.72 65.27 65.77 65.18 64.94 66.68
55.76 57.46 56.84 55.26 55.87 56.86 56.34 57.64 56.04 56.29 56.29 57.75 57.31 57.23 58.65 58.89 59.44 59.73 59.60 59.74 60.50 61.01 61.24 64.02 64.84 65.79 66.42 65.87 65.01 64.81 64.34 63.93 63.86 63.25 63.83 63.77 63.49 64.65 64.69 64.03 64.84 65.03 66.12 65.95 67.20 65.92 65.30 65.95 68.71
55.98 55.87 56.35 56.42 56.54 57.63 57.80 55.76 55.76 55.98 57.59 57.78 57.69 57.76 57.89 58.96 59.68 60.87 60.71 60.81 61.48 60.90 62.26 64.40 65.47 66.16 66.78 66.11 65.42 65.25 64.62 63.82 64.58 64.13 64.60 63.60 64.53 64.42 63.55 63.68 63.58 63.93 63.75 65.08 65.65 65.75 65.16 66.41 67.60
57.40 57.09 56.19 56.75 56.67 57.61 55.23 55.79 55.35 56.85 57.38 56.28 57.30 57.68 57.79 57.51 59.45 60.80 60.63 60.99 60.94 61.06 63.37 63.50 65.09 65.96 66.12 66.01 66.23 65.16 66.04 65.01 64.63 65.05 63.86 64.27 64.21 64.55 63.79 63.51 62.73 65.05 64.30 63.51 66.54 65.77 65.63 66.27 67.40
57.40 54.15 55.43 56.06 56.26 55.77 56.78 53.33 54.31 57.12 57.95 56.88 56.55 57.15 57.91 59.09 59.97 60.15 61.41 61.85 61.63 61.59 64.22 63.15 64.64 64.33 65.73 66.30 66.39 66.45 65.98 66.64 65.05 65.44 65.27 65.08 65.86 65.47 64.21 63.61 63.55 66.01 66.45 66.37 67.06 65.39 67.46 66.51 67.65
54.41 54.51 51.12 55.26 56.15 56.18 54.89 50.23 56.15 58.23 57.61 56.76 56.99 57.65 58.09 59.07 59.90 60.70 61.72 62.68 62.53 62.35 62.49 64.05 64.50 64.62 66.08 66.52 66.25 66.21 66.45 66.46 66.16 66.16 64.33 64.11 65.13 65.32 65.14 64.15 64.40 65.25 67.72 66.85 66.04 64.69 64.95 65.57 65.48
53.20 49.14 50.87 52.24 56.56 55.43 54.20 51.60 55.89 58.10 57.50 56.66 57.18 57.61 57.91 58.53 60.10 61.23 61.89 62.74 62.41 62.98 63.68 62.70 63.64 64.64 65.85 66.76 66.68 66.80 67.24 67.12 67.26 65.20 63.30 62.54 65.39 65.24 65.93 66.17 65.62 65.97 67.12 66.97 65.61 66.52 66.20 65.99 64.78
49.41 50.48 51.57 50.96 54.68 55.53 53.65 53.02 55.95 57.43 57.03 56.71 57.01 57.80 58.24 58.52 59.60 61.20 62.22 62.63 62.37 62.99 64.53 63.36 64.83 65.65 66.05 66.04 64.50 66.77 68.07 67.36 67.59 63.96 62.08 61.57 64.70 65.14 66.02 66.81 66.25 66.67 66.45 65.94 65.75 65.70 66.60 65.49 64.36
52.67 51.72 50.87 53.20 55.09 54.09 53.36 53.27 55.15 57.43 57.09 56.43 56.69 57.07 58.58 59.13 60.44 61.55 62.45 62.68 61.85 62.62 64.46 64.22 63.23 65.34 64.52 64.36 63.92 64.83 65.94 65.30 65.76 65.66 64.11 64.38 63.47 64.63 65.82 66.58 66.26 66.23 66.05 66.04 66.52 65.20 65.85 66.09 66.01
52.75 51.16 50.84 53.05 54.91 54.25 53.42 52.78 55.14 55.49 55.56 56.38 56.56 57.10 58.52 59.54 59.58 60.53 62.04 62.27 61.82 62.66 63.92 64.19 63.70 64.06 64.83 64.92 67.21 65.91 66.52 66.43 64.71 65.82 65.72 64.62 64.64 64.64 64.96 65.83 64.75 65.10 65.22 65.65 66.04 66.60 65.33 66.44 68.18
52.23 50.94 50.86 50.83 53.64 54.87 52.98 50.83 52.68 55.20 56.11 56.57 56.81 57.94 59.21 59.78 59.36 60.11 61.06 61.73 61.65 61.49 63.48 63.80 63.46 63.58 65.04 67.05 67.10 66.32 66.84 67.16 65.97 65.47 64.98 64.64 64.12 64.72 65.20 64.94 65.00 64.92 65.11 64.60 66.91 66.59 65.70 64.25 67.09
49.73 53.32 52.17 51.34 50.52 46.91 52.81 44.59 50.94 53.38 53.45 54.84 55.98 57.20 58.36 59.86 60.35 60.56 61.20 61.46 61.22 61.65 63.85 63.82 64.10 63.83 65.64 66.75 65.41 65.58 64.92 65.06 66.42 65.99 66.82 65.90 64.94 64.99 64.86 65.31 65.32 65.50 64.47 67.04 66.25 68.56 67.30 67.59 64.25
51.02 53.78 52.29 52.03 50.15 49.58 49.22 46.75 49.82 53.09 51.27 52.44 54.66 56.70 58.64 60.32 60.26 60.19 60.74 61.55 61.24 61.66 62.97 64.30 64.65 64.73 65.59 66.05 65.83 64.86 65.08 66.44 67.16 67.06 65.72 65.76 66.06 64.87 64.80 65.08 65.51 65.54 66.84 67.87 67.06 67.49 67.19 69.70 65.49
54.58 52.24 51.76 51.55 49.97 43.70 47.77 47.28 47.58 49.77 50.62 52.10 54.34 55.91 59.25 59.91 60.08 60.70 61.74 61.79 61.03 61.57 62.70 63.92 64.66 63.91 64.72 65.40 65.25 65.36 64.91 65.26 65.30 64.82 64.93 64.54 65.91 65.20 65.26 64.91 65.70 66.67 66.93 67.35 68.13 67.80 68.02 67.92 67.20
52.28 49.97 43.87 42.61 43.54 42.49 49.80 47.05 48.82 52.18 52.63 53.39 54.33 57.35 59.57 60.01 59.75 60.09 60.56 60.10 60.69 60.70 61.37 63.39 63.97 62.93 62.69 64.46 64.17 65.00 65.53 65.13 65.47 65.20 64.47 64.21 65.07 62.62 64.97 65.73 65.73 66.83 67.14 67.44 67.76 68.35 67.90 68.02 65.33
50.33 49.80 44.74 38.76 41.16 44.33 49.38 44.59 48.95 53.09 54.03 55.02 55.97 58.23 60.55 59.60 59.79 60.20 60.70 60.52 60.42 60.83 61.16 62.28 63.10 62.63 62.79 63.62 63.86 64.89 65.73 65.61 67.05 64.56 64.36 62.64 63.69 63.53 65.63 65.68 65.95 66.04 66.57 67.39 68.13 68.50 67.98 68.16 65.73
50.25 47.45 51.77 47.32 47.85 44.55 47.12 49.64 52.56 52.89 53.70 55.80 56.41 58.89 59.87 59.64 59.62 60.02 60.53 61.32 60.63 60.81 61.48 62.40 63.26 62.79 62.88 63.12 64.46 64.37 65.48 66.64 65.95 66.07 66.37 65.46 65.36 64.89 65.69 65.68 65.97 66.18 66.26 66.86 67.43 67.56 66.21 66.73 66.74
52.07 53.13 46.92 47.78 40.47 39.47 45.06 46.50 47.61 50.91 52.65 57.11 57.67 58.77 59.39 59.39 59.36 59.99 60.50 61.43 60.41 60.84 62.42 63.13 63.61 62.09 62.62 62.97 63.66 63.84 64.84 66.20 66.41 65.99 65.70 65.57 63.69 65.24 64.48 65.67 65.89 65.94 66.11 66.49 67.53 67.79 66.31 64.89 64.62
49.19 48.20 50.02 50.24 47.70 42.41 41.60 45.52 53.57 52.59 55.39 56.78 58.61 59.36 58.85 58.90 59.14 59.83 60.60 61.70 59.73 60.76 61.60 62.90 63.41 61.51 61.82 62.53 63.18 63.58 64.46 65.31 65.42 65.78 66.09 64.38 64.99 63.49 65.56 65.65 65.70 65.29 65.80 66.91 67.77 67.68 66.00 64.55 63.61
52.44 49.83 50.59 45.83 44.77 47.42 46.87 47.97 54.74 55.09 57.09 57.97 58.69 59.20 59.03 59.39 59.47 60.22 60.76 61.26 58.98 60.11 61.02 62.07 63.14 61.34 61.05 62.24 62.59 62.77 64.33 65.00 65.46 65.70 66.76 66.01 65.63 62.87 62.92 64.94 65.22 65.29 65.57 66.26 66.45 65.87 65.55 63.93 62.89

GFSSGP_sfc_wetblb_006.txt.gz
Wetbulb
67.50 64.98 64.68 65.21 57.28 57.04 53.07 53.75 58.35 55.47 55.27 57.71 57.88 55.80 54.49 54.97 52.01 49.93 65.22 64.99 64.05 70.60 72.50 72.02 74.09 73.60 73.10 73.00 72.83 72.56 72.44 72.37 71.80 70.76 69.92 68.63 68.07 67.84 67.72 67.19 66.72 66.30 66.54 66.86 67.42 67.98 69.68 69.79 69.66
62.07 63.56 67.23 62.91 55.80 52.07 52.84 57.25 54.81 55.82 57.06 57.89 57.30 56.41 55.05 53.49 56.74 58.42 61.18 65.42 64.75 69.07 71.98 71.96 73.86 73.61 73.56 73.31 73.32 73.09 72.97 72.45 72.00 70.83 70.36 69.31 68.64 68.39 68.28 67.79 67.61 67.35 66.98 67.23 67.18 67.63 68.38 69.33 69.70
67.48 68.74 62.32 58.67 56.19 52.03 52.01 56.26 55.66 56.76 57.78 56.49 55.90 57.52 55.90 55.81 58.16 59.37 65.06 65.84 65.89 68.36 69.56 73.66 73.84 73.67 73.84 73.81 73.62 73.61 73.17 72.40 71.53 70.05 69.60 69.15 69.34 69.00 68.69 68.59 68.50 68.16 67.72 67.41 67.34 67.71 68.20 69.28 69.67
67.93 65.15 62.76 55.07 52.35 55.03 55.94 56.63 57.26 56.29 56.85 57.62 56.41 53.91 58.37 60.94 59.72 61.73 63.98 64.15 63.91 63.94 68.26 73.05 74.46 74.39 74.01 73.33 73.79 73.59 72.70 72.25 71.28 69.51 69.00 68.92 68.86 69.62 68.97 68.22 68.38 68.68 68.41 67.82 66.97 67.58 68.76 69.14 69.72
66.66 61.99 55.79 54.52 54.12 56.06 58.41 58.56 57.68 54.98 55.22 55.96 56.04 53.31 56.72 60.27 62.24 62.87 63.44 63.67 63.31 66.06 67.06 69.90 72.81 71.57 70.63 70.32 71.41 72.32 71.01 70.05 69.51 68.99 68.71 68.54 68.54 68.05 67.76 68.03 68.13 68.32 68.32 68.07 67.03 67.19 68.09 68.62 68.90
59.45 60.19 52.99 51.15 53.06 56.13 58.29 58.59 56.69 55.48 55.71 55.96 54.95 54.64 57.58 62.00 61.61 62.18 63.03 64.06 63.97 65.79 67.57 68.99 70.55 70.35 70.14 70.72 70.34 68.30 66.61 66.22 66.59 66.85 67.09 67.12 67.19 67.09 66.92 67.00 67.10 67.39 67.94 68.15 67.42 66.77 66.82 67.91 68.59
57.92 56.53 53.03 53.35 52.93 54.35 56.63 59.51 56.86 56.55 54.72 54.86 56.79 53.28 58.47 60.54 61.87 63.68 63.94 65.19 66.31 66.17 66.45 67.38 67.64 69.71 70.06 69.71 67.74 65.77 64.15 63.98 64.57 64.86 64.92 65.40 65.53 65.72 65.91 66.51 66.84 67.07 67.62 67.54 67.48 66.64 67.13 67.23 67.78
59.57 57.07 53.04 53.72 52.94 53.13 57.74 58.56 59.10 57.64 55.25 58.94 58.02 53.24 54.37 60.88 63.22 63.23 62.69 62.52 62.61 63.46 62.91 66.24 67.11 65.49 66.72 66.38 66.24 65.51 64.90 64.67 64.12 64.50 64.57 64.37 63.93 64.50 65.29 66.32 66.37 66.78 67.61 67.36 67.28 66.98 66.24 67.05 67.89
61.80 53.81 51.38 52.82 53.06 53.85 57.43 56.32 59.22 60.34 57.26 57.69 57.76 56.62 59.02 61.87 62.19 60.93 61.40 60.57 60.83 62.17 64.94 64.67 64.53 65.59 66.20 66.08 66.23 65.77 66.20 65.81 65.04 64.91 63.97 63.38 63.20 63.73 64.61 65.95 66.65 66.50 67.15 67.21 66.92 66.72 66.62 66.64 67.45
57.14 53.35 53.08 56.93 56.58 54.64 56.14 56.22 57.15 56.45 56.70 56.61 56.74 58.40 59.75 60.36 60.23 58.97 59.26 59.62 60.66 61.92 64.01 64.43 64.78 65.89 66.92 64.64 67.09 67.31 66.64 66.30 65.62 64.54 64.35 63.49 63.38 63.61 63.66 64.79 65.29 65.81 66.20 66.44 66.61 66.58 66.53 65.56 64.67
57.13 53.59 56.30 57.16 58.11 56.90 55.22 55.18 57.49 55.83 54.35 56.46 55.50 56.86 58.56 58.52 60.06 59.61 58.66 60.12 61.11 62.83 64.07 63.96 65.90 67.44 67.38 65.68 66.18 65.52 65.20 65.45 65.42 64.47 64.18 63.79 63.08 62.64 63.21 64.44 64.93 64.84 65.12 64.55 64.88 64.48 64.45 63.43 63.11
54.66 57.27 57.41 57.64 58.33 56.21 53.99 55.62 56.08 56.22 56.42 58.38 57.74 57.90 58.79 59.04 58.96 59.15 59.52 61.89 61.11 63.03 64.49 66.44 67.32 67.24 68.37 67.10 65.30 65.31 65.20 65.48 63.83 64.54 64.53 63.49 63.14 63.10 64.00 63.72 63.83 64.17 64.66 63.93 64.59 64.00 64.30 63.56 63.38
56.16 56.94 57.65 58.20 57.37 56.44 55.84 54.97 56.17 55.83 58.09 58.71 57.97 57.78 57.82 59.36 60.14 62.00 63.09 64.40 62.95 63.68 64.21 67.08 66.95 68.47 68.92 68.04 66.66 66.90 66.06 64.07 65.36 64.35 63.96 63.78 62.55 63.19 63.67 64.08 63.51 63.65 63.58 63.55 63.70 64.28 63.76 62.42 63.71
57.61 57.44 56.83 57.24 56.66 56.56 54.59 55.33 56.16 56.87 58.50 57.38 57.07 57.04 57.68 58.39 59.73 61.84 62.68 63.27 63.68 64.43 65.63 66.59 67.30 68.76 68.41 67.87 67.38 66.67 66.45 65.41 65.06 64.86 62.55 64.62 63.68 63.12 63.60 62.90 63.53 63.53 63.65 63.97 64.03 63.97 63.88 63.96 65.05
56.94 53.95 55.02 55.63 55.87 54.85 56.53 53.32 53.82 57.19 58.23 57.25 57.32 58.01 58.56 59.11 59.06 60.30 62.33 63.62 64.69 64.40 66.59 66.66 66.78 66.95 67.74 67.24 67.47 67.21 66.60 66.56 65.43 65.24 63.63 63.40 64.81 63.91 64.11 63.38 63.51 62.92 63.51 63.36 63.95 63.89 64.37 64.41 65.84
53.13 53.51 49.28 54.24 55.70 55.93 55.32 49.72 55.16 57.61 57.84 57.48 57.41 57.62 58.30 59.66 60.25 62.07 63.10 64.23 65.62 65.53 66.32 66.87 65.00 66.63 67.96 68.29 67.72 66.61 67.14 67.76 66.75 66.61 65.08 62.20 63.78 64.77 64.44 63.47 63.40 63.90 63.69 63.47 63.25 63.52 64.45 63.82 64.15
51.72 47.65 48.90 51.26 55.58 54.98 54.23 51.36 55.38 57.64 57.70 57.96 58.11 58.44 58.38 59.50 61.44 63.50 62.91 63.98 65.05 65.57 66.57 66.53 67.35 66.14 67.76 67.62 66.29 66.11 67.73 67.52 68.16 67.15 63.80 62.72 62.83 64.91 64.90 63.73 64.26 64.28 63.38 63.09 63.27 62.74 62.73 63.72 63.98
47.19 47.92 49.34 49.76 53.70 54.34 53.05 52.71 55.41 57.17 56.75 58.09 58.63 58.69 59.04 59.33 60.38 62.31 63.13 63.97 64.75 65.67 67.03 67.37 66.81 67.94 68.38 66.48 64.84 64.77 67.86 68.61 67.94 65.92 63.52 62.79 62.26 64.35 65.16 63.94 63.60 65.08 63.27 62.58 63.05 62.78 64.39 63.52 63.92
50.66 49.62 49.52 52.84 54.87 53.33 53.10 54.18 55.24 56.77 56.71 57.16 58.40 59.32 60.08 60.20 61.71 62.46 62.73 63.98 63.85 65.30 66.03 67.07 67.07 68.35 67.37 65.07 65.22 65.89 65.81 67.06 66.32 66.39 65.20 63.94 63.46 63.21 65.07 64.18 63.51 64.52 63.38 62.86 62.70 63.29 63.12 63.21 62.98
49.81 49.19 49.41 52.23 54.07 53.18 52.43 52.53 55.03 56.03 56.82 57.22 56.99 57.89 59.55 60.42 60.27 61.22 62.21 63.34 63.48 64.15 65.59 66.84 67.04 67.99 67.31 66.56 67.66 67.21 67.14 66.55 66.70 66.96 65.75 65.23 64.16 64.38 64.82 64.17 63.68 63.75 63.54 63.51 62.90 64.02 62.68 61.28 63.06
49.97 49.21 49.68 49.92 52.61 53.74 52.43 51.11 53.26 55.42 56.93 57.20 58.17 59.25 59.90 60.40 59.61 60.54 61.24 62.34 62.72 63.56 65.07 65.94 66.98 67.40 68.09 68.52 67.38 67.48 66.78 65.70 66.19 66.21 65.10 64.04 64.87 64.99 65.12 64.83 63.95 63.77 64.70 63.42 63.29 62.87 62.15 61.34 62.75
47.83 52.07 51.68 51.13 49.60 45.56 52.33 44.51 51.93 53.56 54.44 55.47 55.70 57.90 58.53 60.47 60.97 60.88 61.13 61.81 62.54 62.68 64.63 66.19 66.91 67.34 67.44 67.89 66.87 66.00 64.41 63.07 64.89 65.45 65.61 63.83 65.19 64.62 64.44 64.65 64.41 64.36 64.55 63.24 62.96 63.55 62.36 61.76 60.70
49.97 53.04 52.12 51.68 49.72 48.87 48.41 45.86 48.81 53.43 52.24 53.59 54.56 56.36 58.78 60.64 60.86 60.40 61.04 62.06 62.21 63.40 64.39 65.87 66.79 67.30 68.27 68.60 67.67 66.05 65.66 65.16 65.67 64.41 64.46 64.35 62.65 64.76 64.81 64.54 64.81 64.14 64.24 64.02 63.67 63.29 63.44 63.63 62.61
53.37 51.90 51.82 51.24 49.01 43.73 47.53 46.57 46.67 49.81 51.14 52.46 53.92 55.49 58.98 60.05 60.73 61.11 62.11 62.52 61.95 62.61 63.63 65.79 66.72 66.59 68.03 68.60 67.23 67.18 64.71 64.46 64.33 63.13 63.69 64.18 64.47 63.46 64.86 64.46 65.32 65.15 64.53 65.50 66.31 64.87 64.06 64.75 64.14
51.99 50.43 43.41 41.81 41.55 41.08 48.47 46.30 48.69 53.44 53.64 52.97 53.33 57.31 59.82 60.51 60.30 60.47 60.60 60.57 61.16 61.20 63.10 64.38 65.63 64.97 66.24 66.79 66.37 66.37 65.44 63.89 64.39 63.67 62.38 63.32 63.18 63.39 63.88 64.66 65.17 65.94 64.94 66.15 66.68 65.59 64.11 64.62 64.77
50.75 50.60 44.16 37.73 39.23 42.30 49.88 44.91 48.62 53.52 54.63 54.67 55.22 58.35 60.41 59.99 60.37 60.47 60.71 60.80 60.55 61.24 62.21 63.27 64.40 63.93 65.31 65.52 66.38 66.97 65.25 64.14 64.72 63.58 62.79 63.17 64.00 64.19 64.92 65.19 65.56 65.91 65.61 65.24 65.35 64.74 65.07 64.83 64.37
50.57 47.41 51.15 46.11 46.87 43.41 46.11 49.92 53.31 54.47 53.02 54.05 55.18 58.84 60.01 60.19 60.12 60.53 61.05 61.12 61.09 61.47 62.60 64.21 64.75 64.59 65.24 65.13 66.49 66.70 65.58 65.54 65.48 65.56 64.54 62.15 64.90 64.88 64.87 65.27 65.47 65.61 65.47 64.57 64.55 64.37 64.35 65.19 64.08
52.66 52.79 45.95 46.32 39.32 38.54 43.76 45.85 46.88 50.57 52.08 55.35 57.12 58.59 60.30 60.46 60.00 60.47 60.64 61.39 61.73 61.99 63.12 64.98 65.52 64.22 64.77 65.54 66.10 65.74 64.23 66.29 65.95 66.60 65.43 62.84 64.48 65.20 64.17 64.55 64.64 65.07 65.25 65.10 65.39 64.95 64.90 64.37 62.84
50.05 48.96 49.59 49.50 46.75 41.63 40.42 44.45 54.66 53.72 56.93 57.34 57.07 59.55 59.98 59.39 59.11 60.06 60.36 61.65 61.19 61.40 61.81 63.81 64.18 63.25 63.98 64.67 65.18 66.37 66.10 66.27 65.28 64.75 64.70 61.87 63.46 64.50 64.17 63.83 64.84 64.63 64.75 64.24 65.30 64.37 64.06 63.18 62.78
52.71 50.37 51.03 45.56 44.73 46.69 45.71 45.49 56.06 57.00 56.65 59.10 58.08 59.34 59.27 59.48 59.76 59.81 60.39 61.30 59.54 60.18 61.47 62.49 64.16 62.12 62.94 63.83 64.03 65.42 66.18 65.78 65.38 64.67 65.04 62.64 63.32 64.69 64.80 64.86 64.55 64.46 65.21 65.61 64.13 63.60 63.16 62.58 61.79

GFSSGP_sfc_wetblb_009.txt.gz
Wetbulb
68.09 66.81 62.41 58.70 50.30 50.08 46.72 52.43 55.16 52.37 51.01 52.80 54.39 52.87 50.40 50.69 50.02 47.44 58.93 63.21 68.84 67.24 69.36 72.59 74.00 73.92 73.24 73.25 73.03 72.85 72.39 72.04 70.84 70.43 70.08 69.42 68.51 67.98 68.13 67.57 66.82 66.62 66.56 66.62 66.64 67.12 67.28 69.05 69.44
62.97 61.86 58.00 58.12 49.10 44.97 48.08 55.01 53.53 50.93 53.11 54.23 54.27 53.41 51.58 51.11 56.57 57.58 58.11 63.99 69.33 68.63 69.57 70.41 74.00 73.68 73.57 73.38 73.05 72.91 72.63 72.39 71.64 71.12 70.60 70.18 69.43 68.69 68.57 68.43 68.15 67.85 67.62 67.33 67.39 67.07 67.33 67.46 68.55
62.90 60.96 56.83 53.25 49.41 47.05 48.77 54.08 55.45 53.08 54.42 53.41 52.33 55.14 55.21 53.41 57.67 59.97 60.94 62.83 68.89 68.83 68.70 70.10 74.00 73.70 73.87 73.63 73.25 73.15 72.98 72.68 71.74 71.19 70.17 69.66 69.57 69.64 69.11 69.16 69.10 68.83 68.65 68.39 67.89 67.69 67.36 67.50 68.42
61.47 61.89 58.73 48.82 47.14 51.91 52.24 54.75 54.87 52.51 53.23 54.08 53.76 52.61 56.45 59.58 58.30 61.02 62.97 62.81 62.17 63.59 69.69 72.39 73.85 73.70 73.92 73.20 73.30 73.50 73.05 71.94 71.45 70.64 69.71 69.22 68.83 69.91 69.81 68.43 68.38 68.55 68.77 68.90 68.49 67.52 67.61 67.80 68.98
62.44 58.49 49.15 47.35 49.78 54.58 54.80 57.73 53.23 51.72 51.88 52.15 53.21 52.42 53.71 58.80 61.18 60.97 60.97 61.01 59.28 65.62 69.57 71.97 73.85 74.17 74.02 73.07 72.68 73.15 71.77 70.73 69.43 69.54 69.22 68.88 68.76 68.43 68.62 68.34 68.29 68.41 68.64 68.56 68.70 68.03 67.88 68.44 68.70
55.95 54.09 45.34 44.41 49.72 53.68 54.72 55.25 56.11 52.41 53.69 52.72 52.21 53.87 53.70 58.48 59.35 59.25 60.63 59.16 60.82 64.41 66.54 68.44 72.75 72.19 71.67 71.52 71.71 70.85 69.41 68.00 66.81 66.64 67.03 67.32 67.59 67.51 67.56 67.63 67.59 67.78 67.64 67.85 68.48 68.14 68.56 68.54 67.93
53.87 49.59 46.99 49.05 50.08 51.65 54.66 57.18 54.95 53.95 51.76 51.86 53.52 51.63 54.50 56.96 58.72 59.05 59.23 59.74 60.19 61.91 64.31 65.18 66.39 68.84 71.69 71.60 71.12 69.58 67.42 65.89 65.13 64.86 65.06 65.30 65.63 65.92 66.14 66.35 66.54 66.92 67.04 67.31 68.52 67.92 68.15 68.25 67.34
56.28 51.48 48.13 49.88 48.89 49.27 55.94 56.35 55.81 55.12 54.13 57.07 56.75 51.45 51.79 56.35 59.53 59.02 58.47 58.38 58.47 58.61 59.10 59.86 63.45 64.74 65.19 65.94 68.66 67.18 65.96 65.90 65.53 65.30 64.94 64.68 64.48 64.22 64.82 65.25 65.80 66.55 66.92 67.18 68.00 67.73 67.57 67.97 67.83
60.11 48.71 47.40 49.06 50.07 52.02 54.06 52.06 55.75 57.75 55.06 55.96 55.49 54.51 58.27 59.70 59.23 56.82 55.04 55.40 55.96 58.26 57.69 56.72 57.96 59.16 60.47 61.77 64.68 66.64 66.98 66.54 66.26 64.82 63.80 61.89 59.78 60.16 62.22 64.26 66.16 66.78 67.01 66.84 67.58 67.37 67.10 67.41 66.75
55.01 49.33 50.10 54.49 54.67 53.49 53.48 52.45 53.07 54.57 54.32 54.88 55.20 57.30 59.68 59.41 56.77 55.29 54.60 54.46 54.72 55.73 56.98 57.85 59.40 59.57 60.20 63.14 61.34 61.76 62.21 62.72 61.41 60.87 60.38 59.61 59.40 59.70 62.30 63.75 65.35 65.86 66.57 67.02 66.86 67.01 67.10 66.27 61.65
55.50 50.48 53.91 54.95 56.57 56.42 54.84 52.08 53.50 52.64 52.08 55.11 53.27 55.14 56.52 56.80 55.58 54.71 54.43 54.01 55.76 56.68 57.72 57.78 58.55 60.28 60.37 60.37 60.85 59.90 59.75 60.07 60.48 60.60 60.41 59.57 60.30 59.49 59.19 60.10 61.17 60.96 63.98 62.73 64.22 64.23 63.88 62.48 61.05
52.78 55.08 55.53 55.64 56.83 56.02 53.61 54.00 52.97 53.43 54.03 57.17 56.33 56.66 55.81 55.11 54.34 54.41 54.14 54.98 55.59 55.84 56.87 60.31 61.13 60.63 60.75 61.49 60.80 60.48 61.14 60.17 59.55 59.99 60.54 59.60 59.21 59.00 59.46 60.18 60.40 60.21 60.99 61.40 61.48 61.17 61.74 61.63 60.82
53.91 55.15 56.40 56.89 57.06 54.39 54.71 53.40 53.70 53.28 56.62 58.16 56.22 55.78 55.19 54.47 54.73 55.06 55.51 56.39 56.25 56.19 58.46 60.11 60.40 60.82 61.80 61.44 61.30 61.17 60.91 60.57 60.21 60.70 61.04 60.75 59.37 59.67 59.75 60.13 59.93 59.63 60.25 60.57 60.70 61.05 61.52 61.26 60.53
55.58 55.11 55.44 56.56 56.09 54.25 53.34 54.27 54.34 54.51 57.25 56.31 54.70 53.79 53.97 53.94 55.35 55.38 55.99 55.82 56.17 56.35 58.38 59.50 60.17 61.23 61.73 61.50 60.99 61.06 61.81 61.80 61.29 61.18 61.18 61.55 61.11 60.71 59.04 59.44 59.28 59.00 59.13 60.12 60.36 60.68 61.01 60.45 59.36
52.80 50.27 52.36 53.88 54.48 52.83 55.00 51.63 51.70 55.21 55.74 54.77 53.86 54.00 54.00 54.64 56.88 55.81 56.45 56.47 56.51 56.28 59.26 59.04 59.85 60.34 60.11 60.03 60.84 62.10 61.88 62.36 61.26 61.26 61.15 62.26 62.27 61.43 59.16 59.30 59.14 58.76 59.13 59.69 60.31 60.51 60.66 60.41 61.33
48.71 49.34 46.32 51.39 53.08 54.11 52.59 47.23 52.64 55.27 54.24 53.87 55.01 55.09 55.12 54.75 55.15 56.31 57.47 57.49 56.98 57.68 58.61 59.45 61.47 59.72 59.44 60.68 61.11 61.58 62.10 61.75 61.84 61.94 60.93 61.14 62.23 61.42 59.51 59.63 59.30 59.33 58.86 58.92 59.38 59.74 59.56 60.89 60.48
46.33 42.01 44.63 48.51 53.50 52.89 51.37 48.68 53.35 55.21 54.14 53.15 54.47 54.84 55.48 54.53 55.59 57.56 59.05 58.41 57.04 57.26 58.41 58.83 59.45 58.94 60.22 60.52 61.22 61.35 61.92 61.78 62.42 61.92 60.36 60.18 59.75 60.85 59.95 59.82 60.09 59.56 58.92 58.80 59.48 59.18 59.78 59.14 59.60
41.22 42.68 46.33 46.65 51.07 51.52 50.27 50.76 52.63 54.37 53.69 53.17 53.47 54.60 55.10 55.88 55.88 58.12 58.97 59.13 57.81 58.41 58.92 58.78 58.61 59.47 60.58 60.01 61.34 60.73 61.57 62.30 62.74 61.70 60.32 60.92 59.84 60.88 60.19 60.26 60.61 59.78 58.66 58.20 58.68 58.33 59.28 59.69 59.80
46.35 45.76 45.64 49.31 52.16 50.60 50.54 50.76 52.14 53.65 53.56 52.35 52.76 53.91 54.77 54.95 56.52 58.08 58.87 58.93 57.99 58.40 59.22 59.06 58.72 58.68 59.02 58.29 59.69 59.13 58.78 60.66 61.35 61.97 61.60 60.82 59.85 59.48 59.07 60.00 59.79 59.98 58.34 58.13 58.67 58.80 58.56 58.66 58.86
47.25 44.89 44.72 48.38 51.33 50.98 50.65 49.91 51.96 54.18 52.72 52.73 52.98 52.83 52.36 54.46 55.63 57.09 57.67 57.31 56.85 57.33 58.58 59.90 58.74 59.00 58.79 59.67 61.03 60.69 60.98 61.76 61.92 61.96 61.76 61.60 62.05 61.05 60.61 59.97 59.45 60.15 59.02 58.82 58.96 58.48 57.75 57.46 59.46
46.83 45.10 44.84 45.34 49.72 50.77 48.39 45.64 48.59 52.78 53.16 53.85 54.06 53.62 54.74 54.65 54.67 55.87 57.24 56.03 56.24 56.48 57.52 59.40 59.40 58.61 59.61 61.02 61.51 60.43 61.14 60.91 60.87 61.33 60.36 60.87 61.62 61.84 60.88 60.91 59.69 59.68 59.51 58.82 59.08 58.67 57.90 56.68 58.74
43.53 49.25 48.32 47.47 46.44 40.80 48.55 37.29 45.16 49.06 49.80 52.02 53.12 52.19 53.95 54.80 55.91 56.20 56.84 55.57 55.83 57.55 58.47 59.78 59.22 58.55 60.37 60.42 59.84 59.18 58.43 58.08 59.86 61.05 61.84 61.14 62.13 61.33 61.50 61.05 60.42 59.49 59.28 59.27 60.04 60.09 59.81 59.88 59.18
46.08 49.97 48.47 48.38 46.07 43.84 43.84 39.01 42.62 48.07 47.93 49.91 49.81 52.09 54.29 55.29 55.55 55.91 56.60 57.24 57.13 57.79 58.12 58.54 58.40 58.87 60.34 60.35 59.92 60.11 59.56 60.42 61.12 60.02 60.15 59.07 60.66 61.68 61.95 61.17 60.20 59.21 59.24 59.30 60.62 57.81 60.43 60.26 59.31
50.91 48.51 48.12 47.78 45.57 36.35 42.71 41.50 42.15 45.16 48.20 48.59 50.02 51.75 55.13 55.10 55.40 56.67 57.84 57.76 56.69 57.56 57.86 58.71 58.66 59.04 60.44 61.02 60.05 59.99 59.72 60.74 59.70 58.33 58.62 59.32 60.45 60.38 61.37 61.30 60.28 59.71 59.50 59.65 60.20 59.64 60.21 59.46 60.28
48.97 43.95 37.44 33.82 34.05 33.36 44.53 41.62 43.31 48.21 50.90 49.94 51.60 53.66 54.45 55.52 55.78 56.21 56.41 55.87 55.68 55.94 57.19 58.05 58.37 57.22 58.08 59.23 59.55 60.33 58.60 60.27 59.09 58.25 57.84 59.02 59.19 58.98 59.58 60.02 60.14 60.29 59.91 61.57 61.20 61.33 61.51 61.53 61.39
45.14 44.53 38.07 30.81 32.27 36.45 45.18 39.99 44.59 51.65 52.63 52.23 54.85 55.08 55.34 54.70 55.81 55.60 55.82 55.29 55.58 55.90 57.22 57.44 58.10 57.05 57.08 58.94 59.30 60.03 59.75 60.49 59.79 58.68 59.56 59.87 59.35 59.53 60.61 60.94 60.84 61.38 61.85 61.81 61.53 60.60 61.48 61.79 61.95
45.01 42.95 46.36 40.03 40.53 36.72 40.24 44.94 50.21 51.27 49.65 51.52 54.37 54.68 53.19 53.84 54.56 55.11 55.68 54.82 55.29 55.04 55.56 55.44 57.86 56.44 57.89 58.94 58.93 60.23 60.85 60.72 60.05 60.07 59.91 59.89 60.27 61.21 61.57 61.51 61.41 61.45 61.91 61.72 61.39 62.64 62.35 62.34 61.59
46.80 48.89 41.16 38.41 32.65 29.76 38.65 40.86 41.81 46.06 47.60 52.52 53.29 52.87 53.35 53.91 54.62 55.25 55.65 55.04 55.23 55.26 55.33 56.58 58.19 57.00 57.58 58.40 59.00 60.67 62.06 61.45 61.49 61.50 61.66 59.62 60.12 60.98 61.50 61.84 61.52 61.79 61.70 62.04 62.80 62.68 61.33 61.15 61.10
44.56 44.89 42.98 41.61 39.12 33.18 32.29 37.66 47.35 47.70 52.09 51.74 53.57 54.21 53.92 53.98 53.95 54.91 54.62 55.72 55.45 55.66 55.92 56.69 57.26 57.06 56.37 57.75 57.83 61.22 61.20 61.12 61.66 61.36 59.95 60.18 60.03 62.06 61.26 61.92 61.99 61.86 62.45 61.84 61.62 61.80 60.99 60.70 60.63
47.72 45.12 43.67 40.37 37.30 39.99 38.42 39.12 52.85 52.89 53.59 53.33 54.79 55.11 53.61 53.89 54.27 54.90 55.15 54.83 54.63 54.71 55.38 56.17 57.17 56.68 56.57 57.65 57.76 60.31 60.96 61.29 61.29 62.09 60.70 60.18 60.56 61.20 61.85 62.30 62.28 62.57 61.65 61.58 61.49 61.48 61.50 60.22 59.32

GFSSGP_sfc_wetblb_012.txt.gz
Wetbulb
67.44 66.65 61.40 57.96 50.43 47.99 45.14 49.07 52.82 50.46 49.48 51.56 52.10 50.92 49.06 49.40 49.11 44.53 57.70 65.69 65.98 65.18 69.18 72.41 73.91 73.74 73.31 72.94 72.67 72.30 72.13 71.33 70.12 69.78 69.64 69.54 69.01 68.29 68.10 67.88 67.43 66.77 66.72 66.69 66.67 66.75 66.74 66.79 68.17
64.04 62.59 56.70 55.68 47.52 43.76 46.06 52.30 51.40 50.38 52.03 52.25 52.44 50.16 50.04 50.43 56.57 56.82 59.15 66.48 65.99 66.23 68.86 70.82 73.99 73.61 73.49 73.27 73.12 72.99 72.35 71.56 70.51 70.41 70.31 70.32 69.99 69.10 68.57 68.53 68.40 68.04 67.87 67.79 67.43 67.42 67.29 67.15 66.98
61.01 59.63 52.55 51.84 47.78 44.42 46.61 53.26 54.54 54.70 53.03 51.93 50.56 53.58 53.42 52.58 58.58 57.88 59.19 67.33 65.79 66.06 68.48 70.11 73.94 73.54 73.71 73.41 73.31 73.06 72.30 71.88 71.06 71.13 70.83 70.74 69.91 69.72 69.36 69.01 68.99 68.92 69.04 68.49 68.09 68.05 67.87 67.48 67.26
58.56 60.00 56.88 48.36 45.82 49.63 52.48 55.31 56.30 52.30 51.89 52.04 52.55 52.18 55.03 58.18 59.57 60.43 64.19 68.15 66.02 66.72 68.25 70.62 73.94 73.64 73.94 73.29 72.84 72.65 71.98 71.68 71.83 71.38 70.81 69.99 69.45 69.94 70.15 69.50 69.33 68.97 68.74 68.71 68.92 68.50 68.11 67.85 67.88
60.61 56.18 48.97 45.80 47.72 51.53 54.44 55.96 52.96 50.31 51.42 50.51 51.37 52.14 52.75 58.27 61.15 60.98 62.65 66.38 64.18 66.01 67.23 70.79 73.88 73.88 74.01 73.51 72.84 72.72 72.69 72.79 71.46 70.72 70.39 69.57 69.76 69.90 69.08 68.50 68.45 68.62 68.49 68.69 68.89 68.72 68.72 68.81 68.46
54.31 52.19 43.26 42.33 46.61 52.22 52.46 54.82 55.51 53.18 52.68 51.37 52.27 51.96 52.08 57.47 59.20 58.89 58.48 60.98 65.79 67.50 69.22 71.03 73.41 73.61 73.41 73.83 73.51 73.28 72.50 71.18 70.23 69.40 68.86 68.64 68.28 68.23 67.98 68.02 67.97 67.76 67.85 68.21 68.36 68.51 68.99 69.12 68.51
51.85 48.66 44.57 46.53 48.71 49.98 52.86 55.87 53.60 53.99 53.21 50.95 54.16 50.54 53.46 55.34 57.58 58.32 57.56 61.33 63.91 66.61 67.68 68.58 70.34 72.04 73.83 72.94 72.02 71.89 70.70 69.70 68.86 67.29 65.95 65.67 65.57 65.93 66.27 66.49 66.84 66.70 67.05 67.31 67.58 68.17 68.83 68.77 68.71
54.23 50.03 45.30 46.72 47.00 47.82 53.59 52.74 52.70 53.97 54.10 55.12 55.46 51.42 50.14 55.45 57.54 57.00 57.25 57.80 61.17 62.93 63.89 64.06 63.86 65.21 66.47 67.92 70.92 70.23 69.42 67.91 66.42 65.88 65.86 65.45 65.50 65.48 65.19 64.97 65.40 65.98 66.35 66.58 67.21 67.51 68.64 67.99 68.35
56.64 46.51 44.81 46.35 47.66 50.48 54.68 50.20 54.06 55.51 53.53 53.94 54.23 54.61 57.19 58.15 56.76 55.59 54.61 54.78 54.85 58.30 57.53 59.48 60.16 62.95 63.31 63.64 65.68 68.64 67.58 66.96 66.54 66.01 66.13 64.83 59.41 58.99 61.09 63.09 64.96 65.96 66.82 66.95 66.86 67.20 67.43 67.57 67.65
52.42 46.41 49.73 53.74 52.57 52.20 54.35 52.11 52.36 51.67 51.96 53.16 54.15 57.17 58.25 57.69 56.10 55.03 53.90 53.82 53.01 53.31 53.97 56.02 57.88 58.62 59.02 62.54 61.15 62.78 62.41 61.97 62.64 61.74 59.74 58.97 58.41 58.35 61.52 63.23 64.78 65.43 65.93 66.63 66.87 67.09 67.26 67.04 62.15
52.77 50.02 54.11 54.58 55.59 55.59 54.36 54.41 55.84 51.74 49.47 51.75 52.30 55.30 56.26 55.61 54.40 54.41 54.03 53.73 52.34 53.94 56.45 56.79 57.37 58.27 58.70 59.09 59.53 59.29 58.87 59.11 60.03 59.85 59.42 59.12 59.42 58.53 58.63 58.25 59.68 59.62 62.84 61.92 63.88 64.14 64.15 63.14 61.26
49.86 54.61 55.46 55.51 56.63 55.26 53.63 55.72 54.31 52.79 52.77 54.72 55.58 57.06 55.78 55.04 54.23 53.65 53.22 53.50 53.84 54.71 55.55 56.43 58.43 58.87 58.76 59.89 59.50 59.12 59.39 59.04 59.03 59.26 59.66 58.51 58.04 57.83 58.07 58.56 59.45 59.23 59.91 60.31 60.74 61.18 61.24 61.73 61.28
52.04 54.14 55.81 56.45 55.91 55.48 55.98 54.32 53.74 53.51 55.59 55.96 55.52 55.89 55.64 55.38 54.75 53.93 53.08 54.44 53.56 54.89 57.86 58.62 59.17 59.79 60.27 60.09 59.66 59.65 59.74 59.91 59.44 59.09 59.65 59.46 58.30 57.85 59.96 60.22 59.31 58.49 58.81 59.28 59.52 59.82 60.53 60.60 60.73
53.37 54.18 54.81 55.72 55.07 55.48 53.73 54.12 53.39 54.80 56.45 55.12 53.55 53.92 54.35 54.33 54.15 52.73 53.47 53.78 53.96 57.09 58.08 58.21 59.07 60.03 60.48 59.63 59.55 59.89 59.61 60.70 60.50 59.99 60.20 60.80 59.40 59.02 60.03 58.37 58.17 57.85 57.91 58.71 59.34 59.54 59.48 59.63 59.70
49.86 48.81 52.27 53.46 52.73 51.81 53.07 50.52 51.11 54.48 54.80 53.54 52.08 52.61 53.56 54.26 54.18 54.28 55.46 55.12 55.66 57.03 58.12 57.80 59.19 59.64 59.63 59.35 58.84 59.15 60.27 61.27 60.30 60.34 60.59 60.55 59.88 59.83 60.68 57.67 57.67 58.07 57.91 58.02 58.67 58.93 59.33 59.03 59.70
45.62 44.06 40.93 48.22 50.85 52.24 50.43 46.13 51.85 53.89 53.14 52.52 53.37 52.17 52.67 52.36 54.68 54.94 55.83 55.60 54.46 57.03 56.93 58.19 61.20 58.75 58.28 57.95 59.65 59.82 60.81 60.37 60.30 60.38 60.48 60.88 60.68 59.92 58.35 57.51 57.95 58.69 57.81 57.61 57.93 58.12 57.95 58.44 58.47
42.09 39.47 41.36 44.64 49.85 50.75 49.46 47.40 52.34 54.63 53.89 52.85 52.48 52.68 53.32 52.58 53.21 54.31 56.25 56.00 55.41 57.00 56.95 57.23 57.50 57.09 58.27 58.83 58.66 59.44 60.25 60.38 61.06 60.98 60.48 60.00 59.82 59.56 57.73 58.09 58.44 58.79 57.51 57.01 57.47 57.41 58.57 57.83 57.61
38.54 38.81 42.32 43.38 48.07 49.18 47.91 47.75 51.29 53.43 52.94 52.58 51.88 52.74 53.27 52.57 52.94 55.00 55.95 55.74 56.02 56.83 57.22 57.37 57.18 58.28 58.86 57.88 58.53 59.44 59.16 60.75 61.66 61.75 60.66 60.54 59.79 59.79 58.31 58.41 58.69 58.43 56.85 56.41 57.01 56.77 59.44 58.29 57.57
44.31 42.63 41.89 45.93 49.35 48.01 47.07 48.42 50.68 53.01 51.34 50.24 50.88 51.39 52.22 52.36 54.51 56.14 56.66 56.18 56.59 56.90 56.78 56.67 56.86 57.24 57.60 56.40 58.09 57.68 58.22 58.95 60.03 61.30 61.53 61.53 59.38 59.18 56.98 58.41 58.59 58.27 56.95 56.67 57.21 56.95 57.93 56.97 57.51
43.07 42.29 42.51 46.18 48.61 46.31 46.58 47.06 50.81 51.77 51.10 51.41 51.48 51.36 51.22 51.87 54.52 55.84 55.42 55.30 56.10 56.52 56.96 57.29 57.34 57.07 57.13 57.54 59.36 59.20 59.14 59.87 60.07 60.79 61.94 61.76 60.73 61.02 58.60 58.47 58.33 57.95 57.31 56.77 57.05 57.45 56.21 56.45 57.39
42.98 41.76 43.33 43.84 47.17 47.69 45.69 44.70 47.77 51.26 51.53 52.34 52.48 51.85 52.71 53.08 53.31 54.89 54.93 54.21 54.89 55.74 56.93 57.93 57.18 57.32 57.46 59.42 59.49 58.91 58.90 59.60 59.84 59.62 60.72 61.00 61.91 61.37 60.11 59.75 58.61 57.97 57.73 57.11 56.73 57.29 56.89 55.69 56.83
41.01 46.76 45.91 46.24 43.90 38.06 45.92 35.87 42.39 47.13 48.27 49.63 50.62 49.89 51.43 53.02 54.51 55.03 54.22 53.18 53.82 54.53 57.20 57.40 57.23 57.21 58.85 58.85 57.87 57.09 57.19 56.69 58.19 58.67 60.48 59.71 61.73 61.33 60.83 60.00 58.82 58.38 58.21 57.37 57.55 58.43 57.03 57.51 56.69
43.80 47.86 46.41 46.20 43.78 39.53 42.61 37.54 41.70 45.52 46.30 48.39 49.63 50.60 51.34 53.00 53.77 54.27 54.06 54.68 54.78 56.33 56.17 57.45 56.72 59.03 59.39 58.85 58.32 58.26 56.70 58.85 58.80 58.29 57.70 59.23 60.00 61.05 61.22 59.57 58.76 57.86 58.03 58.51 58.71 57.55 58.09 58.11 58.44
47.87 45.99 45.09 44.04 41.82 34.84 41.62 40.00 42.12 42.79 46.73 48.20 48.60 51.30 51.63 52.01 52.83 54.09 54.85 54.70 54.97 55.00 56.28 56.32 56.22 57.47 58.69 59.15 58.62 57.98 55.71 57.49 57.19 56.99 56.95 57.77 59.90 59.37 59.88 59.97 58.55 58.15 58.20 58.73 56.71 57.83 57.92 57.35 59.79
45.47 40.15 33.53 30.30 33.30 34.15 42.67 39.80 42.35 46.15 48.66 49.74 49.15 50.88 51.79 53.01 53.63 54.34 53.99 53.52 54.10 54.99 55.50 56.49 56.19 56.85 57.40 57.87 58.78 57.36 56.47 57.76 56.44 56.15 56.51 57.03 57.23 57.21 57.59 58.21 58.65 58.05 58.71 58.87 58.60 58.08 59.43 57.74 60.61
41.10 41.12 34.88 28.91 30.22 34.26 42.60 37.60 43.24 48.77 50.53 50.91 52.72 52.86 53.49 52.60 53.98 54.20 54.33 53.62 54.50 54.96 55.54 57.25 55.39 55.31 56.32 57.43 58.37 57.71 57.56 58.59 57.67 57.98 58.21 57.72 57.84 57.65 58.26 58.90 59.25 59.20 60.22 59.93 59.36 59.05 59.62 59.65 59.68
40.85 38.03 43.84 37.26 37.78 34.49 37.84 42.35 47.54 48.63 49.46 51.46 51.44 52.37 51.61 52.30 53.10 53.99 53.85 53.20 52.86 54.45 55.34 56.22 55.68 54.72 56.92 57.39 58.76 58.20 58.48 58.81 58.63 60.16 58.96 58.14 58.61 59.85 59.40 59.48 59.07 60.07 60.42 59.78 59.78 60.31 60.85 60.45 60.27
43.07 45.26 38.36 35.26 31.87 29.04 35.92 38.33 39.64 44.10 47.03 50.26 50.40 50.14 50.59 52.00 52.97 53.97 53.79 53.06 52.57 54.90 53.96 54.92 56.12 55.16 56.44 57.08 57.23 59.35 59.39 59.95 59.31 59.47 57.65 58.60 58.62 59.66 60.01 59.95 59.47 59.67 59.87 60.66 61.36 61.29 60.43 60.96 61.29
40.13 40.17 40.49 40.54 37.66 32.56 30.42 35.65 44.39 45.75 48.13 49.69 50.43 51.23 51.56 52.23 53.24 53.85 53.18 53.58 52.66 53.37 52.51 55.47 55.41 55.74 55.10 57.03 57.36 60.34 59.55 60.25 59.79 58.28 58.46 58.71 58.68 59.46 60.34 60.34 60.47 60.41 60.59 60.76 60.44 59.20 60.14 60.48 60.58
43.61 40.07 42.06 38.92 34.88 36.74 35.95 36.45 47.45 47.41 51.53 52.21 51.03 52.58 52.42 53.22 53.39 53.55 53.19 52.67 52.35 52.49 53.28 55.29 54.91 55.27 55.14 56.08 57.64 59.00 59.80 59.95 59.86 58.85 58.44 59.13 59.10 60.21 60.61 61.06 60.87 61.05 60.33 60.23 60.35 60.25 60.20 59.80 59.51

GFSSGP_sfc_wetblb_015.txt.gz
Wetbulb
68.00 66.17 60.07 56.82 49.50 47.29 44.44 47.85 50.97 52.13 49.22 50.45 51.22 49.73 48.95 49.20 48.11 44.11 56.73 64.87 64.50 63.42 67.10 72.25 73.89 73.44 72.85 72.56 72.26 71.72 71.23 70.61 69.46 68.74 68.06 68.24 68.36 68.06 67.74 67.66 67.28 67.04 66.66 66.74 66.99 66.81 66.49 66.19 66.42
65.20 62.08 57.17 55.13 46.87 42.71 44.89 51.14 51.86 51.65 51.50 50.14 50.38 49.35 49.28 49.12 55.50 56.90 60.96 64.68 65.00 65.36 68.08 70.86 73.79 73.41 73.26 72.99 72.60 72.08 71.43 70.61 69.78 69.36 69.37 69.36 69.51 69.16 68.57 68.27 68.26 68.35 68.24 67.98 68.00 67.69 67.58 66.89 66.70
61.70 58.43 52.07 51.29 46.08 43.39 45.19 51.23 52.65 54.85 54.69 50.71 49.22 52.72 52.03 52.04 57.83 57.97 59.97 65.24 64.16 65.39 68.32 69.81 73.59 73.46 73.46 73.09 72.94 72.42 71.68 71.21 70.44 70.19 70.36 70.11 70.40 69.65 69.46 68.94 68.66 68.87 69.01 68.39 67.94 68.13 67.92 67.94 67.40
58.22 58.88 55.50 48.25 45.69 48.49 50.34 53.77 54.43 55.04 51.11 50.90 51.45 50.83 53.70 57.40 57.56 58.48 64.09 65.10 64.08 64.36 66.93 69.89 73.64 73.56 73.59 73.36 73.04 72.79 71.93 71.38 70.96 70.91 70.91 70.45 70.09 69.37 69.51 69.33 69.30 68.99 68.81 68.72 68.71 68.42 68.98 68.40 68.13
59.96 55.29 49.58 45.68 47.23 49.77 52.62 54.62 52.48 50.58 50.91 49.86 51.78 50.93 51.13 56.30 60.03 60.66 65.90 65.09 63.10 63.38 65.83 69.05 73.65 73.83 73.93 73.49 72.97 72.59 72.40 72.12 71.51 71.51 70.94 70.42 69.68 69.41 69.03 68.80 68.72 68.72 68.54 68.46 68.42 68.64 69.08 68.85 68.50
53.53 51.53 43.22 42.02 45.94 49.99 52.05 53.45 52.10 52.32 52.50 50.97 51.30 51.09 50.97 56.10 58.32 60.60 65.59 64.42 64.43 64.70 65.31 68.11 73.19 73.68 73.60 73.56 73.39 73.01 72.83 72.60 72.27 71.73 70.50 69.84 69.22 68.64 68.67 68.54 68.53 67.99 67.83 68.05 68.10 68.70 68.74 69.00 68.76
51.96 47.66 44.24 44.63 47.95 48.59 51.38 52.83 50.34 51.06 51.30 50.22 52.47 49.68 51.50 54.70 57.65 57.82 60.06 62.55 63.78 65.50 66.97 69.32 71.09 72.32 73.78 73.26 73.05 73.14 73.17 72.50 71.47 70.44 69.60 68.25 66.86 66.26 66.46 66.63 66.96 67.22 67.51 67.23 67.46 67.98 68.66 68.88 68.20
53.26 49.33 44.39 45.79 45.63 46.96 52.10 51.84 50.52 51.33 52.12 53.91 55.86 50.70 49.82 54.18 56.66 55.93 59.23 61.39 62.88 65.73 67.20 67.92 67.43 68.62 68.39 69.56 73.44 72.89 71.73 70.66 69.85 68.81 66.82 66.00 66.05 66.03 66.01 65.76 65.43 65.55 66.44 66.80 67.21 67.02 68.25 68.50 68.06
54.47 45.21 43.35 45.82 46.84 48.73 51.66 49.83 54.79 54.55 52.24 52.69 53.41 54.24 55.90 57.04 55.79 55.15 54.41 55.76 57.40 61.34 60.84 62.26 63.02 64.21 65.13 65.71 67.51 70.61 69.96 69.20 67.86 66.17 66.48 65.92 61.76 60.16 61.38 62.75 63.89 64.90 65.91 66.75 66.70 66.70 67.70 67.50 67.19
50.99 45.15 46.90 52.12 51.67 50.29 51.72 52.24 53.97 52.23 53.02 51.22 53.79 55.72 56.95 56.34 55.30 54.84 53.99 54.51 54.02 56.47 55.59 59.28 59.87 61.82 62.03 63.45 61.64 62.92 62.56 61.93 61.62 62.56 61.29 60.09 58.70 57.68 59.97 61.97 64.11 64.75 65.50 66.22 66.46 66.80 67.01 66.82 63.29
50.77 48.17 52.16 52.61 54.75 53.73 52.93 53.47 55.94 52.75 51.35 51.78 51.74 53.35 54.77 54.20 54.09 54.85 54.97 55.62 55.52 56.18 54.31 55.91 57.29 58.19 58.03 58.97 58.71 59.52 60.07 59.16 59.25 60.87 59.84 58.52 58.76 58.02 58.42 57.86 58.13 58.48 61.89 60.76 62.41 62.75 63.10 63.33 61.45
48.12 52.71 54.09 54.36 55.86 53.23 52.86 54.90 53.77 54.45 54.29 56.76 54.55 55.32 54.57 53.82 53.64 54.48 54.65 53.69 51.76 53.02 54.41 56.22 56.60 56.77 57.31 58.16 58.64 58.31 58.56 58.16 58.56 59.22 58.81 57.82 57.34 57.16 57.06 57.12 57.80 58.38 58.70 58.80 59.34 60.41 61.47 61.76 61.39
49.35 51.82 53.71 55.00 54.75 54.74 55.27 53.46 53.81 54.12 56.83 57.65 55.59 55.47 54.72 54.45 54.14 55.15 55.36 54.11 51.89 52.80 55.04 55.74 56.94 57.27 58.31 58.64 58.30 58.10 58.48 58.98 58.52 58.45 58.66 58.38 57.40 57.02 57.44 58.24 59.64 59.82 57.90 57.60 58.28 59.08 60.05 60.50 60.82
50.79 51.50 52.28 54.03 54.40 54.84 53.34 53.66 54.11 55.01 56.19 55.40 53.18 53.60 54.63 54.52 54.34 53.14 51.25 52.07 52.00 53.96 55.06 56.81 57.75 58.67 59.21 58.44 58.10 58.59 58.70 58.87 59.00 58.92 59.34 59.69 58.46 57.80 57.80 59.47 59.34 57.16 56.86 57.00 58.06 58.62 58.85 59.31 59.24
47.29 44.56 47.20 49.20 51.47 51.65 53.85 49.24 50.28 54.21 53.92 52.83 52.11 52.48 53.81 54.77 55.17 53.33 54.20 52.97 53.74 55.91 57.41 57.75 57.93 59.16 59.03 58.22 58.31 58.11 58.26 59.43 59.34 59.74 59.81 60.07 59.12 58.14 58.40 59.12 58.46 56.76 57.12 57.14 57.26 57.80 58.40 58.28 58.58
43.37 42.34 39.61 46.82 49.87 51.16 48.58 43.72 50.36 53.25 52.18 52.30 52.81 51.61 52.57 53.54 54.24 55.00 53.44 53.40 54.17 56.66 57.04 57.17 60.78 58.79 58.10 57.24 57.39 58.49 59.14 59.30 59.36 59.36 59.72 60.43 60.31 59.23 58.12 57.38 56.66 57.38 57.40 56.64 56.44 56.72 56.76 57.04 57.14
39.42 37.61 39.13 42.82 48.00 47.75 46.83 44.96 50.11 52.56 51.52 50.97 52.27 52.34 51.50 52.25 51.53 52.34 53.69 53.17 54.91 56.96 56.38 56.86 58.16 57.51 57.06 57.16 57.46 57.52 58.66 58.94 59.34 59.99 59.91 60.35 60.62 60.27 57.76 57.04 56.94 57.84 57.08 55.98 56.24 55.98 56.58 56.12 56.28
36.52 36.24 40.39 40.64 45.17 46.05 45.19 45.09 49.64 52.00 51.53 51.27 52.41 52.59 51.56 51.65 51.25 52.52 53.46 53.83 56.22 56.11 56.40 56.37 56.35 56.06 57.25 57.00 56.63 57.83 57.85 58.71 60.12 60.11 60.29 61.14 60.29 59.53 56.96 56.30 57.58 57.84 56.42 55.47 55.43 55.36 56.90 56.76 56.26
42.80 40.95 40.11 43.76 46.81 45.38 44.14 45.01 47.94 50.70 49.34 49.59 50.20 50.46 50.95 50.61 51.65 53.44 53.87 55.89 56.55 55.82 55.87 55.71 56.02 56.45 56.47 55.16 56.59 56.74 57.11 57.69 58.64 59.58 60.91 61.64 60.79 59.49 57.54 56.40 57.80 57.54 55.85 55.64 55.62 55.48 56.36 55.59 56.40
42.70 40.04 39.88 43.68 46.60 44.79 44.03 43.89 47.54 48.89 49.16 50.22 51.42 51.75 49.13 50.98 52.10 53.37 53.79 56.11 56.17 55.54 55.70 55.41 55.90 56.55 56.01 56.08 57.79 57.76 57.38 59.22 59.36 59.20 60.98 62.26 61.29 59.65 57.82 56.98 57.84 57.06 56.02 55.60 55.70 55.78 56.40 55.30 56.44
41.85 39.85 40.30 40.82 44.98 45.70 43.83 42.44 45.20 48.85 49.46 51.10 51.11 50.72 50.88 51.64 51.53 52.74 53.67 55.18 55.11 55.37 55.46 56.20 55.92 56.50 56.11 58.03 57.65 57.32 57.73 58.56 57.76 58.04 59.10 59.59 61.45 61.02 59.84 58.75 57.88 56.86 56.28 55.09 55.28 55.94 56.16 54.37 56.58
37.72 43.93 43.65 42.72 40.12 35.96 43.32 33.52 41.17 45.29 47.16 48.23 49.33 48.64 49.88 50.96 52.42 53.31 54.01 52.88 54.69 55.20 56.39 56.45 56.57 55.86 57.40 57.85 56.89 56.02 55.90 54.98 56.50 57.18 58.56 58.98 61.15 60.76 60.20 59.63 58.26 57.32 56.66 55.56 55.98 56.98 56.10 55.98 55.33
41.15 45.84 44.41 43.56 40.05 37.44 40.74 35.85 39.66 43.55 44.80 46.80 48.57 48.50 48.85 50.67 52.26 53.03 52.62 53.83 54.03 55.01 56.08 56.21 55.94 56.06 57.26 57.29 57.39 56.65 55.09 56.42 57.02 56.94 56.52 56.74 59.39 60.38 60.26 58.37 57.61 57.30 56.78 56.10 56.70 56.40 56.40 56.52 56.56
45.82 42.38 41.67 41.32 37.70 32.96 39.36 37.17 37.40 41.03 44.73 46.66 47.68 49.49 49.80 50.07 51.36 51.57 52.89 53.07 53.67 54.43 55.86 55.20 56.34 56.87 57.25 57.57 57.62 56.04 55.60 55.52 55.78 55.42 55.84 56.40 58.64 58.00 58.37 58.76 57.25 57.25 56.80 57.44 56.98 56.92 56.64 56.62 58.38
41.83 36.49 29.18 27.65 29.23 30.77 39.97 37.10 40.99 44.87 47.14 48.34 48.54 49.39 49.67 50.72 51.43 51.90 52.46 52.03 52.72 54.13 54.92 54.64 54.98 55.84 56.99 57.44 57.59 55.61 56.21 56.04 54.16 56.69 56.38 55.74 56.54 56.34 56.40 57.03 57.19 57.05 57.01 57.58 56.28 57.30 56.52 57.74 58.72
40.01 39.08 31.51 26.14 27.40 32.13 40.43 35.67 41.24 47.56 49.29 49.58 49.79 49.89 50.84 51.18 51.87 51.97 52.20 52.76 53.36 54.36 54.67 55.27 54.66 54.75 55.88 56.77 57.41 56.07 56.66 56.70 56.00 57.17 56.60 56.46 56.36 56.20 56.72 57.69 58.06 57.81 58.88 58.31 57.18 57.36 56.58 58.52 58.54
39.36 36.99 42.26 34.73 35.12 32.22 35.57 40.54 44.81 47.39 48.30 49.39 49.23 49.98 49.70 51.10 51.54 51.94 52.22 52.40 53.03 53.56 54.14 55.48 53.96 54.09 55.91 56.70 57.16 57.16 56.87 56.71 57.96 56.93 56.92 56.92 56.90 58.00 57.71 58.15 57.98 58.82 58.99 58.39 57.74 58.55 58.91 58.97 58.53
39.77 41.72 34.07 33.03 27.30 27.49 34.10 36.32 38.85 43.16 46.12 48.40 48.46 48.20 49.63 50.35 51.29 52.25 52.03 52.12 53.14 53.85 54.09 54.88 54.30 53.84 56.02 56.33 57.01 58.12 57.77 58.49 58.09 57.78 57.00 57.30 57.82 58.42 58.18 57.98 58.01 58.56 58.52 59.05 60.65 60.41 60.89 60.62 60.62
37.27 37.38 35.90 37.18 34.94 29.16 28.33 34.43 42.69 44.35 47.01 47.80 48.38 49.22 49.68 50.67 51.97 52.44 52.29 52.03 53.16 52.98 52.82 53.76 54.12 54.50 54.89 55.80 56.08 58.39 58.22 58.80 57.87 57.38 57.48 57.69 57.82 58.66 58.68 58.72 58.52 58.52 59.03 59.17 59.60 59.35 60.37 60.21 60.53
42.55 39.66 38.75 34.77 32.37 35.77 34.01 36.69 45.39 45.26 47.83 49.63 48.92 50.21 49.77 51.37 52.26 52.36 52.28 50.90 51.18 51.84 51.26 53.70 53.80 54.49 54.29 56.02 57.08 58.34 58.52 58.52 57.15 57.32 57.74 57.95 58.31 58.80 59.28 59.68 59.62 59.39 58.91 58.34 59.17 59.60 60.01 59.94 59.81

GFSSGP_sfc_wetblb_018.txt.gz
Wetbulb
67.61 64.90 58.84 56.07 48.88 46.76 43.49 46.93 49.43 50.53 50.23 49.33 50.93 49.15 47.93 49.58 50.26 44.45 56.62 62.99 61.78 62.53 65.83 72.02 73.98 73.33 72.67 72.55 72.19 71.74 71.15 70.75 69.46 68.55 68.14 67.95 67.83 67.74 67.73 67.50 67.17 67.04 66.93 66.96 66.97 67.00 66.61 66.23 65.81
65.03 61.71 57.06 54.69 47.07 42.28 43.87 49.57 50.48 52.37 52.44 49.21 48.59 48.22 47.87 48.64 54.57 57.30 59.86 64.12 62.09 63.05 66.30 70.70 73.91 73.48 73.08 72.93 72.47 71.90 71.68 70.55 69.97 69.12 68.18 68.06 68.29 68.39 68.53 68.13 67.84 68.31 68.30 68.17 68.08 68.13 67.89 67.67 66.87
61.10 57.91 53.52 51.68 46.50 43.38 43.99 50.36 51.54 54.65 55.41 51.50 48.30 51.14 51.12 51.22 56.49 58.46 61.50 64.38 63.57 63.60 66.79 69.89 73.86 73.56 73.36 73.16 72.74 72.37 71.97 71.43 69.93 69.40 69.07 69.21 69.51 69.67 69.67 68.87 68.75 68.59 68.57 68.30 68.23 68.19 68.56 68.20 68.19
57.85 58.20 55.58 47.82 45.10 48.69 48.90 52.35 52.92 52.24 53.74 50.13 50.37 49.60 53.03 56.00 56.94 59.42 61.57 64.31 63.86 64.51 66.87 70.44 73.83 73.68 73.41 73.46 73.13 72.76 71.75 71.45 70.48 70.35 70.17 70.07 70.13 69.82 69.77 69.57 69.44 69.11 69.17 69.07 68.35 68.40 68.54 68.77 68.73
58.83 55.12 49.30 45.69 47.08 49.69 51.96 53.30 52.19 50.84 49.66 49.70 50.81 49.88 50.62 55.25 58.96 59.57 63.49 64.06 63.22 63.26 65.78 68.71 73.58 73.77 73.75 73.66 73.11 72.93 72.51 72.31 71.68 70.83 70.69 70.82 70.39 69.83 69.58 68.85 68.95 68.90 68.82 68.89 68.75 68.20 69.45 69.88 69.19
52.87 51.31 43.99 42.80 46.71 49.59 51.15 53.09 51.23 50.66 50.97 49.60 49.05 49.87 50.74 54.70 57.53 60.34 63.51 62.57 62.76 62.55 64.56 67.76 72.81 73.72 73.42 73.53 73.38 73.20 72.84 72.55 71.87 71.58 71.43 70.66 70.07 69.61 69.01 68.37 68.50 68.62 68.51 68.26 68.07 68.34 68.99 68.99 68.44
50.74 47.32 43.69 45.00 47.16 48.51 50.55 52.32 49.62 49.35 50.24 50.56 50.62 48.59 50.80 53.41 57.07 61.81 63.32 62.33 62.44 63.17 64.52 66.83 70.16 72.41 73.65 73.47 73.27 73.07 72.84 72.71 72.51 72.28 71.71 70.44 69.59 68.30 66.99 66.58 66.54 67.05 67.36 67.57 67.97 68.01 68.33 68.41 67.83
53.56 48.63 43.72 46.15 45.77 46.23 51.59 51.13 50.65 50.53 51.65 53.73 54.33 49.15 49.19 52.86 56.59 57.74 60.34 60.71 62.00 63.44 64.10 65.87 68.83 70.53 70.51 71.25 73.59 73.38 73.07 72.84 72.60 71.42 70.43 69.65 67.29 66.61 66.43 66.31 65.66 65.88 66.07 66.26 66.59 67.16 67.46 68.59 68.44
52.98 44.81 42.01 44.80 45.32 47.53 49.58 48.69 52.59 54.68 52.46 51.59 53.41 52.71 54.73 55.61 55.40 56.42 56.64 58.04 59.69 63.44 64.10 65.24 66.67 67.68 67.21 68.02 69.94 72.85 72.58 71.50 70.68 69.21 68.78 67.18 63.73 62.76 63.92 64.21 65.22 64.59 64.78 65.79 66.43 66.65 66.77 67.35 67.69
50.18 44.31 45.50 49.67 49.57 48.95 49.31 49.94 52.57 52.00 53.02 52.51 53.66 54.27 55.58 55.27 54.25 54.74 55.45 57.29 57.22 59.97 60.72 63.25 63.79 64.42 64.74 66.43 65.31 65.51 65.49 64.36 63.79 63.59 62.40 62.94 62.13 60.44 60.93 62.04 63.73 64.20 64.90 65.50 66.22 66.72 66.74 66.82 65.11
49.81 47.58 51.69 51.21 52.26 50.96 51.56 51.84 53.55 51.95 50.80 53.88 52.26 54.33 53.88 53.43 53.13 54.35 55.82 56.95 58.34 60.17 60.03 60.30 61.43 61.97 61.90 61.10 60.28 60.20 61.24 60.66 60.66 61.21 61.58 61.02 59.99 59.28 60.00 60.07 60.06 59.83 61.41 61.77 62.64 62.58 63.05 64.41 63.99
46.27 51.26 53.07 53.11 53.71 51.57 51.86 53.54 53.15 54.38 54.10 56.83 56.69 56.21 53.84 52.59 52.49 53.89 54.64 55.87 54.77 54.40 56.78 57.32 58.66 59.51 58.78 58.34 58.47 58.47 59.14 59.14 58.72 59.09 60.30 59.43 58.59 58.43 58.34 58.21 58.54 59.13 60.12 59.90 60.78 61.09 62.54 63.51 63.58
47.68 50.83 52.28 53.50 52.18 52.69 54.19 52.21 52.95 53.57 57.14 57.83 56.57 54.75 53.19 52.93 53.64 54.79 55.51 55.34 53.90 51.93 53.87 56.00 56.47 56.91 57.10 57.67 58.42 58.11 58.23 59.16 58.77 59.10 59.54 58.95 58.24 58.12 58.39 58.39 58.83 59.80 60.31 59.83 59.79 60.35 61.13 62.24 62.90
48.85 50.70 51.19 50.81 51.62 53.46 52.44 52.28 52.90 55.29 58.06 55.74 53.84 53.58 52.75 52.96 53.27 53.35 52.57 52.96 52.23 52.79 53.63 55.29 56.85 56.84 57.78 58.07 57.90 57.89 58.23 59.06 59.00 58.96 59.21 59.73 58.79 58.60 58.44 58.61 59.99 60.18 59.53 58.82 59.03 59.74 60.71 61.17 61.76
45.50 42.68 45.05 46.77 48.22 48.50 51.45 47.15 49.25 53.99 54.90 52.11 52.81 52.90 52.55 53.16 53.63 53.02 54.61 54.48 54.19 52.32 54.66 56.04 56.65 58.10 58.47 58.47 57.98 58.13 58.55 59.12 58.88 59.52 60.12 60.38 59.94 59.32 59.50 58.94 59.10 59.22 58.90 58.90 58.87 59.41 60.42 60.16 60.62
42.06 41.04 37.76 44.52 47.86 48.67 48.55 41.53 49.07 52.28 51.01 50.49 51.76 52.20 51.70 51.88 53.58 54.90 55.50 53.33 52.08 54.06 55.31 56.86 59.49 58.46 58.37 57.84 57.86 58.37 58.53 58.84 59.26 59.83 60.08 60.62 60.77 59.97 59.16 58.84 58.76 58.82 58.78 58.68 58.01 58.50 58.84 59.42 59.55
37.84 36.55 37.43 40.77 46.71 46.64 46.23 41.98 48.61 50.20 49.83 49.69 51.12 51.89 52.08 52.37 51.40 54.17 53.76 51.72 54.79 55.62 56.32 57.20 58.42 58.02 58.28 57.35 56.98 57.84 58.86 58.73 59.44 59.76 60.10 60.62 61.34 61.50 59.38 58.56 58.68 58.95 58.68 58.18 57.85 57.86 58.65 58.38 58.50
34.87 34.97 37.55 38.27 43.43 44.60 42.02 42.67 47.07 49.35 48.70 49.30 50.18 50.83 50.77 51.43 51.61 52.02 51.90 53.38 55.77 56.26 57.19 57.49 57.61 57.82 57.15 56.86 56.91 57.49 58.28 58.85 59.68 60.40 61.01 61.50 61.45 61.61 59.60 58.60 58.15 58.64 58.26 57.68 57.18 57.69 58.57 58.75 58.81
40.36 38.86 38.03 40.46 45.38 43.77 41.98 42.45 45.58 48.49 47.45 47.24 48.22 49.04 50.00 49.75 51.25 51.39 52.28 54.62 55.74 56.57 56.23 56.52 56.31 55.96 56.29 55.95 55.89 57.09 57.56 58.52 59.53 60.55 61.11 61.80 61.82 60.65 58.87 57.56 57.67 58.98 58.30 57.62 57.12 57.47 58.35 58.06 58.68
40.71 39.11 38.33 41.97 45.99 43.63 42.49 42.12 45.32 47.26 47.15 47.23 48.90 49.53 49.47 49.24 51.39 51.62 51.72 54.27 55.96 55.87 56.18 55.51 55.94 56.21 56.32 55.93 57.65 58.37 58.03 58.78 59.66 60.14 60.55 61.98 62.13 60.98 59.72 57.81 57.90 58.96 57.90 57.18 56.98 57.71 57.42 57.63 58.58
40.02 38.95 39.58 40.21 44.00 42.90 41.14 40.05 42.83 47.43 47.63 48.28 49.11 50.03 49.76 49.49 50.15 50.43 52.19 53.59 54.58 55.38 55.43 55.52 55.73 56.62 56.37 57.88 57.71 57.81 57.97 58.33 58.19 58.98 59.68 60.64 61.41 61.55 60.64 58.84 58.73 58.58 57.86 56.82 57.08 57.65 58.23 56.60 57.50
37.38 43.70 43.55 42.77 38.69 32.78 40.90 31.24 40.58 43.64 45.37 46.86 48.22 47.61 48.25 49.57 51.07 50.98 52.14 52.61 54.47 54.73 55.35 55.74 56.06 56.22 57.27 58.05 57.23 56.95 56.45 55.60 57.22 58.08 58.92 60.06 61.38 61.38 60.68 60.07 59.24 58.69 57.92 56.92 57.28 58.17 58.41 58.61 56.72
40.73 45.81 43.32 42.08 37.19 34.03 36.57 33.26 38.43 41.60 42.78 45.20 47.32 48.15 47.59 49.17 50.44 50.52 52.07 53.96 54.76 55.45 55.42 55.89 56.12 56.14 57.46 57.35 57.80 56.93 55.73 56.84 57.90 58.16 58.28 58.96 59.93 61.18 60.66 59.87 59.16 58.37 58.26 57.73 57.99 58.19 58.59 58.99 58.62
46.65 42.26 40.45 38.43 35.29 30.11 36.46 35.64 35.97 38.96 44.02 45.10 46.97 48.10 49.48 49.47 50.03 51.09 53.16 54.02 53.79 55.29 55.35 55.53 55.62 55.81 57.35 57.58 57.76 56.85 56.50 56.61 56.75 56.65 57.65 57.56 58.96 59.44 60.15 59.46 58.94 58.77 58.71 58.03 58.17 58.87 58.78 58.85 59.63
42.87 36.07 27.32 25.52 26.03 27.42 38.32 35.33 38.85 42.84 45.17 46.74 47.12 47.74 48.62 49.61 49.92 51.30 52.26 52.52 52.95 54.53 54.85 54.86 56.14 56.15 56.88 57.72 57.70 56.87 57.13 57.38 56.05 56.89 57.22 57.66 57.90 58.24 58.51 59.06 58.66 58.94 58.94 58.92 58.83 58.80 58.68 59.36 60.35
39.99 37.39 28.89 23.88 24.60 30.72 38.08 32.91 38.43 46.21 48.61 48.47 48.87 48.00 49.11 49.16 49.78 51.42 52.01 52.46 53.28 54.74 54.55 55.05 54.80 55.80 56.73 57.64 57.72 57.28 57.47 57.45 57.19 57.91 58.10 57.98 57.88 58.20 58.60 59.48 59.40 59.57 59.56 58.69 59.05 59.42 58.73 60.35 60.67
38.52 35.39 38.63 32.36 34.07 30.96 33.24 38.27 43.38 45.96 47.45 48.64 47.74 48.73 48.08 49.01 49.11 50.45 51.36 52.28 52.87 54.08 54.41 54.59 54.41 55.22 56.04 57.14 57.55 57.77 57.91 58.50 58.06 58.50 58.70 58.24 58.30 58.96 58.90 59.70 59.64 59.94 60.15 59.79 59.14 59.54 59.47 60.21 59.32
40.49 41.94 33.88 33.43 27.29 25.28 31.90 34.82 37.32 42.40 45.13 47.73 47.38 47.11 47.93 49.25 49.43 50.59 51.28 52.06 53.09 54.05 54.48 54.61 54.59 54.89 56.04 56.78 57.67 58.50 58.82 59.75 59.44 58.81 58.75 59.31 59.40 59.85 59.28 59.43 59.61 59.94 59.92 60.41 61.13 61.35 60.99 60.86 60.51
34.98 36.06 33.50 35.20 31.76 27.24 26.94 32.69 41.42 43.84 45.70 46.88 47.21 47.47 48.17 49.41 50.18 51.02 50.92 52.25 52.79 53.41 53.42 54.69 54.21 54.28 56.01 56.42 56.72 58.62 59.41 59.10 58.37 58.77 59.30 59.22 59.59 59.81 59.56 59.52 59.56 59.79 59.41 59.96 60.07 60.67 61.04 60.59 60.62
41.03 37.43 37.32 33.83 30.66 32.56 32.66 33.76 44.23 45.04 45.48 46.88 47.67 48.40 48.62 50.03 50.90 51.29 51.49 51.24 51.84 52.57 52.74 53.90 54.70 54.32 55.67 56.40 57.41 59.07 59.21 58.54 57.82 58.95 59.21 59.53 59.70 60.07 60.09 60.17 59.89 60.16 59.62 59.87 60.02 59.97 60.56 60.27 60.01

GFSSGP_sfc_wetblb_024.txt.gz
Wetbulb
67.40 64.96 65.43 64.43 56.21 54.27 51.50 54.84 59.45 57.90 57.96 59.86 59.91 58.63 57.50 58.41 56.13 54.38 66.70 71.13 71.72 68.58 71.67 73.77 73.99 73.76 73.20 72.70 71.93 71.52 71.25 70.88 69.80 68.72 68.30 68.01 67.50 67.19 66.92 67.08 66.94 66.89 66.87 67.03 67.32 67.35 67.51 67.24 66.81
63.44 62.02 64.64 62.43 52.59 51.28 53.85 59.28 57.67 59.77 60.68 61.97 61.48 60.30 58.08 56.61 60.34 60.94 65.53 70.78 71.21 69.23 71.48 72.28 74.02 73.86 73.31 72.86 72.29 71.80 71.43 71.23 70.07 69.24 68.93 68.59 68.42 68.15 68.04 67.98 68.26 68.44 68.30 68.42 68.36 68.54 68.54 68.33 68.04
63.13 64.83 61.45 58.49 56.96 53.45 55.02 58.98 59.28 60.27 60.76 59.61 59.28 59.58 58.55 58.60 61.08 62.77 69.00 71.39 71.15 69.75 70.55 72.54 74.21 73.77 73.51 73.04 72.64 72.28 71.95 71.61 70.30 69.71 69.51 69.15 68.89 68.65 68.76 68.73 68.97 69.08 68.95 68.72 68.88 68.91 68.94 68.77 69.04
62.36 63.49 61.55 55.50 54.79 58.05 58.49 59.81 60.10 59.76 59.83 59.70 58.91 57.39 60.02 62.70 62.34 64.84 69.85 71.07 70.04 69.74 70.54 72.65 74.24 73.94 73.69 73.26 73.12 72.87 72.55 71.75 71.05 70.06 69.49 69.12 68.86 69.88 70.46 69.67 70.14 70.12 69.90 69.64 69.47 69.53 69.70 69.23 69.37
63.55 61.90 54.12 53.47 54.51 57.49 61.06 61.95 61.55 59.41 58.89 58.99 58.59 57.66 59.26 62.95 64.25 65.29 69.07 70.47 69.07 70.05 70.60 72.73 74.07 74.02 73.89 73.84 73.54 73.25 73.02 72.55 72.06 70.68 69.95 70.01 70.67 71.20 71.11 70.74 70.40 70.38 69.92 69.75 69.86 69.81 70.35 69.75 69.92
59.75 59.92 52.58 50.81 53.45 57.06 59.76 61.80 60.98 60.02 59.49 58.97 57.20 57.35 59.38 63.48 63.91 65.30 68.26 70.61 69.89 69.85 71.15 73.12 74.03 74.01 73.82 73.69 73.47 73.29 73.14 72.55 72.33 71.78 71.73 71.63 71.66 71.91 71.02 70.57 70.12 69.79 68.92 69.08 69.48 69.53 69.33 69.13 69.35
57.80 56.16 51.78 52.41 53.10 54.38 57.06 60.48 58.99 59.21 59.36 58.71 60.48 57.35 61.27 63.00 65.51 65.87 67.56 70.10 70.88 70.63 70.70 72.58 74.07 74.20 74.06 73.74 73.44 73.31 72.94 72.79 72.69 72.35 72.18 72.20 72.21 71.49 70.55 69.90 69.07 67.82 67.51 67.65 67.99 68.80 68.95 68.73 68.62
58.83 57.03 53.52 53.85 52.41 52.40 57.02 58.44 59.91 59.28 58.70 61.37 60.59 57.81 59.23 64.43 65.54 65.47 67.37 67.88 69.99 70.13 70.71 71.34 73.58 73.50 73.34 73.50 73.91 73.51 73.40 73.15 72.95 72.90 72.73 72.48 71.85 71.00 69.47 68.67 67.60 67.17 66.87 66.46 66.84 67.50 68.05 68.79 68.52
61.55 54.52 52.04 53.34 53.36 54.26 58.08 57.08 59.55 61.02 59.76 60.58 61.02 61.06 63.08 64.62 64.88 65.64 66.31 67.32 67.52 68.03 70.23 70.98 71.51 72.92 73.34 72.73 73.15 73.67 73.14 73.02 73.08 72.45 72.15 72.13 70.78 69.91 69.64 69.31 66.57 66.51 66.24 66.27 66.08 65.98 66.41 67.09 67.77
58.47 54.23 53.70 56.82 57.05 56.24 57.55 57.46 57.97 57.75 58.61 58.93 60.29 62.62 63.30 64.32 64.75 64.48 64.83 64.81 66.22 67.07 68.31 70.46 71.73 72.45 72.98 71.58 72.61 73.57 72.45 72.55 72.28 71.66 71.58 71.24 70.14 69.64 68.45 68.10 66.50 66.23 65.87 65.53 65.77 65.84 66.50 67.41 67.98
58.27 54.30 57.41 57.85 58.57 58.84 57.55 57.63 59.48 57.58 56.43 59.07 58.98 60.82 62.50 63.29 64.12 64.35 64.97 65.44 65.23 66.80 68.21 69.55 71.80 72.67 72.65 71.75 71.95 72.43 72.26 71.68 71.67 72.10 71.53 70.67 68.92 69.09 68.77 68.49 67.74 67.86 66.98 66.74 66.21 66.73 66.98 66.88 66.95
54.76 57.54 58.02 58.55 58.66 58.25 57.12 59.18 57.79 58.44 58.78 61.02 61.46 62.17 61.87 62.06 63.27 63.26 63.70 65.25 65.65 65.91 67.64 69.79 70.81 72.00 73.01 71.89 71.37 71.77 70.97 70.65 69.77 69.70 70.65 69.61 68.33 68.42 68.45 67.71 67.12 67.33 67.04 66.43 66.34 66.17 66.27 66.63 66.53
54.30 56.15 57.61 58.32 58.51 58.71 59.16 57.64 57.49 58.19 60.06 61.33 61.31 61.26 61.50 62.06 62.34 63.27 64.00 65.27 66.80 66.17 67.31 69.42 71.14 72.10 72.72 72.47 71.56 71.44 70.10 68.92 68.85 68.19 69.00 69.18 68.11 68.10 68.22 67.89 67.10 66.15 65.97 65.72 65.76 65.95 66.16 65.95 66.39
55.48 54.97 55.09 56.39 56.90 58.04 56.43 56.56 57.41 57.93 58.83 59.50 60.17 59.16 59.58 60.21 61.07 62.06 63.39 64.71 66.61 67.42 67.65 69.51 70.60 72.08 72.34 72.41 72.40 70.58 69.46 68.39 68.21 67.34 68.31 69.55 68.79 68.41 68.16 67.73 66.28 66.39 67.06 66.58 65.79 65.60 65.40 65.52 65.75
55.55 52.66 54.51 54.92 55.94 55.21 56.73 53.63 54.27 57.85 58.28 57.77 58.06 58.49 59.26 60.12 60.72 61.09 62.80 65.10 66.50 67.78 68.72 68.96 70.24 71.66 72.28 71.68 71.00 69.60 68.29 68.19 66.95 67.41 69.51 69.22 69.47 69.04 68.87 67.70 66.81 67.21 67.99 67.68 66.88 65.62 65.80 65.20 65.60
51.19 52.59 49.06 54.11 55.25 55.67 55.19 49.80 55.16 57.12 56.71 56.31 56.76 57.34 58.11 59.64 60.48 61.63 63.66 65.09 66.89 68.17 68.15 68.67 68.32 70.32 71.54 71.13 69.74 68.24 67.88 67.28 67.22 68.31 68.75 69.56 69.53 69.12 68.41 66.88 66.71 67.31 67.33 66.55 65.56 64.34 64.24 64.29 64.39
49.73 45.79 48.52 50.56 55.10 53.72 52.68 50.44 54.99 57.05 56.17 55.63 56.41 57.37 58.10 58.92 60.35 62.70 64.17 65.51 67.14 67.99 68.09 67.24 68.47 69.52 70.12 69.65 68.87 68.75 68.72 67.45 67.93 68.34 68.57 69.16 69.29 69.01 67.85 67.77 66.77 67.60 66.44 66.06 65.96 65.09 64.55 63.47 64.34
45.16 46.57 47.79 48.84 53.31 51.67 50.62 50.73 54.39 56.33 55.44 55.04 56.44 57.32 58.26 58.54 59.25 62.50 64.38 65.44 65.99 67.05 67.19 67.40 67.82 69.13 69.45 68.40 68.28 67.29 66.96 67.29 67.98 68.07 68.41 69.03 69.18 68.55 68.16 67.84 67.38 64.81 63.61 65.44 64.98 64.75 65.02 64.22 64.69
48.53 48.52 47.95 50.69 52.90 51.68 50.42 50.86 53.23 55.72 54.75 54.77 56.23 57.58 58.32 58.89 60.84 63.59 64.22 64.36 64.10 65.51 65.97 66.70 67.14 68.45 67.56 66.64 65.59 65.43 64.55 65.88 66.92 68.07 68.93 68.98 68.88 67.58 67.38 67.36 63.47 64.03 63.51 62.83 64.63 65.01 63.27 64.32 65.22
47.17 46.21 47.10 50.15 52.02 51.29 50.32 49.73 52.95 54.72 55.11 55.61 56.40 57.02 57.92 59.04 60.84 62.67 63.40 63.31 64.29 64.91 65.97 66.57 67.03 67.83 67.51 66.74 66.88 66.18 65.72 66.69 67.56 68.56 68.80 68.69 68.48 67.29 66.83 66.28 65.46 63.65 61.52 63.59 64.06 64.15 63.37 63.55 65.53
46.19 45.20 45.70 46.20 49.85 51.21 49.40 47.42 49.87 53.26 55.28 56.11 57.09 58.03 58.25 58.28 60.16 62.17 62.43 63.30 64.26 64.66 65.56 66.01 67.14 67.61 67.92 68.24 67.31 67.14 67.72 67.39 66.28 66.90 67.27 67.78 68.04 67.55 66.53 65.96 63.99 64.21 64.14 64.25 65.13 64.65 62.82 62.70 65.05
43.41 47.85 46.63 46.25 45.71 42.17 49.06 41.61 48.30 51.81 53.50 54.87 55.99 57.02 57.72 58.16 61.38 62.33 62.92 63.30 64.20 64.72 65.77 66.72 67.24 67.68 67.78 67.89 66.76 66.71 64.82 63.77 66.84 66.95 68.41 67.40 67.26 66.68 66.58 65.81 65.30 65.63 65.80 65.23 65.57 64.93 64.42 64.64 63.36
45.23 48.58 46.63 46.85 45.31 44.90 44.94 43.14 46.84 51.43 50.65 53.16 55.34 56.68 57.08 60.23 61.41 62.49 63.07 63.47 64.13 64.91 65.68 66.63 67.48 67.32 67.37 67.65 67.56 66.42 65.63 66.39 66.91 66.75 66.12 67.25 67.16 66.04 65.57 66.51 66.01 65.69 66.69 66.39 65.62 64.09 63.59 66.15 64.81
48.17 46.64 46.36 47.00 45.17 39.51 44.38 43.93 44.59 48.44 51.40 53.42 55.22 55.69 57.45 60.77 61.41 62.62 63.34 63.60 63.99 65.27 65.86 66.49 66.49 66.59 67.45 67.48 67.85 66.98 66.22 65.63 65.44 65.24 64.93 65.98 66.75 66.49 66.23 65.93 65.99 66.68 66.50 65.46 65.09 65.16 64.86 65.65 65.80
46.81 44.67 39.35 38.31 38.69 38.61 47.06 44.80 46.79 51.91 53.23 53.46 54.00 56.39 60.21 61.16 61.86 61.88 62.06 62.65 63.57 64.08 64.97 65.45 65.63 65.74 66.71 66.98 67.22 66.70 66.79 66.05 65.64 65.52 65.94 64.68 65.60 65.45 65.68 66.30 66.29 66.11 66.33 66.14 65.76 65.67 65.50 65.61 65.94
44.32 45.43 41.18 35.17 37.76 41.27 46.96 42.15 46.81 52.36 54.17 54.94 54.78 57.27 60.49 61.05 62.27 62.06 62.56 63.02 63.33 63.99 64.67 64.71 65.15 65.13 65.92 66.40 66.90 67.16 66.90 67.17 66.56 66.18 65.78 66.33 65.56 66.06 66.56 66.21 66.52 66.18 66.31 66.23 66.29 65.57 65.45 66.20 66.48
44.60 43.37 48.34 44.10 44.69 42.50 45.11 47.39 50.14 52.13 52.22 53.84 55.50 55.94 59.06 60.86 61.96 62.00 62.87 63.38 63.63 64.14 64.57 64.93 64.66 64.77 65.63 66.45 66.76 67.09 67.12 67.24 66.79 66.35 66.68 66.04 66.32 65.35 66.02 66.07 66.14 66.41 66.15 66.48 66.54 66.53 65.91 66.40 66.59
47.13 49.01 42.91 44.27 37.36 36.52 42.64 44.36 46.04 50.16 51.03 54.56 55.98 57.15 59.41 61.16 61.49 62.16 62.73 63.18 64.05 64.72 65.16 65.31 64.70 64.87 65.90 66.31 66.60 66.82 67.07 67.32 67.19 66.52 65.68 65.59 65.71 65.72 65.92 65.90 65.98 66.16 66.32 66.17 66.16 65.83 66.18 65.91 64.46
45.11 44.68 46.29 46.63 44.61 39.84 38.90 42.95 50.04 51.34 53.88 55.11 57.05 59.19 60.35 60.69 61.26 61.81 62.55 63.48 64.21 64.70 64.65 63.93 64.40 64.86 65.30 65.75 66.45 66.79 67.03 66.41 66.73 66.12 65.69 65.68 65.86 65.74 65.59 65.46 65.79 65.24 65.91 67.10 66.49 65.67 65.18 64.02 65.16
48.01 46.58 46.55 42.16 41.22 43.73 43.22 42.70 53.52 54.58 56.34 57.38 58.83 59.89 60.70 61.47 61.60 61.99 62.54 63.11 63.52 63.81 63.57 63.36 64.32 64.14 64.85 65.55 65.77 66.38 66.47 66.33 66.59 65.66 66.39 66.47 65.97 65.69 65.42 65.28 65.11 64.89 65.72 66.32 64.17 64.31 64.64 63.58 62.98

GFSSGP_sfc_wetblb_027.txt.gz
Wetbulb
67.75 64.68 65.97 64.41 56.67 54.57 53.44 54.20 59.62 58.47 58.80 61.25 61.23 59.94 59.24 60.06 57.37 55.15 69.18 70.26 69.44 69.52 73.55 73.15 73.79 73.61 73.23 72.73 72.16 71.85 71.45 70.75 69.64 68.97 68.53 67.72 67.29 66.78 66.51 66.11 66.27 66.46 66.59 66.70 67.02 67.51 67.62 67.94 67.56
62.71 62.46 64.63 61.77 53.64 51.78 52.62 57.43 57.96 60.22 61.85 62.93 62.71 61.43 60.05 58.07 62.08 62.92 66.19 70.75 69.69 69.76 73.90 71.53 73.87 73.72 73.44 73.02 72.37 72.08 71.71 71.08 70.29 69.35 68.94 68.38 67.98 67.61 67.43 67.61 67.77 68.12 68.15 68.13 68.02 68.42 68.77 68.95 68.68
66.93 63.88 61.35 57.27 55.24 52.28 53.36 58.59 59.82 61.52 62.32 61.36 60.14 61.56 60.19 59.38 63.05 63.77 69.61 70.80 70.06 69.71 73.76 72.73 73.90 73.67 73.74 73.42 72.63 72.38 72.06 71.71 70.44 69.93 69.57 69.36 69.01 68.93 68.73 68.68 68.79 69.19 69.42 69.20 69.07 69.12 69.23 69.12 69.41
62.95 62.99 61.22 56.32 54.90 57.88 57.64 60.32 60.95 60.07 61.66 61.19 60.62 58.08 61.42 64.60 63.17 65.56 69.37 70.17 69.29 69.02 71.68 74.46 73.67 73.95 73.87 73.54 72.90 72.66 72.41 71.98 71.20 70.39 70.24 69.86 69.53 69.62 69.44 69.11 69.31 69.87 70.20 70.14 69.92 69.84 69.63 69.68 69.67
63.33 61.34 55.44 53.84 53.37 56.35 59.17 61.30 61.59 59.84 60.38 59.73 60.16 58.27 59.79 64.14 65.61 65.94 68.76 69.42 68.70 69.09 70.25 74.01 74.00 74.17 74.15 73.84 73.17 73.03 72.71 72.43 72.08 70.91 70.41 70.02 70.52 70.59 70.44 70.02 70.50 70.86 70.70 70.44 70.15 70.14 70.19 69.92 69.94
58.66 59.63 53.94 51.46 52.79 56.07 58.88 61.46 61.77 61.31 60.78 60.27 58.85 58.71 60.28 65.17 65.44 65.87 67.79 69.58 69.33 69.10 70.68 72.11 74.36 74.15 73.97 73.70 73.28 73.18 73.00 72.63 72.41 72.16 71.60 71.45 71.46 71.41 70.75 70.91 70.95 70.38 70.05 69.26 68.98 69.10 69.84 69.57 69.20
56.78 56.83 53.26 53.66 53.10 54.57 57.33 60.43 60.00 59.55 59.14 59.50 61.23 57.87 61.43 64.43 66.57 66.87 67.82 68.89 70.30 69.71 70.52 71.27 75.29 74.50 74.17 73.87 73.33 73.23 73.24 72.97 72.80 72.53 71.99 72.16 71.86 72.09 71.59 71.27 70.49 69.69 68.56 67.80 67.77 67.97 68.24 69.06 68.81
58.15 57.05 53.48 54.59 53.04 52.76 58.00 58.73 60.16 59.54 59.15 63.22 62.37 58.01 59.43 64.37 66.43 66.97 67.43 67.97 68.83 70.16 69.90 70.87 73.25 75.03 73.97 72.94 73.82 73.69 73.64 73.41 72.97 72.72 72.58 72.57 71.89 72.09 71.57 70.88 69.68 68.69 67.47 67.30 66.76 66.69 67.29 68.07 68.77
60.34 53.90 52.28 53.77 54.15 55.22 58.83 57.70 60.78 61.33 60.35 60.85 61.81 61.48 63.27 65.05 65.76 65.40 65.82 66.33 67.46 67.89 70.04 71.06 70.46 72.88 73.61 72.63 73.08 73.92 73.18 73.00 72.99 72.41 72.28 72.46 70.41 69.87 71.38 70.59 69.27 67.95 67.38 66.74 66.58 66.68 66.46 66.54 67.54
57.38 55.32 54.82 57.87 57.54 56.70 58.63 58.35 59.20 59.02 59.00 59.30 60.30 62.75 63.91 64.45 64.81 64.37 64.12 63.91 64.98 66.38 68.41 69.74 71.44 72.47 72.92 71.61 73.71 73.94 72.39 72.10 71.68 71.51 71.76 72.10 71.72 70.66 69.25 69.65 67.39 67.51 67.43 67.00 66.49 66.20 66.37 66.56 66.23
58.08 55.12 58.56 58.89 59.73 59.58 58.73 58.63 60.13 58.53 57.37 59.41 59.30 61.21 62.88 63.67 64.08 63.98 63.99 63.92 64.53 66.35 67.82 69.33 74.51 75.28 73.49 71.91 71.91 73.13 72.78 71.83 72.40 73.10 73.96 73.48 70.63 69.61 69.04 69.13 68.74 68.23 68.43 67.32 67.39 67.08 66.76 66.72 65.93
54.78 58.35 58.99 59.40 59.83 59.33 58.28 59.97 58.94 59.20 59.68 61.90 61.90 62.64 62.71 62.68 62.44 62.87 63.40 63.35 63.89 64.82 67.85 68.76 71.87 74.83 75.48 73.45 71.38 72.11 72.49 72.78 71.74 71.64 74.33 72.28 69.45 69.38 69.15 68.44 68.30 69.10 67.90 68.12 67.44 66.48 68.17 66.93 66.71
55.15 56.20 57.78 58.74 58.91 59.22 59.59 58.17 58.43 59.03 61.55 62.58 62.37 62.15 61.70 62.06 62.50 62.99 63.41 63.75 64.41 64.87 66.79 68.96 72.67 75.00 75.21 75.55 72.47 72.29 72.73 71.44 71.78 71.01 71.31 70.34 68.76 69.99 69.13 69.29 68.33 68.91 68.00 67.49 66.58 66.74 66.71 66.35 65.80
56.90 57.08 57.14 57.61 57.40 58.45 57.43 57.68 58.33 59.57 61.81 61.12 61.04 60.91 61.39 61.38 61.31 62.32 63.19 63.68 65.55 67.60 67.58 69.66 71.98 75.57 74.24 74.34 76.03 74.26 74.56 72.03 70.35 69.39 69.34 70.84 69.48 70.65 68.86 69.08 68.05 67.54 67.71 67.59 67.00 65.32 65.65 65.93 65.33
57.04 54.41 56.32 56.79 57.07 56.15 57.51 54.31 55.15 59.06 60.29 59.69 60.02 60.26 60.62 60.80 61.39 61.89 63.19 65.91 66.72 66.98 70.99 71.72 73.66 75.44 75.31 74.77 74.83 73.89 72.02 70.24 69.37 68.61 70.46 69.47 70.72 70.34 70.04 68.30 68.06 68.15 69.81 68.07 68.16 67.40 66.75 65.07 65.73
53.06 54.35 50.26 54.83 55.97 56.43 56.05 51.19 56.60 59.23 59.16 58.87 59.15 59.14 59.68 60.33 61.23 62.64 63.70 66.77 68.62 69.61 70.74 70.71 69.44 72.18 74.41 74.60 74.12 72.63 70.60 69.56 68.26 68.30 68.72 70.14 70.50 70.34 69.64 68.14 67.87 69.72 69.43 68.89 66.86 66.18 65.66 64.56 64.62
52.03 47.94 49.68 51.69 56.23 55.80 55.09 52.49 56.65 59.09 58.81 58.29 58.78 59.19 59.01 59.75 61.45 64.43 63.95 64.47 68.07 70.19 70.24 70.25 71.99 71.07 73.00 74.55 73.10 72.51 72.84 69.09 67.98 68.47 68.72 69.81 70.07 69.69 69.15 68.06 68.86 69.56 68.40 68.51 66.46 65.98 66.19 64.53 64.03
46.61 47.64 49.29 49.37 53.71 54.53 53.41 53.20 55.81 57.71 56.91 56.90 58.11 58.49 58.70 59.12 60.78 63.87 65.26 64.70 67.11 68.85 70.19 71.33 70.88 72.58 74.14 72.86 72.26 69.44 68.45 68.21 68.09 68.25 68.49 69.71 69.60 69.53 69.61 68.83 69.04 68.71 67.21 63.94 64.41 65.19 65.93 65.68 66.29
49.74 49.31 48.98 51.59 54.21 52.65 52.02 52.68 55.07 56.68 56.47 56.49 57.64 58.42 58.79 59.03 62.43 63.45 64.36 67.05 66.99 68.01 69.25 69.69 69.40 73.25 72.10 69.79 67.75 67.12 66.33 67.48 67.17 67.93 69.37 69.20 69.32 68.65 69.60 68.59 68.14 67.13 64.75 64.89 64.95 63.11 61.41 65.13 65.42
47.89 47.39 48.09 51.28 53.52 52.51 52.36 52.33 54.65 55.81 55.95 56.53 56.92 57.93 58.76 59.65 60.74 62.14 63.50 66.86 66.56 67.65 68.22 68.67 69.34 71.22 70.93 69.35 69.51 68.50 68.01 67.01 67.19 68.10 69.30 69.39 69.07 69.63 68.59 68.61 67.74 66.95 64.73 64.92 64.47 64.76 63.35 64.17 65.07
47.19 46.55 47.72 48.17 51.84 53.04 51.78 49.69 51.34 54.41 55.92 56.53 57.24 58.15 58.87 59.38 60.14 61.59 62.50 66.45 66.84 66.77 67.67 68.21 69.19 69.70 70.88 71.33 69.99 68.55 68.36 68.89 66.94 66.61 67.34 68.48 68.29 68.58 68.22 67.84 67.08 66.24 66.46 64.13 65.91 65.64 64.14 62.93 64.70
44.19 49.30 49.14 49.17 48.22 44.41 50.59 43.42 49.92 52.53 53.57 54.92 56.06 57.49 58.72 60.03 60.92 61.12 64.40 66.03 66.28 66.87 67.91 68.57 68.96 69.28 69.34 70.38 70.04 70.30 66.11 64.42 66.31 67.75 67.10 68.06 67.93 67.40 67.02 66.89 66.44 65.94 66.02 67.12 66.28 66.95 65.41 65.16 62.86
46.23 49.53 49.41 49.22 47.30 46.77 46.82 44.59 47.70 51.71 50.39 52.93 56.10 57.54 59.24 60.10 60.70 60.63 64.97 65.90 66.60 67.13 67.18 68.29 68.67 68.47 69.14 69.11 69.76 67.07 66.71 65.53 66.35 66.42 67.44 68.26 68.36 67.19 66.76 66.50 66.30 66.33 68.43 65.99 66.32 65.55 65.59 66.29 65.27
49.57 47.79 48.39 49.11 47.17 41.52 45.80 45.19 45.84 48.53 51.04 54.05 56.37 57.62 59.03 59.40 59.85 63.41 65.87 66.38 66.16 66.80 67.39 67.84 67.99 68.13 68.26 68.14 68.52 68.23 67.45 66.20 65.84 66.01 66.11 67.98 68.37 67.55 67.17 65.98 66.60 66.88 66.98 66.14 65.48 65.77 65.46 66.18 66.43
48.61 46.06 40.09 39.81 40.00 39.84 47.28 44.96 47.44 52.23 54.92 55.70 55.87 57.25 57.89 59.00 62.93 64.15 64.49 64.50 65.27 65.99 66.69 67.03 67.15 66.89 67.55 67.82 67.63 67.40 67.51 67.21 66.93 66.82 66.81 66.72 66.89 66.25 66.91 66.72 66.69 66.69 66.64 66.28 66.69 66.63 65.87 66.17 66.20
46.39 46.13 41.10 35.51 38.45 41.19 47.04 42.84 47.86 55.42 55.78 56.32 56.96 57.22 60.78 62.18 63.63 63.95 64.31 64.82 65.20 65.63 66.27 66.30 66.53 66.15 66.81 66.82 67.07 67.42 67.95 67.24 67.78 66.79 66.38 66.18 66.73 67.40 67.07 66.44 66.89 66.42 66.40 66.42 66.60 66.80 67.47 67.13 67.03
45.68 44.19 48.38 44.61 46.73 43.20 46.55 49.55 53.48 55.31 54.98 55.22 54.76 56.13 61.03 62.18 63.44 63.71 64.71 65.00 65.26 65.56 65.96 66.26 66.28 66.13 66.35 66.55 66.98 67.32 67.58 67.32 67.51 66.77 67.34 65.77 67.24 65.93 66.41 66.54 66.25 66.42 66.49 66.22 66.68 67.02 66.15 66.52 65.55
46.97 49.56 42.97 45.49 38.33 38.81 44.33 47.11 47.53 51.34 52.72 54.22 54.61 56.09 59.79 62.57 63.36 63.85 64.39 64.93 65.53 65.79 66.31 66.69 66.22 65.75 66.05 66.48 66.62 66.92 66.97 67.40 67.44 67.00 66.49 66.76 67.11 66.47 66.22 66.24 66.38 66.12 66.43 66.45 67.07 67.00 66.44 65.65 63.37
44.43 45.09 46.32 47.09 45.60 41.34 41.14 44.95 53.59 53.15 54.25 54.81 57.05 57.38 60.16 62.50 63.09 63.79 64.24 64.97 65.53 65.91 65.87 65.67 65.53 65.23 65.75 66.11 66.48 67.34 67.32 66.78 67.04 66.98 66.57 66.29 65.95 66.15 65.16 65.88 65.77 65.75 65.86 66.59 66.71 66.01 64.49 64.67 63.44
47.60 46.58 46.90 44.82 42.58 45.87 45.69 44.96 54.12 54.59 55.95 57.85 57.76 58.59 62.05 63.11 63.41 63.93 64.17 64.70 65.03 65.20 65.29 64.48 65.14 65.09 65.50 65.83 65.96 67.07 66.53 66.48 66.93 66.10 66.13 66.52 65.90 65.60 65.17 65.23 65.58 65.20 65.44 66.29 65.23 64.79 65.17 64.27 63.67

GFSSGP_sfc_wetblb_030.txt.gz
Wetbulb
67.10 64.00 61.88 60.91 54.29 52.97 51.45 53.39 57.49 58.16 58.06 60.57 60.75 58.90 58.05 59.23 56.48 55.01 68.94 69.58 71.26 72.35 71.12 71.70 73.49 73.20 72.77 72.25 71.83 71.37 71.15 70.81 70.37 69.86 69.03 68.40 67.64 66.74 66.55 66.31 66.29 66.34 66.20 66.17 66.49 66.88 67.56 67.69 67.61
62.93 60.44 61.74 59.49 51.35 49.46 50.74 55.06 55.27 59.04 61.12 61.81 61.31 61.07 59.49 57.84 61.52 64.34 66.35 69.58 70.65 72.75 71.81 70.61 73.39 73.21 73.11 72.44 72.03 71.78 71.66 71.21 70.88 70.29 69.14 68.90 68.38 67.29 66.86 66.99 66.97 67.18 67.48 67.69 67.80 67.85 68.09 68.63 68.86
65.67 64.23 58.01 55.09 53.36 50.20 51.20 57.13 58.77 61.12 62.09 60.89 59.39 61.71 59.41 59.58 62.81 65.22 69.47 70.03 70.76 72.78 72.35 71.21 73.62 73.35 73.51 72.92 72.55 72.31 72.08 71.79 71.26 70.08 69.69 68.98 68.87 68.39 68.23 68.30 68.33 68.52 69.13 69.40 69.41 69.11 69.14 69.09 69.25
61.99 60.17 58.20 52.41 51.67 55.30 55.93 59.46 61.27 60.45 62.28 61.41 60.12 57.48 61.39 64.53 63.59 65.75 68.54 68.73 68.46 71.73 72.52 73.37 73.37 73.67 73.77 73.42 72.95 72.53 72.41 72.01 71.33 70.48 70.17 70.04 69.76 69.94 70.23 69.40 68.94 69.20 69.80 70.12 70.27 70.22 70.08 69.81 70.65
61.82 58.86 52.75 51.08 51.87 54.75 56.91 59.39 61.40 60.07 60.40 60.19 60.26 57.31 59.86 63.66 65.69 66.41 68.43 69.08 68.52 68.48 72.22 73.73 73.49 73.92 73.84 73.77 73.20 72.78 72.53 72.26 71.76 71.45 70.99 71.16 71.10 70.90 70.71 70.20 69.84 70.42 70.84 70.76 70.36 69.96 70.19 69.95 69.90
55.81 57.16 50.66 49.92 52.62 55.63 57.10 58.98 59.59 59.88 60.67 61.00 59.42 58.93 60.26 64.68 65.18 65.71 67.86 69.95 68.92 69.49 71.39 74.16 73.61 73.79 73.72 73.75 73.30 72.83 72.48 72.43 72.26 71.89 71.76 71.63 71.50 71.31 71.16 71.11 70.83 71.02 70.50 69.97 69.45 68.98 68.98 70.06 70.16
54.53 53.43 51.00 52.11 52.71 54.31 56.13 60.13 58.26 58.00 59.16 58.91 61.04 57.47 61.68 64.11 66.18 68.46 68.88 69.77 70.60 70.33 70.64 74.27 73.63 73.61 74.12 73.64 73.15 72.85 72.65 72.40 72.30 72.01 72.23 71.96 72.01 72.03 71.91 71.84 71.54 71.02 70.52 69.36 68.02 67.84 67.80 68.18 69.21
56.41 54.44 51.25 53.00 52.77 52.91 57.49 57.56 59.39 58.51 57.62 62.67 62.49 57.92 58.94 65.00 66.54 66.83 66.39 66.55 68.42 69.21 69.17 74.03 73.67 73.18 72.90 72.99 73.57 73.17 73.14 72.89 72.67 72.67 72.64 72.25 72.33 72.08 72.20 71.70 72.00 71.17 70.08 68.46 67.72 67.39 67.10 67.23 68.09
58.05 50.21 49.07 51.57 52.62 54.00 58.11 56.86 59.93 60.81 59.23 60.42 61.41 61.26 62.46 64.19 64.45 64.51 65.23 64.61 65.10 66.72 69.18 72.40 74.09 73.60 72.88 71.88 72.61 73.39 73.42 73.43 73.08 72.86 72.71 71.91 70.01 69.12 70.25 70.61 71.58 71.41 69.81 68.48 67.99 67.42 67.22 67.05 66.78
54.89 50.75 51.25 55.49 56.32 55.87 57.77 57.66 58.61 58.57 58.66 59.01 59.85 61.92 63.08 63.53 63.85 63.49 63.57 63.53 64.49 64.46 68.03 69.69 70.72 73.19 73.04 72.15 71.36 72.48 72.41 72.10 71.76 70.74 70.58 70.80 69.82 70.02 69.93 69.73 71.99 70.09 69.30 68.52 67.92 67.45 67.21 66.58 64.52
56.84 52.17 54.74 56.45 58.70 59.02 58.07 58.27 59.89 58.10 56.83 59.09 58.69 60.67 62.11 62.73 63.95 63.75 63.04 63.47 64.15 65.10 65.88 69.25 71.09 72.34 72.69 71.49 71.14 72.53 71.75 71.08 70.72 70.23 70.28 71.51 71.15 70.62 69.66 68.10 68.24 67.98 68.36 66.73 67.65 66.54 65.36 65.36 64.62
52.29 56.62 56.94 57.46 58.81 58.70 57.52 59.11 57.88 58.58 59.00 61.46 62.36 62.41 62.54 62.51 63.10 62.79 62.48 63.05 63.70 64.87 68.53 69.97 71.89 72.47 71.71 71.71 71.45 72.55 72.22 71.34 70.27 70.39 71.52 70.91 71.17 70.56 69.11 67.82 68.97 67.59 67.39 67.12 66.40 65.60 65.50 65.25 66.62
53.68 54.43 56.34 58.06 58.68 58.91 58.95 57.19 56.76 57.91 60.78 61.91 62.04 62.50 62.47 62.61 63.23 63.82 64.00 63.94 65.47 66.62 69.24 70.31 73.20 72.00 72.49 72.84 71.54 72.31 72.19 71.62 71.04 71.61 71.51 71.39 70.18 69.30 69.70 68.77 69.26 68.98 68.21 67.48 66.95 66.66 66.29 65.59 65.34
55.51 55.21 55.21 56.51 56.64 57.37 56.14 56.55 57.00 58.20 61.07 60.74 61.07 61.38 62.08 62.33 62.58 63.02 64.31 65.59 68.24 69.59 69.87 71.08 73.68 72.46 72.58 71.27 73.35 72.80 72.69 72.45 71.92 71.42 71.36 71.33 70.36 69.64 69.58 70.02 68.85 68.48 68.46 67.24 67.08 66.20 65.81 64.84 64.88
54.32 52.83 55.09 55.71 56.21 55.80 57.28 54.39 54.99 58.29 59.27 58.96 59.59 60.24 61.25 62.01 62.45 62.29 63.93 66.85 70.56 70.29 70.11 70.67 73.23 73.56 72.83 73.13 72.41 76.01 73.61 73.09 71.76 71.17 71.69 70.62 70.24 70.21 70.87 69.45 68.83 67.79 67.95 67.89 67.19 66.45 66.59 65.49 64.47
51.25 51.57 48.85 53.93 55.55 56.26 55.78 50.56 56.67 58.78 58.31 57.96 59.08 59.99 60.71 61.75 62.01 63.14 65.56 67.60 72.25 70.97 69.41 72.18 69.12 73.44 73.40 73.60 73.39 72.68 72.90 72.18 72.23 70.00 70.63 70.32 70.97 70.87 70.53 68.93 67.88 68.06 68.80 67.69 66.33 65.62 64.84 64.98 64.34
49.78 46.15 47.51 50.61 55.16 54.60 54.66 51.61 56.39 58.95 58.16 58.15 59.11 59.72 60.25 60.91 62.16 66.11 66.52 66.56 68.83 70.37 72.60 72.24 72.71 73.34 73.19 74.02 73.90 73.16 74.45 71.64 70.66 70.39 69.80 69.93 70.17 70.04 69.32 68.27 68.22 69.19 67.91 66.82 66.02 65.13 64.86 63.84 63.61
44.65 45.44 47.67 48.55 52.78 54.04 52.55 52.78 56.00 58.21 57.88 58.03 59.05 59.44 59.25 59.58 60.97 64.07 66.92 66.99 68.82 71.08 71.71 74.05 73.79 74.17 73.13 73.33 73.41 72.07 71.65 70.46 70.35 69.83 69.68 70.90 69.94 70.00 69.30 68.08 68.76 68.46 66.87 66.28 65.23 64.27 64.74 63.53 63.12
47.91 47.83 47.04 50.74 53.45 52.42 52.11 52.37 54.24 56.83 57.07 57.10 57.86 58.60 59.19 60.57 63.00 65.06 66.26 66.85 70.34 70.47 71.22 73.17 72.96 73.65 72.36 71.69 70.23 68.72 68.08 68.41 68.36 69.56 70.08 70.11 70.23 69.32 69.30 68.58 67.98 67.47 66.06 65.29 64.76 64.03 63.11 60.48 62.01
45.49 45.56 46.51 50.47 52.47 52.00 51.75 51.46 54.64 56.28 56.62 57.39 57.57 58.49 59.40 60.12 61.02 63.34 65.94 68.38 69.50 69.99 70.74 71.41 71.79 72.60 72.02 71.59 70.91 69.01 68.31 67.47 68.29 68.61 69.80 69.89 69.31 68.76 68.82 68.37 67.39 66.95 65.70 64.71 64.20 63.46 61.47 61.21 62.45
45.02 44.40 46.12 46.44 49.79 51.42 50.74 49.23 52.16 54.99 56.60 57.47 57.96 58.51 59.41 59.58 59.41 60.82 62.73 68.17 68.00 68.36 69.12 69.48 71.00 71.68 71.74 70.63 70.68 71.78 69.94 70.32 68.72 69.12 68.54 69.52 68.96 68.98 68.60 67.41 67.40 66.31 65.54 63.97 63.86 63.67 62.56 61.13 62.60
42.99 47.14 46.69 46.54 45.76 42.82 49.75 42.13 50.40 53.25 54.02 55.27 56.61 57.58 58.26 59.23 60.48 61.19 62.86 66.73 67.27 67.29 68.49 69.63 70.65 70.65 70.94 71.30 69.90 69.31 66.71 65.92 67.71 67.11 67.68 68.85 69.07 68.11 67.67 67.56 66.08 65.62 65.23 64.71 64.49 64.28 63.07 62.29 60.04
44.85 47.84 46.67 46.59 45.39 46.08 45.78 44.23 47.57 52.06 51.09 53.26 55.38 57.00 57.97 59.92 61.07 61.56 64.47 66.74 67.16 67.57 67.99 69.22 69.79 69.38 70.72 71.07 69.66 68.77 68.77 68.38 68.71 67.85 68.15 68.74 68.52 68.16 67.32 67.08 66.77 65.76 65.84 65.18 64.42 64.01 63.06 63.39 61.70
48.74 46.32 46.50 46.89 45.73 40.59 45.52 44.72 44.84 47.94 51.84 53.40 55.50 56.92 58.02 59.37 60.30 62.07 66.35 66.66 66.53 67.15 67.50 68.47 68.26 68.89 69.36 70.31 70.65 69.75 68.53 68.19 67.58 67.41 66.95 67.40 68.29 67.64 67.35 66.74 66.46 66.51 65.93 64.93 65.46 64.80 64.09 63.32 62.93
45.81 45.27 38.79 37.67 38.44 37.84 45.85 43.90 46.31 51.64 53.53 54.22 54.88 57.18 59.00 60.26 60.73 64.34 64.71 65.03 65.47 65.90 66.86 67.52 67.63 67.36 68.27 69.14 68.93 69.38 69.21 69.06 68.60 68.09 67.10 67.19 66.93 66.08 66.80 66.68 66.20 65.85 65.91 65.83 65.34 64.54 64.38 63.67 62.50
44.15 44.62 39.86 32.81 35.56 39.12 45.36 41.60 46.36 53.77 55.12 56.16 55.94 57.44 59.16 61.13 63.17 64.38 64.85 64.71 64.95 65.98 66.51 66.60 66.95 66.58 67.43 67.82 68.02 68.90 69.31 67.87 68.31 68.39 67.31 66.85 66.72 66.56 67.10 65.98 66.08 66.21 66.02 65.17 65.44 65.02 63.72 63.83 63.68
43.58 41.04 46.80 43.03 43.91 40.23 43.82 47.37 51.24 53.98 54.27 56.05 55.67 57.18 60.25 62.79 63.88 63.90 64.44 64.59 65.36 65.69 66.25 66.40 66.47 66.42 66.98 67.33 67.98 68.57 68.55 68.63 67.77 68.49 68.37 67.14 67.39 66.14 66.42 65.94 66.36 66.47 66.07 65.79 65.42 63.76 63.81 63.86 63.26
45.02 47.39 40.86 43.60 35.78 35.79 41.46 44.21 46.19 51.45 53.16 55.92 55.89 56.37 61.39 63.03 63.21 63.36 63.92 65.01 65.60 66.05 66.78 67.10 66.91 66.34 66.72 67.23 67.12 66.52 67.32 67.39 68.07 68.38 67.15 67.21 67.05 65.16 66.20 66.32 66.12 65.90 65.68 65.72 65.13 64.38 65.77 63.75 62.91
42.74 42.52 44.35 45.85 43.19 38.93 38.42 43.08 54.79 53.66 55.45 54.84 55.33 57.08 61.18 62.51 62.76 63.37 63.82 65.17 65.56 65.92 65.97 66.38 66.24 65.81 65.95 66.58 67.73 67.15 67.22 65.72 67.49 66.51 67.17 67.09 67.06 66.18 64.98 65.22 66.02 65.40 65.05 65.01 64.49 65.00 63.58 62.47 62.30
45.11 43.81 44.88 41.37 40.43 43.88 43.40 43.88 55.66 55.03 55.89 57.29 56.45 57.45 61.86 62.69 62.91 63.52 64.23 64.67 64.73 64.98 65.33 65.44 65.43 64.89 65.72 65.95 66.27 67.04 65.41 65.49 66.44 66.48 66.67 66.80 65.46 65.24 65.26 64.67 65.10 64.53 64.82 65.81 64.70 63.86 64.47 63.67 62.68

GFSSGP_sfc_wetblb_033.txt.gz
Wetbulb
65.56 64.21 60.42 56.54 48.06 47.83 45.31 49.38 53.39 54.87 56.46 56.88 58.27 56.51 54.11 55.73 56.38 52.54 63.28 68.99 69.73 68.89 70.51 71.92 73.49 73.20 72.93 72.63 72.09 71.58 71.21 70.94 70.35 69.89 68.78 67.77 67.67 67.14 66.92 66.74 66.47 66.39 66.08 66.19 66.16 66.27 66.62 66.98 67.16
62.70 60.36 56.07 55.02 45.66 42.32 46.22 52.05 54.03 56.92 58.65 59.95 59.97 57.48 56.15 56.52 62.40 63.19 63.62 70.34 70.04 68.60 69.75 70.16 73.39 73.16 72.96 72.54 72.08 71.66 71.39 71.14 70.88 69.99 68.72 68.14 67.91 67.43 67.19 66.95 66.98 67.19 67.16 67.11 67.35 67.57 67.46 67.65 67.97
64.50 63.26 51.14 49.45 47.74 44.50 44.89 54.45 56.83 59.52 60.79 59.60 58.14 60.05 58.26 57.97 64.13 64.04 66.14 71.03 69.79 68.06 68.85 69.37 73.42 73.07 72.94 72.57 72.15 71.78 71.51 71.41 70.83 69.83 69.30 68.78 68.29 68.23 68.79 67.89 67.89 68.11 68.57 68.68 69.17 68.95 68.90 68.83 69.14
58.63 57.48 53.68 47.55 46.82 51.54 52.88 55.84 59.43 59.29 61.30 60.67 59.40 56.86 59.63 64.16 63.09 65.37 70.50 71.06 69.58 68.87 68.34 71.39 73.44 73.15 73.07 72.72 72.38 71.98 72.08 71.64 71.13 70.57 70.01 69.36 69.33 69.11 69.27 69.03 68.92 68.97 69.27 69.57 70.11 70.24 70.15 69.83 69.94
57.86 54.60 45.66 45.94 48.39 53.06 55.52 57.32 59.43 58.67 60.22 59.77 60.20 57.00 57.47 61.95 65.22 65.49 68.43 70.99 69.50 68.88 68.39 71.39 73.42 73.49 73.59 73.34 72.95 72.55 72.38 72.01 71.81 71.70 70.97 70.75 70.86 70.82 70.30 69.41 69.26 69.58 70.02 70.61 70.65 70.00 69.68 69.65 69.63
50.91 51.93 43.81 43.59 48.75 53.53 55.42 56.35 59.75 59.06 59.67 59.53 59.12 58.38 57.25 61.79 62.55 64.47 65.81 66.18 70.04 69.39 68.64 70.81 72.97 73.61 73.44 73.37 73.00 72.70 72.25 72.08 72.11 71.96 71.88 71.76 71.74 71.51 71.22 70.37 69.93 70.40 70.76 70.91 69.77 69.59 68.88 68.75 68.89
50.86 47.34 44.44 46.27 48.37 51.39 54.82 57.17 54.67 54.39 55.48 57.41 59.23 56.35 57.84 60.58 62.67 63.66 64.68 64.84 64.99 69.76 69.16 70.30 70.86 72.16 73.89 73.44 72.99 72.59 72.27 72.13 71.78 71.64 71.83 71.86 71.81 71.54 71.54 71.51 71.24 70.87 71.44 70.55 69.97 68.87 67.95 67.91 68.08
55.42 48.35 44.16 46.43 47.43 49.20 55.73 56.63 55.17 55.90 56.90 61.70 61.31 56.43 55.55 60.35 63.65 63.33 62.45 63.89 64.01 68.21 70.40 69.83 70.04 70.40 70.85 71.38 73.56 72.76 72.39 72.20 72.00 71.88 71.95 72.05 71.93 71.83 72.07 71.49 71.89 71.61 71.15 70.87 69.61 68.33 68.08 67.57 67.41
60.49 46.28 43.04 46.00 48.30 50.87 55.94 54.46 58.18 60.02 58.38 58.92 60.20 60.24 61.64 62.30 62.83 59.93 58.85 59.22 60.80 65.08 70.24 70.22 69.77 69.92 69.82 70.13 71.83 72.74 73.14 72.59 72.44 71.99 72.20 71.27 68.97 69.37 70.05 71.13 71.52 71.88 71.86 71.10 69.65 68.64 68.28 67.72 67.46
56.10 46.88 46.73 51.24 52.16 52.19 55.06 55.72 57.13 57.53 57.27 57.47 58.83 61.35 62.06 61.28 59.72 58.36 57.74 57.21 57.17 58.24 68.94 70.16 69.82 69.65 69.77 70.51 70.01 70.46 70.45 70.19 70.42 69.94 69.56 69.28 68.05 66.41 68.23 69.56 71.93 72.30 72.23 71.12 70.09 69.33 68.38 67.53 63.35
54.12 49.38 52.38 52.62 53.97 55.20 55.05 56.28 58.66 56.42 54.70 57.09 56.97 59.40 61.33 60.58 59.51 58.56 58.09 57.80 57.64 59.37 63.69 70.04 69.95 69.97 69.81 69.64 69.35 69.98 69.93 69.71 69.99 69.05 67.75 68.70 67.78 66.86 67.76 65.49 68.32 68.54 70.33 66.63 67.76 66.66 65.45 63.55 62.48
49.33 53.93 54.99 54.82 55.58 54.86 54.45 57.03 56.30 56.68 55.40 58.26 59.06 60.68 60.62 59.79 58.20 58.41 57.93 58.05 58.17 58.53 59.26 67.23 70.37 70.44 69.86 69.75 68.64 69.72 69.23 69.23 68.93 68.96 67.07 67.61 67.47 67.26 66.32 64.04 64.72 64.92 65.28 64.03 63.30 64.10 64.43 62.92 63.57
50.59 51.72 53.82 55.70 56.27 56.15 56.74 55.49 55.82 56.26 58.53 58.93 59.12 59.76 58.18 58.29 58.53 59.29 59.24 59.07 59.06 57.66 59.41 62.38 66.68 70.36 70.03 68.45 68.34 69.33 69.15 68.96 68.42 68.04 67.83 67.53 67.58 66.58 64.49 63.00 63.31 64.11 63.81 64.47 63.65 63.63 64.61 62.67 62.67
51.13 53.10 53.44 54.00 53.44 54.27 53.66 54.13 54.90 55.95 57.83 57.61 57.80 57.24 57.76 57.92 58.41 58.25 58.48 58.51 58.71 59.24 60.65 61.31 65.99 68.45 69.31 68.55 68.06 69.54 69.75 69.28 68.33 68.11 67.99 68.79 68.34 65.76 64.74 64.39 64.52 63.66 63.44 62.26 63.07 62.44 62.17 61.31 61.83
49.37 47.33 49.77 51.42 53.38 52.59 54.17 51.12 52.23 56.12 57.13 56.68 56.28 56.73 57.22 57.27 58.26 58.20 58.88 58.68 59.73 61.72 61.25 61.25 62.34 66.71 68.38 68.13 68.28 69.52 69.84 69.34 68.47 68.15 68.83 69.37 66.89 64.89 64.98 63.93 64.01 64.06 63.78 63.29 63.07 62.91 62.83 62.32 61.76
47.29 47.14 42.70 48.68 50.96 52.59 52.83 46.96 52.86 55.86 55.64 55.31 56.76 57.35 56.99 57.19 58.06 58.56 58.91 58.58 60.94 61.02 60.70 61.73 70.51 68.36 68.51 67.46 68.24 69.39 69.23 67.99 67.42 66.38 68.13 67.78 65.92 65.22 64.88 64.17 63.63 63.93 63.67 62.91 62.37 62.10 61.50 61.79 61.55
43.94 40.09 42.33 45.50 51.15 50.93 50.70 47.90 53.39 55.60 55.32 55.05 55.98 56.55 56.85 57.16 57.26 58.31 60.09 59.05 59.03 60.60 60.33 62.57 66.47 68.26 68.58 68.87 68.16 68.59 68.32 66.24 65.49 64.65 65.23 67.09 66.42 66.84 64.88 64.45 63.77 64.13 63.66 63.03 62.57 61.72 61.23 60.30 60.59
38.41 40.63 43.23 43.29 48.22 49.92 48.70 48.68 52.10 54.16 54.22 54.50 55.27 56.03 56.64 57.17 56.30 57.37 58.97 60.15 60.40 62.58 64.38 64.47 67.70 68.83 69.10 69.31 68.79 68.14 66.08 64.84 64.77 64.53 64.55 65.44 66.15 66.67 65.28 64.36 63.71 64.00 62.59 61.61 61.59 61.00 60.75 59.87 59.71
43.83 43.59 42.98 46.01 49.33 48.03 47.49 48.17 50.76 53.30 52.44 52.31 52.76 53.39 54.19 55.28 57.00 57.50 59.72 59.32 62.42 62.17 63.80 65.84 68.14 68.46 69.91 68.90 67.72 65.87 64.15 63.67 64.48 65.51 64.76 66.27 65.90 66.28 65.30 65.30 63.76 63.46 62.36 61.62 61.67 60.61 59.63 58.59 59.45
42.01 39.81 39.92 45.06 49.14 47.86 47.48 47.34 51.00 52.66 52.39 53.07 53.51 53.90 53.48 54.83 56.13 57.46 57.99 59.35 61.89 62.53 65.22 65.95 67.70 68.11 67.73 68.07 66.28 65.10 63.44 62.98 62.85 63.53 64.07 65.11 65.55 64.54 64.19 63.38 63.13 61.85 62.11 61.59 61.38 60.93 57.89 57.33 58.41
40.76 39.46 39.95 40.37 44.84 46.52 45.24 43.40 46.19 49.68 51.73 53.21 53.49 53.66 54.22 54.58 54.47 55.86 56.38 61.21 62.28 63.24 63.81 64.71 66.08 67.53 67.34 67.38 65.83 64.30 63.40 62.57 62.05 62.09 63.05 64.24 64.76 64.74 63.75 63.61 62.43 62.65 62.34 59.93 59.51 59.65 58.67 56.43 57.87
37.72 43.95 43.74 42.84 41.23 36.71 44.20 35.84 43.45 46.93 48.52 50.79 52.55 52.15 53.17 52.93 54.58 55.04 54.96 60.99 62.18 63.21 64.23 65.60 67.08 67.01 66.14 65.32 64.31 62.77 60.44 60.21 60.77 61.06 62.33 64.10 64.41 65.64 64.63 63.92 62.77 61.62 61.18 60.21 59.95 61.09 59.61 58.79 57.15
39.93 45.57 43.53 43.11 40.37 39.21 40.49 36.56 41.95 46.17 46.34 48.49 50.31 52.52 52.79 53.70 54.36 54.93 55.16 62.53 62.78 63.62 64.13 66.05 66.25 65.15 65.97 63.86 63.90 62.22 60.48 61.28 61.83 62.36 62.68 63.07 63.30 63.95 64.51 63.41 62.34 61.66 61.00 60.39 60.22 59.79 59.31 58.73 57.45
44.60 42.90 42.36 41.77 39.07 33.14 39.13 38.53 39.27 42.24 45.45 47.61 51.04 52.09 52.68 52.89 53.47 57.26 62.35 63.07 63.02 64.40 65.14 65.36 64.63 64.43 64.52 63.85 63.48 61.13 60.61 61.14 60.40 61.13 60.48 60.67 61.79 62.39 63.24 63.62 62.11 61.67 61.01 60.73 60.31 60.07 59.65 59.87 59.78
39.96 37.17 30.07 29.66 30.59 30.97 40.42 38.52 41.43 45.00 48.39 50.03 50.24 51.51 52.15 53.64 55.23 60.66 61.15 61.63 62.35 63.35 64.23 64.06 63.79 62.99 63.09 64.59 63.07 63.04 61.55 61.03 60.91 61.21 61.15 61.21 61.27 61.61 61.54 61.63 61.37 61.10 61.19 61.69 61.47 60.73 60.46 60.38 60.14
36.41 36.83 31.53 25.07 28.33 32.27 40.79 35.50 39.22 47.66 50.27 51.40 52.35 52.00 54.67 55.25 59.78 60.47 61.01 61.16 62.24 63.53 63.80 63.24 63.11 62.45 63.07 62.72 62.46 62.66 62.33 61.59 62.19 61.72 61.78 61.68 61.23 61.38 61.57 61.45 61.58 62.04 62.27 62.05 61.40 60.87 60.01 60.25 59.42
36.17 33.42 40.20 34.86 37.13 32.65 36.98 40.46 45.27 47.52 48.00 50.27 50.80 53.47 56.85 58.84 59.68 60.09 60.58 61.38 62.62 62.98 62.56 62.81 62.57 62.30 62.90 62.50 62.22 62.30 62.61 62.41 61.97 61.84 61.77 62.06 61.71 61.56 61.65 61.70 61.65 62.04 61.77 61.66 61.21 60.04 60.72 60.55 58.96
40.67 40.86 32.94 35.47 27.53 26.83 35.31 37.32 38.78 44.51 47.42 48.69 50.41 52.78 57.19 58.51 59.17 59.83 60.30 61.67 62.69 62.87 62.62 62.76 62.42 62.00 62.37 62.44 61.93 62.76 62.48 62.85 62.60 61.73 61.07 61.70 61.76 61.43 61.33 62.03 62.23 61.87 61.59 61.78 62.00 60.52 61.26 59.63 59.78
37.39 35.71 35.76 35.46 35.68 30.55 29.96 35.42 45.56 45.89 48.08 48.61 50.33 56.94 57.46 58.02 58.74 59.62 61.00 62.06 62.37 62.58 62.65 62.28 61.95 61.84 61.81 61.50 61.37 62.42 62.57 62.89 62.29 62.04 61.92 61.09 61.01 61.34 61.75 62.92 62.52 61.82 61.93 62.33 60.79 60.08 61.62 60.92 60.19
40.25 37.35 36.82 32.15 31.62 37.04 35.53 36.70 48.10 50.84 49.90 50.79 54.51 57.50 57.93 58.79 59.39 60.17 60.94 61.57 61.45 61.44 61.71 61.27 60.99 60.85 61.72 62.04 62.17 62.31 63.42 62.64 61.85 61.65 61.77 60.33 61.87 60.61 61.35 62.30 62.56 62.63 62.33 61.21 60.58 60.41 61.03 61.29 60.61

GFSSGP_sfc_wetblb_036.txt.gz
Wetbulb
65.44 62.99 58.75 55.68 47.38 45.72 42.73 47.92 52.33 52.91 54.03 56.98 57.69 55.56 54.06 55.23 55.01 50.95 61.27 68.13 69.05 68.22 71.04 72.76 73.68 73.34 72.79 72.40 72.01 71.71 71.03 70.77 70.39 69.63 68.23 67.49 67.34 67.10 66.91 66.48 66.27 66.24 66.24 66.13 65.97 66.05 66.24 66.43 66.56
61.63 60.23 55.00 53.54 44.23 40.32 42.27 49.20 50.82 56.20 57.95 59.42 57.81 56.86 57.35 57.35 61.53 62.20 64.88 69.20 68.87 68.72 70.17 70.52 73.55 73.23 73.18 72.51 72.09 71.69 71.05 70.88 70.70 69.91 68.38 67.84 67.65 67.44 67.22 67.01 66.99 66.83 66.94 66.88 67.15 67.39 67.69 67.42 67.39
62.55 62.49 50.66 48.68 45.00 41.88 42.73 52.52 55.61 57.51 59.10 59.62 58.34 58.92 58.14 58.83 63.35 63.42 65.48 69.16 68.33 67.98 69.42 69.74 73.48 73.10 73.23 72.66 72.21 71.62 71.30 71.18 70.92 70.05 69.38 68.73 68.49 68.76 68.39 67.37 67.48 67.81 68.03 68.08 68.71 69.06 69.03 68.90 68.84
58.09 56.30 52.03 45.52 44.98 48.77 50.33 53.29 55.71 57.45 59.24 60.72 60.51 57.09 58.48 63.47 63.91 64.78 69.57 68.92 67.20 67.32 68.51 71.33 73.23 73.13 73.08 72.96 72.34 71.92 71.60 71.35 71.15 70.74 70.48 69.87 69.06 69.32 69.01 68.21 68.53 68.57 69.00 69.36 69.63 70.04 70.06 69.90 69.72
56.15 52.42 44.68 43.59 46.09 50.69 54.16 55.71 55.35 56.73 57.52 59.83 60.49 56.31 57.06 61.95 65.40 69.43 69.24 68.70 66.47 66.51 66.93 70.42 73.15 73.20 73.33 73.15 72.59 72.02 71.65 71.47 71.57 71.59 70.94 70.69 70.50 70.14 69.07 69.04 69.13 69.16 69.33 69.70 70.32 70.68 69.89 69.69 69.82
49.60 49.13 41.50 41.88 46.47 51.28 53.32 55.23 56.06 57.52 58.77 59.21 58.73 58.45 56.34 61.20 64.95 68.88 69.51 68.11 67.69 66.45 65.65 68.65 73.01 73.11 72.88 72.76 72.31 72.07 71.74 71.55 71.82 71.84 71.77 71.35 71.13 71.13 70.14 69.93 69.42 69.57 70.15 70.77 70.84 70.21 69.89 69.38 69.00
48.84 44.69 41.26 44.24 46.91 49.43 52.81 55.94 54.36 56.86 56.70 57.11 58.30 55.64 56.81 59.86 62.39 67.56 69.15 68.72 68.26 67.42 65.84 67.85 69.78 71.84 73.25 72.54 72.39 72.06 71.84 71.57 71.64 71.64 71.52 71.67 71.64 71.59 71.47 71.08 70.21 69.96 70.61 70.91 70.96 70.14 69.63 68.75 68.24
52.60 47.36 41.64 43.42 45.58 47.00 53.70 54.74 54.81 55.02 56.82 60.25 61.06 55.13 53.70 58.81 61.98 62.81 65.72 65.74 67.20 67.63 66.60 67.54 68.23 69.54 70.14 70.34 73.03 72.55 72.13 71.98 71.74 71.83 71.71 71.76 71.83 71.86 71.64 71.09 71.27 70.66 71.08 71.40 70.79 70.22 69.58 68.78 68.22
57.42 44.34 40.54 43.40 46.23 49.11 53.27 51.96 56.71 58.75 57.27 58.11 59.04 58.65 60.57 62.53 61.67 59.84 58.43 59.15 60.57 66.50 66.48 68.14 68.15 67.57 68.88 69.14 70.78 72.48 72.68 72.35 71.96 71.64 71.76 70.84 69.17 68.91 69.41 70.54 70.83 71.13 71.62 71.76 71.10 70.76 69.83 68.73 67.95
53.08 48.38 47.05 49.62 50.39 48.97 51.73 52.15 53.82 55.52 56.37 56.49 59.04 60.24 61.29 61.82 60.31 59.33 58.27 57.90 59.19 64.37 66.85 67.81 67.98 67.71 67.42 68.70 68.68 70.06 69.70 69.32 69.43 68.80 68.48 68.84 67.76 66.79 69.14 70.02 71.29 71.25 71.93 72.27 71.70 71.00 69.44 68.58 63.91
52.52 50.51 53.76 53.80 52.89 53.06 52.69 52.94 55.14 54.33 53.15 55.77 55.56 57.71 59.55 59.50 58.39 58.25 58.26 57.70 57.59 61.47 67.14 68.34 68.12 68.21 67.76 67.50 67.90 69.57 68.89 68.35 68.47 68.23 67.85 68.27 67.62 67.06 67.24 65.79 66.79 68.45 71.30 68.95 69.60 67.85 66.60 64.39 62.96
49.02 53.73 54.97 55.18 55.67 54.33 52.49 54.50 53.06 54.28 54.89 57.93 57.97 58.97 59.29 58.75 58.19 57.88 57.14 57.38 56.68 57.39 64.49 68.20 68.24 67.97 67.88 67.66 67.64 68.09 68.03 68.06 68.17 68.24 67.89 67.60 66.69 65.32 64.49 65.35 64.64 65.50 66.22 65.68 64.43 64.03 63.74 63.49 63.07
47.77 51.04 52.91 54.35 54.99 54.80 55.41 53.54 53.69 54.51 57.45 58.84 58.59 57.66 57.09 57.97 57.65 57.77 58.28 57.87 57.45 56.51 57.47 67.31 68.28 67.93 68.16 67.39 67.76 67.77 67.68 67.64 67.93 68.04 67.51 67.35 66.47 65.28 65.02 65.17 63.43 64.06 63.69 63.58 62.55 62.35 63.02 63.00 63.18
45.98 46.65 49.59 51.90 51.53 52.46 52.31 52.83 53.88 54.72 57.16 56.71 56.71 56.06 56.62 56.68 56.89 56.46 56.59 57.03 56.56 57.69 57.49 61.45 67.65 68.24 68.29 67.85 67.29 67.93 68.00 67.77 67.35 67.38 67.34 66.98 66.61 66.10 66.01 63.54 61.66 62.84 63.05 63.27 63.91 64.02 62.56 62.36 62.46
46.10 42.96 46.51 47.71 48.58 50.44 53.03 49.55 50.40 54.88 56.01 55.01 55.67 55.96 55.94 55.41 56.03 56.35 57.67 57.10 57.36 57.58 58.24 58.73 65.03 67.96 68.17 67.94 67.05 67.79 68.16 68.16 67.26 66.97 66.90 66.78 66.95 66.59 65.43 63.66 63.21 62.71 62.71 62.04 63.75 62.50 61.45 61.01 61.14
43.32 42.50 39.04 46.10 48.39 49.52 49.58 43.99 52.03 55.02 54.35 53.56 54.23 55.57 56.42 56.87 57.01 57.52 56.98 56.24 56.88 57.19 59.16 58.77 63.29 65.68 67.51 67.54 66.02 68.12 68.48 68.06 67.38 67.13 66.99 67.42 67.33 66.68 64.17 63.13 62.95 63.20 62.62 62.08 61.40 60.91 60.59 60.50 60.50
39.32 37.85 40.24 43.33 48.79 48.61 48.09 45.26 50.56 53.45 53.56 52.41 53.04 54.51 55.63 56.43 56.14 55.75 57.39 57.94 57.69 58.03 58.80 57.60 63.09 64.03 65.59 64.93 66.93 67.78 67.73 67.73 66.10 66.55 67.64 67.77 67.52 65.47 63.95 63.12 62.94 62.92 62.30 61.40 61.05 60.61 60.21 59.16 59.04
35.70 37.57 40.85 41.21 46.52 48.09 46.61 46.16 49.64 51.93 52.24 52.13 53.06 54.07 54.81 55.44 56.07 56.87 57.48 58.06 57.42 57.24 58.07 58.79 64.96 65.03 65.88 66.07 66.34 66.36 64.99 63.88 64.12 65.41 66.36 66.20 66.15 65.79 63.71 63.41 62.85 62.85 61.48 60.94 60.64 60.10 59.70 59.45 58.95
40.90 40.01 40.03 43.29 47.00 46.22 45.55 46.02 48.16 50.69 50.64 50.27 51.83 52.70 53.79 54.71 56.55 57.81 57.94 56.54 58.75 60.83 61.85 62.32 65.17 65.76 67.64 66.50 65.79 63.87 62.40 61.95 62.15 63.44 65.48 65.37 64.77 64.83 63.35 63.09 62.50 62.34 61.68 60.54 60.32 60.18 60.12 59.60 59.06
39.00 37.47 37.46 41.20 44.04 44.50 44.85 44.78 48.18 50.09 50.37 51.13 51.80 52.54 52.03 51.51 53.32 55.26 55.79 58.36 59.87 60.80 61.58 64.17 65.61 66.95 66.97 66.35 64.97 63.76 62.22 61.53 62.22 63.16 64.52 65.48 65.02 64.48 63.96 63.02 62.22 62.06 60.88 60.59 60.11 59.32 57.65 57.73 57.55
38.29 36.57 37.60 38.05 41.94 43.47 41.25 39.90 42.39 46.70 48.44 49.73 50.38 51.56 52.09 52.05 52.91 53.84 55.20 57.18 58.79 61.19 63.03 64.81 66.07 66.16 66.23 65.79 64.56 62.20 61.77 61.59 60.44 60.40 61.05 63.21 64.43 64.02 63.55 62.71 62.07 61.31 60.96 59.54 58.92 58.63 57.25 55.16 55.67
34.42 41.47 41.24 39.81 37.86 33.15 41.62 32.68 40.12 44.27 45.64 47.79 48.98 49.18 49.56 51.73 52.42 53.69 53.49 57.81 59.34 61.35 63.20 65.44 66.25 66.30 66.19 64.92 63.38 62.07 59.78 59.10 59.64 60.28 60.93 62.38 63.53 63.32 64.04 62.73 62.16 61.22 60.44 59.34 58.67 59.48 57.91 56.79 55.10
36.74 42.62 41.22 40.66 37.84 35.40 37.60 32.04 38.86 42.55 42.98 45.63 47.44 48.68 51.05 52.25 51.58 51.40 52.98 59.01 60.24 62.24 63.28 65.10 65.20 65.02 63.96 63.71 63.51 60.96 59.06 59.41 59.64 60.85 61.22 61.47 62.10 63.15 63.53 62.69 61.67 60.40 59.48 59.19 59.06 59.01 58.21 57.59 56.21
40.52 39.24 39.26 39.21 34.65 29.49 35.70 34.32 36.42 39.59 42.29 44.38 47.85 49.39 50.28 50.95 51.04 53.25 56.82 61.37 61.49 63.56 64.95 64.71 63.76 63.08 62.87 62.57 61.46 60.16 60.58 59.25 59.83 59.99 60.18 60.11 60.47 61.40 62.42 62.60 61.10 60.38 59.53 59.42 59.28 58.88 58.32 57.79 57.65
36.15 30.11 25.03 23.82 25.84 28.08 37.97 34.94 38.11 41.26 44.07 45.59 46.60 48.41 50.65 50.55 51.23 58.27 59.46 60.61 62.29 63.53 63.92 63.20 63.01 61.85 61.91 61.15 61.40 60.34 60.02 59.93 59.88 59.23 59.17 59.56 59.69 60.25 60.84 60.64 60.04 59.73 59.95 59.95 60.00 59.21 58.83 58.35 58.23
32.35 31.11 25.91 21.29 23.09 28.92 37.84 31.98 37.05 44.93 47.54 48.47 49.26 49.66 50.14 51.36 53.84 58.26 59.67 61.05 62.55 63.06 63.04 62.78 61.67 61.22 61.63 61.41 60.76 60.45 60.67 60.62 60.24 59.55 59.79 60.11 60.07 59.98 60.48 60.36 60.10 60.61 61.01 60.99 60.38 59.43 59.11 59.06 58.59
34.34 29.76 34.16 28.83 33.20 28.04 33.19 38.39 43.35 46.00 46.26 47.21 47.20 48.50 52.69 55.34 57.24 58.45 59.61 61.31 62.24 62.20 61.89 61.85 61.17 61.07 60.84 60.60 60.91 60.53 61.22 60.88 59.77 60.23 60.26 60.22 60.31 60.64 60.27 60.53 60.41 60.84 61.20 61.07 59.86 59.11 59.26 59.28 58.32
36.26 39.18 28.28 27.24 23.09 23.53 30.55 33.52 35.70 41.10 44.01 45.24 45.52 48.05 54.30 55.90 57.34 58.37 60.20 61.34 61.94 61.68 62.02 61.19 61.05 60.92 60.70 60.34 60.78 60.97 61.02 61.36 61.11 60.39 60.25 60.36 59.92 60.21 60.35 60.22 60.58 60.63 60.79 60.81 60.13 59.53 61.06 59.34 58.19
32.57 32.30 32.47 30.90 29.63 27.16 24.81 31.28 41.07 43.16 44.16 45.25 46.62 52.44 55.58 56.71 57.48 58.81 60.30 61.17 61.41 62.00 61.71 60.78 60.56 60.69 60.27 60.01 60.23 60.12 60.78 61.39 61.01 60.20 60.43 60.52 60.03 59.96 60.69 61.63 61.36 60.80 60.91 60.70 59.55 59.09 59.92 57.43 58.28
37.45 34.39 33.22 26.21 26.71 30.57 32.12 32.94 44.97 44.33 46.70 47.35 48.24 55.65 56.58 57.64 57.81 59.48 60.23 60.57 60.79 61.37 60.93 60.31 60.23 60.58 60.15 59.65 61.02 60.66 61.18 60.87 60.40 60.53 60.34 59.41 59.66 60.07 61.11 62.07 61.53 61.65 61.24 59.60 59.80 59.71 60.66 60.65 59.33

GFSSGP_sfc_wetblb_039.txt.gz
Wetbulb
66.83 62.83 56.93 54.70 46.52 45.40 41.52 44.99 49.86 51.50 52.80 57.15 57.65 53.98 55.43 56.01 55.17 49.15 59.72 67.01 67.59 67.51 70.86 72.77 73.72 73.42 72.91 72.60 72.33 71.79 71.29 70.80 70.48 69.71 68.48 67.79 67.48 67.19 67.00 66.63 66.33 66.20 66.27 66.25 66.17 66.07 66.17 66.15 66.23
60.30 59.41 54.88 52.10 42.47 39.03 40.93 47.96 48.76 52.82 57.22 59.17 56.25 55.28 55.31 55.73 60.01 61.34 62.27 67.62 67.95 68.82 70.86 71.35 73.75 73.30 73.05 72.55 72.18 71.64 71.22 71.05 70.72 70.14 68.79 67.95 67.79 67.50 67.24 66.94 66.65 66.68 66.82 66.74 66.82 67.00 67.16 67.10 66.87
61.03 59.86 50.28 48.14 43.33 39.96 42.00 49.02 53.01 56.02 57.74 57.49 56.67 57.23 57.74 58.15 62.89 62.63 64.49 67.97 67.43 68.54 70.40 70.53 73.67 73.15 73.15 72.75 72.26 71.69 71.32 71.12 70.95 69.80 69.07 68.37 68.18 68.22 68.08 67.51 67.41 67.56 67.64 67.62 67.96 68.42 68.42 68.55 68.63
57.39 55.10 50.75 44.76 43.52 47.39 46.92 50.97 53.08 54.33 56.36 58.79 58.16 55.37 57.82 62.80 62.97 63.94 68.34 67.90 67.04 67.76 69.41 71.11 73.62 73.25 73.23 73.03 72.66 72.06 71.52 71.39 71.05 70.38 69.92 69.07 68.44 68.92 68.56 67.69 67.70 68.03 68.35 68.61 68.67 69.28 69.56 69.57 69.49
55.27 50.43 43.60 41.96 44.62 49.18 52.20 53.65 53.06 52.74 55.55 57.34 58.02 54.98 56.45 61.54 65.26 68.00 67.64 67.94 65.89 66.64 67.87 69.68 73.32 73.10 73.35 73.03 72.56 72.16 71.69 71.37 71.37 71.17 70.58 70.03 70.02 69.71 68.95 68.33 68.43 68.55 69.06 69.52 69.64 69.89 70.24 70.12 70.26
49.25 48.69 40.89 40.15 44.65 49.76 52.04 53.12 52.68 55.42 56.51 57.97 56.61 55.29 56.27 60.93 65.39 67.31 67.79 66.65 66.41 66.04 66.52 67.66 73.15 73.15 73.17 73.18 72.65 72.09 71.62 71.49 71.44 71.40 71.19 70.95 70.65 70.19 69.16 68.98 69.00 69.27 69.41 69.73 70.04 70.52 70.48 70.09 69.41
47.78 44.31 41.27 42.48 45.26 47.68 51.67 52.93 51.86 51.73 55.10 56.30 57.47 55.25 55.24 58.69 63.49 67.87 67.57 66.34 65.59 65.56 65.32 66.18 70.04 71.57 73.50 73.00 72.63 72.13 71.66 71.35 71.35 71.59 71.37 71.25 71.08 70.95 70.46 70.07 69.56 69.38 69.86 70.19 70.70 70.80 70.46 70.22 69.04
50.83 46.10 41.57 43.29 44.21 45.76 52.45 52.31 53.07 53.23 54.25 58.68 59.91 54.87 53.13 57.81 61.86 66.70 66.31 64.92 64.43 64.34 64.02 64.72 68.01 69.31 69.94 70.25 72.82 72.25 71.86 71.79 71.49 71.71 71.66 71.46 71.44 71.56 71.51 70.83 70.92 69.76 70.06 70.53 70.95 71.22 70.76 70.09 69.11
52.73 42.36 39.85 43.39 44.78 47.45 51.36 50.05 55.22 56.30 55.31 56.92 57.48 57.44 59.19 60.37 60.93 60.86 59.49 59.84 62.36 65.68 63.82 63.76 66.16 67.37 68.45 68.54 69.94 72.30 72.16 72.16 71.78 71.72 71.80 70.62 68.73 68.92 68.99 70.29 70.41 70.34 70.44 71.22 71.17 71.14 70.94 69.99 68.56
50.96 43.93 44.33 48.49 49.79 48.13 50.84 49.69 51.90 52.90 53.52 53.62 56.10 59.02 60.19 61.23 58.85 58.58 57.80 60.76 59.72 64.11 64.87 65.39 65.77 65.49 66.55 67.57 67.14 69.30 69.15 68.93 69.29 69.05 68.73 68.77 67.47 66.99 68.66 69.34 70.51 70.22 70.81 71.63 71.91 71.79 70.80 69.11 64.83
51.36 48.30 51.61 51.63 52.21 53.66 53.26 51.72 53.10 52.45 50.61 53.37 54.70 56.83 57.87 58.65 58.14 57.94 58.90 59.26 61.13 63.17 65.11 66.27 66.32 65.87 65.08 66.16 66.69 68.03 68.41 68.06 68.29 67.69 67.16 67.56 67.31 66.97 67.84 66.24 66.93 67.31 70.29 68.50 69.66 69.83 67.96 65.10 63.68
47.48 52.47 54.51 54.99 56.44 54.99 53.00 55.16 52.70 52.58 52.95 56.46 57.42 58.03 57.34 57.27 56.44 56.80 57.40 57.41 55.94 56.92 62.48 66.18 66.96 66.26 65.38 65.34 65.99 66.36 67.63 67.29 66.94 67.24 66.71 66.70 66.16 65.27 65.35 65.14 64.12 64.42 66.20 67.42 66.49 65.36 64.56 63.97 63.87
47.56 50.20 51.90 54.65 55.49 55.41 55.37 53.30 53.13 53.23 56.15 58.04 58.48 57.82 56.68 56.05 56.22 56.70 56.67 57.40 56.51 54.38 56.86 63.78 66.83 66.64 66.44 65.27 65.50 65.88 66.93 66.62 66.07 66.53 66.82 66.35 65.74 64.26 64.31 63.45 63.70 64.24 64.31 65.16 63.98 63.26 62.93 62.56 62.70
44.58 45.69 48.46 49.99 49.57 50.95 51.27 51.99 53.31 54.51 57.10 56.19 56.21 55.68 54.90 54.87 55.65 55.41 55.63 55.76 55.77 56.46 55.62 60.98 66.14 66.76 66.85 66.35 65.83 65.78 66.08 66.37 66.04 66.31 66.80 66.46 65.61 64.10 63.72 63.58 63.32 62.66 63.24 63.45 63.26 62.67 61.49 61.39 62.12
43.98 40.75 44.08 45.13 45.57 46.27 50.49 47.52 49.00 53.76 55.09 54.08 54.04 54.50 54.55 54.56 55.10 54.72 55.31 55.30 55.96 56.73 56.86 56.92 65.15 66.26 66.37 66.41 66.21 66.13 66.28 66.44 65.91 66.08 66.64 66.69 65.48 64.32 63.79 63.30 61.80 62.56 62.46 62.16 62.03 62.82 61.84 61.68 60.33
41.31 39.86 37.83 44.46 46.22 47.27 48.16 42.67 49.95 53.34 53.89 53.61 53.91 54.25 54.00 54.27 54.89 55.27 55.88 55.67 56.06 55.48 55.46 55.70 62.98 65.88 66.03 66.31 66.39 66.21 66.59 66.74 66.17 66.06 66.46 66.48 65.97 65.54 63.69 63.66 62.98 62.57 61.60 61.21 61.17 61.88 62.00 60.40 59.29
38.26 36.66 37.65 41.64 46.77 47.02 46.72 43.84 50.08 52.05 51.97 51.42 51.96 52.25 53.28 54.45 54.25 55.18 56.35 56.73 55.84 56.05 55.61 55.96 58.96 64.01 65.97 65.96 65.74 65.39 66.17 66.53 66.53 66.02 65.83 66.02 66.15 66.22 64.38 63.36 62.78 62.18 61.30 60.67 60.39 59.67 59.64 58.51 59.15
34.11 35.34 38.53 39.08 44.29 46.40 45.25 44.75 48.59 50.83 50.41 50.05 50.67 51.56 52.38 53.18 54.11 55.97 57.09 57.06 56.26 55.53 55.82 55.85 56.66 60.63 63.36 63.48 63.71 64.46 65.14 64.89 65.58 65.86 66.48 66.57 66.57 65.48 64.37 64.02 62.18 61.81 60.83 60.11 59.41 59.30 59.15 59.69 60.03
38.13 36.46 36.40 40.91 45.19 44.87 44.23 44.12 46.46 48.84 49.27 49.61 50.55 51.16 51.81 52.62 54.25 55.44 55.76 56.18 54.96 54.89 54.51 56.08 57.78 61.73 63.75 64.36 64.36 62.87 63.94 63.31 62.77 65.16 66.51 66.17 65.92 64.97 63.89 62.65 61.86 61.47 60.79 60.60 59.74 59.49 59.23 59.88 59.59
36.85 34.84 34.60 39.53 42.93 41.40 41.16 41.87 44.88 46.72 48.17 48.27 49.04 50.40 50.93 51.47 52.71 54.29 54.48 53.55 54.79 56.48 57.03 57.60 59.31 63.66 64.42 64.81 62.66 62.45 62.00 61.05 62.32 64.13 65.45 65.57 65.50 65.26 64.24 61.79 61.30 60.87 60.35 59.78 59.37 60.82 59.23 56.54 57.32
35.32 34.63 35.64 35.88 40.39 41.55 39.62 37.95 40.52 44.04 45.63 47.98 49.73 50.33 50.26 50.44 51.30 52.36 52.55 52.99 54.83 56.58 58.39 59.95 62.45 63.95 64.02 63.56 62.31 60.74 60.91 60.22 60.15 60.45 61.46 63.30 64.73 64.75 63.58 62.21 61.54 60.91 60.10 59.43 59.48 60.23 57.06 54.81 54.85
31.04 38.80 39.09 38.38 35.44 30.94 38.86 30.03 38.10 41.63 42.87 44.85 45.54 47.55 47.36 48.76 51.13 50.86 52.04 51.68 55.09 57.19 61.43 63.10 64.18 64.77 64.56 63.81 61.96 62.16 59.65 58.95 58.51 59.35 60.31 61.95 63.25 63.02 63.16 62.46 61.59 60.73 59.87 58.83 58.23 58.67 56.92 55.38 53.59
33.75 38.72 38.00 37.76 35.20 32.02 34.07 29.94 36.74 40.41 39.86 42.59 45.29 46.94 47.17 49.55 49.74 49.57 50.31 51.57 55.53 60.72 61.79 63.54 64.54 64.30 63.66 62.78 62.73 60.90 59.19 58.71 58.97 59.47 60.12 60.11 61.19 62.29 62.76 62.48 62.07 59.72 59.15 58.62 58.46 57.80 56.92 56.40 55.02
38.66 35.83 35.82 35.89 32.11 25.49 33.28 32.08 34.13 37.32 40.34 42.81 44.44 45.58 47.69 47.74 48.70 49.20 51.30 52.68 58.78 61.17 63.13 63.74 64.18 62.20 62.61 62.23 60.99 60.24 59.65 58.47 58.82 58.70 58.93 59.29 59.75 60.41 61.58 61.77 60.41 59.72 58.86 58.48 58.36 57.94 57.42 56.76 56.16
34.13 27.76 21.82 21.73 22.63 25.32 35.07 32.20 35.95 39.07 41.56 42.67 43.35 44.47 46.30 47.35 47.01 49.58 55.51 57.52 59.74 61.89 62.38 62.78 63.20 60.75 61.25 60.79 60.18 60.00 59.17 59.27 59.25 58.89 58.69 58.74 58.69 58.99 60.04 60.37 59.30 58.86 58.98 58.82 58.58 57.90 57.52 56.98 56.40
30.31 29.16 22.62 20.06 21.98 25.44 35.77 29.85 35.52 42.71 45.23 46.07 45.99 45.36 46.03 46.28 46.59 48.87 56.08 58.51 61.05 62.23 62.07 62.13 62.21 59.97 59.92 59.99 58.83 59.24 59.49 59.60 59.08 58.87 59.04 59.22 59.20 59.28 59.93 59.61 59.63 59.70 59.86 59.41 59.16 58.33 58.14 57.60 58.00
32.57 27.20 32.07 26.54 28.23 24.55 29.76 35.89 41.04 43.97 44.09 45.16 44.36 44.88 44.73 45.79 50.93 55.12 58.20 60.77 61.93 61.88 61.00 60.91 60.85 59.90 59.93 59.74 59.48 59.67 59.95 59.72 59.13 59.16 59.47 59.40 59.05 59.91 59.85 59.68 58.99 59.62 59.74 59.93 58.86 58.33 58.68 58.96 58.28
35.02 37.37 26.76 24.09 20.93 20.67 27.48 30.22 33.15 38.36 41.05 44.01 43.37 43.32 44.49 51.58 54.93 57.16 59.77 60.61 61.05 61.06 60.12 60.48 60.68 60.12 59.90 59.73 60.29 60.41 59.98 60.02 59.83 59.45 59.01 59.33 59.12 59.03 59.08 59.24 59.14 59.46 59.84 59.72 58.63 57.96 59.71 60.15 58.44
31.06 30.28 31.02 28.61 26.90 22.69 22.60 27.51 38.18 39.70 41.82 42.13 43.29 45.73 45.35 53.36 55.64 58.40 60.08 60.20 60.70 60.62 60.21 60.24 59.95 59.63 59.30 59.79 59.68 59.61 59.73 59.98 59.41 58.89 59.37 59.27 58.68 59.36 59.41 59.88 60.11 59.93 59.47 59.32 58.56 58.80 58.87 58.19 57.59
34.51 32.33 31.54 24.71 25.88 27.11 26.53 29.00 41.97 41.25 41.10 42.31 45.15 47.73 51.16 55.50 57.19 59.18 59.70 59.88 60.30 60.04 59.75 59.95 59.57 59.74 59.34 59.56 59.30 59.43 59.89 59.49 58.99 58.87 59.30 59.58 59.19 58.91 60.02 60.94 60.78 60.82 60.65 59.02 58.61 58.79 60.11 58.99 58.74

GFSSGP_sfc_wetblb_042.txt.gz
Wetbulb
66.74 62.64 55.17 53.36 44.25 43.88 39.27 43.18 46.98 48.09 50.11 54.96 55.91 55.52 56.06 54.95 53.49 49.12 60.65 65.93 65.82 67.01 70.69 72.66 74.22 73.85 73.45 72.92 72.53 72.14 71.72 71.24 71.01 70.72 70.14 69.20 69.04 67.80 67.27 67.16 66.95 66.81 66.64 66.48 66.10 65.84 65.80 65.77 65.90
61.79 57.97 54.43 50.53 40.32 38.38 38.58 46.60 47.54 49.58 55.30 57.40 55.53 54.62 54.92 54.10 58.77 59.53 60.27 66.71 65.95 68.32 70.64 71.10 74.10 73.80 73.62 73.15 72.76 72.29 71.77 71.35 71.24 70.79 69.53 68.92 68.83 68.05 67.76 67.26 67.21 67.19 67.18 66.81 66.68 66.84 66.73 66.57 66.54
58.85 57.37 50.26 46.75 41.12 38.57 39.64 48.26 51.29 54.23 56.60 56.45 55.56 56.35 56.76 56.45 61.12 60.51 63.39 67.16 67.48 68.37 70.36 70.33 74.00 73.48 73.45 73.18 72.81 72.36 71.82 71.50 71.34 70.58 69.78 68.98 68.68 68.66 68.34 67.49 67.37 67.45 67.83 67.45 67.80 67.97 67.96 67.99 67.96
57.62 53.92 49.56 43.81 42.31 45.57 45.60 48.88 51.48 52.55 54.25 56.86 57.87 54.06 57.00 61.55 62.02 62.76 66.84 67.28 67.20 67.80 69.82 71.29 73.85 73.45 73.50 73.30 72.93 72.36 71.72 71.50 71.29 70.65 70.21 69.65 68.81 69.16 68.73 67.89 67.85 67.79 68.30 68.25 68.25 68.98 69.00 69.20 69.33
53.62 49.79 43.21 41.29 43.23 47.60 49.75 51.66 51.14 51.12 51.89 56.02 58.06 53.94 55.31 61.48 64.67 66.89 66.70 67.10 66.60 67.04 68.70 70.05 73.80 73.38 73.60 73.58 73.08 72.48 72.04 71.74 71.50 71.24 70.63 70.16 70.12 69.66 68.83 68.23 68.09 68.15 68.76 69.10 69.15 69.30 69.64 70.06 69.78
48.15 47.63 40.15 39.17 43.54 48.62 49.40 51.31 50.71 51.37 53.52 57.04 56.06 54.59 56.19 60.54 65.01 65.98 67.02 65.77 65.90 66.50 67.29 68.40 73.47 73.30 73.25 73.18 72.91 72.43 72.09 71.72 71.55 71.50 71.00 70.77 70.61 70.11 69.41 68.75 68.69 68.79 69.28 69.79 70.03 70.02 70.43 70.42 69.29
46.26 42.98 39.99 42.30 44.47 46.34 49.20 51.14 50.07 50.97 52.08 55.23 57.43 53.60 55.37 57.08 62.45 66.54 65.91 65.06 64.61 65.27 65.72 66.54 70.86 72.06 73.63 73.28 72.68 72.43 72.03 71.69 71.67 71.45 71.15 71.13 70.88 70.56 70.34 70.12 69.54 69.61 69.88 69.91 70.11 70.66 71.01 70.58 69.75
49.09 46.48 41.89 43.72 43.78 44.80 50.47 50.31 51.27 51.72 52.87 57.51 58.48 53.63 52.69 56.84 64.40 65.88 65.29 64.22 63.37 63.39 64.32 64.08 67.81 69.53 69.93 71.03 73.25 72.77 72.36 71.89 71.52 71.61 71.44 71.25 71.10 71.00 70.59 70.09 70.39 69.84 70.09 70.27 70.61 70.83 71.22 70.65 70.23
50.54 40.72 38.24 42.47 44.40 46.41 49.83 47.71 52.56 54.60 53.49 55.37 56.30 56.73 58.40 59.60 63.66 62.95 61.88 61.59 63.31 64.17 62.16 62.48 65.04 67.33 68.45 69.20 70.37 72.70 72.46 72.16 71.81 71.56 71.81 70.47 68.86 68.93 68.83 70.00 70.18 70.61 70.41 70.76 70.93 71.22 71.62 70.89 69.50
49.15 41.46 41.90 47.37 49.34 47.64 49.61 49.31 50.68 51.21 51.47 52.22 54.83 57.81 59.09 59.85 58.21 59.82 60.43 61.63 60.55 62.92 63.61 62.26 63.61 66.00 66.37 67.93 67.63 69.77 69.37 69.11 69.29 69.24 69.19 69.13 67.95 67.66 68.70 69.48 70.24 70.49 70.86 71.25 71.66 71.85 71.38 70.14 67.06
50.65 47.45 50.69 49.66 50.50 50.92 51.81 51.42 52.03 50.44 48.54 51.57 51.80 54.94 56.14 56.96 56.76 57.31 58.26 60.67 62.06 64.07 64.52 64.41 62.92 64.22 64.92 65.95 66.31 67.40 68.67 68.00 68.42 67.98 67.88 68.62 67.57 67.79 68.61 67.46 68.46 68.32 70.02 68.35 70.23 70.66 70.24 68.06 66.24
46.40 51.84 53.37 53.48 53.70 54.22 52.00 53.75 52.28 52.16 52.32 55.08 55.19 55.90 56.02 56.00 55.43 55.89 56.26 57.67 57.40 59.08 62.02 64.43 65.03 64.37 63.96 64.94 65.56 65.95 67.40 67.19 66.90 67.57 67.21 67.34 66.96 65.88 66.73 66.51 65.86 66.42 67.37 67.91 68.13 67.95 68.00 67.12 65.96
49.21 48.72 52.21 54.93 55.33 55.25 55.75 53.64 52.81 53.14 56.36 57.38 57.10 56.96 56.06 55.79 55.56 55.33 55.82 56.33 57.06 55.98 57.20 59.33 65.25 65.44 64.98 63.84 64.50 65.08 65.39 66.60 66.14 66.22 66.67 66.73 66.16 65.31 65.06 65.34 64.97 64.63 64.74 66.43 66.76 66.49 66.09 65.56 65.05
44.05 47.28 49.98 50.08 49.94 50.27 49.71 49.95 50.25 52.47 55.76 55.53 56.11 56.13 54.95 54.49 54.77 54.36 54.55 55.29 55.36 55.99 55.95 57.00 62.16 65.71 65.60 64.22 63.92 64.38 64.75 65.62 65.37 65.47 66.36 66.29 65.52 64.82 64.40 64.50 64.12 63.54 64.05 64.68 65.58 65.40 65.19 64.73 63.87
42.16 39.88 41.92 43.38 44.80 45.80 50.59 47.43 48.47 52.77 54.07 53.19 53.78 54.65 55.07 54.31 54.37 54.16 55.48 54.91 54.99 55.24 56.07 55.41 57.65 63.84 65.24 65.33 64.89 64.35 64.52 65.40 65.28 65.39 66.16 66.41 65.40 64.42 63.82 63.69 63.28 63.08 64.14 64.26 64.68 64.15 63.75 63.16 62.84
39.72 37.95 36.89 43.97 43.82 45.36 47.61 42.18 49.70 52.82 52.49 51.86 53.40 54.03 54.25 54.98 53.89 54.39 54.96 54.77 55.16 54.78 55.31 56.14 58.73 63.74 64.95 65.51 65.84 65.42 65.30 65.26 65.55 65.49 66.20 66.43 65.60 64.86 63.73 63.20 62.83 63.58 63.28 63.44 63.35 63.11 63.08 62.99 62.47
35.76 35.51 35.07 39.39 44.79 44.67 45.18 42.47 48.40 51.38 51.28 50.28 50.43 50.71 51.64 52.22 52.87 53.65 54.61 54.71 54.93 54.75 54.74 54.95 55.42 61.33 64.23 65.19 65.56 65.20 65.03 65.58 65.56 65.60 66.22 66.31 66.03 65.29 64.25 63.68 63.65 63.65 63.10 62.80 62.61 62.34 63.12 61.83 61.18
32.08 33.22 36.58 36.85 42.39 44.15 42.19 42.94 46.55 48.97 49.70 49.57 49.98 50.89 51.18 51.38 52.18 53.74 54.06 55.02 54.77 54.71 54.56 54.53 54.40 57.12 62.80 63.73 63.21 63.80 64.80 65.12 65.60 65.25 65.72 66.13 66.16 65.91 64.55 64.03 63.83 63.78 62.76 62.06 61.68 61.73 61.25 61.76 61.43
36.26 34.64 34.51 38.62 43.42 42.30 41.43 42.33 44.79 46.41 46.75 47.12 48.47 49.87 50.86 51.99 54.04 53.57 54.52 54.59 54.31 54.41 54.30 54.43 54.67 56.41 63.13 63.31 62.93 62.47 63.98 64.45 64.92 65.49 66.09 66.04 66.20 65.89 65.06 64.32 63.82 63.26 62.52 62.55 61.77 61.16 60.84 61.01 61.63
35.22 32.55 32.38 37.36 41.17 40.00 38.49 38.02 41.14 42.84 43.72 46.05 47.74 48.76 49.36 49.84 49.74 51.72 52.70 53.00 52.90 53.59 54.56 54.23 54.57 59.01 62.08 63.35 62.18 62.90 62.38 62.64 63.73 64.97 66.40 66.85 66.43 65.40 65.51 64.64 63.16 62.87 61.83 61.46 61.14 61.45 60.53 59.82 60.99
33.49 32.55 33.06 34.16 38.70 40.32 38.22 36.89 40.01 43.49 43.61 45.22 46.19 47.68 48.93 49.69 49.40 51.33 52.24 51.68 51.67 51.98 54.01 55.57 56.47 61.07 62.39 62.41 61.64 60.77 61.00 61.18 61.58 62.84 63.82 65.25 65.89 65.74 65.65 63.45 62.84 62.10 62.33 61.56 61.49 61.14 59.73 58.00 58.42
28.87 37.26 37.32 36.74 33.67 28.74 37.06 28.76 37.05 40.75 41.77 43.38 44.07 45.00 46.67 46.87 48.89 50.64 50.62 50.39 51.31 52.50 56.81 59.80 61.46 62.65 63.23 62.62 61.62 62.19 60.89 60.53 60.27 61.55 62.30 63.70 65.05 64.76 63.47 62.94 62.60 62.10 61.98 61.34 60.83 60.79 60.45 58.08 56.78
32.59 37.25 35.53 35.81 32.46 29.99 31.95 28.25 35.46 37.92 37.97 40.62 43.62 45.07 46.23 45.97 47.71 47.38 48.45 50.33 51.15 52.80 58.85 61.79 62.95 63.23 62.93 62.28 62.08 60.68 59.39 59.13 59.72 60.67 61.21 61.74 62.86 63.44 63.54 63.17 63.36 62.87 61.78 61.37 60.78 59.77 58.93 58.66 57.48
37.73 34.31 33.13 32.73 29.89 23.57 30.16 30.44 32.21 35.01 37.86 40.09 42.61 43.79 45.06 45.86 45.82 46.78 47.87 48.71 49.57 57.27 60.29 62.42 62.92 62.10 62.20 61.87 61.23 60.85 59.78 59.39 59.59 59.51 59.97 60.37 60.93 61.89 62.87 62.88 63.04 62.09 61.06 60.46 60.36 60.14 59.50 58.98 59.06
32.60 26.34 20.43 19.86 20.14 22.60 32.88 30.23 33.65 36.89 40.24 41.13 42.26 42.97 44.02 45.16 45.31 45.98 46.45 51.79 54.97 58.46 61.87 62.41 62.29 61.01 61.50 61.14 61.00 60.64 60.10 60.34 60.04 59.67 59.40 59.69 59.65 60.44 61.28 61.60 61.16 61.03 60.82 60.66 60.49 59.90 59.54 59.20 58.58
28.81 27.68 21.90 19.35 20.28 22.51 32.96 28.00 33.56 40.84 43.77 44.05 44.12 43.79 44.02 43.76 44.09 44.73 45.74 51.72 56.98 60.80 62.02 62.24 61.78 60.50 60.68 60.77 60.21 60.21 60.33 60.10 59.67 59.92 60.14 60.06 60.37 61.13 61.51 61.76 61.60 61.09 61.05 60.93 60.46 60.42 60.20 59.81 59.58
29.55 25.06 31.11 25.36 25.72 21.92 26.58 32.90 38.17 41.56 42.36 43.26 42.39 43.49 43.05 43.94 44.63 45.03 52.86 57.43 60.70 60.60 60.96 61.40 60.54 59.76 59.87 59.51 59.43 59.39 59.99 60.09 59.82 60.03 60.38 60.19 60.54 60.85 61.40 61.29 61.14 60.88 61.09 61.04 60.72 60.53 60.27 60.41 60.00
32.75 33.92 24.95 22.59 19.70 19.20 24.72 27.64 30.70 36.72 38.37 41.13 42.12 42.23 43.21 44.69 45.26 54.55 58.40 59.90 60.96 60.35 60.23 60.41 60.14 59.51 59.33 59.76 60.12 60.09 59.98 60.31 60.13 60.29 60.29 60.26 60.59 61.43 60.78 60.39 60.42 60.78 61.45 61.59 60.86 60.29 60.38 60.64 59.96
31.62 27.96 28.43 26.77 24.34 21.58 21.31 25.72 35.62 37.38 39.24 39.06 40.19 41.98 43.84 48.86 49.15 57.17 58.65 60.00 60.25 59.98 60.28 59.55 59.45 59.26 59.42 60.18 60.20 60.21 59.97 60.31 60.14 60.10 60.14 60.20 59.82 60.02 60.31 60.64 60.80 61.00 61.24 61.05 60.72 60.45 60.42 60.63 59.41
33.25 29.43 29.81 25.39 24.06 26.49 23.75 25.50 38.23 38.81 39.70 41.46 42.88 45.24 48.67 53.87 54.75 58.25 58.90 59.85 59.76 59.52 59.45 59.35 59.64 59.43 59.61 60.43 60.16 59.77 59.94 59.69 59.34 59.72 60.14 59.90 60.01 60.54 60.70 61.78 61.63 61.43 61.45 61.40 60.73 60.24 60.81 59.94 58.77

GFSSGP_sfc_wetblb_045.txt.gz
Wetbulb
65.72 65.67 59.81 58.59 49.34 50.88 45.47 45.94 51.20 53.20 55.08 59.17 59.55 60.59 59.23 60.19 56.85 55.66 67.42 68.84 70.35 70.50 73.07 74.22 74.73 74.30 73.90 73.32 72.98 72.49 72.36 72.12 71.74 71.52 71.12 70.52 70.14 68.91 68.14 67.84 67.66 67.65 67.35 67.24 67.06 66.88 66.72 66.88 66.96
65.68 59.87 60.09 56.25 46.51 42.98 44.42 49.51 51.17 51.96 57.96 59.65 59.79 58.42 60.16 59.86 62.22 63.57 64.64 69.61 70.62 71.62 73.32 72.56 74.66 74.21 74.10 73.38 73.04 72.57 72.19 71.87 71.79 71.41 70.88 70.42 70.27 69.62 68.43 68.08 67.60 67.48 67.43 67.27 66.97 67.28 67.23 67.15 67.33
62.81 59.39 55.07 52.60 46.34 42.70 44.70 50.44 51.74 56.20 58.32 57.82 58.24 59.94 59.70 60.02 64.28 64.64 68.35 70.13 70.81 71.82 72.60 72.92 74.68 74.18 74.11 73.63 73.11 72.72 72.35 71.97 71.89 71.48 70.94 70.26 70.22 69.88 69.43 69.07 68.00 67.90 67.87 67.57 67.79 68.32 68.33 68.06 68.06
59.47 59.15 56.11 48.71 46.24 47.82 48.54 53.65 55.72 55.23 57.15 58.77 59.20 56.98 59.78 64.45 65.27 66.80 70.07 70.34 70.44 71.51 72.00 72.72 74.51 74.23 74.21 73.86 73.36 72.94 72.54 72.22 72.00 71.69 71.31 70.86 70.40 70.38 69.98 69.43 68.96 68.75 68.84 68.36 68.51 69.07 69.17 69.20 69.02
59.82 55.90 47.50 46.24 45.95 50.07 53.58 54.46 55.41 53.80 55.41 56.92 60.83 58.32 59.42 64.48 67.50 69.74 70.31 70.59 70.00 70.86 72.01 71.73 74.31 74.18 74.13 74.08 73.71 73.04 72.49 72.22 72.02 71.79 71.71 71.24 70.77 70.61 70.26 69.80 68.75 69.06 69.30 69.25 69.16 69.65 69.87 70.07 70.15
52.58 53.93 45.99 42.52 45.44 49.29 52.78 55.11 54.79 54.33 55.53 57.82 59.96 58.20 60.71 65.62 67.89 69.73 70.42 71.05 71.03 70.91 71.70 71.54 73.78 73.93 73.81 73.78 73.73 73.11 72.30 72.15 72.07 71.97 71.70 71.25 71.13 70.84 70.49 70.26 69.48 69.25 69.53 69.76 69.89 70.12 70.21 70.45 69.74
50.63 49.71 44.52 45.46 45.27 47.19 49.88 54.84 53.53 54.64 56.31 58.01 60.88 57.36 61.40 62.75 68.02 70.31 70.41 70.82 70.91 71.19 71.32 71.44 72.34 73.45 73.61 73.68 73.33 72.94 72.34 72.05 72.05 71.75 71.26 71.28 71.28 70.89 70.77 70.47 70.29 69.87 70.38 70.35 70.55 70.53 70.77 70.37 69.76
52.69 52.04 45.70 46.22 44.70 46.20 53.24 54.54 56.19 56.11 56.45 59.78 61.17 57.92 58.71 62.49 68.80 70.48 70.29 69.87 69.58 70.32 70.48 70.26 71.81 72.50 71.83 71.97 73.63 73.23 72.66 72.29 71.95 71.82 71.60 71.43 71.36 71.21 70.77 70.13 70.42 70.31 70.36 70.59 70.94 70.81 71.31 70.84 70.15
55.09 47.01 44.58 45.86 46.22 47.53 53.12 52.30 55.95 57.44 55.95 57.38 59.16 59.95 61.45 65.30 68.86 69.06 68.85 68.89 68.55 68.10 68.85 69.49 69.43 71.57 71.73 71.55 72.15 73.31 72.86 72.61 72.22 72.00 71.90 70.94 69.77 69.90 69.80 69.67 70.56 70.94 70.81 70.82 70.82 71.26 71.49 71.20 70.23
53.81 48.38 47.29 49.88 50.67 50.00 52.01 53.20 54.46 54.56 54.79 55.38 57.47 60.41 60.94 62.63 64.86 65.53 66.83 67.24 68.06 68.86 69.20 68.43 68.89 70.13 71.39 70.05 71.72 72.34 71.70 71.44 71.03 70.66 71.15 71.01 70.19 70.24 68.93 69.81 70.47 71.41 71.16 71.33 71.50 71.52 71.50 70.99 70.16
53.93 49.68 51.97 51.35 51.51 52.57 51.94 52.69 55.08 53.52 53.02 55.95 55.68 57.72 59.84 60.53 61.56 61.89 62.75 66.15 68.13 69.46 69.87 69.50 68.70 69.57 70.24 69.97 70.05 71.17 72.12 71.86 71.86 71.36 72.45 72.00 70.13 70.17 69.64 68.94 69.73 69.82 70.46 69.46 70.19 70.85 71.27 70.89 70.44
48.64 52.81 54.06 54.83 54.11 53.42 51.50 54.25 53.53 54.49 54.68 57.54 58.58 59.37 59.44 59.73 60.81 61.41 62.22 63.10 63.99 66.33 68.39 70.64 69.91 68.66 69.86 70.03 69.28 69.72 70.38 71.15 70.41 70.64 71.94 71.02 70.27 69.53 69.00 68.29 68.51 69.81 69.14 69.17 69.84 70.01 70.87 71.22 70.79
49.43 50.54 52.94 54.59 55.38 55.48 56.51 55.56 55.78 56.63 59.14 60.76 61.11 60.89 60.16 60.33 60.97 62.64 62.99 63.41 64.16 64.41 66.17 67.67 70.57 70.40 70.30 69.95 69.37 69.70 69.60 69.89 70.77 70.09 70.89 70.32 68.70 69.08 68.76 68.78 68.14 68.53 68.99 68.92 69.00 69.60 69.81 70.42 70.72
50.94 51.54 51.66 53.07 54.57 55.28 53.91 54.12 55.90 56.54 58.99 58.47 58.34 58.54 59.22 59.58 60.30 61.28 62.26 62.58 64.01 65.38 65.53 66.89 67.60 71.83 70.68 69.75 70.14 69.45 69.97 69.87 69.73 69.67 70.09 70.38 69.30 69.63 68.40 68.52 68.17 68.55 68.12 67.76 68.06 68.60 69.60 70.90 70.28
47.94 45.74 48.09 50.49 52.43 52.53 53.52 50.69 51.93 55.96 56.89 55.79 56.35 57.36 58.37 59.20 60.04 60.12 61.86 64.62 64.65 64.99 66.51 67.68 68.15 68.17 71.07 71.11 70.69 69.93 69.73 69.24 69.29 68.97 69.90 69.58 69.88 69.25 68.52 67.49 67.63 67.70 68.40 68.18 67.69 68.48 69.49 69.22 70.17
43.93 44.68 41.41 47.85 47.34 49.67 50.70 45.56 53.07 55.88 55.01 54.51 55.61 56.63 57.58 59.17 59.88 61.15 62.13 63.34 64.47 64.95 65.61 67.75 64.57 64.54 69.29 70.72 70.84 69.84 69.24 68.91 68.88 69.24 69.19 69.54 69.57 69.40 68.59 67.46 67.19 68.13 67.83 67.17 66.71 66.69 68.55 69.51 69.38
42.56 38.63 40.84 43.56 48.77 47.83 47.51 46.14 51.78 54.25 54.18 54.75 55.86 56.49 56.98 57.69 59.01 61.45 61.43 61.69 64.44 65.52 66.76 66.13 66.35 64.49 68.25 70.43 70.00 70.31 70.10 68.78 69.10 69.49 69.03 69.35 69.40 69.15 68.66 67.64 68.17 67.95 66.90 67.02 66.48 67.04 68.46 68.57 68.83
37.14 38.08 40.88 41.52 46.26 46.91 45.84 46.12 50.21 52.58 52.39 53.28 54.42 55.16 55.70 56.49 57.54 60.08 60.95 62.33 63.92 65.05 66.27 66.07 65.10 65.65 67.41 68.70 69.66 69.38 69.40 69.29 69.73 69.27 69.24 69.71 69.52 69.23 68.91 68.10 68.15 68.09 67.31 66.34 66.11 67.83 67.94 67.46 67.25
40.84 40.03 39.82 43.08 46.84 45.97 45.05 46.18 48.46 50.80 51.17 51.41 52.47 53.60 54.83 55.90 57.97 59.86 61.13 62.28 62.73 65.07 65.08 66.32 65.38 66.45 65.31 66.79 66.92 67.53 67.43 68.37 68.74 69.47 70.05 70.11 70.08 69.47 68.61 68.27 68.32 68.16 67.18 66.15 67.99 67.76 67.16 65.97 64.40
39.37 37.92 38.10 41.67 44.30 44.08 45.28 44.77 47.65 48.34 49.29 50.98 51.87 52.92 54.07 55.16 56.11 58.25 59.78 61.40 63.23 64.59 65.31 66.74 65.93 65.10 66.02 66.99 68.57 69.01 68.78 67.47 67.42 69.59 70.10 70.37 69.96 68.81 69.24 68.94 66.50 65.76 66.27 68.14 68.11 67.27 65.55 65.73 64.83
38.36 37.29 38.19 38.12 41.91 44.25 42.64 41.14 44.04 47.97 49.45 50.32 51.49 52.30 52.98 53.66 54.30 56.75 58.02 60.66 62.41 63.34 64.95 65.05 65.37 65.54 66.52 68.28 68.54 68.52 68.47 67.85 67.52 68.51 68.85 68.56 69.81 69.67 69.59 67.69 66.47 68.07 68.69 67.50 67.67 67.30 66.20 61.88 61.56
34.69 40.29 39.95 39.24 38.52 35.31 42.83 34.14 42.70 45.90 46.78 48.28 49.53 50.80 51.64 52.98 53.69 55.30 57.24 59.46 61.46 62.34 62.72 63.27 65.99 66.86 67.06 68.58 68.42 68.43 67.91 66.98 68.11 68.51 69.51 69.49 70.25 69.76 68.27 67.30 69.13 69.23 68.52 68.20 67.22 65.47 64.37 62.80 61.11
36.25 40.57 39.06 38.35 37.21 36.89 38.08 34.94 40.04 45.09 43.69 46.25 48.58 49.99 51.51 52.50 53.24 53.79 54.80 57.62 58.68 60.89 60.51 63.42 67.12 68.01 67.89 68.36 69.29 68.60 68.71 68.38 68.79 68.87 69.42 69.82 70.16 69.56 67.69 69.40 69.17 68.60 67.81 67.73 67.81 65.32 62.62 62.85 63.65
40.83 38.66 38.95 38.93 37.03 30.03 35.70 35.29 37.34 41.19 43.77 46.06 48.15 49.31 50.58 51.89 52.38 53.41 55.05 56.32 57.51 58.38 60.66 65.46 67.84 68.32 68.38 68.64 68.96 69.23 68.46 67.83 67.69 68.37 68.25 68.18 68.64 68.62 68.40 67.97 68.30 68.70 67.77 67.31 66.92 66.53 65.50 64.14 64.42
37.86 35.52 28.82 26.93 27.78 27.72 37.44 34.52 37.96 43.47 45.48 46.11 47.21 48.97 51.33 52.47 53.02 53.97 54.59 55.45 56.96 60.00 63.83 66.34 67.98 67.82 68.29 68.28 68.23 68.84 68.60 69.04 68.65 68.24 67.29 66.85 66.27 67.30 68.02 68.39 68.34 67.60 67.47 66.82 66.28 65.91 65.41 65.10 63.94
35.56 35.21 30.52 23.61 26.09 29.60 35.97 31.46 37.62 45.00 47.27 48.53 48.93 50.43 51.86 53.34 54.67 54.96 55.62 55.23 55.97 60.58 64.11 66.75 67.98 67.65 67.84 67.67 67.52 67.94 68.35 67.70 67.68 67.63 67.29 66.99 66.88 67.22 68.34 68.03 67.88 67.08 66.57 66.33 66.18 65.23 64.80 65.02 64.49
35.21 31.65 37.99 31.78 32.85 31.05 33.94 37.40 41.84 44.50 45.66 47.06 48.12 49.67 51.64 53.10 55.50 58.27 58.61 60.13 60.22 63.27 64.16 67.16 67.84 67.50 67.48 67.45 67.14 67.35 67.40 67.47 66.76 67.49 67.96 67.06 67.89 67.21 67.59 67.61 67.14 66.64 66.14 65.95 65.96 64.80 64.95 65.40 65.13
38.06 39.72 30.94 32.48 25.35 24.78 31.49 33.50 36.48 41.50 43.34 46.02 47.10 48.43 50.43 52.90 56.84 60.07 59.82 61.37 62.54 64.57 66.84 67.91 67.84 67.28 66.89 66.99 67.22 66.69 66.80 67.10 67.06 67.11 67.00 67.12 67.32 67.21 66.98 66.72 66.64 66.24 65.89 66.13 66.40 65.50 65.64 65.29 64.45
35.75 34.74 35.21 35.50 33.49 28.80 29.45 34.14 43.46 43.69 44.66 45.33 47.17 48.98 50.54 51.95 57.28 60.25 60.37 60.79 63.80 66.11 66.80 67.08 66.75 66.27 66.15 66.17 66.26 66.22 66.29 66.63 67.04 66.94 66.84 67.01 67.05 66.84 66.19 65.76 65.38 65.45 65.84 66.47 66.25 65.65 65.08 64.62 62.93
37.82 35.39 35.89 31.14 29.64 32.83 32.09 33.03 44.56 45.14 45.98 47.00 47.44 48.68 51.31 53.13 58.43 59.58 59.56 60.55 63.72 65.65 65.91 65.93 65.91 65.87 66.11 66.14 66.06 66.17 66.43 66.63 66.61 66.44 66.55 66.41 65.59 65.66 65.37 65.25 65.16 65.40 65.67 65.98 65.48 65.00 64.76 63.79 60.36

GFSSGP_sfc_wetblb_048.txt.gz
Wetbulb
66.95 66.48 61.23 60.32 52.79 51.01 48.51 49.07 53.67 56.74 57.89 60.88 61.80 61.43 60.47 62.36 60.35 59.26 69.34 71.40 72.26 72.53 74.64 75.21 75.07 74.85 74.90 74.55 73.95 73.40 73.05 72.83 72.78 72.92 72.72 72.29 71.91 71.11 70.30 69.91 68.41 68.35 68.02 67.58 67.30 67.31 67.34 67.32 67.14
64.84 64.16 59.98 57.40 49.06 46.83 48.09 52.49 52.30 56.85 60.43 60.81 61.23 62.33 60.74 60.45 64.70 64.73 66.30 71.30 72.65 73.42 75.09 72.95 74.85 74.60 74.69 74.05 73.68 73.33 73.03 72.71 72.55 72.60 72.20 71.51 71.24 70.85 69.90 69.37 68.70 68.68 68.26 68.13 67.80 67.42 67.51 67.87 67.92
66.01 60.54 55.72 52.02 49.46 46.90 48.40 51.75 54.23 58.17 60.11 60.00 59.81 62.39 62.50 62.89 66.00 64.86 69.99 71.89 72.99 74.08 75.08 73.30 74.72 74.30 74.24 73.79 73.52 73.08 72.88 72.58 72.43 72.25 71.87 71.29 71.25 70.92 70.32 70.00 69.57 68.73 68.53 68.26 67.83 68.43 68.72 68.79 68.68
61.20 58.62 56.22 50.29 48.12 50.51 51.42 56.25 56.05 58.84 59.20 60.23 60.91 59.07 62.67 66.04 66.33 67.43 71.44 71.51 72.45 73.26 74.26 74.48 74.45 74.27 74.17 73.99 73.72 73.05 72.78 72.36 72.33 72.30 71.85 71.60 71.47 70.90 70.46 70.29 70.23 69.30 68.78 68.62 68.92 69.06 69.31 69.15 69.14
60.85 56.85 49.27 48.21 48.35 51.60 53.89 54.74 56.49 57.63 57.36 58.95 60.78 60.16 60.72 65.72 69.03 69.75 71.30 71.02 71.63 72.46 73.14 74.33 74.60 74.45 74.50 74.30 73.87 73.18 72.76 72.31 72.36 72.28 72.00 71.77 71.33 71.11 70.79 70.48 69.78 69.53 69.61 69.35 69.44 69.76 69.86 69.90 69.95
53.67 55.64 47.62 45.89 48.49 51.60 53.87 55.80 56.07 56.85 57.68 59.16 60.73 61.44 62.02 68.24 69.20 69.70 71.04 71.34 71.46 72.39 73.31 73.35 74.73 74.50 74.32 74.17 73.75 73.30 72.73 72.39 72.24 72.23 71.98 71.76 71.66 71.37 70.90 70.66 70.34 70.52 70.19 69.91 69.91 70.18 70.21 70.19 70.36
54.63 51.11 47.16 46.99 48.01 49.82 52.34 55.83 54.46 55.30 56.85 59.13 63.58 60.62 63.43 65.88 68.82 70.54 71.23 72.45 72.58 73.20 73.92 73.77 74.03 74.33 74.47 74.17 73.85 73.35 72.68 72.39 72.11 71.84 71.84 71.74 71.72 71.35 71.03 71.05 71.02 71.10 71.26 71.31 71.10 70.67 70.50 70.75 70.29
56.27 53.93 49.49 48.68 46.80 47.33 52.52 54.81 55.11 55.56 57.41 62.31 63.74 60.28 61.33 65.89 70.36 71.65 71.37 71.97 72.65 73.08 73.06 73.63 74.04 73.27 72.76 72.53 74.24 73.71 73.32 72.66 72.14 72.19 72.04 71.77 71.67 71.62 71.18 70.66 70.76 71.32 71.44 71.12 71.52 71.12 71.02 71.33 70.34
58.71 51.07 48.85 49.60 48.68 49.43 52.59 52.89 56.37 58.11 58.50 60.56 61.41 62.31 63.76 67.50 70.17 69.68 69.27 69.18 69.85 70.85 73.15 73.61 72.83 73.39 72.88 71.34 72.24 73.78 73.35 72.95 72.63 72.38 72.26 71.52 70.22 70.80 70.48 69.78 70.77 71.45 71.42 71.40 71.05 71.15 71.55 71.42 70.88
56.08 51.68 51.40 53.41 53.21 50.86 52.14 53.50 55.10 56.12 56.88 59.26 59.85 62.76 63.01 65.80 68.65 67.66 67.50 67.56 68.38 69.37 71.12 73.02 73.82 73.14 73.35 71.28 72.80 73.60 72.42 72.23 71.41 70.57 70.67 70.73 69.79 70.44 69.48 70.08 71.13 71.45 71.67 71.67 71.50 71.45 71.60 71.45 71.57
55.60 51.78 55.17 55.16 55.17 53.67 51.99 53.32 55.84 55.31 55.13 59.72 59.45 61.38 61.81 62.60 64.16 65.40 66.52 67.64 68.28 69.92 71.06 72.62 73.87 73.70 73.06 72.46 71.89 72.13 72.58 72.21 72.27 71.69 72.80 72.40 69.52 70.09 69.90 69.18 69.96 70.44 70.97 70.47 70.82 70.44 71.57 71.32 71.47
51.98 55.47 55.59 55.96 56.90 53.94 52.42 54.07 54.48 55.08 55.88 59.99 60.23 61.19 62.20 62.68 63.48 63.74 64.30 65.29 66.45 67.95 69.77 72.03 74.17 73.78 73.69 72.64 71.88 72.19 71.75 72.65 72.07 72.22 74.12 72.64 71.18 71.81 70.43 68.97 69.62 69.62 69.66 69.92 70.31 69.83 71.32 71.73 71.59
51.92 53.17 55.53 56.67 56.83 56.79 56.63 54.48 55.66 56.43 58.71 59.99 60.35 61.39 62.02 62.96 63.73 64.92 65.11 65.15 66.34 66.55 67.71 69.15 72.18 74.78 73.83 74.06 73.08 73.53 73.73 72.42 73.20 72.81 73.08 72.05 70.72 71.85 70.60 70.72 68.98 69.47 69.54 69.51 69.86 69.95 70.91 71.00 71.26
52.44 52.97 53.69 55.05 54.89 56.22 54.49 55.41 56.51 58.12 60.85 60.63 61.37 61.83 62.11 61.73 62.50 63.65 64.38 65.04 65.93 67.01 68.11 69.18 70.53 74.20 74.80 74.77 75.40 74.40 73.77 73.50 72.86 72.48 72.40 73.49 71.75 72.69 70.21 69.98 69.24 68.67 69.16 69.16 70.02 69.27 70.06 70.36 70.72
50.14 47.82 50.78 53.28 54.68 53.86 55.92 52.69 53.51 57.64 59.01 59.23 60.06 60.74 61.20 61.73 62.67 63.09 64.39 65.29 66.29 67.25 68.96 69.81 71.22 72.60 74.35 74.94 74.64 74.61 73.39 73.29 72.30 72.30 73.73 72.88 72.91 73.34 72.18 69.87 69.52 68.79 69.75 70.18 69.44 69.59 69.98 69.32 70.69
46.08 47.29 44.04 49.82 52.19 53.50 53.27 48.54 55.26 57.92 58.27 57.71 58.77 59.76 60.16 61.33 62.31 63.57 64.36 65.64 67.30 68.30 68.36 69.70 68.04 68.41 72.09 73.76 73.57 73.18 72.37 72.35 72.40 72.47 72.82 72.89 72.83 72.37 71.91 69.96 69.51 69.66 69.78 68.56 68.28 67.62 66.89 67.03 70.51
45.37 41.09 43.67 46.11 51.13 51.27 50.00 49.23 54.60 57.04 57.07 57.47 58.24 58.73 59.24 60.35 62.09 63.85 64.68 65.02 66.12 67.93 68.64 68.28 70.71 69.53 70.57 73.28 71.45 73.23 74.60 72.55 72.25 72.40 72.41 72.83 72.44 72.23 71.48 70.51 70.38 71.26 68.80 67.87 67.45 66.62 66.74 66.35 69.84
40.15 41.89 43.39 44.13 49.03 49.77 48.87 48.42 52.54 55.23 54.72 56.41 57.12 57.81 58.73 59.87 60.85 62.60 63.73 64.46 65.29 66.20 68.22 71.41 71.17 72.24 71.14 69.54 71.10 71.04 71.73 72.22 72.10 72.02 72.17 72.81 72.54 71.85 71.44 71.00 71.43 70.90 68.63 67.17 67.01 67.24 67.14 68.83 69.64
42.77 42.83 43.29 45.88 48.64 47.92 48.21 48.53 50.56 53.33 53.89 54.71 55.91 56.97 57.82 58.48 60.32 61.83 62.49 63.48 64.39 66.23 68.39 71.18 70.30 72.69 70.36 68.21 68.81 69.84 69.98 71.38 71.64 72.19 72.80 72.74 72.48 72.18 71.38 71.55 69.99 70.47 68.60 68.35 68.16 67.47 67.83 68.90 69.40
41.51 40.88 41.96 45.34 47.37 47.63 47.31 47.17 50.62 52.32 53.19 54.57 55.11 56.04 56.89 57.94 59.24 60.39 61.76 62.66 63.97 65.67 67.91 70.19 70.63 71.71 70.45 68.97 70.81 71.06 71.30 71.52 72.18 72.51 72.69 72.82 72.83 72.35 70.50 72.10 70.89 70.53 69.17 69.16 68.78 68.76 67.95 67.39 67.45
39.59 39.05 40.61 41.58 45.49 47.37 46.42 45.11 47.96 51.52 53.20 54.08 54.95 55.85 56.39 56.82 57.12 58.54 59.69 61.18 62.61 64.02 67.04 68.08 70.29 70.84 71.15 70.93 71.37 71.85 72.50 71.59 70.52 71.35 71.93 72.18 71.92 70.51 71.30 72.15 71.36 70.84 69.91 68.62 69.92 70.10 68.90 66.71 66.92
36.35 41.56 41.39 41.48 41.64 38.18 46.42 37.62 45.83 49.02 49.97 51.70 53.25 54.37 55.27 56.27 57.37 58.31 59.08 60.10 62.30 63.24 64.30 66.90 68.87 70.23 70.54 72.04 72.74 73.27 70.42 69.57 70.82 71.72 72.09 69.95 70.96 71.39 72.12 71.99 71.00 70.50 70.68 70.57 70.03 69.78 69.48 68.27 63.73
38.50 41.95 41.26 41.78 40.76 40.95 41.30 39.37 43.73 48.01 47.13 49.96 52.51 53.82 55.17 56.07 56.57 56.68 57.50 58.89 60.30 61.49 62.62 66.63 68.07 69.14 71.32 71.90 72.85 71.33 72.31 71.79 72.00 71.84 71.52 72.23 71.79 71.55 72.04 71.75 71.60 71.78 70.55 70.78 70.04 68.92 68.65 67.37 66.03
42.76 40.46 40.46 41.21 40.29 34.78 40.09 39.97 40.89 44.38 47.21 49.77 52.07 53.29 54.12 54.50 55.99 57.41 58.25 59.07 59.30 60.54 61.66 63.83 66.05 69.90 71.75 71.80 72.02 72.70 72.36 72.18 71.27 71.76 71.39 71.25 70.80 71.00 71.82 72.17 72.34 72.09 70.92 70.54 70.46 69.41 67.41 67.03 66.37
40.48 37.13 31.22 30.19 31.06 31.67 41.06 38.85 41.27 46.94 48.45 49.60 49.68 51.37 53.57 55.01 56.40 58.02 58.49 59.01 60.15 60.84 61.95 64.03 68.40 70.44 71.66 71.44 71.52 72.26 72.80 73.07 72.83 72.56 71.72 71.80 70.99 70.94 71.46 71.46 71.09 70.46 70.79 70.18 69.84 69.09 68.12 66.86 65.88
37.38 36.66 31.30 26.40 29.34 32.46 39.82 35.66 41.11 48.02 49.81 51.11 51.67 52.47 53.49 55.52 57.74 59.97 62.19 62.67 61.97 60.91 63.07 66.60 68.71 70.42 71.40 71.89 72.13 73.03 73.51 72.82 72.71 72.96 71.77 70.98 70.55 70.79 71.96 71.27 71.17 70.60 69.74 69.50 69.32 67.40 66.63 67.15 66.38
37.95 33.95 39.94 34.04 36.22 34.56 37.47 40.82 45.21 47.68 48.08 49.97 50.52 51.30 52.97 54.99 57.35 60.71 64.41 64.48 64.44 61.81 65.17 67.57 69.71 70.84 71.50 71.87 72.10 72.41 72.69 72.65 71.68 71.98 71.83 70.07 70.93 70.12 71.30 71.00 70.10 69.49 69.26 68.84 68.36 66.32 66.60 66.64 66.80
40.99 41.72 32.83 34.13 26.38 28.18 35.66 37.63 38.94 44.40 45.27 47.90 49.60 50.94 53.38 55.84 58.39 62.08 64.60 64.86 65.87 65.93 67.60 69.46 70.75 70.97 71.44 71.40 71.57 71.31 71.52 71.52 71.52 71.17 70.01 70.05 70.57 70.36 70.32 70.01 69.09 68.87 68.32 67.92 67.52 66.53 66.93 66.06 66.46
36.95 36.08 35.45 36.26 34.26 30.57 32.07 36.73 46.18 45.79 47.97 49.08 49.68 51.53 52.89 54.44 56.63 62.17 63.84 64.06 66.09 68.05 69.16 70.22 70.58 70.66 70.61 71.02 71.05 70.79 70.14 70.03 70.07 69.65 70.11 70.29 70.48 69.97 69.08 68.54 68.19 67.52 67.35 67.30 67.03 66.75 66.26 66.11 66.13
39.65 36.54 37.81 31.69 31.32 34.47 35.28 37.85 48.47 49.94 50.03 49.70 49.62 51.62 52.93 54.02 54.94 61.72 62.04 62.35 66.66 68.51 69.52 69.94 70.14 70.12 70.55 70.49 69.94 69.25 69.54 69.74 69.78 69.40 69.68 69.86 69.05 68.66 67.92 67.32 66.78 66.56 66.20 67.20 66.76 66.26 65.67 65.75 65.13

GFSSGP_sfc_wetblb_051.txt.gz
Wetbulb
67.64 65.31 65.44 59.83 53.44 52.28 50.08 51.00 55.26 54.94 55.82 60.08 61.84 60.37 60.02 62.16 60.48 58.95 71.58 69.55 70.37 71.58 75.52 74.45 75.88 75.86 75.68 75.10 74.28 73.88 74.46 74.92 75.70 75.88 75.56 74.56 73.78 72.54 71.41 70.54 69.32 68.59 68.16 68.07 67.60 67.42 67.29 66.99 66.86
63.31 62.23 61.96 57.23 50.36 48.67 49.83 53.49 52.39 56.47 60.96 63.00 62.32 62.37 62.28 60.75 65.20 66.23 69.02 70.54 70.83 73.31 75.44 72.81 75.43 75.41 75.58 74.98 74.31 73.58 73.53 73.86 74.28 74.58 74.01 73.23 72.91 72.37 70.75 69.94 69.03 68.75 68.55 68.11 67.97 67.73 67.71 67.53 67.37
67.22 63.67 54.99 52.58 51.20 48.08 50.22 53.96 55.14 57.94 61.87 61.56 61.08 63.35 63.09 62.66 65.95 66.07 70.28 71.43 71.93 74.06 75.22 74.52 75.18 75.01 75.28 74.93 74.43 73.74 73.41 73.08 73.31 73.43 73.20 72.57 72.22 71.85 71.20 70.52 70.11 69.11 68.96 68.89 68.47 68.23 68.46 68.59 68.43
63.47 59.52 56.08 50.61 48.77 52.23 52.67 54.88 56.15 58.40 61.33 62.23 62.43 60.37 63.63 67.37 67.60 68.45 70.92 71.11 71.86 72.97 74.39 75.27 74.71 74.78 74.98 74.78 74.18 73.88 73.51 73.11 72.86 73.00 72.87 72.15 71.77 71.79 71.34 70.79 70.74 69.86 69.35 69.13 68.86 69.43 69.57 69.79 69.78
61.60 57.25 50.47 49.03 49.63 52.98 55.14 55.83 58.30 58.25 60.88 61.12 62.33 61.04 62.14 66.31 68.54 70.44 70.11 69.79 70.70 71.77 73.80 75.92 74.61 74.71 74.68 74.56 74.16 73.71 73.44 72.97 72.66 72.98 72.65 72.25 71.89 71.79 71.40 70.78 70.42 70.20 69.60 69.35 69.43 69.71 69.93 69.94 70.25
56.26 55.08 47.55 46.65 48.33 52.23 54.76 56.50 56.48 57.45 61.02 61.16 61.11 61.96 63.38 68.32 68.99 69.70 69.35 69.58 70.42 71.46 73.43 75.82 74.71 74.61 74.33 74.23 74.01 73.46 73.02 72.84 72.54 72.54 72.56 72.26 72.07 71.70 71.50 71.02 70.87 71.14 71.10 70.33 70.01 70.31 70.52 70.46 70.84
56.33 53.37 48.91 48.57 48.47 51.27 53.83 57.04 55.53 57.26 59.51 59.74 62.44 60.79 64.80 66.82 69.34 70.15 68.59 69.37 70.20 71.35 72.41 76.13 75.51 74.30 74.61 74.23 73.98 73.56 73.21 72.72 72.45 72.47 72.20 72.29 72.10 71.75 71.60 71.38 71.29 71.48 71.65 71.80 71.52 71.31 70.89 70.87 70.84
58.86 56.13 51.69 51.38 49.09 49.30 53.94 55.17 56.10 56.68 58.15 61.92 64.12 61.34 62.71 66.82 69.81 69.81 68.46 69.11 69.90 71.03 71.85 73.21 76.03 73.55 72.81 72.87 74.11 73.88 73.41 73.13 72.64 72.64 72.49 72.17 72.22 72.07 71.68 70.84 71.16 71.62 71.89 72.02 72.09 72.04 71.85 71.36 71.04
60.20 53.07 50.71 51.54 51.43 51.80 54.63 53.81 56.12 58.32 56.94 58.87 63.15 64.35 65.60 68.01 70.24 69.03 67.55 68.06 68.73 69.13 70.92 73.01 73.68 73.90 72.72 72.02 73.05 73.96 73.61 73.36 72.96 72.82 72.49 71.85 70.04 70.25 69.97 69.70 70.60 71.68 71.85 72.02 71.98 72.22 72.17 71.95 71.51
56.08 53.04 52.69 55.26 55.29 54.12 54.59 54.59 55.20 55.60 56.78 58.02 62.00 63.57 64.61 67.44 68.20 67.12 66.33 66.50 67.36 68.22 69.86 72.03 73.52 74.06 73.79 71.66 73.48 73.57 71.89 72.25 71.54 70.79 71.15 70.47 69.93 70.16 69.41 70.04 70.49 71.75 71.93 71.98 72.00 72.24 72.17 71.55 70.66
56.41 53.46 56.00 56.48 57.13 56.99 54.69 54.58 56.34 54.76 55.00 58.46 59.85 62.69 64.02 64.54 67.23 66.25 66.07 66.93 67.32 68.56 69.52 71.78 75.73 76.30 74.36 72.93 71.76 73.15 73.37 72.62 72.78 72.68 73.13 72.26 70.01 70.52 70.06 70.03 69.82 70.15 71.11 69.61 70.74 70.98 70.91 70.96 70.82
52.36 55.70 56.54 56.37 57.51 57.75 55.55 55.68 54.80 55.90 56.10 59.79 62.03 63.89 64.10 63.60 64.77 66.44 67.04 67.21 68.35 69.08 69.94 71.80 74.46 76.48 77.40 74.31 72.70 72.92 72.80 74.12 73.25 72.88 74.39 72.23 72.12 71.69 71.48 69.81 69.73 71.10 69.99 70.00 70.42 69.41 71.24 71.02 71.78
51.67 53.74 55.88 56.94 56.83 57.45 57.96 55.90 55.98 56.28 58.33 59.43 60.10 62.77 62.75 63.13 64.78 66.10 66.73 67.17 67.66 67.85 69.21 69.94 72.44 78.13 77.88 77.44 73.96 74.53 74.78 73.58 74.13 74.10 75.40 73.63 71.63 72.08 71.04 72.09 70.36 70.77 69.64 69.97 69.94 69.95 71.35 71.16 71.28
52.03 52.87 53.41 55.10 56.02 57.11 56.06 55.92 56.51 58.55 60.01 59.53 59.10 59.37 61.40 62.48 64.33 65.54 66.16 66.47 67.48 68.17 68.88 69.84 70.50 78.00 77.00 76.31 77.32 76.97 77.07 74.84 74.33 73.65 74.98 75.13 73.68 73.64 71.97 72.19 70.74 70.46 70.51 69.90 70.02 70.23 70.19 70.34 71.22
51.38 48.28 50.36 51.97 54.05 54.27 56.67 53.12 53.52 58.18 59.57 59.60 60.20 60.85 61.96 63.36 64.67 64.44 65.36 66.55 67.46 68.01 69.12 72.04 74.10 75.09 78.27 77.17 76.52 76.78 74.86 75.10 73.73 73.76 76.66 76.93 75.73 74.96 74.26 71.78 70.77 70.82 71.33 73.16 71.95 72.16 70.96 69.21 70.42
47.30 48.69 44.71 49.67 51.79 53.08 53.44 49.18 55.03 57.84 57.46 57.86 59.05 59.98 60.84 62.80 63.49 64.29 64.88 66.38 68.32 68.45 70.94 72.92 69.65 71.47 77.21 77.21 76.69 75.56 73.97 74.09 73.53 73.91 74.85 76.45 76.80 75.59 75.02 71.59 71.74 72.31 71.56 70.66 69.82 68.90 67.89 68.45 67.95
43.87 41.83 44.83 46.58 51.22 51.07 50.51 49.77 54.79 57.49 57.57 57.54 58.59 59.59 60.04 61.15 62.94 65.44 64.78 65.81 67.23 68.84 71.21 70.94 73.18 69.91 73.98 76.79 74.38 74.55 75.86 73.40 72.66 73.18 73.38 76.23 75.16 74.44 73.89 71.90 72.35 74.10 70.85 70.37 69.78 68.55 68.40 67.46 67.23
39.73 41.16 43.64 44.64 48.78 50.10 48.88 49.21 52.62 55.20 55.62 56.83 58.07 59.23 60.06 60.86 61.84 64.11 65.75 66.79 67.59 69.28 72.05 73.31 72.18 74.29 75.99 73.05 74.98 71.04 70.71 71.82 72.94 72.90 73.07 75.55 74.25 73.81 73.74 72.12 73.56 73.24 70.35 69.69 69.06 70.16 68.42 67.33 66.77
43.58 41.72 41.51 45.45 49.00 48.26 47.82 49.28 50.84 53.69 54.27 55.13 56.77 58.37 59.46 60.71 62.63 63.71 65.01 65.53 66.34 69.60 71.32 72.23 71.33 74.22 72.99 70.05 68.85 68.46 69.40 71.20 72.34 73.09 74.79 73.98 73.87 73.56 74.16 71.96 73.10 72.85 71.65 71.97 72.21 69.18 68.83 66.03 69.60
42.02 40.86 41.03 44.06 46.72 47.95 48.18 47.70 50.63 52.90 53.75 54.82 55.53 56.89 58.41 59.43 61.24 62.43 63.60 64.66 67.61 68.97 70.48 71.66 72.42 74.03 74.57 71.19 72.01 71.05 72.47 71.37 72.76 73.18 74.72 74.06 73.59 73.97 72.73 73.53 73.08 72.23 70.92 71.80 70.81 70.47 66.53 66.79 69.08
41.20 39.86 40.33 41.03 44.94 47.30 47.16 45.23 48.05 51.54 53.58 54.93 55.82 56.86 57.93 58.63 59.44 60.90 61.77 64.28 64.76 67.39 69.48 69.74 72.34 73.87 74.97 74.00 72.81 73.94 73.62 74.23 72.14 73.09 72.93 73.45 73.28 73.30 72.46 72.68 72.81 72.75 72.56 69.64 71.07 69.96 70.03 66.86 67.96
38.22 43.02 41.92 41.17 40.02 37.20 46.36 38.35 46.18 49.26 50.92 52.61 54.43 55.80 56.63 57.62 58.58 59.81 61.30 63.31 65.12 65.79 66.68 69.60 71.53 73.35 74.11 76.01 72.00 74.36 71.32 70.69 71.76 72.61 73.13 72.92 73.65 72.57 71.92 72.08 72.80 72.90 71.88 72.14 70.83 71.12 70.35 69.00 65.81
40.20 43.82 42.09 41.63 39.94 39.62 40.55 40.08 44.12 49.47 48.37 50.97 53.56 54.88 56.44 57.44 57.95 58.65 59.56 61.72 62.12 64.13 65.96 68.37 70.90 72.64 73.49 74.42 73.95 72.17 73.13 72.11 72.33 72.56 73.88 72.90 71.79 72.19 71.53 72.30 72.98 71.99 71.63 73.27 72.64 71.84 70.10 68.86 68.24
45.13 42.38 42.13 41.25 39.67 33.46 39.20 39.52 41.21 45.21 48.67 50.86 53.22 54.56 55.87 56.99 57.64 58.58 59.53 60.24 60.59 61.56 62.79 67.17 69.47 71.23 72.99 73.81 73.65 75.77 75.21 75.07 72.25 73.35 71.22 70.30 70.89 71.11 71.13 72.32 72.37 73.34 73.22 71.85 70.64 70.81 70.01 69.86 69.03
42.87 39.89 31.64 29.48 30.98 31.18 40.21 39.18 41.91 47.94 50.05 51.09 51.86 53.77 55.82 56.33 56.81 57.45 58.58 59.34 60.73 61.76 62.53 64.06 67.38 69.63 71.52 72.93 72.55 73.69 76.18 77.35 76.46 73.63 72.23 71.01 70.06 70.15 72.09 73.47 73.75 72.02 71.93 71.30 70.86 70.60 69.74 68.52 67.03
39.71 37.47 32.56 24.01 27.51 32.92 39.74 34.11 41.30 49.16 51.70 52.02 52.80 53.18 54.75 55.64 57.34 58.77 60.14 62.32 62.54 63.58 63.33 63.20 64.22 67.07 70.61 72.13 72.46 73.69 75.20 73.08 73.62 74.48 73.00 72.07 71.62 72.21 74.05 73.04 72.21 71.48 70.84 70.41 70.65 69.73 69.27 69.36 66.69
39.74 37.06 42.34 34.46 35.49 31.07 34.77 40.33 44.90 49.20 49.64 50.89 51.54 52.95 54.29 55.36 56.95 58.55 60.97 64.18 65.28 65.23 64.00 64.53 67.34 70.05 71.75 72.20 72.90 74.06 74.24 75.82 73.95 76.43 76.35 73.18 74.36 72.75 72.15 71.79 71.22 70.71 70.03 69.89 69.85 68.27 67.35 67.95 68.06
41.95 44.00 33.59 35.73 25.59 24.63 33.72 35.89 39.52 44.19 46.94 49.89 51.07 52.41 54.08 56.03 57.40 59.36 63.37 65.73 67.22 67.02 64.90 66.93 68.68 70.63 71.87 72.95 73.35 73.46 74.22 74.13 73.75 73.55 74.19 73.57 73.16 71.87 71.51 70.49 70.19 69.80 69.35 69.06 69.15 67.99 67.81 67.13 66.32
38.03 38.24 37.05 38.17 35.20 27.88 26.85 33.97 44.72 46.47 48.09 49.57 51.77 53.28 53.87 54.71 55.53 58.40 64.57 65.77 66.89 68.08 67.36 68.26 70.21 71.19 71.90 72.51 72.84 73.15 72.95 72.46 72.40 71.97 70.92 70.96 71.33 70.50 69.38 69.52 68.60 68.47 68.54 68.21 68.09 68.00 66.91 65.63 66.65
42.87 41.00 38.99 32.19 31.78 36.17 34.48 33.95 45.94 46.60 50.40 51.61 52.43 52.75 53.75 54.62 55.48 58.03 65.12 64.73 67.95 67.75 68.97 69.80 70.74 71.05 71.49 72.03 72.08 71.88 71.87 71.18 70.87 70.56 70.53 70.60 69.78 69.27 68.62 68.57 68.37 67.43 67.16 67.47 66.34 65.94 66.29 65.65 64.72

GFSSGP_sfc_wetblb_054.txt.gz
Wetbulb
65.45 63.62 64.61 60.85 50.73 51.27 47.84 49.75 53.36 53.03 53.98 57.43 58.85 58.54 57.97 59.68 60.47 58.68 68.42 69.12 74.70 72.17 72.93 74.67 75.96 75.83 75.53 74.68 75.08 75.94 76.16 76.51 76.74 76.65 76.27 75.42 74.75 73.71 72.61 71.85 70.76 69.37 68.27 67.60 67.41 67.25 67.25 66.96 66.71
61.84 61.59 61.28 56.25 48.41 46.05 48.34 52.25 52.25 53.90 57.87 59.83 60.09 60.71 60.47 60.07 65.71 67.33 66.98 69.39 75.76 73.11 72.57 73.44 75.80 75.73 75.30 74.81 74.43 74.85 75.21 75.86 76.24 76.27 75.65 74.85 74.16 73.28 71.77 71.12 69.76 68.83 68.29 67.85 67.51 67.39 67.26 67.22 66.92
64.21 62.08 55.84 51.17 48.69 46.31 47.86 53.41 53.78 55.81 60.29 61.23 60.49 62.42 61.95 62.08 66.40 67.76 70.28 71.03 75.46 73.57 72.04 73.92 75.70 75.55 75.41 74.81 74.28 73.88 74.28 74.64 75.14 75.32 74.88 73.86 73.49 72.86 71.97 71.25 70.71 69.29 68.85 68.35 67.97 67.70 67.83 67.89 67.81
62.91 60.86 56.32 48.33 46.98 50.11 51.47 53.91 55.52 55.65 58.06 62.26 61.81 59.99 63.59 68.03 67.60 69.41 70.30 70.25 74.15 73.57 71.80 75.02 75.45 75.28 75.23 74.88 74.26 73.76 73.58 73.56 74.08 74.16 74.03 73.56 72.76 72.37 71.72 71.24 71.02 70.86 69.45 69.13 68.80 68.75 69.01 69.19 69.21
62.60 57.64 49.43 47.23 47.76 51.25 54.01 55.63 55.82 55.32 58.15 59.86 61.13 59.88 61.82 66.94 69.68 69.44 70.21 70.76 71.52 73.12 72.62 74.39 74.90 75.12 75.23 75.08 74.63 73.93 73.56 73.14 73.26 73.41 73.36 72.89 72.59 72.17 71.72 71.42 71.20 70.77 70.52 69.72 69.27 70.18 70.35 70.23 70.23
55.80 55.16 47.00 45.56 48.03 51.31 53.40 55.58 55.52 55.91 57.89 61.03 60.25 60.61 62.49 67.19 68.84 68.59 69.78 70.73 71.14 72.14 73.80 74.62 74.68 74.78 74.75 74.75 74.33 73.83 73.58 73.18 73.01 73.11 73.04 72.79 72.44 72.27 71.70 71.60 71.46 71.47 71.42 71.15 71.08 71.12 71.17 71.22 71.40
55.84 52.36 47.25 47.25 47.72 49.77 51.97 55.61 53.84 54.68 56.60 57.51 61.99 59.26 63.12 65.81 68.34 69.60 68.78 70.53 70.65 72.44 75.12 74.43 73.65 74.19 74.73 74.20 74.00 73.48 73.28 73.15 72.91 72.76 72.66 72.39 72.32 72.02 71.78 71.53 71.38 71.39 71.51 71.58 71.35 71.59 71.70 71.63 71.48
58.03 55.48 51.02 50.62 49.19 49.49 53.60 54.47 55.36 54.31 54.36 59.72 62.68 58.26 61.21 67.02 69.05 69.16 67.09 68.47 69.72 71.52 75.27 74.90 73.93 72.58 72.35 72.92 74.23 73.60 73.18 73.03 72.61 72.56 72.46 72.22 72.22 71.92 71.75 70.89 71.21 71.55 71.82 71.85 71.75 71.65 71.95 71.75 71.68
57.23 51.04 49.82 50.87 50.86 51.98 55.62 53.62 56.06 57.41 55.14 56.81 59.23 61.25 65.87 68.26 68.25 67.98 66.05 66.50 68.05 69.48 73.82 75.40 74.06 72.59 71.37 71.35 72.90 73.82 73.56 73.33 72.88 72.74 72.78 71.83 70.25 70.07 69.93 70.48 70.22 71.63 71.90 72.05 71.90 71.95 71.95 71.99 72.04
52.34 49.99 50.65 54.80 55.05 53.95 55.48 55.30 55.11 54.58 54.36 55.01 57.71 62.64 64.86 67.06 68.16 66.58 65.28 64.98 66.49 67.43 69.50 72.97 74.32 72.60 71.21 70.46 71.36 72.27 72.25 72.26 71.82 70.98 70.67 70.81 69.26 68.68 68.97 69.64 70.42 71.50 71.78 72.02 72.02 72.19 72.21 71.82 69.65
52.46 49.93 53.92 54.89 56.34 56.62 55.68 55.60 56.72 54.21 53.03 55.26 57.30 59.82 63.72 64.60 66.95 66.34 65.40 65.35 66.34 67.99 68.59 71.39 74.30 73.61 72.32 71.23 71.89 72.53 71.16 70.81 70.53 70.15 69.70 70.08 68.91 68.38 68.37 67.83 68.47 68.83 70.94 69.21 70.23 70.40 70.42 69.21 68.85
48.58 52.50 54.24 55.44 56.75 56.28 55.46 57.79 56.50 55.96 55.35 57.73 58.57 61.33 63.45 64.05 65.08 66.22 66.22 65.99 66.99 67.88 69.01 72.55 74.76 74.97 74.13 73.76 72.35 73.19 72.53 71.80 70.49 70.20 70.37 69.42 69.17 68.07 67.62 67.62 68.29 66.86 67.85 67.86 67.31 67.73 68.51 68.66 69.41
47.81 49.88 52.69 54.39 55.39 56.43 57.07 55.61 56.06 56.68 58.16 58.79 59.02 59.62 62.32 64.32 65.08 66.92 68.13 67.80 70.01 65.60 66.73 70.81 75.00 75.70 76.54 76.68 75.99 73.47 72.57 73.13 72.21 71.74 71.00 70.14 69.70 68.55 68.55 68.52 68.18 68.06 67.62 68.19 66.83 67.62 67.72 68.54 69.09
50.00 49.77 50.20 52.02 52.84 54.61 54.16 55.02 55.91 57.45 60.00 59.37 59.66 59.21 60.61 63.52 63.71 65.39 67.57 69.33 73.28 73.82 74.90 73.04 75.31 76.62 76.83 75.76 75.76 77.01 76.38 73.96 74.05 73.24 72.81 71.42 69.78 70.44 69.23 68.64 69.64 68.56 68.48 68.31 67.63 66.81 67.93 68.26 69.20
49.46 46.98 49.05 50.01 50.75 51.43 53.82 51.24 53.02 57.76 58.90 58.59 59.52 59.91 60.22 60.96 63.69 63.92 66.09 69.25 71.59 72.75 77.26 73.34 75.44 78.24 77.24 76.65 76.52 75.44 75.00 74.41 73.05 73.83 75.31 72.75 71.70 70.33 70.95 69.72 68.08 69.97 69.62 69.47 69.18 68.15 68.59 69.73 69.10
44.39 46.00 42.93 48.55 49.58 50.86 50.69 45.96 52.87 56.13 57.06 57.44 58.44 59.64 60.43 61.42 61.75 63.78 66.77 70.01 71.47 71.50 71.80 73.32 69.95 75.96 77.22 76.47 75.91 75.29 74.23 73.80 74.14 73.91 74.71 75.69 72.95 72.69 71.56 71.01 70.49 69.72 70.71 69.17 69.43 69.42 68.62 68.03 67.42
42.67 37.99 40.70 43.78 49.86 49.30 48.85 46.63 52.53 55.61 55.56 56.01 57.85 58.86 59.58 60.86 62.43 64.95 65.99 67.46 70.13 71.63 72.38 72.51 74.04 74.16 76.57 76.97 75.90 76.03 75.40 75.77 74.46 73.63 74.37 75.59 74.70 73.13 73.14 71.51 71.12 72.49 70.16 69.52 69.23 67.72 68.73 66.80 67.57
38.89 39.68 41.05 40.76 44.96 47.04 47.21 47.71 51.05 53.44 53.55 55.19 57.13 58.99 59.44 59.93 61.26 63.55 66.52 66.71 69.90 71.53 71.93 73.33 72.89 74.98 76.32 75.90 75.59 73.63 72.79 72.25 72.64 72.51 73.58 74.93 74.21 73.92 72.39 72.52 71.43 73.11 70.45 69.48 69.14 68.61 68.52 67.11 66.70
43.20 41.80 41.00 43.50 45.92 44.70 44.95 47.37 49.63 52.75 53.26 52.79 55.17 57.27 58.70 59.86 62.83 63.31 64.58 66.01 69.40 70.77 69.16 70.16 71.38 72.34 73.51 71.18 70.56 69.72 69.02 69.44 70.66 72.04 74.36 75.26 74.29 73.38 73.33 71.53 72.41 71.83 70.37 69.79 70.84 69.78 68.32 66.69 66.48
42.60 40.52 39.89 42.74 44.94 44.53 44.17 43.89 47.99 51.38 52.28 53.93 54.39 55.48 56.79 59.06 61.11 62.82 66.25 69.18 68.33 70.05 70.80 71.49 71.08 71.49 72.15 71.37 71.25 71.36 71.30 70.25 71.11 73.10 74.40 74.60 74.20 73.59 72.95 71.85 71.27 71.04 70.64 70.78 70.54 68.90 66.24 65.73 67.23
41.36 39.80 40.05 39.80 42.98 43.91 42.70 41.70 45.37 49.14 52.26 53.53 54.99 56.91 57.48 57.83 58.69 62.09 63.10 66.04 68.79 68.18 68.81 69.74 71.17 71.63 72.11 71.87 72.07 72.47 72.75 73.29 73.38 74.01 74.19 74.04 74.05 73.64 73.02 71.87 71.90 71.48 70.84 69.49 69.77 68.68 67.32 64.41 66.02
37.63 42.75 41.73 40.61 39.04 34.63 42.58 34.57 43.53 46.95 49.23 51.74 53.19 54.72 56.96 57.71 58.77 60.02 62.45 65.74 67.49 68.17 69.54 70.69 70.98 70.46 71.38 72.46 71.41 70.63 68.40 67.76 70.50 73.10 72.85 73.22 73.70 73.12 72.31 71.73 71.70 71.61 70.52 70.04 69.18 69.26 67.53 67.85 65.08
39.86 43.51 41.62 41.00 39.25 38.33 38.30 35.65 39.89 45.44 45.91 49.99 52.48 53.94 56.27 57.52 58.60 58.88 60.38 62.61 62.34 63.94 65.36 66.32 69.11 70.13 70.59 70.58 71.66 70.07 70.89 71.20 74.10 73.64 73.93 72.76 73.09 72.44 71.72 71.58 72.04 71.37 70.99 71.27 69.84 69.69 68.94 68.28 65.86
44.61 41.78 41.09 40.90 39.10 31.97 36.73 36.32 37.40 41.10 44.90 48.61 52.64 54.31 55.67 56.73 57.80 59.47 60.81 61.48 61.88 62.77 63.26 64.69 66.60 68.00 70.04 71.44 72.19 71.82 71.92 70.51 71.52 71.68 72.55 71.28 71.28 71.36 71.03 71.28 70.93 71.92 71.52 71.01 70.56 70.29 69.38 67.92 67.23
41.74 37.90 29.69 28.32 30.19 30.17 38.28 36.03 38.75 44.24 46.77 48.35 50.66 53.72 55.50 57.13 57.46 58.27 59.22 59.80 61.07 62.52 64.31 65.56 68.35 67.57 70.20 70.18 72.48 71.32 71.59 72.20 75.08 72.51 71.53 70.04 69.64 69.95 70.37 70.34 70.59 71.15 71.43 71.12 70.44 69.57 68.52 68.23 66.94
38.22 38.11 31.02 22.67 25.22 30.46 37.88 32.71 37.67 46.66 48.64 49.76 52.06 54.21 55.33 55.45 56.72 58.44 60.13 61.02 60.88 63.26 63.71 63.38 64.62 66.57 69.94 69.62 70.24 72.74 72.82 73.45 74.42 72.76 71.23 69.83 69.41 69.78 70.46 70.87 71.55 71.31 71.06 70.54 70.27 69.27 68.93 67.52 66.77
39.06 35.53 41.06 33.79 35.61 30.74 34.22 37.92 43.01 46.38 47.11 49.39 50.50 52.59 53.84 56.65 58.96 58.15 59.30 61.88 63.28 65.47 68.80 67.60 64.46 66.24 67.63 68.07 71.50 72.26 73.22 74.24 73.35 73.49 71.87 70.84 70.99 70.79 71.00 71.80 71.26 70.57 70.49 69.82 69.65 68.74 67.56 67.00 67.05
41.77 43.40 34.75 35.72 25.52 24.27 31.62 33.50 34.92 42.08 44.90 47.72 49.20 51.45 54.05 56.48 56.26 57.59 59.20 62.13 67.16 67.99 69.34 69.30 67.17 67.26 68.39 72.06 72.62 72.89 73.90 74.69 74.70 73.79 72.22 70.79 72.14 71.72 71.60 70.91 70.69 69.83 69.58 69.32 68.96 67.69 67.21 66.54 66.30
38.04 37.89 38.75 37.94 33.30 26.24 26.76 31.97 44.11 43.18 46.31 45.14 50.81 52.31 54.29 55.48 55.87 56.92 59.47 63.94 66.12 67.94 68.00 68.12 67.91 70.21 71.27 72.23 72.54 73.00 72.86 73.99 73.73 72.95 72.26 71.40 71.90 71.28 70.75 70.01 69.13 68.81 69.04 68.53 67.29 66.79 66.05 65.49 65.45
41.31 38.90 37.91 30.91 30.59 34.81 33.12 33.17 44.72 45.36 46.73 46.02 47.65 52.28 54.52 54.88 54.56 55.37 62.75 65.32 64.72 65.78 67.17 67.50 68.99 70.33 71.74 72.44 72.27 72.97 71.06 70.91 72.19 70.96 70.95 70.59 70.34 69.81 69.15 68.67 68.00 67.74 67.52 66.68 66.42 65.94 65.26 64.67 64.21

GFSSGP_sfc_wetblb_057.txt.gz
Wetbulb
61.81 59.17 58.38 57.16 44.11 42.63 39.69 44.31 49.44 48.86 48.95 52.23 57.30 55.93 56.05 58.71 59.81 54.31 67.11 70.75 69.79 71.14 73.49 74.76 75.77 75.44 75.41 76.31 76.62 76.66 76.50 76.61 76.54 76.49 76.17 75.11 74.56 73.39 72.29 71.46 70.77 69.78 68.66 68.04 67.77 67.59 67.63 67.27 66.95
60.40 59.65 55.66 52.13 40.45 35.70 40.10 48.69 47.55 50.60 52.49 54.98 57.69 57.46 57.34 59.87 64.56 62.49 68.09 69.79 69.89 71.10 72.60 73.02 75.59 75.41 74.96 75.47 76.14 76.22 76.53 76.48 76.61 76.31 75.65 74.88 74.21 73.22 71.94 70.68 69.92 69.16 68.46 68.14 67.98 67.74 67.77 67.58 67.15
62.94 61.26 49.55 45.82 40.48 39.79 40.69 47.74 49.60 52.24 54.87 57.90 56.99 59.57 59.87 61.52 65.07 63.66 70.22 69.73 69.80 70.33 71.29 73.29 75.19 75.17 74.86 74.79 75.50 75.78 75.89 76.15 76.31 76.17 75.40 74.51 73.97 73.22 72.33 71.39 70.65 69.16 68.90 68.52 68.25 68.10 68.10 68.05 68.11
59.20 55.91 52.31 41.76 39.76 44.20 47.15 49.69 51.48 52.33 55.59 59.46 59.04 57.36 62.27 66.88 65.95 67.02 72.60 70.47 69.39 68.73 71.18 74.89 75.01 75.04 74.84 74.46 74.37 74.95 75.44 75.71 75.88 75.70 75.03 74.26 73.69 73.14 72.43 71.43 71.18 70.49 69.56 69.21 69.05 68.70 68.80 69.14 69.04
59.82 54.13 43.22 38.74 40.96 46.41 49.94 51.77 51.62 50.72 51.74 57.40 58.43 57.41 60.41 65.92 67.62 72.30 72.09 71.43 69.13 67.91 71.46 73.93 75.06 75.06 74.96 74.54 73.94 73.94 74.26 74.59 74.99 75.20 74.76 74.19 73.76 72.99 72.23 71.63 71.03 70.73 70.41 70.02 69.67 69.99 70.86 70.95 70.78
52.98 50.46 39.79 38.09 43.46 48.40 50.57 51.99 50.36 50.43 51.28 56.69 56.89 57.44 59.08 66.23 66.27 67.97 71.55 70.66 70.29 68.18 71.66 72.94 75.06 74.86 74.49 74.44 73.77 73.35 73.20 73.39 73.89 74.16 74.23 73.89 73.22 72.82 72.33 71.69 71.43 71.58 71.56 71.32 71.13 71.21 71.21 71.39 71.42
52.57 48.32 43.25 43.10 44.46 47.42 49.67 51.89 49.76 49.69 50.03 52.57 56.41 57.03 59.67 63.86 66.36 67.13 68.83 70.05 70.18 71.01 71.35 71.22 72.73 74.05 74.91 74.29 73.57 73.27 72.97 72.80 72.77 72.84 73.01 73.02 72.92 72.60 72.23 71.76 71.71 71.83 71.58 71.62 71.24 71.33 71.44 71.51 71.51
50.33 51.83 48.24 49.23 47.69 47.19 52.23 53.21 50.89 49.92 51.29 55.49 57.37 55.77 57.43 64.29 66.27 66.84 68.06 66.96 69.80 71.71 71.38 70.62 70.83 72.24 72.25 72.49 74.18 73.58 73.19 72.87 72.59 72.69 72.71 72.64 72.69 72.39 72.25 71.33 71.54 71.79 71.71 71.78 71.63 71.56 71.74 71.92 71.67
54.04 44.66 45.13 48.12 49.06 50.74 53.81 52.45 55.76 55.93 53.17 54.10 55.58 62.49 64.42 66.46 66.09 64.32 63.74 64.50 70.02 71.74 70.91 70.82 70.05 70.35 70.57 70.89 72.63 73.40 73.20 73.14 72.91 72.56 72.76 71.56 69.26 69.53 69.82 70.68 70.53 71.66 71.91 72.11 72.01 71.76 71.76 72.04 71.83
48.16 43.17 44.90 51.91 53.02 52.07 53.91 53.48 54.25 53.53 52.40 52.58 53.68 61.21 64.89 66.28 64.84 62.10 62.69 63.22 67.39 70.29 71.27 70.97 70.42 69.21 68.29 70.35 69.91 70.23 70.37 70.36 70.18 69.67 69.06 69.35 67.50 66.56 69.24 69.71 71.37 71.34 71.64 71.88 72.15 72.05 72.00 71.73 68.82
47.73 44.55 48.72 50.66 53.24 54.42 53.93 54.40 56.51 54.55 50.59 52.35 52.68 55.72 62.22 63.73 63.65 64.36 62.29 62.87 65.63 70.50 72.09 71.74 70.61 69.30 68.02 67.86 68.70 70.14 69.61 69.48 69.69 68.65 67.90 68.27 67.91 66.44 68.06 66.52 67.99 66.89 70.18 68.09 70.00 69.97 69.86 68.85 68.13
42.85 47.45 50.31 50.88 52.83 53.07 52.20 54.84 54.49 55.21 54.92 56.02 56.61 56.66 56.64 58.88 62.00 63.37 64.04 62.09 63.27 67.35 70.34 71.65 70.70 68.94 67.76 67.64 69.05 69.08 68.28 68.28 68.32 68.70 67.70 67.67 66.95 65.33 65.15 65.21 64.86 64.83 66.62 66.69 65.34 67.35 67.52 67.73 67.31
43.88 45.90 47.86 50.40 51.65 52.37 53.85 52.35 52.91 54.28 57.18 59.05 58.51 57.68 56.61 57.85 60.57 62.37 62.63 64.38 64.23 64.20 67.63 67.71 70.30 69.28 68.57 67.77 69.47 69.29 68.76 68.21 67.87 67.84 67.78 67.35 67.04 65.52 65.15 64.27 64.42 64.64 65.15 66.20 65.04 64.71 65.96 66.64 67.18
44.21 45.13 46.96 48.14 47.97 49.90 50.16 50.89 52.49 54.27 57.11 57.34 58.19 57.40 57.69 57.77 59.97 59.90 62.14 63.10 64.01 63.87 64.27 66.65 65.95 71.46 70.76 69.97 69.48 69.85 69.82 69.69 68.93 68.51 68.31 67.90 67.09 66.75 65.38 64.78 64.73 64.57 64.74 65.67 65.74 64.11 64.84 65.54 66.22
44.52 41.15 44.14 45.93 47.18 46.54 48.66 46.77 48.41 52.95 55.74 56.20 56.92 57.44 57.99 58.12 58.59 59.83 60.84 62.42 63.93 64.74 64.97 66.00 65.52 65.06 71.97 70.44 69.98 71.04 71.59 69.82 70.34 69.99 69.56 68.77 67.45 66.90 66.57 65.95 64.77 64.79 65.39 64.77 65.88 64.74 63.94 65.06 65.84
40.02 39.70 35.33 42.11 46.50 47.81 45.99 40.77 48.12 51.79 52.61 53.20 56.36 57.18 57.82 58.23 58.24 59.19 60.90 62.17 64.84 64.71 65.15 66.59 69.19 71.00 72.20 72.19 71.83 70.79 70.49 70.88 70.18 69.21 70.57 70.01 68.67 67.53 67.86 66.73 65.97 65.52 65.61 65.84 65.09 64.88 63.95 64.19 65.66
36.74 32.04 35.11 38.92 43.96 44.30 44.70 42.53 48.01 50.57 50.94 51.48 52.94 54.52 57.41 57.80 58.08 58.10 60.46 61.66 64.46 64.26 64.26 64.05 68.57 73.51 73.09 72.42 71.96 71.31 70.84 70.08 70.42 70.38 69.92 71.79 70.09 69.18 67.60 68.25 67.12 65.61 66.19 65.33 65.16 64.67 64.61 63.90 63.09
33.15 33.94 36.96 36.98 40.31 41.39 40.23 41.10 45.37 48.97 49.73 49.82 52.35 53.90 56.21 57.01 57.80 58.52 59.29 61.49 62.52 63.77 64.13 64.86 65.55 71.13 72.92 73.06 71.65 71.34 71.00 71.10 70.53 70.88 69.87 70.35 71.51 70.41 68.58 68.18 67.79 68.48 65.79 65.81 64.84 63.65 63.87 62.93 63.33
40.52 38.72 37.54 40.42 43.24 40.73 39.66 40.53 43.16 45.79 46.03 47.71 49.72 50.89 52.08 56.27 58.23 59.08 59.32 60.79 61.71 64.40 65.22 65.62 65.22 67.65 67.52 64.45 66.53 66.37 66.58 66.32 67.21 67.45 68.53 69.62 71.94 71.22 70.46 68.83 68.47 67.56 66.94 65.43 65.43 64.75 63.03 62.78 62.54
39.01 37.25 36.72 40.18 42.94 41.23 39.68 39.25 42.40 44.10 44.92 46.49 47.15 49.90 50.97 53.27 56.23 58.50 59.09 59.15 59.86 62.49 62.86 63.83 64.13 65.03 65.49 65.22 64.29 64.31 64.02 64.91 65.27 65.48 67.60 69.62 70.97 71.22 70.18 68.81 68.08 67.90 67.05 65.98 65.82 65.10 62.76 62.51 62.08
37.43 35.97 36.46 36.81 40.52 41.26 39.14 37.03 39.51 43.47 45.06 46.72 48.26 49.50 51.54 51.84 53.80 55.14 56.54 57.52 61.22 62.36 62.46 63.22 63.48 64.39 65.24 64.97 65.46 65.44 64.70 64.81 65.50 66.88 67.35 69.45 70.96 70.88 70.82 69.16 68.04 67.82 67.27 66.14 65.63 65.12 62.35 60.31 60.69
34.58 40.73 40.01 38.52 35.97 30.15 38.18 28.86 36.54 40.42 41.85 44.49 46.25 47.93 49.01 50.20 53.22 54.47 55.36 56.09 60.89 62.11 62.93 63.21 63.87 64.33 64.93 64.84 64.19 64.59 64.84 63.50 63.38 66.50 68.69 69.38 70.41 70.34 69.89 69.34 68.47 68.38 67.75 66.21 66.14 66.15 63.55 63.52 60.90
37.31 41.93 39.36 38.56 35.28 33.41 34.29 30.47 34.97 39.45 39.36 41.63 43.98 46.15 48.68 49.91 51.23 54.04 54.62 56.04 58.71 59.79 61.50 64.05 64.49 64.26 64.52 65.77 65.85 65.62 63.84 63.93 64.64 66.48 68.01 68.59 69.00 69.75 69.84 68.84 68.48 68.94 68.36 67.08 66.27 65.40 64.38 63.67 62.57
43.21 38.43 37.27 36.46 32.28 26.41 32.59 31.89 32.65 36.21 39.23 41.86 44.32 46.31 47.88 50.18 50.58 53.31 55.72 54.58 56.63 56.83 57.59 59.22 62.74 64.17 64.58 64.85 66.00 65.30 64.47 65.04 65.53 66.90 68.09 67.91 68.11 68.36 68.86 68.76 68.24 69.16 68.53 67.50 66.61 66.29 65.16 64.18 63.27
37.05 31.73 22.53 22.42 22.02 23.27 34.78 32.67 34.05 39.99 42.19 43.27 44.08 45.65 47.42 48.37 49.25 52.65 52.22 53.90 54.64 55.54 55.74 56.98 58.31 59.82 64.10 64.81 65.84 66.66 64.82 65.13 65.26 66.80 68.56 67.79 66.89 67.09 67.64 68.81 68.00 69.38 68.55 67.63 67.50 66.20 64.86 64.05 63.22
35.47 31.90 25.88 18.92 20.51 24.54 34.79 28.99 33.62 42.12 44.41 45.17 46.33 46.89 47.96 47.76 49.94 50.98 52.62 53.02 54.02 54.62 56.22 56.88 57.33 60.38 61.97 64.26 66.04 67.28 66.00 68.12 66.55 69.50 68.96 68.13 67.68 67.39 68.24 68.77 69.40 68.94 68.24 67.05 66.96 64.92 64.69 64.32 63.21
34.56 29.78 35.73 29.62 31.00 25.77 29.80 34.39 39.70 42.34 43.23 45.62 45.55 45.76 46.60 48.98 50.02 52.70 52.01 53.49 55.01 55.74 56.99 56.17 55.37 59.96 63.47 66.18 67.53 67.97 66.71 67.36 68.87 69.09 68.73 68.12 67.62 68.32 68.31 69.37 68.86 68.26 67.14 66.65 65.62 64.62 63.93 63.44 62.53
36.75 38.78 28.45 29.26 23.04 20.63 28.21 30.42 31.79 38.28 40.24 42.04 42.17 43.10 45.73 46.79 51.35 52.13 51.95 53.19 54.96 58.83 60.09 61.82 59.52 59.76 64.42 65.29 65.96 67.80 68.90 69.28 70.79 69.56 68.22 67.35 67.88 68.06 67.95 68.63 68.09 67.32 66.43 66.03 64.95 63.51 63.13 62.91 62.18
34.06 33.76 32.74 34.67 30.06 22.92 21.55 26.34 39.28 39.25 40.48 41.01 41.70 44.52 46.18 47.61 51.44 51.17 51.44 56.09 59.83 61.25 61.89 61.96 59.67 60.21 61.60 65.66 67.85 68.55 69.55 70.22 70.77 69.22 69.02 68.19 68.51 67.84 68.64 68.21 66.74 65.91 65.20 65.11 63.34 62.73 62.80 62.18 61.20
38.34 35.26 34.91 28.80 26.05 31.56 30.13 27.95 41.07 40.14 42.20 42.73 42.11 44.72 47.93 49.01 48.61 50.10 49.32 59.89 60.49 60.54 61.26 61.42 60.44 65.19 67.52 68.80 68.47 68.98 69.42 69.72 69.29 68.52 69.13 69.87 68.66 68.83 67.66 66.55 65.97 65.80 65.43 63.72 62.95 62.40 63.02 61.57 60.76

GFSSGP_sfc_wetblb_060.txt.gz
Wetbulb
60.07 58.26 55.85 55.47 43.69 40.05 37.00 41.95 46.42 47.62 47.87 48.85 52.36 55.33 55.75 59.13 57.70 53.38 64.37 67.39 68.15 70.70 73.39 74.27 75.77 76.67 77.14 77.03 76.80 76.74 76.29 76.11 76.34 76.09 75.08 74.22 73.84 73.15 72.07 71.59 70.91 69.83 68.92 68.45 68.10 68.02 67.92 67.48 67.19
59.66 60.23 53.71 49.53 39.41 33.97 37.18 44.04 46.10 47.92 50.66 52.65 53.64 55.50 57.71 58.52 61.65 65.20 65.54 67.16 68.32 71.86 72.98 72.90 75.22 75.92 76.71 76.60 76.54 76.26 76.21 76.21 76.36 76.05 75.08 74.39 73.79 72.95 71.79 70.95 70.32 69.38 68.70 68.67 68.49 68.11 68.03 67.74 67.55
61.19 60.37 48.49 44.63 38.51 35.68 37.97 44.48 46.49 49.70 52.13 51.98 52.59 57.87 60.23 60.46 64.77 66.10 67.33 67.33 69.36 70.97 72.06 72.30 75.04 75.47 76.16 76.47 76.29 76.13 76.10 76.23 76.23 75.99 75.15 74.51 73.82 73.17 72.38 71.27 70.63 69.17 68.89 68.81 68.65 68.54 68.41 68.17 68.27
57.92 53.89 51.16 41.55 39.43 42.73 43.87 47.45 48.82 49.87 51.01 51.68 54.63 56.41 62.21 64.62 65.59 67.14 67.76 67.89 68.18 69.92 70.46 73.60 74.79 74.67 75.61 76.12 76.13 76.03 76.03 76.13 76.26 76.01 75.42 74.53 73.84 73.34 72.43 71.40 71.01 70.28 69.52 69.14 69.00 68.82 68.75 68.79 68.93
59.16 51.20 43.69 38.21 40.78 44.22 47.83 48.43 48.31 47.86 49.22 50.40 52.81 56.49 59.98 64.00 68.98 68.17 66.92 67.31 67.07 68.08 69.37 73.44 74.72 74.24 75.09 75.71 75.91 75.90 75.97 76.02 76.13 75.96 75.52 74.68 74.33 73.27 72.18 71.48 70.60 70.16 70.05 69.84 69.62 69.42 69.99 70.08 69.89
53.00 50.05 40.77 37.37 43.12 47.94 48.78 49.87 48.22 48.44 49.38 50.46 51.47 56.61 59.74 66.60 68.95 67.41 66.64 65.83 66.58 67.56 70.21 72.20 74.54 74.09 73.89 74.52 75.32 75.33 75.37 75.46 75.77 75.62 75.33 74.81 74.26 73.51 72.35 71.88 71.35 71.31 71.48 71.40 70.94 70.79 70.97 71.20 71.24
51.08 45.77 41.37 42.65 43.62 46.40 49.64 51.31 50.31 49.00 48.64 49.88 52.23 54.99 58.86 64.38 69.51 68.81 66.42 66.01 65.76 68.60 70.68 71.60 72.35 73.30 73.99 73.42 73.69 74.19 74.28 74.50 74.80 74.74 74.51 74.47 73.93 73.22 72.62 72.16 71.74 71.76 71.95 71.70 71.72 71.38 71.47 71.44 71.24
49.63 48.18 44.68 45.01 45.97 47.10 53.34 53.78 51.09 51.06 51.86 54.12 56.20 57.13 56.38 61.68 67.73 68.94 68.01 65.87 66.16 69.04 69.33 70.74 71.55 71.82 71.16 71.26 73.52 73.22 73.07 73.21 73.42 73.58 73.71 73.38 73.29 72.78 72.47 71.50 71.54 71.64 71.86 71.84 71.84 71.52 71.59 71.65 71.54
51.98 40.66 42.58 47.04 48.66 50.01 54.27 52.06 55.81 56.65 54.14 53.80 53.89 61.61 63.47 64.70 64.74 65.30 65.93 67.24 68.10 68.72 67.93 69.07 70.40 70.67 70.84 70.76 71.85 73.03 73.17 72.87 72.67 72.45 72.79 71.68 69.49 69.97 69.82 70.86 70.65 71.74 71.76 71.91 71.81 71.81 71.61 71.74 71.66
46.65 39.84 42.75 50.45 52.66 51.02 53.12 53.15 54.14 54.09 53.97 54.26 53.92 57.29 63.14 64.02 64.42 63.83 64.43 66.13 67.34 67.95 68.74 67.98 69.37 69.92 69.50 70.95 70.29 70.15 69.87 70.13 69.79 69.24 69.28 68.78 67.25 67.36 69.31 69.95 71.14 71.39 71.66 71.71 71.81 71.95 71.80 70.82 68.53
44.16 42.92 47.45 49.26 50.73 51.77 51.34 51.97 54.58 52.63 51.35 54.34 53.89 54.40 56.39 57.36 60.32 61.69 62.74 66.92 67.89 69.26 69.17 68.84 67.53 68.17 68.16 68.40 69.58 69.43 68.98 68.58 68.67 68.17 67.52 67.54 67.21 66.76 68.04 66.41 68.06 67.43 69.99 67.67 69.64 69.62 69.49 67.92 67.61
40.50 44.66 47.26 49.24 51.02 50.31 49.39 51.83 51.24 52.67 52.69 56.30 57.37 56.87 55.42 56.69 56.04 58.50 60.70 65.92 67.75 69.13 69.73 69.21 68.09 66.95 66.86 66.79 68.25 68.29 68.09 68.06 68.04 67.85 67.23 66.79 66.14 65.28 64.66 65.38 65.15 65.36 65.36 65.75 65.50 66.82 67.41 67.36 67.72
40.95 43.66 45.47 47.10 47.39 49.44 51.51 50.50 51.18 51.31 54.56 56.29 57.48 57.61 56.53 56.33 56.32 58.99 62.57 61.95 62.21 66.79 69.19 69.59 68.57 66.99 65.98 65.24 66.33 67.04 66.47 66.61 66.56 67.13 67.07 66.58 65.95 64.85 64.58 63.81 63.74 64.82 63.72 65.48 64.91 65.42 66.22 67.00 67.18
41.12 42.38 43.16 44.25 45.07 46.47 46.58 48.20 49.62 50.74 54.12 54.34 55.39 56.15 56.64 57.03 57.20 58.71 61.78 62.44 62.04 64.43 69.21 69.32 68.43 67.56 66.14 65.41 66.47 67.24 67.22 66.24 65.73 66.32 66.62 66.70 65.89 65.06 64.26 63.53 63.25 63.43 63.86 65.07 65.04 64.21 64.60 65.00 65.89
42.99 38.25 41.49 42.87 43.85 44.16 47.31 44.64 45.59 50.27 51.81 51.81 53.07 54.84 56.71 57.27 57.72 57.08 59.55 61.78 62.73 64.16 66.35 68.81 69.13 68.39 66.91 66.50 67.79 67.98 67.86 67.90 66.81 66.59 66.72 66.71 65.95 65.74 64.44 63.67 62.89 63.25 63.75 63.51 64.68 63.03 62.68 63.08 64.40
39.23 36.86 31.48 40.33 43.12 44.80 44.91 40.01 46.92 49.58 49.27 49.34 51.05 53.13 54.28 56.28 57.08 57.33 58.24 61.56 61.63 62.95 64.85 66.18 69.99 67.56 68.72 68.03 67.96 68.65 68.76 68.31 68.16 68.16 67.86 67.66 67.13 66.12 65.48 64.41 63.84 63.80 64.04 63.37 64.00 63.59 61.57 62.17 63.06
33.30 30.18 34.04 37.33 42.15 41.94 41.89 39.34 44.47 47.77 48.16 48.36 49.48 51.12 53.41 54.39 55.94 56.89 57.89 59.11 61.83 62.42 64.24 65.82 65.78 66.13 68.73 69.72 69.01 68.76 68.99 68.91 69.08 68.85 68.77 68.65 68.04 67.24 66.20 65.77 65.20 63.64 64.16 63.79 63.48 63.41 62.74 61.11 62.41
31.57 31.68 34.21 35.32 40.30 40.51 38.93 38.95 42.33 44.61 44.84 44.51 45.82 48.11 50.34 52.67 54.56 56.82 57.76 58.11 60.06 62.13 62.23 66.05 67.05 68.00 68.34 69.54 70.52 69.71 69.22 68.66 68.04 69.22 69.13 69.26 69.30 68.32 66.41 66.82 65.73 65.37 63.55 64.14 63.54 62.84 63.09 62.10 62.50
37.97 35.88 34.24 38.00 41.76 39.66 38.60 39.03 41.27 43.18 43.25 42.73 44.30 45.70 47.20 49.35 55.66 57.90 57.60 58.28 57.87 60.79 61.96 61.52 62.32 67.23 69.69 69.30 68.43 68.51 68.96 68.87 69.07 69.11 68.64 68.70 70.27 69.24 67.13 66.61 66.75 66.34 65.21 64.45 64.63 62.83 61.89 61.68 62.03
36.70 33.58 33.08 37.23 40.63 39.36 37.62 38.35 41.48 42.93 42.15 42.76 43.57 44.89 45.65 47.65 49.95 52.67 56.98 56.95 56.40 59.34 62.35 62.59 63.49 68.44 70.60 70.22 70.01 67.58 69.21 66.67 68.28 69.13 68.36 68.26 69.47 69.87 68.79 67.38 67.11 66.89 66.25 64.40 64.06 63.80 61.92 61.32 60.94
35.17 33.51 34.75 34.97 39.05 38.63 36.69 35.33 37.64 41.54 42.45 43.77 44.58 45.05 45.78 46.58 48.33 50.90 52.61 57.47 57.56 58.04 61.73 63.59 64.46 68.17 70.25 69.59 67.60 62.66 62.91 62.76 63.04 63.58 63.75 64.96 68.35 70.45 69.46 68.53 67.93 67.16 66.91 65.47 64.23 63.99 62.34 60.29 60.43
32.23 39.84 38.90 37.39 33.92 27.02 36.47 26.70 35.06 38.56 39.61 41.69 42.59 41.91 42.94 45.13 47.15 48.58 50.91 52.84 54.00 58.24 61.41 63.35 64.09 66.31 67.33 65.69 65.12 63.38 61.21 59.69 61.04 60.82 64.66 65.74 68.96 69.82 69.71 68.73 67.95 67.30 66.37 65.25 64.94 64.82 62.14 61.22 60.82
35.94 40.56 37.06 36.99 33.27 29.66 32.48 26.98 32.44 37.99 37.51 39.89 42.09 43.73 44.95 45.97 46.38 47.00 49.43 51.93 53.60 56.49 59.43 60.79 61.68 61.86 63.41 63.21 62.75 62.70 59.45 60.50 61.15 63.09 65.28 66.09 67.45 69.36 69.57 68.60 67.56 67.27 66.59 65.66 65.53 63.96 63.03 64.60 62.84
40.95 36.18 34.70 33.51 29.90 22.99 30.00 29.16 30.80 33.87 36.88 39.86 42.81 44.07 45.29 46.73 47.47 47.81 48.55 50.75 52.24 56.45 59.85 61.34 61.38 61.45 61.69 62.06 61.68 60.68 60.37 61.27 62.08 62.76 64.25 65.60 66.37 67.63 68.53 68.47 67.93 67.61 66.58 66.38 66.71 64.58 63.48 62.92 62.05
35.50 29.70 20.66 19.95 20.84 21.70 31.87 29.00 31.48 37.63 40.61 41.80 42.53 44.18 45.50 46.89 46.72 47.77 49.58 48.85 50.10 53.58 55.10 59.86 61.46 61.20 61.86 62.16 62.00 62.42 62.30 62.11 63.05 63.70 65.54 65.87 65.75 66.09 66.93 67.36 67.05 67.02 67.18 66.85 65.75 65.63 65.15 63.21 61.93
31.85 30.29 22.72 19.83 19.38 23.34 32.89 25.36 31.22 39.57 42.67 44.73 44.89 44.75 45.69 45.69 46.92 48.64 49.43 50.97 49.70 53.18 56.33 56.18 57.90 60.51 61.02 61.28 61.40 62.98 63.39 63.55 63.80 64.89 67.41 67.89 67.90 67.52 67.59 67.63 67.36 67.30 67.72 66.49 66.06 66.22 64.70 62.83 62.21
31.58 28.16 32.89 26.50 28.21 23.79 27.91 32.44 36.99 42.02 42.26 43.36 43.47 44.24 43.85 44.70 46.92 48.78 49.92 51.58 52.79 51.65 53.99 54.45 55.66 57.64 58.33 61.33 61.94 61.86 63.85 63.77 64.20 66.74 67.77 67.54 67.39 67.72 67.68 67.36 66.94 67.00 66.78 66.56 65.25 65.31 63.60 62.61 61.69
35.18 37.11 26.37 25.93 20.18 19.35 25.82 28.33 29.39 37.12 38.32 41.09 40.87 41.12 42.78 44.95 47.14 49.07 50.12 49.86 52.18 51.81 52.89 53.65 54.17 55.66 58.05 59.26 61.44 63.95 64.84 65.32 66.78 67.75 67.20 67.12 67.05 67.96 66.83 66.49 66.62 66.42 67.11 65.44 64.20 63.26 62.89 61.85 60.92
31.74 30.04 31.00 29.41 27.86 19.03 22.90 25.61 36.37 37.53 39.04 39.09 40.24 42.21 42.61 43.85 47.51 49.68 49.78 50.17 54.07 58.33 58.48 59.45 59.28 56.70 58.59 62.56 63.32 64.86 65.24 66.56 68.29 67.86 67.16 67.12 67.41 67.07 67.12 67.10 66.80 66.89 66.07 64.88 63.23 62.24 61.84 61.67 60.36
36.09 33.21 32.37 23.99 23.52 29.69 28.30 26.22 40.67 39.62 40.20 40.71 41.04 43.55 44.45 46.67 48.83 49.78 49.80 50.22 52.73 58.81 58.94 59.27 59.08 57.87 60.24 63.33 65.13 66.40 67.16 68.22 68.33 67.38 67.05 67.21 66.62 67.27 67.50 67.41 67.10 66.40 65.83 63.62 62.30 61.61 62.16 61.39 59.96

GFSSGP_sfc_wetblb_063.txt.gz
Wetbulb
61.48 56.89 54.61 54.03 43.33 39.02 35.01 40.42 43.05 45.19 46.88 47.78 50.88 49.20 51.22 56.79 57.94 52.48 63.03 64.78 68.51 67.81 72.39 75.31 77.00 77.21 76.94 76.58 76.35 76.09 75.74 75.91 75.76 75.32 74.85 74.38 74.28 73.17 72.36 72.09 71.22 70.20 69.65 68.97 68.40 68.07 67.97 67.67 67.34
60.73 58.10 52.40 47.77 38.49 33.47 35.89 41.74 42.41 45.59 48.86 50.69 50.50 51.13 53.24 57.18 60.81 63.25 62.95 66.51 68.06 68.95 71.58 73.25 76.65 76.90 76.86 76.50 76.12 75.72 75.62 75.80 75.85 75.36 74.70 74.06 73.86 73.14 71.56 71.36 70.78 69.78 69.11 68.86 68.73 68.54 68.00 67.56 67.33
63.16 57.94 46.99 43.80 36.92 35.97 37.30 42.50 43.42 47.92 49.58 49.47 48.39 52.38 55.05 59.26 63.94 64.10 65.17 66.68 67.93 69.02 71.04 72.37 76.10 76.47 76.70 76.52 76.12 75.71 75.66 75.76 75.85 75.54 74.95 74.16 73.61 73.27 72.27 71.67 71.27 69.68 69.35 69.16 68.86 68.51 68.16 67.98 67.60
57.67 54.13 49.19 41.46 39.61 42.68 43.19 45.00 45.90 47.60 50.17 49.42 49.43 49.81 60.83 63.96 65.42 66.07 66.20 66.98 67.79 69.12 70.12 73.81 75.43 75.93 76.35 76.47 76.12 75.66 75.74 75.71 75.80 75.64 75.12 74.33 73.71 73.22 72.25 71.70 71.36 70.64 69.57 69.33 69.16 68.70 68.37 68.34 68.33
57.49 51.17 42.60 38.37 41.87 44.53 46.81 47.75 47.12 47.09 47.31 49.12 49.62 49.61 58.31 63.36 67.31 65.94 65.42 67.34 66.61 68.60 68.97 72.60 74.83 75.48 76.00 76.26 76.17 75.87 75.84 75.68 75.83 75.85 75.19 74.55 74.23 73.24 72.15 71.65 70.88 70.42 69.99 69.65 69.54 69.17 69.65 69.60 69.35
52.01 48.21 39.09 38.19 43.78 47.17 48.10 49.47 47.94 46.88 48.77 50.52 49.16 51.92 58.51 66.32 65.56 65.06 65.81 65.52 67.33 67.46 68.62 70.99 74.31 74.91 75.33 75.73 75.74 75.50 75.50 75.57 75.75 75.69 75.42 74.95 74.53 73.43 72.28 71.91 71.27 71.28 71.29 70.94 70.25 70.71 70.64 70.63 70.53
49.46 44.51 41.26 41.52 44.01 45.61 48.54 51.16 50.77 49.72 49.18 50.03 53.18 50.94 57.22 65.19 66.92 64.88 63.44 63.78 65.67 66.78 68.74 69.94 71.31 73.19 75.16 75.07 75.33 75.44 75.30 75.28 75.33 75.33 75.05 74.88 74.44 73.73 72.91 72.13 71.71 71.55 71.85 71.75 71.65 71.33 71.19 71.09 70.60
50.13 47.94 42.85 44.65 44.82 44.83 51.65 52.22 50.92 50.07 52.03 55.98 53.96 52.09 56.16 61.62 67.20 64.89 63.24 62.33 64.67 66.02 68.01 68.77 70.03 70.82 70.98 72.36 75.20 75.20 75.15 75.11 74.91 74.93 74.84 74.44 74.18 73.72 72.99 71.78 71.73 71.46 71.78 71.81 71.81 71.66 71.41 71.39 71.24
50.87 40.91 42.52 44.82 46.95 47.45 52.97 49.89 54.42 55.44 53.35 54.15 54.50 54.74 59.39 66.49 66.54 64.87 64.01 64.98 65.52 66.31 66.69 68.75 69.49 69.74 69.18 69.02 72.29 74.44 74.98 75.08 74.81 74.63 74.49 73.20 71.66 70.97 70.36 70.83 70.62 71.61 71.59 71.88 71.90 71.78 71.53 71.53 71.09
46.10 39.96 42.93 50.05 51.88 50.75 52.33 50.96 52.23 52.38 52.21 52.88 54.61 57.20 58.33 64.41 64.22 63.76 62.48 62.03 63.04 63.98 65.75 67.81 68.93 69.31 68.55 69.52 68.72 69.54 69.77 71.12 71.39 71.23 71.22 69.84 67.36 67.20 68.82 70.08 70.80 71.26 71.49 71.78 71.75 71.77 71.67 70.43 67.63
43.59 41.42 47.21 48.47 49.91 50.40 49.86 50.55 52.30 50.00 48.70 51.53 52.47 55.04 56.80 58.51 60.63 61.38 62.21 63.55 63.75 65.19 66.50 67.35 68.51 68.57 68.17 67.64 68.24 69.09 67.72 67.53 67.69 67.09 67.36 66.97 66.73 66.62 67.98 66.49 67.61 66.82 70.28 67.22 69.23 68.97 68.73 66.89 66.66
39.12 43.74 45.71 46.85 49.39 48.78 47.89 50.61 49.62 50.50 50.52 54.08 54.59 55.20 55.95 55.58 55.37 57.15 59.85 62.10 65.38 65.09 65.82 66.55 67.82 67.97 67.71 66.85 68.25 68.03 67.48 66.95 66.75 66.73 66.08 66.20 65.34 64.71 64.75 65.43 65.10 65.32 64.85 64.92 64.99 65.81 66.18 66.52 66.48
38.77 41.99 44.21 45.19 45.29 45.66 48.51 47.94 48.42 48.89 51.80 53.87 54.43 54.64 54.66 55.47 55.85 57.08 60.92 61.04 64.16 65.56 66.34 66.61 66.43 66.55 67.17 65.64 66.99 66.69 66.51 66.64 66.55 66.33 66.06 65.79 65.06 64.06 63.85 64.15 64.10 64.04 63.54 63.63 63.72 64.04 65.23 65.43 66.23
39.89 40.85 41.93 42.97 43.12 44.40 44.40 45.21 46.89 48.40 51.19 51.16 52.13 52.22 53.76 54.65 55.62 58.23 60.43 60.25 60.86 65.43 67.83 68.21 67.07 65.78 65.41 64.82 64.95 65.29 65.58 65.07 65.33 65.83 65.80 65.84 64.79 63.68 63.55 62.37 63.21 62.89 63.16 63.41 64.11 63.64 63.85 64.44 65.16
40.68 36.79 39.68 41.68 43.01 43.13 46.15 42.01 43.54 48.44 50.22 49.56 50.12 50.99 51.90 53.48 55.70 56.98 58.29 60.79 61.43 61.76 68.00 68.65 68.01 66.61 63.99 63.38 63.54 63.94 64.83 64.87 64.53 64.63 65.09 65.68 64.61 63.37 62.82 62.17 61.64 62.65 62.93 62.65 63.46 62.88 62.47 62.32 63.63
36.37 35.46 31.38 38.26 42.14 43.02 43.51 38.50 45.01 47.00 47.15 47.29 48.24 49.45 50.76 51.45 54.55 55.46 57.26 59.53 61.00 61.34 65.48 68.97 70.11 67.68 65.71 64.69 64.74 65.33 65.87 65.75 65.65 65.34 65.37 65.65 65.24 64.44 63.09 62.19 61.71 62.01 62.29 62.75 63.05 62.08 60.88 61.52 61.67
32.83 28.74 31.41 36.78 41.13 40.53 40.97 36.31 42.54 45.21 44.92 44.65 45.44 46.33 47.63 48.42 50.23 53.39 56.98 58.58 59.42 61.05 62.38 65.22 68.04 67.76 66.58 66.00 65.91 66.53 66.94 67.19 67.04 66.83 66.47 66.50 66.35 65.75 64.71 63.96 63.19 62.35 62.63 62.35 62.62 61.87 61.88 60.08 60.56
29.76 30.08 32.63 33.30 39.07 40.10 38.54 38.00 41.50 43.91 44.01 44.07 44.33 44.97 46.16 47.27 48.65 51.01 54.25 57.54 58.49 59.96 61.55 62.75 66.03 67.49 67.61 67.48 67.51 67.41 67.65 67.97 67.60 67.67 67.71 67.75 67.38 66.97 65.15 65.10 64.21 62.97 62.53 62.36 61.79 61.75 61.76 60.90 61.03
35.48 33.29 32.26 35.72 39.61 36.73 36.89 37.81 39.88 42.57 42.04 41.87 43.06 43.99 44.86 46.35 49.05 50.70 52.11 55.47 56.61 58.88 58.84 61.16 62.17 63.53 66.02 67.82 67.36 66.97 67.34 68.13 68.35 68.64 68.62 68.38 68.42 67.69 65.61 65.65 64.87 64.07 62.62 63.02 62.86 61.89 61.09 60.62 61.22
34.88 31.91 31.43 35.51 39.54 37.66 36.11 36.86 40.14 40.46 40.99 41.83 42.01 42.96 43.91 44.85 46.53 48.51 50.34 51.53 52.85 55.53 59.23 60.82 62.32 63.92 64.54 66.20 68.11 66.78 68.22 68.03 68.95 68.79 67.83 68.06 68.53 68.34 66.99 65.86 65.57 65.02 64.29 62.52 63.17 62.57 60.46 61.42 62.24
33.58 32.64 32.89 33.24 37.58 37.58 35.13 34.20 36.45 40.27 40.96 42.44 43.25 43.24 43.70 43.72 44.70 46.60 48.02 48.41 49.81 52.45 54.86 59.60 60.52 61.93 63.74 67.23 65.40 62.60 63.80 63.23 64.33 64.23 65.35 66.75 67.51 68.82 68.39 66.93 65.93 65.77 65.67 64.09 63.55 63.33 61.96 60.96 61.71
30.87 38.00 36.86 35.33 31.98 26.10 35.45 25.12 33.50 36.40 38.26 40.18 41.40 41.66 42.34 43.20 44.59 44.95 46.23 46.84 47.22 49.36 51.51 57.06 60.74 61.54 62.74 67.42 67.11 65.29 65.81 65.73 63.62 64.23 64.34 64.95 65.39 66.85 68.74 68.10 66.62 66.40 66.28 64.81 64.44 64.15 62.77 62.69 61.63
34.17 39.05 35.52 35.19 30.91 27.66 29.75 25.65 32.25 37.11 35.87 37.21 40.03 41.56 41.84 44.10 46.41 47.06 47.89 47.94 49.05 49.36 50.43 53.52 59.62 61.58 63.88 67.17 68.14 66.66 60.76 63.14 60.27 61.62 62.14 62.75 64.13 67.05 68.54 68.12 67.56 66.89 66.40 65.59 65.10 63.39 62.14 63.21 62.89
39.64 34.80 32.74 30.92 27.54 21.12 28.48 27.57 28.68 30.27 33.57 36.53 40.02 42.44 45.44 45.99 46.47 47.23 48.69 49.67 50.44 51.69 48.78 53.19 56.94 60.63 62.29 64.79 65.55 65.03 64.72 61.36 60.11 60.82 61.88 62.72 64.54 66.38 68.01 67.79 67.40 67.16 66.57 65.67 65.27 64.24 63.26 62.24 61.71
34.02 27.23 18.99 18.55 19.55 21.07 29.72 26.79 29.70 35.81 39.08 39.34 41.18 43.07 44.14 44.80 44.65 45.49 46.36 48.24 50.23 51.01 51.55 50.41 56.68 58.58 60.58 62.51 63.55 62.59 62.20 61.24 60.34 60.12 61.51 62.74 63.98 64.88 66.60 66.84 66.59 66.91 66.53 65.99 65.74 64.96 64.00 63.37 61.88
30.99 28.40 20.72 17.35 18.74 21.64 30.60 23.63 28.60 37.54 42.27 43.29 44.25 43.87 44.55 44.17 43.93 44.21 46.11 48.00 49.70 50.78 50.65 51.49 53.15 58.54 59.93 61.28 62.52 62.75 61.95 61.59 60.37 60.07 62.47 63.80 65.35 65.64 66.59 66.82 67.02 66.91 66.73 65.87 65.04 65.53 64.04 64.10 62.27
30.05 26.75 30.87 24.36 25.75 21.20 24.87 30.10 35.24 39.19 41.17 42.03 41.79 43.24 42.80 43.24 44.21 44.82 46.93 48.79 49.13 50.52 50.10 51.57 51.47 57.57 58.77 60.65 61.78 61.32 60.95 60.10 60.53 61.49 64.17 64.92 65.38 66.64 66.91 66.93 66.77 66.57 66.53 65.58 64.90 64.10 64.73 63.43 61.10
32.77 35.02 25.08 24.29 19.60 18.25 23.38 25.92 27.62 34.13 36.93 39.44 40.23 40.92 41.40 43.00 44.19 45.79 47.79 49.57 50.48 50.51 50.87 53.60 52.21 54.89 58.73 59.33 59.83 59.58 60.44 61.22 61.25 63.39 64.96 65.60 65.91 66.80 66.68 66.57 66.24 65.76 65.94 65.74 65.29 64.13 63.39 62.01 60.54
29.74 27.41 29.12 28.06 24.02 17.66 17.78 24.04 34.60 35.43 38.05 38.16 39.75 41.54 41.44 43.37 44.55 46.11 48.00 49.75 48.83 49.61 53.49 56.06 49.65 53.12 55.03 55.19 56.59 58.71 61.16 61.81 63.31 64.76 65.74 66.25 66.35 66.68 66.69 66.64 65.94 65.96 65.36 65.43 64.76 63.03 62.41 61.38 59.93
33.41 30.86 30.43 23.07 20.95 26.84 28.14 26.49 38.70 36.92 38.84 39.44 40.17 41.78 43.15 44.31 45.56 46.66 47.65 48.81 47.51 49.73 50.69 56.30 58.16 53.77 52.42 55.49 57.80 59.36 61.92 63.84 65.16 65.53 65.76 66.21 66.41 66.93 66.67 66.44 66.03 66.26 66.02 64.68 63.54 63.28 62.76 60.74 59.18

GFSSGP_sfc_wetblb_066.txt.gz
Wetbulb
64.73 57.40 53.83 51.92 42.52 38.28 33.90 38.71 41.37 44.21 45.18 46.88 48.72 47.50 49.01 51.89 56.24 51.79 62.62 64.99 66.37 66.88 73.85 76.13 77.06 77.12 76.90 76.57 76.27 75.83 75.58 75.30 75.29 75.09 75.04 74.82 74.69 74.35 73.67 73.52 72.37 71.10 70.41 69.76 68.72 68.09 67.96 67.71 67.40
64.86 57.62 51.98 46.68 38.18 32.39 34.06 39.90 40.94 44.22 47.45 49.39 48.76 48.14 47.22 48.31 56.12 61.95 61.67 64.55 66.40 67.88 72.96 75.24 76.73 76.77 76.69 76.36 75.91 75.68 75.53 75.45 75.33 75.11 74.89 74.74 74.42 73.95 72.95 72.35 71.71 70.66 69.95 69.40 68.97 68.86 68.68 67.91 67.86
61.01 57.41 48.42 43.31 36.18 35.13 36.31 40.76 43.64 45.75 48.19 47.13 47.26 50.25 50.02 55.98 62.69 63.31 64.00 65.89 65.13 68.65 72.62 74.14 76.63 76.44 76.52 76.36 75.94 75.53 75.67 75.55 75.50 75.21 75.09 74.57 74.27 73.42 72.58 72.10 72.16 70.77 69.97 69.84 69.60 69.27 68.81 68.57 68.32
56.31 53.66 49.33 40.79 38.46 42.25 42.68 42.82 44.72 46.63 48.42 48.34 47.87 48.11 53.38 63.27 64.71 64.93 65.51 65.93 64.76 68.05 71.50 73.96 76.28 76.34 76.34 76.44 75.89 75.58 75.72 75.67 75.59 75.31 75.13 74.84 74.04 73.40 72.43 72.28 72.12 71.55 70.46 70.08 69.78 69.37 69.09 69.05 68.92
55.63 50.15 41.08 40.15 41.30 44.54 46.21 46.46 46.80 45.71 46.91 48.16 49.37 48.31 50.56 62.22 65.65 64.85 65.20 65.70 64.37 67.34 69.75 72.94 75.98 76.11 76.43 76.36 76.13 75.83 75.80 75.73 75.59 75.55 75.25 74.88 74.33 73.47 72.51 72.21 72.05 71.86 71.56 70.34 70.02 69.59 70.04 70.03 69.52
52.39 47.45 39.47 37.83 43.47 46.31 47.86 48.62 46.73 45.43 48.61 49.72 51.53 50.77 54.26 66.13 64.38 63.52 65.30 64.29 65.63 67.00 68.36 72.54 75.61 75.81 75.83 76.16 75.88 75.59 75.39 75.53 75.56 75.51 75.42 75.07 74.40 73.63 72.63 72.14 71.83 71.76 71.89 71.57 70.71 70.70 70.58 70.61 70.34
50.33 44.31 40.14 41.09 44.29 45.52 48.08 50.17 48.59 48.14 48.12 50.49 52.93 49.34 53.91 59.88 63.41 62.90 62.36 64.27 65.70 66.64 67.82 70.43 73.01 74.74 75.78 75.59 75.47 75.28 75.15 75.13 75.30 75.07 74.92 74.75 74.41 73.82 72.92 72.26 71.99 71.76 71.93 71.68 71.53 71.20 71.00 70.75 70.34
51.49 46.80 41.96 42.50 44.38 44.28 51.13 52.27 51.43 50.12 51.12 55.16 54.70 50.46 50.44 60.89 63.49 63.04 63.72 64.08 63.69 65.18 67.18 68.15 69.71 72.30 73.08 74.07 75.51 75.45 75.14 75.07 75.04 75.03 74.93 74.61 74.32 73.90 73.22 71.99 71.79 71.79 72.01 72.14 71.96 71.69 71.39 71.21 71.06
50.22 43.80 40.83 44.57 45.43 46.72 51.54 50.01 52.72 54.74 52.73 52.24 54.25 54.07 55.89 65.71 64.72 62.42 62.14 64.03 64.24 65.72 66.08 67.22 68.05 68.57 69.74 71.21 73.74 75.01 75.31 75.30 75.09 75.10 74.87 73.79 72.97 72.79 72.13 71.84 71.19 72.01 71.94 72.11 72.13 72.05 71.60 71.39 70.91
45.60 40.31 41.14 48.28 50.11 49.41 51.27 50.21 51.02 50.88 50.64 50.46 52.70 55.07 57.24 64.50 63.30 61.55 60.54 60.87 62.59 63.23 65.54 67.08 67.64 67.94 67.82 70.31 70.54 71.93 72.49 73.63 73.42 73.62 72.81 72.43 70.49 70.15 70.48 71.07 71.10 71.84 71.79 71.91 72.07 72.00 71.68 70.59 69.04
40.64 40.59 45.79 48.08 49.86 49.67 48.48 48.64 50.81 48.68 47.97 49.96 49.41 52.27 54.18 56.56 60.79 62.41 62.09 61.05 61.87 62.45 65.40 67.57 67.40 67.67 67.76 67.37 67.37 68.84 69.20 68.95 69.24 69.49 69.74 69.09 67.89 68.61 69.68 67.82 68.96 68.26 70.68 68.31 70.60 70.62 70.02 68.42 68.06
35.67 41.95 45.47 46.74 48.27 45.75 46.05 48.32 47.21 47.78 48.42 52.30 52.04 53.04 53.09 53.81 54.54 56.69 61.63 63.24 63.50 62.72 64.90 66.38 68.09 67.68 67.45 67.06 67.09 68.01 68.40 67.60 67.51 67.19 67.10 66.66 65.38 65.00 66.02 66.07 66.05 66.59 66.84 66.84 66.84 67.51 68.27 68.14 67.53
35.84 39.30 42.59 43.90 43.97 44.58 45.53 44.89 45.34 46.19 49.60 51.68 51.68 51.50 51.53 52.18 53.45 55.55 58.37 61.18 64.56 63.91 64.49 65.34 66.88 66.53 66.70 65.72 66.81 66.93 66.74 66.79 66.98 66.32 66.32 66.23 65.09 64.30 64.36 65.19 64.97 65.29 65.46 65.00 65.31 65.72 66.46 67.04 67.28
38.33 38.53 40.48 42.12 42.93 43.75 43.69 44.21 45.11 46.98 50.11 49.84 50.64 49.83 50.15 50.95 53.00 54.76 57.98 60.99 60.40 64.90 65.08 65.71 65.24 66.09 65.80 66.12 65.31 65.90 66.19 65.69 65.98 65.78 65.69 66.01 65.32 63.84 63.57 63.60 64.03 63.99 64.65 64.40 64.69 64.61 65.03 65.59 66.48
38.90 34.90 37.90 40.07 42.10 42.25 44.36 41.10 42.31 47.03 49.29 48.47 48.74 48.88 49.05 49.74 50.92 52.64 56.14 57.86 61.26 61.83 65.99 66.36 66.08 65.58 64.76 64.67 63.97 64.62 65.49 64.89 64.70 65.14 65.30 65.90 65.17 64.19 63.50 63.16 62.87 63.86 63.99 63.92 64.53 64.25 64.34 64.38 65.03
34.00 32.65 28.72 36.14 40.44 42.45 42.71 36.95 44.14 45.40 45.99 45.55 47.11 47.97 47.54 47.65 49.01 50.04 52.60 54.38 56.39 60.12 62.34 67.78 68.59 66.63 64.62 64.17 63.90 64.09 63.94 63.51 64.10 63.75 64.33 65.91 65.67 64.66 63.36 62.80 62.45 63.11 63.14 63.51 63.79 63.54 62.93 63.10 63.21
31.72 27.48 29.09 34.51 38.95 39.56 39.72 36.53 42.56 44.96 44.31 44.21 45.26 45.98 46.75 46.63 48.30 49.24 50.40 52.59 54.69 56.50 59.36 64.37 67.87 67.14 65.87 64.88 63.70 63.84 64.08 64.18 64.48 64.69 64.61 65.41 65.68 65.47 64.08 63.14 62.79 62.73 62.73 63.02 63.14 63.09 63.47 61.94 62.22
27.48 28.33 30.86 31.25 36.57 37.69 35.79 36.41 40.62 43.24 43.21 43.31 44.26 45.21 46.49 47.17 47.64 49.40 50.76 51.69 53.39 55.16 56.33 59.84 66.34 68.14 67.06 66.42 64.93 64.15 64.33 65.18 65.53 66.00 65.84 65.80 65.92 66.06 65.01 64.42 63.59 63.09 62.67 62.48 62.49 62.92 63.16 62.90 62.91
33.57 31.89 30.89 33.98 37.52 36.45 35.33 36.25 38.79 41.38 41.56 41.19 42.50 43.49 44.55 46.26 49.01 50.48 50.60 51.18 51.36 53.57 54.29 55.81 61.07 65.54 66.23 65.52 64.20 64.49 64.53 66.10 66.66 66.88 67.34 67.38 67.50 67.17 65.32 65.08 64.57 64.04 63.20 63.18 63.00 62.84 62.73 62.31 62.65
33.44 30.43 30.48 34.73 38.44 36.60 35.23 35.37 38.64 39.91 40.24 41.14 41.90 42.57 43.58 45.05 46.69 48.23 49.63 48.94 48.81 49.88 51.23 54.29 56.08 60.52 64.50 66.72 67.12 66.54 66.73 66.81 67.44 68.03 68.17 68.25 67.99 67.99 66.52 65.94 65.41 64.66 63.77 63.14 63.14 63.06 62.00 62.73 62.84
32.13 30.94 31.41 32.30 35.88 35.74 33.59 31.25 33.76 38.03 40.31 41.62 42.23 43.06 43.41 43.61 44.12 45.93 47.47 48.24 48.19 48.24 49.38 52.19 54.76 56.09 60.52 64.72 65.01 64.30 64.77 64.57 65.41 65.96 67.76 68.28 68.67 68.78 67.83 66.74 66.26 65.23 65.21 63.42 63.52 63.55 62.86 61.65 62.68
29.35 36.73 35.81 34.10 30.59 24.13 33.51 22.27 30.39 34.79 36.10 38.45 40.24 39.84 40.89 41.93 44.20 46.74 48.88 49.02 48.71 48.26 49.01 49.19 52.56 55.10 57.23 61.85 64.34 64.53 66.29 65.31 65.81 67.51 67.54 67.62 68.32 68.40 68.55 67.71 66.68 66.43 65.81 65.10 64.24 64.28 64.06 64.31 62.44
32.54 37.29 33.98 33.47 29.03 25.93 27.98 23.34 27.55 33.36 32.89 35.05 38.42 40.15 41.25 43.59 45.35 46.63 47.76 48.56 49.37 50.52 49.72 48.59 49.40 53.58 57.53 59.17 63.58 65.29 65.40 66.00 64.87 62.74 65.13 65.49 66.59 67.10 68.57 68.47 67.35 66.68 66.46 66.64 65.34 64.71 63.96 65.03 63.94
37.71 33.54 31.25 28.24 26.04 19.73 25.49 24.83 23.73 28.88 32.88 35.63 38.44 40.65 42.91 45.07 45.43 45.93 47.13 47.84 48.50 49.87 51.06 50.55 49.14 51.01 55.30 59.52 62.00 63.72 64.66 65.01 61.78 61.72 62.62 63.58 64.16 65.54 67.08 67.87 67.80 67.42 66.90 66.45 66.17 65.83 64.94 64.68 65.14
33.02 26.22 18.28 17.41 18.16 19.10 27.66 25.39 28.23 34.39 37.61 37.95 39.52 42.14 43.65 43.69 43.60 44.43 44.94 45.77 47.00 48.41 50.59 51.67 50.82 49.86 52.97 57.81 61.70 65.21 65.44 65.27 63.30 63.32 63.20 62.21 63.35 64.99 66.38 67.48 66.94 67.17 67.42 67.19 66.79 66.12 65.63 64.49 63.98
29.55 27.06 19.70 16.10 17.48 18.37 28.58 22.54 26.86 35.85 38.52 40.33 42.91 43.17 43.64 43.25 42.91 42.97 44.67 45.24 46.90 49.17 50.51 51.11 50.21 49.71 51.37 55.46 59.54 63.49 65.49 65.74 64.50 63.13 61.71 62.16 63.44 64.95 66.92 67.44 67.49 67.64 67.64 67.22 67.22 66.81 66.01 65.13 64.21
29.12 25.42 28.67 22.91 23.03 19.50 23.22 27.82 34.19 37.76 37.73 39.73 40.79 42.09 41.91 41.74 42.30 44.60 46.32 47.16 48.26 49.45 50.20 50.27 50.01 50.29 51.43 52.69 58.19 61.01 63.31 63.26 61.87 60.61 62.02 62.29 64.30 65.41 66.79 67.62 67.58 67.76 67.57 67.26 66.36 66.20 65.60 64.60 64.11
31.95 33.51 24.00 23.09 18.68 17.44 21.86 23.72 26.02 32.83 34.52 37.12 38.74 39.89 41.67 41.50 43.28 45.10 46.63 48.02 49.28 49.76 50.41 50.47 50.52 53.62 56.08 53.55 57.35 60.15 62.11 62.92 62.41 61.00 62.01 63.60 64.84 66.84 66.83 67.08 67.53 67.51 67.46 66.70 66.32 65.82 65.89 64.31 62.97
29.06 26.72 28.35 26.52 23.34 18.30 16.84 22.14 32.31 33.50 35.12 35.84 38.16 40.48 40.89 40.81 42.81 44.54 46.74 49.25 50.11 50.29 49.18 50.54 52.55 52.53 54.75 52.72 57.58 59.99 59.45 60.22 60.88 61.70 62.93 64.26 65.56 66.70 66.93 67.31 67.11 67.19 66.63 66.45 66.43 66.09 64.19 63.83 62.33
32.29 29.32 28.81 20.02 19.24 22.56 21.93 25.62 37.61 36.45 36.11 37.74 38.48 41.72 42.65 42.76 44.27 45.22 47.28 50.04 50.64 50.95 52.40 53.98 54.92 55.44 58.15 52.70 57.11 58.43 59.61 60.87 61.46 62.47 63.97 65.38 65.83 67.04 67.13 67.13 67.08 66.66 66.26 66.23 65.74 64.85 63.87 63.01 62.39

GFSSGP_sfc_wetblb_069.txt.gz
Wetbulb
66.70 62.13 59.58 58.84 49.20 48.90 44.83 45.99 48.99 49.34 49.88 53.15 53.92 52.50 52.52 54.03 55.63 54.91 68.57 70.53 69.06 71.35 75.89 76.34 76.67 76.92 76.67 76.12 75.66 75.49 75.81 76.30 76.60 76.88 76.86 76.55 76.36 76.11 75.66 75.14 74.01 72.82 71.68 70.43 69.36 68.59 68.40 68.12 67.97
65.18 60.07 56.95 55.09 46.58 42.63 44.37 47.35 47.94 50.09 52.45 53.70 53.63 52.92 52.68 52.53 56.59 60.69 66.49 69.76 69.40 73.04 76.56 76.54 76.49 76.69 76.64 76.07 75.62 75.11 75.14 75.46 75.86 75.93 76.08 75.93 75.61 75.29 74.69 73.82 72.74 71.73 70.62 69.74 69.11 69.01 69.12 68.77 68.45
62.41 59.05 54.06 51.48 47.80 42.36 44.02 47.06 49.80 51.43 53.11 52.04 52.78 54.46 54.06 56.54 65.12 61.79 68.86 68.85 69.31 72.86 75.37 76.59 76.59 76.52 76.64 76.29 75.81 75.29 75.04 74.96 75.16 75.29 75.19 75.09 74.81 74.49 73.74 73.27 72.90 71.97 70.54 69.94 69.86 69.59 69.21 68.91 68.72
60.01 58.93 54.56 47.32 43.89 45.75 46.13 49.72 51.12 51.16 53.35 53.48 53.92 53.41 56.80 67.03 66.55 69.40 69.09 68.68 68.88 71.84 74.39 76.40 76.34 76.56 76.52 76.37 75.84 75.48 75.48 75.41 75.21 75.21 75.01 74.89 74.66 73.99 73.34 72.82 72.73 72.29 71.16 70.54 70.40 69.96 69.58 69.44 69.02
59.90 56.30 47.59 45.32 44.49 47.17 49.32 51.47 52.47 51.09 52.35 53.89 55.65 54.94 56.33 62.01 69.52 68.79 69.04 67.98 68.43 71.07 73.53 75.99 76.43 76.46 76.56 76.49 76.06 75.68 75.45 75.25 75.21 75.23 75.11 74.99 74.44 73.74 73.05 72.87 72.76 72.39 72.33 71.44 70.58 70.33 70.80 70.66 69.68
56.17 54.92 47.27 44.33 45.55 48.19 50.36 53.23 52.64 52.20 53.49 55.55 56.37 55.17 57.57 64.22 67.78 67.75 68.45 67.79 68.96 71.12 73.00 74.99 76.32 76.33 76.16 76.09 75.69 75.41 75.18 75.12 75.13 75.03 74.98 74.86 74.36 73.59 72.85 72.90 72.84 72.50 72.46 72.15 71.67 71.39 71.19 71.32 70.55
53.41 51.38 46.35 47.04 46.79 48.10 50.51 53.76 53.49 54.10 55.11 55.21 57.59 54.35 58.22 60.22 66.58 67.37 67.91 67.76 68.80 71.07 71.97 74.48 75.52 76.42 76.23 75.93 75.67 75.42 75.29 75.19 75.14 74.92 74.67 74.70 74.35 73.58 73.00 72.63 72.75 72.64 72.29 72.06 72.01 71.61 71.39 71.24 70.65
56.14 52.51 47.06 47.56 45.79 46.64 52.42 54.54 56.00 55.00 54.31 58.03 58.14 54.47 55.18 59.75 66.92 67.14 67.86 67.79 68.24 69.85 70.66 73.23 74.46 74.80 75.27 75.56 75.96 75.55 75.42 75.40 75.32 75.10 74.95 74.58 74.36 73.87 73.16 72.00 72.13 72.62 72.45 72.30 72.10 71.81 71.44 71.34 71.23
55.56 48.15 44.90 46.54 46.43 48.44 53.64 52.48 55.85 57.34 55.13 55.75 56.99 57.12 58.04 60.71 67.13 66.16 66.41 66.93 67.07 67.99 69.99 72.00 73.09 73.76 74.34 74.34 75.26 75.55 75.33 75.34 75.46 75.55 75.09 74.43 73.87 73.85 73.19 71.77 71.97 72.48 72.63 72.53 72.53 72.18 71.70 71.33 70.63
50.15 46.23 46.36 50.60 51.28 49.99 52.68 52.53 53.39 52.79 53.50 53.89 55.28 57.13 58.28 58.66 65.14 65.22 64.86 64.81 65.65 66.16 68.29 70.48 72.28 73.17 73.59 73.24 74.77 74.98 74.87 75.00 75.20 75.07 75.22 74.71 74.16 74.04 72.68 72.66 71.64 72.33 72.35 72.47 72.57 72.52 72.02 70.67 69.51
48.72 45.10 48.81 50.34 52.20 53.15 52.35 51.33 52.89 51.66 50.18 53.46 52.31 54.43 55.61 56.86 59.06 62.74 64.31 65.73 64.91 66.34 67.61 69.31 71.40 72.57 72.36 71.83 73.11 73.83 74.16 74.50 74.81 74.99 75.21 74.84 73.80 73.63 73.04 72.04 72.09 71.61 71.58 69.77 70.78 70.77 69.96 69.31 69.45
43.92 46.47 48.78 49.87 51.44 49.90 49.40 50.11 48.43 50.40 51.51 53.18 53.18 54.05 55.61 55.66 57.13 58.37 60.88 65.15 66.38 66.11 66.79 68.97 70.51 71.31 71.80 71.38 71.41 72.46 72.63 73.52 73.24 73.49 74.41 73.76 72.53 72.26 71.90 71.15 70.90 71.27 69.79 69.81 69.75 69.24 69.58 69.80 69.49
43.80 44.56 45.91 47.40 47.32 46.87 47.16 46.43 47.55 48.32 51.21 51.98 53.33 53.61 53.82 54.89 56.99 59.05 61.41 63.75 65.41 67.01 67.01 67.94 69.90 70.88 71.01 71.26 70.33 70.99 71.87 71.54 72.19 72.63 73.21 72.86 71.68 71.16 70.89 70.56 69.92 69.15 69.27 68.87 68.84 68.87 69.24 69.03 69.30
44.18 44.29 45.14 45.90 46.60 46.66 45.16 45.83 47.31 48.85 50.72 50.50 51.43 52.58 53.35 53.67 54.41 57.42 60.03 63.50 66.13 65.75 68.01 68.62 69.63 71.15 70.72 70.73 71.23 70.30 70.72 70.59 70.45 70.88 70.88 71.77 71.16 70.66 69.23 69.15 68.69 68.50 68.61 68.47 68.37 68.20 68.37 68.37 68.34
44.34 41.74 44.01 44.56 45.48 45.26 47.00 43.16 44.37 48.21 49.94 49.68 50.62 51.50 51.61 52.26 53.32 54.57 56.46 59.28 61.51 64.26 66.16 69.21 69.55 69.87 69.89 69.28 70.57 69.70 69.20 69.10 68.77 68.97 70.00 70.03 70.17 69.69 68.90 67.93 67.72 68.04 68.89 69.28 68.77 68.50 68.36 67.74 67.94
41.38 40.93 37.90 42.60 44.02 44.78 45.19 40.25 45.24 47.28 47.28 47.95 48.56 49.56 50.50 51.90 52.88 54.87 56.37 58.38 60.50 62.04 64.20 66.82 69.82 69.45 70.56 69.03 68.43 68.85 69.31 68.87 68.44 68.37 68.80 69.11 69.40 69.34 68.64 67.44 67.13 68.00 68.37 67.85 67.54 67.51 66.91 67.12 67.51
39.94 36.44 37.15 39.48 44.34 43.92 43.29 40.57 44.15 46.94 46.66 46.73 48.12 48.97 49.49 51.00 52.99 55.60 56.02 56.81 58.87 60.43 62.43 62.95 68.01 71.00 69.95 69.26 68.61 68.57 69.02 68.80 68.83 68.54 68.13 68.76 68.97 68.74 68.80 68.60 66.98 68.31 67.19 66.62 67.42 67.67 67.56 67.16 67.51
35.24 35.86 37.37 37.40 41.44 43.53 41.78 41.17 44.21 45.46 45.26 45.96 46.96 47.97 48.51 50.13 51.63 54.25 55.70 56.82 58.04 59.47 61.04 61.54 65.34 70.04 72.52 70.96 68.99 67.59 67.67 67.53 68.34 68.21 68.13 68.39 68.80 68.53 68.69 67.80 67.24 67.05 66.30 66.34 67.16 68.21 68.29 67.99 68.10
38.82 37.56 36.78 39.59 42.19 41.64 40.93 41.01 42.70 44.61 45.09 44.55 46.11 47.22 48.31 49.46 52.08 53.56 54.88 56.09 57.02 59.10 59.77 60.32 61.29 64.97 70.39 70.17 69.17 68.13 66.60 67.67 67.30 68.40 68.86 68.67 68.69 68.13 68.48 65.55 66.09 67.06 65.39 67.29 68.95 68.51 68.13 67.02 67.88
38.33 37.17 37.18 40.43 42.04 41.37 40.49 39.72 42.69 44.19 44.66 45.59 45.88 46.51 47.77 48.66 49.90 51.45 53.62 55.00 57.10 58.11 59.58 60.09 60.86 62.10 65.29 69.26 70.64 70.55 70.34 70.04 69.46 69.56 70.13 69.33 69.23 70.28 69.89 66.50 66.54 67.19 67.48 69.55 69.18 68.58 67.40 67.33 67.62
38.47 37.24 37.04 37.05 40.10 41.50 39.50 38.06 39.14 42.67 44.29 45.59 46.37 47.47 47.62 47.52 48.53 50.30 52.39 55.13 56.37 56.82 58.31 58.65 59.45 60.90 62.11 65.39 69.04 71.01 71.24 70.99 70.07 70.13 69.61 70.42 70.02 69.88 70.37 67.55 68.16 70.11 70.17 69.41 69.50 68.91 68.23 66.45 66.73
35.86 40.47 39.43 37.60 36.13 32.46 39.10 30.47 37.83 40.33 41.33 43.25 44.79 47.04 47.15 47.82 49.31 51.21 52.41 53.20 54.13 55.01 56.29 57.75 59.78 59.85 61.03 62.84 65.91 69.79 67.91 67.89 69.84 70.77 71.19 71.71 71.67 71.79 70.67 70.19 70.18 70.92 70.43 70.81 69.86 69.52 68.79 68.74 67.34
37.42 40.97 38.78 37.90 36.49 34.85 35.50 32.02 36.18 39.37 39.30 41.83 44.85 46.12 47.90 49.51 50.86 50.89 51.40 52.19 53.31 54.85 55.22 56.71 58.80 59.45 60.39 61.18 63.08 65.07 68.46 69.33 70.65 71.34 73.41 73.00 72.99 72.31 71.49 72.08 71.70 71.24 71.09 71.78 70.38 68.86 67.72 68.28 69.12
41.28 39.05 38.61 36.19 35.17 28.83 33.19 32.43 34.20 37.49 39.87 42.35 44.88 46.14 47.84 50.23 50.86 51.66 52.41 52.95 52.91 53.60 54.34 55.69 57.12 58.94 59.81 59.44 60.81 64.22 66.69 69.03 68.67 69.87 69.64 70.44 70.72 71.82 73.10 72.78 72.77 72.40 71.75 70.92 69.96 69.84 69.45 69.30 70.06
39.73 36.38 29.61 27.57 27.93 28.28 34.17 31.98 34.89 40.24 42.27 43.34 43.82 45.64 48.24 50.42 50.81 50.68 51.24 52.54 53.97 54.37 55.40 55.44 56.95 57.41 58.57 58.27 59.07 61.72 65.56 67.55 69.14 69.79 68.23 69.05 68.53 69.94 71.88 73.17 72.47 71.46 71.68 70.89 70.85 70.32 70.13 69.80 69.72
37.15 35.58 29.72 21.65 25.04 28.97 33.89 29.36 35.72 41.54 43.71 45.01 45.81 47.66 48.76 49.41 50.61 50.41 52.08 53.03 53.77 55.25 56.03 56.31 56.36 56.57 57.65 58.01 58.50 60.32 62.65 65.38 67.10 68.52 68.77 68.18 67.97 69.75 73.28 72.25 71.78 71.41 71.24 70.97 71.04 70.38 70.76 70.90 69.39
35.77 32.98 36.92 31.34 32.26 27.74 31.57 35.19 39.85 42.75 42.88 44.03 44.90 46.48 47.41 49.06 50.04 50.55 52.34 53.38 54.31 55.72 56.44 56.74 56.00 56.55 57.63 58.19 59.81 61.03 62.25 65.10 65.60 68.53 68.97 67.85 68.62 70.28 71.04 71.28 71.31 71.51 71.71 71.51 71.60 71.13 71.47 70.70 69.56
38.73 39.93 31.18 32.77 23.40 22.17 29.70 31.12 32.99 38.30 40.15 42.48 44.03 45.55 47.28 49.23 49.78 50.89 52.40 52.89 54.49 55.58 56.34 56.96 57.77 58.46 60.35 60.63 60.14 61.98 62.65 64.85 67.59 68.94 68.47 67.51 68.48 70.90 70.03 70.81 71.63 71.64 71.83 72.25 72.37 71.83 71.86 70.87 69.18
36.17 34.66 34.95 34.71 32.72 25.87 24.48 30.60 40.01 39.85 42.09 42.12 44.29 45.89 47.30 48.61 49.36 51.27 52.05 53.00 54.04 54.71 55.71 55.88 56.01 57.35 58.66 61.91 64.36 64.25 62.42 64.30 67.07 68.24 68.51 68.80 69.92 70.21 69.73 70.80 71.29 71.37 71.81 72.43 72.05 71.91 71.14 69.51 66.43
39.01 36.60 36.93 30.41 27.98 31.66 30.40 30.46 43.09 43.22 43.59 44.22 44.88 46.34 47.71 49.11 49.93 51.11 51.39 52.70 53.11 53.57 53.99 54.81 55.26 55.26 57.03 58.87 61.49 64.41 62.98 63.44 66.80 67.55 67.58 68.57 69.59 69.92 69.75 70.62 70.95 71.35 71.88 71.91 71.44 70.70 70.12 68.17 64.90

GFSSGP_sfc_wetblb_072.txt.gz
Wetbulb
68.24 62.45 63.20 61.95 51.73 51.39 50.31 50.24 53.15 51.89 52.85 55.84 56.23 55.18 55.22 57.03 56.02 56.59 71.59 72.81 71.73 72.92 76.82 76.97 76.85 76.88 76.83 77.28 77.55 77.42 77.22 77.30 77.22 77.25 77.02 77.10 77.04 76.87 76.44 75.89 74.79 74.14 72.73 71.32 70.16 69.11 68.69 67.89 67.45
65.53 61.84 61.37 58.24 50.58 47.14 49.88 51.86 50.51 52.75 54.16 56.10 56.86 57.02 55.84 55.38 59.71 62.98 63.93 72.99 71.10 73.94 76.58 76.36 76.45 76.57 76.55 76.72 76.92 76.99 77.11 77.22 77.32 77.19 77.04 76.99 76.77 76.47 75.79 74.97 74.18 73.04 71.68 70.49 69.65 69.13 69.02 68.87 68.57
64.53 61.68 56.01 54.15 51.61 47.56 48.40 50.84 52.29 53.70 55.02 55.35 56.15 58.42 56.66 58.93 64.78 67.32 71.90 72.40 71.59 74.59 76.16 76.22 76.17 76.35 76.47 76.25 76.29 76.43 76.68 76.76 76.98 77.11 76.91 76.74 76.36 75.79 75.21 74.67 73.94 72.65 71.00 70.26 69.85 69.86 69.73 69.32 69.02
62.95 60.38 56.55 49.81 49.55 51.66 48.59 52.22 53.22 53.33 54.83 56.01 57.62 56.79 60.12 64.07 65.50 70.33 72.69 72.31 71.28 74.08 75.69 76.77 76.10 76.25 76.55 76.32 75.92 75.74 76.14 76.31 76.53 76.61 76.54 76.22 75.64 74.96 74.52 74.10 73.61 73.05 71.76 70.76 70.60 70.59 70.10 69.81 69.21
62.95 58.72 51.60 49.44 49.74 50.38 50.86 52.62 53.10 52.91 53.89 54.48 58.04 56.97 59.41 63.42 68.07 71.81 72.31 72.09 70.90 73.19 74.58 77.63 76.07 76.37 76.70 76.65 76.17 75.42 75.52 75.54 75.59 75.92 75.77 75.49 74.94 74.47 74.12 73.60 73.41 73.02 72.64 72.05 70.97 70.89 71.43 71.19 70.09
56.64 56.82 49.82 48.43 49.89 50.43 51.77 52.61 54.71 54.24 54.90 55.09 57.32 57.92 60.28 64.15 66.77 70.83 71.70 71.82 71.20 72.21 74.15 76.87 76.62 76.24 76.24 76.17 75.99 75.61 75.14 75.06 75.14 75.04 74.97 74.87 74.67 74.14 73.60 73.30 73.29 72.95 72.80 72.79 72.28 71.97 71.60 71.61 71.06
55.00 53.35 49.75 50.16 49.89 50.62 52.42 55.95 54.72 54.86 55.91 55.43 59.17 56.78 60.78 61.85 66.83 70.50 71.12 70.56 70.60 72.18 73.52 76.03 76.78 77.11 76.31 76.03 75.81 75.53 75.42 75.15 75.03 74.88 74.71 74.73 74.41 73.87 73.30 73.18 73.22 72.99 72.91 72.73 72.46 72.03 71.91 71.67 70.97
55.72 54.69 50.69 51.19 49.73 50.24 53.90 54.73 56.56 56.78 55.33 59.74 59.60 56.90 57.94 61.11 66.31 69.36 71.00 69.46 69.75 71.76 72.67 74.65 75.67 76.11 76.56 76.45 76.06 75.55 75.50 75.27 75.25 75.04 75.02 74.72 74.55 73.96 73.20 72.70 72.78 73.10 73.15 72.85 72.58 72.23 71.99 71.67 71.27
57.22 51.00 48.89 50.01 50.68 52.22 54.94 53.40 57.09 59.10 57.47 58.12 58.97 59.06 60.35 61.43 62.61 65.18 68.81 69.03 68.66 69.95 71.89 73.58 73.58 74.47 75.32 74.84 76.06 75.74 75.61 75.55 75.58 75.37 75.24 74.43 73.34 73.72 73.12 71.71 72.74 73.10 73.23 72.95 72.80 72.51 72.06 71.52 70.56
52.81 49.81 49.63 53.57 54.17 53.38 54.89 54.51 54.81 54.24 54.97 56.35 58.05 59.78 60.69 60.58 60.71 61.16 64.29 68.73 67.33 67.94 69.86 71.85 73.12 73.61 74.08 72.88 75.17 75.80 75.50 75.64 75.04 74.67 74.95 74.28 73.46 73.95 72.69 73.03 72.80 72.75 72.95 73.10 72.95 72.73 72.06 70.88 69.17
51.97 48.99 51.87 52.64 54.40 55.28 54.52 54.56 56.56 52.80 51.71 54.86 55.65 57.06 57.97 58.84 59.95 60.08 61.35 65.63 68.26 67.97 69.17 70.95 73.46 74.43 74.04 72.98 73.51 74.41 74.06 74.32 74.57 75.14 75.52 75.55 74.02 74.42 73.73 73.11 73.31 72.44 71.86 70.49 71.36 71.25 70.57 69.80 69.59
47.56 50.74 51.66 52.37 53.82 53.77 53.05 54.73 53.79 54.84 53.55 55.03 55.83 57.04 57.16 57.75 58.36 59.16 60.33 62.35 66.74 68.61 68.34 69.66 72.50 74.18 74.95 73.68 73.20 73.88 72.97 73.84 73.88 74.94 76.34 75.54 74.45 74.37 73.66 71.94 71.88 72.39 71.20 71.20 70.37 69.94 70.86 70.49 70.35
47.02 48.53 49.69 51.01 51.86 52.46 52.95 51.80 52.02 52.96 54.78 53.95 55.00 56.06 55.89 56.88 58.14 59.56 60.66 62.81 65.38 67.49 69.84 69.66 71.28 73.19 73.87 74.19 72.80 73.50 73.94 73.41 74.45 74.21 75.76 75.25 74.14 73.38 73.26 72.58 71.82 71.26 70.77 69.94 69.92 69.74 69.97 70.34 70.21
48.02 47.71 48.59 49.52 49.68 50.40 48.95 49.52 50.48 51.52 52.95 51.72 54.27 53.82 54.88 55.70 56.50 58.05 60.08 62.73 66.16 67.64 67.67 69.71 70.88 73.15 73.34 73.81 74.20 72.97 73.67 73.78 73.54 73.55 73.73 75.14 74.14 73.83 72.40 72.25 71.25 70.35 69.91 69.44 69.22 69.21 69.66 70.02 69.58
47.96 45.04 47.05 47.79 48.33 47.96 49.56 46.55 47.37 51.48 51.91 51.82 56.03 54.06 54.75 55.63 56.02 56.08 58.43 60.76 61.85 63.65 65.53 67.99 70.68 72.39 73.79 72.79 72.93 73.09 72.06 71.83 71.49 71.78 73.66 73.91 74.38 73.75 73.24 70.78 70.17 69.50 70.32 71.04 70.62 70.36 70.41 69.72 69.56
44.79 45.35 41.87 46.76 46.99 47.89 47.75 43.34 48.52 50.00 50.74 50.63 51.27 54.85 56.18 54.74 55.12 56.12 57.18 59.18 61.29 62.12 63.58 65.80 68.53 71.04 72.97 73.93 73.05 72.05 70.94 70.80 70.49 70.97 71.69 72.62 73.02 72.90 72.20 69.62 69.44 70.02 70.36 70.10 69.51 69.99 69.69 69.49 69.99
44.88 40.15 41.38 43.19 46.91 46.39 46.09 44.08 48.79 49.46 49.65 48.58 48.64 51.38 53.02 52.78 54.75 56.62 56.87 57.62 60.07 61.59 62.35 63.18 65.39 69.55 72.31 73.08 72.76 72.82 73.48 71.64 70.38 70.49 69.38 71.33 71.32 71.24 71.41 69.51 69.97 71.19 68.72 69.54 69.67 70.14 70.66 69.71 70.97
40.52 40.39 41.07 41.39 45.22 45.76 45.02 45.03 48.14 49.41 48.75 48.76 48.72 49.63 51.17 52.04 53.51 55.00 56.78 58.00 59.77 62.77 64.88 64.07 63.96 67.72 72.34 72.60 73.02 71.52 70.63 70.85 70.74 70.09 70.19 71.39 71.29 70.88 71.16 70.09 71.25 69.92 69.02 69.08 69.66 71.52 70.59 71.65 71.55
42.41 41.22 40.69 43.17 45.31 44.21 44.21 44.86 46.56 48.80 48.88 48.58 48.32 48.45 49.85 51.19 53.46 54.64 56.36 58.39 58.99 61.17 62.81 64.21 64.38 67.18 68.53 70.59 68.88 70.41 70.75 71.65 70.63 71.10 71.49 71.49 71.26 70.85 72.10 69.73 70.87 71.03 69.47 68.07 69.90 70.50 70.64 71.42 72.15
42.20 41.08 41.23 43.59 44.98 44.24 43.94 43.59 46.46 47.88 48.44 49.10 49.37 49.26 49.40 51.07 51.94 52.78 54.82 57.51 59.61 60.53 61.85 62.11 63.48 65.01 65.72 67.21 72.02 72.07 72.27 71.85 72.62 72.10 72.10 71.81 70.84 72.13 72.52 72.26 71.50 71.74 69.19 71.22 71.15 71.91 71.13 71.65 72.22
42.15 40.71 41.11 40.57 43.74 44.63 43.48 41.73 44.67 46.05 47.67 48.32 49.63 50.52 50.16 49.93 49.84 51.33 54.35 57.28 58.39 58.95 59.90 60.83 62.40 63.48 64.94 65.77 66.59 69.24 70.51 71.19 71.44 72.49 72.26 72.57 71.69 72.50 73.42 72.83 72.45 71.70 70.81 71.08 72.18 72.67 72.36 70.23 71.33
39.35 43.60 42.11 40.98 40.22 36.93 43.60 34.99 42.39 44.84 45.52 46.59 48.98 49.84 50.13 50.03 51.07 52.84 54.02 55.32 57.34 58.17 59.05 60.75 62.02 63.25 63.68 65.04 65.79 68.49 67.41 68.12 69.40 71.69 72.98 73.74 72.71 71.88 72.75 74.23 72.01 72.60 71.52 73.89 73.59 73.38 73.44 72.19 70.39
41.18 43.56 42.37 41.85 40.32 39.71 39.60 37.14 41.44 43.39 42.85 45.03 47.32 48.10 49.66 51.53 53.42 52.29 53.04 54.74 56.42 57.97 58.91 60.35 61.86 62.57 63.25 64.95 65.54 64.35 66.54 65.80 67.33 69.57 74.76 76.20 75.90 73.48 72.40 74.50 74.39 74.59 72.84 74.64 74.85 74.12 73.46 72.67 71.00
44.74 42.64 42.68 42.78 40.39 33.73 38.48 38.00 38.98 41.68 42.80 45.39 47.16 47.33 48.88 52.04 53.09 54.14 54.36 55.46 56.27 57.79 59.27 60.43 61.00 62.08 63.13 63.71 64.24 64.78 64.91 66.26 65.86 67.99 69.80 71.80 73.76 74.09 74.69 74.22 75.12 75.01 74.99 74.65 74.57 75.00 73.63 72.38 72.00
43.48 40.95 34.59 33.23 33.76 32.61 39.20 36.42 39.53 43.27 44.05 44.67 45.46 47.01 49.92 52.11 52.99 53.17 54.11 54.97 56.14 56.82 58.30 59.66 60.66 60.90 62.16 62.61 63.32 63.66 64.25 65.42 66.62 68.02 66.56 70.64 70.90 72.95 75.64 76.15 75.73 74.70 75.62 75.18 75.15 74.27 73.37 72.65 71.97
42.12 40.97 34.74 27.67 30.46 33.80 38.68 33.59 39.92 44.79 46.01 46.80 48.14 49.60 50.54 51.36 52.32 53.32 54.23 55.80 56.57 57.48 58.85 59.08 59.57 60.56 61.50 61.69 62.76 64.58 65.09 63.98 64.83 67.47 66.78 66.83 69.54 71.67 76.04 75.74 76.21 75.23 75.47 75.01 74.92 73.58 72.67 73.52 72.30
40.94 37.61 42.47 35.97 37.07 33.27 36.18 39.67 42.71 45.36 45.14 46.69 47.43 48.66 49.73 51.15 52.81 53.50 54.64 56.17 57.01 57.94 58.43 58.90 59.35 59.89 61.26 62.72 64.32 65.39 65.62 65.48 65.14 67.54 70.07 67.90 71.32 71.38 73.23 74.35 75.24 75.55 74.92 74.42 74.26 72.15 72.52 73.75 73.63
42.57 43.87 35.47 36.49 27.57 27.39 34.20 36.62 38.20 41.62 42.96 45.49 46.01 47.35 49.48 51.32 52.06 53.39 54.44 55.72 56.80 57.73 58.42 59.08 59.60 59.72 60.59 61.65 62.85 63.73 65.99 66.82 67.02 67.87 67.37 69.02 70.99 72.34 72.09 73.91 75.11 74.34 73.95 73.36 74.00 73.18 74.09 73.65 73.32
39.51 38.56 38.78 38.85 37.07 30.32 29.74 35.62 44.49 43.35 44.64 45.07 46.51 48.53 50.06 51.24 52.13 53.21 54.18 55.80 56.34 57.18 57.69 58.11 58.28 58.54 59.54 60.78 62.30 62.85 63.66 65.56 67.73 68.05 68.21 70.23 72.18 71.14 71.18 72.55 72.95 73.14 72.64 73.38 73.88 74.85 73.96 73.23 73.16
43.03 40.14 38.87 34.67 31.86 35.83 34.61 35.07 46.21 46.15 46.60 46.82 47.72 49.11 50.93 51.70 52.58 53.21 53.86 54.83 55.03 56.46 55.93 56.04 57.14 57.28 58.12 59.74 60.50 61.60 63.11 63.59 65.16 67.91 68.18 69.49 70.32 70.58 70.85 71.88 72.22 72.19 72.27 73.52 73.66 73.63 73.52 72.75 71.96

GFSSGP_sfc_wetblb_075.txt.gz
Wetbulb
66.77 65.82 61.62 61.76 54.46 53.28 52.33 53.96 55.91 53.30 53.45 57.12 57.94 56.63 56.70 58.59 56.77 56.57 70.68 71.79 71.65 75.47 75.38 76.58 76.87 77.57 78.15 78.28 77.92 77.52 77.22 77.14 76.99 77.14 76.99 77.21 77.26 77.17 76.69 76.26 75.31 74.65 73.71 72.23 70.85 69.63 68.57 67.66 67.22
64.45 63.82 61.39 58.73 52.16 49.78 52.19 56.39 52.89 55.44 56.36 57.19 57.21 57.20 56.36 55.91 61.62 65.18 69.12 72.65 71.63 76.23 75.71 75.36 76.62 77.12 77.72 77.84 77.59 77.33 77.34 77.19 77.01 77.01 77.22 77.31 77.16 76.86 76.29 75.66 74.62 73.78 72.42 71.01 69.82 69.17 68.63 68.46 67.94
64.87 63.55 57.00 54.52 52.74 51.07 51.53 54.27 54.45 55.97 55.99 56.01 56.17 59.02 58.44 59.72 64.84 66.15 70.80 73.47 71.52 75.94 75.90 75.51 76.44 76.57 77.27 77.69 77.56 77.33 77.20 77.36 77.36 77.21 77.24 77.24 76.91 76.48 75.91 75.26 74.53 73.05 71.59 70.40 69.67 69.41 69.49 69.10 68.45
62.02 61.55 58.17 51.11 49.70 54.44 55.72 55.96 54.64 54.88 55.95 56.47 57.33 56.48 60.35 64.63 65.01 69.84 72.83 73.58 72.24 74.47 75.90 76.04 76.01 76.14 76.82 77.09 77.20 77.20 77.33 77.30 77.36 77.39 77.29 77.06 76.68 76.08 75.45 75.09 74.26 73.32 71.70 70.62 70.41 70.28 69.82 69.36 68.95
62.73 58.93 53.16 51.85 51.11 53.73 57.54 58.52 56.22 53.72 55.17 55.49 56.64 56.24 58.98 64.09 67.26 70.63 73.10 73.29 72.63 73.71 75.47 76.86 75.96 75.91 76.36 76.69 76.51 76.70 76.90 76.97 77.08 77.18 77.01 76.83 76.28 75.63 74.88 74.49 73.70 73.17 72.49 71.61 71.01 70.76 70.82 70.52 69.64
57.32 58.00 50.55 48.98 51.64 54.35 54.82 54.77 56.70 55.66 55.81 56.16 54.92 57.30 60.00 65.48 65.06 70.10 73.14 72.98 72.86 73.51 75.18 77.43 75.70 75.81 75.74 76.06 76.04 75.78 75.97 76.24 76.60 76.68 76.35 76.05 75.48 74.91 74.46 73.96 73.75 73.53 73.15 72.75 71.90 71.56 71.26 71.37 70.32
54.89 54.04 51.03 50.88 51.38 53.38 54.85 56.40 54.74 56.61 56.27 56.28 58.56 56.41 61.16 63.32 63.97 69.77 72.56 72.36 72.82 73.70 74.22 77.41 75.54 76.25 76.04 75.91 75.80 75.67 75.50 75.32 75.47 75.34 75.24 75.25 74.93 74.48 73.96 73.59 73.54 73.53 73.22 73.10 72.79 72.33 71.56 71.14 70.57
56.61 54.64 50.96 51.85 50.84 51.71 56.56 56.26 56.53 55.59 56.81 60.27 60.12 56.30 58.82 62.17 63.92 65.87 71.23 71.42 71.67 72.56 73.28 76.37 75.01 75.40 75.44 75.43 76.23 75.77 75.64 75.66 75.26 75.29 75.12 74.91 74.75 74.06 73.61 73.06 73.19 73.24 73.38 73.23 73.04 72.64 71.90 71.25 70.96
57.56 51.00 48.55 50.29 51.16 52.94 56.84 55.65 57.44 58.32 57.20 59.52 59.61 59.36 61.70 62.80 63.34 63.63 66.56 70.61 69.91 70.90 72.73 74.95 74.21 74.62 74.79 74.25 75.59 75.66 75.61 75.38 75.17 74.81 75.05 74.16 71.94 73.10 72.56 71.60 72.97 73.39 73.26 73.19 73.04 72.92 72.40 71.16 70.64
53.57 50.32 50.02 53.49 54.21 53.82 55.41 56.14 56.26 55.98 55.88 56.19 57.66 60.66 61.92 61.68 61.61 61.51 62.71 66.88 69.13 69.53 71.31 73.04 73.84 74.32 74.22 72.89 75.32 75.05 74.48 74.36 73.79 73.36 73.91 73.32 72.65 73.69 72.15 72.87 73.30 73.21 73.24 73.24 73.09 72.99 72.03 70.91 68.23
53.26 49.93 53.16 53.64 54.69 55.05 54.32 55.28 57.50 55.47 53.63 55.86 55.48 58.58 60.12 60.22 60.94 60.93 61.56 64.32 68.55 69.41 70.50 71.56 74.88 76.94 74.13 72.68 73.28 74.35 73.30 73.39 74.14 74.53 75.62 75.36 73.09 73.57 73.17 72.83 72.02 72.19 71.89 69.87 71.18 70.79 70.12 69.19 69.00
49.87 52.49 53.22 53.75 54.44 54.13 53.11 55.53 55.13 56.18 56.64 57.91 57.90 59.90 59.77 59.46 60.07 59.95 60.69 62.37 66.40 69.51 69.04 70.81 73.39 75.44 76.89 73.88 72.69 74.07 72.70 73.73 73.53 73.73 77.51 76.60 74.06 75.97 76.02 72.77 73.22 73.57 71.73 71.68 71.30 70.62 72.25 71.30 70.82
49.41 50.48 52.21 53.11 53.04 53.01 54.04 53.53 54.02 54.89 57.60 59.10 58.02 57.33 59.04 59.69 59.55 60.05 61.17 62.23 64.94 67.27 70.14 69.82 72.27 75.29 76.16 77.65 74.25 74.43 74.49 72.83 73.80 74.18 76.24 75.21 74.65 76.06 74.86 74.93 72.60 73.02 71.92 71.37 71.00 70.54 71.23 70.60 71.04
50.21 49.73 49.85 51.15 51.70 51.95 51.06 51.83 52.50 53.74 56.68 56.80 56.23 55.61 57.48 59.78 59.00 58.71 59.11 61.93 65.19 68.26 68.80 71.17 70.82 75.56 74.78 75.58 77.56 76.78 76.75 74.64 73.82 73.96 75.06 77.45 75.68 77.01 73.91 73.82 72.50 71.69 71.06 70.17 70.28 70.78 70.65 71.15 71.19
49.87 47.07 48.92 49.55 50.12 49.94 51.48 48.20 48.91 52.96 54.30 54.36 54.52 55.51 57.38 59.27 58.06 57.69 58.56 61.33 63.49 66.03 68.32 69.29 71.45 74.20 74.76 75.41 75.03 75.70 73.87 74.10 73.65 73.61 77.66 76.89 77.31 77.67 76.18 72.69 72.43 71.37 72.27 73.02 72.40 71.96 71.55 70.41 71.07
46.76 47.01 43.34 48.08 49.11 49.85 49.32 44.37 50.12 52.91 52.86 52.64 53.27 54.29 57.15 58.30 57.55 57.61 58.21 59.87 62.52 62.92 63.24 67.11 69.44 71.51 74.70 74.71 74.35 73.45 72.91 73.45 72.78 73.28 74.00 76.03 77.17 77.19 76.45 72.36 71.52 71.78 71.37 70.42 70.88 70.82 70.56 71.04 71.38
46.44 42.29 44.11 45.85 48.61 48.02 48.01 45.46 49.86 52.63 52.41 51.85 52.82 53.79 54.43 57.73 59.30 58.57 58.37 58.81 60.05 62.09 63.56 64.23 67.81 69.16 72.44 75.16 74.17 74.66 75.01 72.91 71.57 72.35 71.31 74.10 74.48 74.72 75.01 72.68 71.95 74.76 70.69 71.51 71.70 71.46 71.79 71.81 70.74
42.87 43.75 44.92 43.65 47.52 47.83 46.35 46.36 49.38 51.58 51.38 51.31 52.07 53.05 53.37 56.41 59.44 58.01 58.41 59.04 59.64 62.76 64.65 65.62 66.94 68.20 69.63 73.42 74.58 73.86 72.88 72.67 72.90 71.98 71.77 73.78 73.01 72.72 72.40 71.93 72.69 73.31 70.86 71.31 72.01 72.46 71.85 72.06 72.29
45.42 43.78 43.24 45.68 47.82 46.06 45.53 46.30 48.14 50.75 51.14 50.82 51.37 52.07 52.82 54.82 57.39 57.68 58.18 58.43 61.27 62.29 63.88 64.12 64.66 67.54 68.23 69.37 70.90 71.40 70.73 72.04 71.70 72.29 73.52 74.02 73.41 72.27 73.28 71.17 72.42 73.10 71.39 70.73 74.12 73.35 73.14 70.82 72.97
44.03 42.52 42.67 45.51 47.42 46.70 45.64 45.37 48.36 49.66 50.19 51.03 51.36 51.80 52.45 53.64 55.18 55.75 56.21 57.65 59.40 61.49 62.68 62.39 62.62 65.20 66.96 68.25 70.91 70.93 72.88 73.62 73.15 72.81 73.40 74.20 73.40 74.76 73.93 71.29 71.28 73.06 71.31 73.36 74.52 73.71 70.84 71.29 73.19
43.59 42.57 42.99 42.95 45.78 46.87 45.27 43.47 45.83 48.72 50.10 51.04 51.66 52.54 53.05 53.26 53.58 55.50 55.74 56.87 59.31 59.24 60.42 61.53 62.68 64.51 65.80 66.69 67.22 68.63 70.98 72.04 71.37 72.74 73.96 73.65 73.32 73.50 73.04 71.77 71.18 73.30 72.60 72.54 73.57 73.59 72.14 69.72 72.74
41.32 45.88 44.61 43.25 42.24 38.53 45.93 37.52 44.79 47.51 47.66 48.92 49.92 50.71 52.00 52.58 53.46 54.42 55.29 56.17 57.95 58.01 59.51 60.85 62.83 63.55 65.07 68.60 67.18 69.42 66.32 65.42 67.84 69.15 71.94 73.44 74.92 73.10 73.18 73.51 71.86 73.58 74.18 72.53 74.47 73.61 74.35 74.30 70.63
43.12 46.37 44.51 44.06 42.34 41.85 41.66 39.46 42.80 46.78 45.74 47.17 49.25 50.77 52.31 53.06 53.75 54.10 54.63 55.66 56.80 57.61 58.98 60.78 62.60 63.80 64.70 66.97 67.65 65.15 66.77 64.53 66.93 68.88 71.39 73.83 77.14 73.81 72.68 74.26 73.12 74.00 73.18 72.06 74.71 76.72 74.72 73.92 72.57
46.67 44.56 44.25 44.10 42.18 36.08 41.14 40.44 40.59 43.45 45.43 47.15 49.07 49.73 50.97 51.79 54.21 55.66 56.16 56.75 56.92 58.05 58.75 60.64 61.59 62.81 64.12 64.71 66.15 66.91 66.39 67.18 65.66 67.42 68.93 69.62 70.60 72.03 72.30 73.69 73.92 74.58 72.85 73.49 75.39 76.72 74.11 73.45 74.76
45.39 42.39 35.63 34.73 35.17 35.06 43.17 39.59 41.70 45.62 46.42 47.54 48.75 49.42 50.49 51.91 53.57 54.85 55.31 55.43 56.49 57.40 58.87 60.27 60.64 61.12 63.05 63.20 63.94 64.69 66.85 67.17 66.54 67.39 66.10 68.22 68.43 72.57 74.11 73.56 74.36 74.99 73.53 74.58 76.11 76.01 74.85 75.70 74.17
43.24 42.70 36.15 28.91 31.05 34.52 40.60 36.70 41.31 47.12 48.93 48.40 48.62 49.92 50.72 52.85 53.80 53.78 54.79 55.62 56.12 57.56 58.27 59.74 60.16 60.81 62.00 62.86 63.42 64.25 66.00 64.41 64.98 66.61 65.95 65.66 67.36 68.97 74.80 77.29 76.47 76.60 76.33 75.41 76.14 75.21 75.27 75.98 74.54
43.06 39.19 43.43 37.93 39.33 34.26 38.25 41.88 45.64 47.19 47.02 47.34 48.64 50.19 50.87 52.11 53.28 54.06 55.11 55.95 56.57 57.76 59.19 59.51 59.41 60.33 61.24 62.24 63.35 64.30 65.33 67.36 66.81 69.20 69.75 66.62 69.49 69.22 70.30 75.84 77.81 76.77 76.64 77.09 77.06 75.72 76.00 75.05 74.73
44.33 45.63 36.45 37.29 29.20 28.72 35.30 36.57 38.07 43.21 44.83 46.99 47.90 49.06 50.55 51.75 53.04 53.88 54.78 55.95 57.08 58.23 59.05 59.84 60.09 59.36 59.75 60.96 62.02 62.59 64.00 64.88 66.42 69.11 69.61 69.68 70.10 70.55 71.17 72.61 75.25 76.40 76.62 77.39 77.46 75.94 75.92 74.00 73.51
41.24 39.47 41.24 40.34 37.08 30.47 30.28 35.35 44.67 43.71 44.61 46.89 48.31 49.53 50.47 52.07 53.00 53.81 54.69 56.11 56.77 57.88 58.09 59.06 59.30 59.15 59.18 59.92 61.64 61.73 62.29 63.45 64.68 66.38 67.90 69.59 71.41 71.32 70.80 71.27 73.69 74.56 76.52 77.28 76.47 75.57 73.51 72.78 73.99
44.97 41.94 41.10 35.20 33.75 36.25 35.84 35.96 46.94 47.43 47.16 49.02 48.83 49.96 51.33 52.70 53.19 54.10 54.92 55.08 55.17 55.99 57.03 58.51 58.40 57.66 58.17 58.75 58.93 60.58 61.85 61.91 64.22 64.59 65.70 68.39 69.45 70.91 71.35 71.03 70.56 72.79 74.02 75.68 74.63 73.77 72.38 73.37 73.63

GFSSGP_sfc_wetblb_078.txt.gz
Wetbulb
64.92 63.95 63.86 59.81 53.35 53.24 50.09 52.89 56.59 54.21 53.88 56.95 57.76 56.55 56.40 56.99 56.20 57.71 71.37 70.95 75.44 73.32 75.70 76.18 77.75 78.18 78.46 78.01 77.25 77.07 76.76 76.79 76.94 76.92 76.97 77.21 77.19 76.99 76.77 76.42 76.02 75.04 73.80 72.49 71.26 69.95 69.02 68.22 67.34
61.95 63.11 61.34 56.83 50.87 48.84 51.00 55.56 54.98 55.27 55.96 57.11 56.75 56.65 55.87 55.53 63.55 65.06 69.27 72.61 75.86 74.14 75.65 75.29 77.32 77.82 78.12 78.00 77.37 77.02 76.69 76.86 76.86 76.76 77.04 77.24 77.14 76.71 76.32 76.07 75.34 74.35 72.65 71.43 70.08 69.10 68.65 68.70 68.15
61.90 63.57 56.62 52.72 50.59 48.56 50.87 54.67 54.11 56.06 56.47 55.82 55.24 58.22 57.95 59.55 63.62 65.91 70.81 72.52 75.97 74.61 75.25 76.03 76.92 77.54 77.92 78.07 77.56 77.19 76.79 76.89 76.86 76.97 77.14 77.09 77.11 76.53 76.03 75.59 75.04 73.90 71.89 70.50 69.55 69.62 69.79 68.94 68.37
60.16 59.77 58.18 50.08 48.00 52.65 53.93 56.48 56.44 54.99 55.95 56.65 56.19 55.17 60.11 64.36 64.37 67.71 71.42 72.32 72.85 75.06 73.81 75.83 76.59 77.16 77.59 77.99 77.69 77.38 77.34 77.06 76.99 77.11 77.19 77.19 76.83 76.20 75.76 75.39 74.56 73.56 72.45 71.27 70.78 70.63 70.28 69.26 68.53
59.34 57.78 50.93 50.12 50.24 52.48 54.75 56.73 58.78 53.95 54.53 55.39 56.09 54.65 58.55 63.88 65.46 68.73 71.61 72.29 72.18 74.69 74.21 75.53 76.29 76.96 77.36 77.66 77.51 77.40 77.33 77.10 77.28 77.16 77.16 76.96 76.53 75.92 75.41 74.89 74.14 73.55 72.64 72.04 71.47 71.23 70.71 70.83 69.76
53.99 56.00 48.86 46.57 49.29 53.60 55.63 56.87 58.07 56.36 56.29 56.17 55.18 54.94 57.72 64.46 63.59 66.60 71.81 72.36 72.62 73.95 75.14 75.82 75.92 76.51 76.63 76.93 76.95 77.04 76.96 76.86 77.09 77.12 77.00 76.55 76.02 75.48 75.01 74.34 73.79 73.47 73.01 72.69 72.42 71.68 71.15 70.99 70.92
52.38 51.43 48.78 49.60 49.43 51.07 54.05 56.35 54.16 55.04 55.50 56.44 58.19 55.62 59.61 61.95 63.53 65.25 70.98 71.99 73.48 74.15 76.36 75.79 74.67 75.76 76.41 76.30 76.29 76.36 76.38 76.43 76.40 76.35 76.08 75.96 75.42 74.88 74.31 73.89 73.67 73.64 73.31 73.08 72.93 72.27 71.68 71.51 71.31
54.42 52.35 48.35 49.57 49.72 50.33 54.98 56.04 56.57 55.44 55.09 60.39 60.36 55.75 57.16 61.78 63.55 63.80 65.30 71.18 71.81 72.38 76.24 75.96 74.16 73.75 74.27 74.96 75.98 75.80 75.79 75.81 75.73 75.61 75.51 75.19 74.78 74.41 73.96 72.97 73.25 73.49 73.34 73.17 73.17 72.82 72.33 71.86 71.64
55.58 48.85 46.82 47.97 49.35 51.38 55.46 54.68 57.87 58.62 56.20 58.54 59.97 59.65 61.25 62.90 62.05 62.15 63.21 69.49 69.81 71.03 75.70 75.65 72.77 73.54 73.54 73.39 74.70 75.56 75.51 75.57 75.40 75.23 75.17 74.01 72.62 72.52 72.31 71.73 72.58 73.30 73.27 73.20 73.07 72.87 72.60 72.13 71.79
51.16 48.14 47.93 51.85 52.68 51.88 54.06 54.50 55.73 55.65 55.38 55.96 58.45 61.20 62.13 62.24 60.86 60.40 60.83 62.46 68.82 69.66 71.68 74.54 72.58 73.01 73.35 72.60 74.57 73.67 73.59 73.52 73.55 73.11 73.99 72.90 71.41 72.28 70.68 71.69 73.05 73.12 73.35 73.35 73.12 73.12 72.84 71.71 68.22
51.25 48.34 51.36 52.47 53.86 54.16 52.98 53.18 55.57 54.70 53.88 56.33 56.74 59.23 61.03 60.91 61.05 60.31 59.43 61.62 65.05 70.60 71.23 73.55 72.88 73.97 73.18 72.22 74.67 73.44 73.19 72.98 72.60 72.71 73.47 72.68 71.66 72.28 71.98 71.96 70.02 71.12 72.23 69.16 70.75 70.33 69.84 67.80 67.20
47.99 51.14 51.77 52.70 53.79 53.35 52.39 54.36 53.05 53.84 55.53 58.84 59.23 60.48 60.14 60.72 61.41 59.79 58.92 59.42 62.79 68.51 71.42 73.75 74.30 74.70 73.98 73.10 73.96 74.05 72.11 72.68 72.60 72.66 73.90 74.02 72.12 73.59 73.93 71.65 70.56 70.68 70.85 69.00 69.25 68.67 69.24 68.94 69.50
47.93 49.62 51.16 52.50 52.68 52.61 53.11 51.67 52.08 52.81 56.02 58.07 59.17 59.02 59.18 59.24 60.92 63.62 63.02 60.14 61.91 67.15 70.13 72.08 73.86 76.42 75.94 77.39 77.09 74.95 71.70 72.61 72.76 73.41 73.98 73.18 73.45 72.76 73.89 74.64 72.90 72.33 71.89 70.38 70.17 69.17 70.84 70.40 70.50
49.47 49.37 49.53 50.64 50.55 51.29 50.35 50.67 51.17 52.91 55.90 56.32 57.19 57.61 58.07 58.47 58.46 60.15 61.95 64.28 66.19 68.45 70.08 69.40 74.76 75.36 76.12 77.48 78.51 78.39 77.05 72.89 73.47 73.39 73.59 74.42 74.30 75.13 74.72 74.50 74.29 72.99 72.47 71.47 70.71 70.11 70.46 69.54 69.07
50.01 46.70 48.14 48.83 49.40 49.05 50.47 47.57 48.20 52.45 54.09 53.45 54.61 55.89 57.60 57.56 57.74 57.69 61.57 63.77 66.26 65.41 68.04 69.31 70.74 74.62 74.06 74.46 76.83 77.13 76.25 75.74 76.16 74.67 76.33 74.51 75.75 76.22 74.66 73.94 72.53 72.55 71.86 71.84 71.53 71.34 71.67 70.35 70.68
46.58 47.00 42.76 47.77 48.91 49.24 48.89 43.53 49.27 52.22 52.25 51.89 52.68 54.02 55.29 56.75 57.57 61.18 61.74 62.96 64.39 65.61 65.86 67.99 68.10 71.32 74.48 74.92 74.97 75.37 74.91 75.46 75.03 74.86 76.73 75.80 75.23 75.76 76.32 73.44 72.65 72.39 71.99 70.79 69.62 69.73 68.35 68.54 68.90
45.28 40.66 42.64 44.83 49.54 48.52 47.70 44.60 49.07 51.70 51.88 52.13 52.93 53.67 53.99 55.76 58.52 62.31 61.38 62.62 61.65 63.58 64.87 66.28 68.49 69.41 74.33 73.02 74.32 74.19 73.94 73.39 73.89 74.04 73.81 75.20 75.82 74.66 74.49 72.49 72.56 72.94 71.15 69.66 69.67 69.78 69.80 68.84 70.16
41.24 42.38 44.20 44.22 47.72 47.87 45.90 45.67 48.59 50.59 50.40 51.29 52.51 52.80 53.54 54.59 56.25 61.20 60.50 61.76 62.72 63.92 66.11 67.10 67.29 68.44 70.59 73.05 73.11 73.07 73.17 72.46 72.43 71.31 71.51 72.69 73.25 74.04 73.76 73.19 72.05 72.76 69.38 68.82 69.23 69.87 70.78 70.22 70.43
45.69 44.26 43.06 45.74 48.56 46.58 45.76 46.26 47.47 49.82 50.19 50.46 51.48 52.51 53.53 54.67 56.81 58.69 60.55 60.86 62.39 64.50 65.01 65.47 67.12 67.32 68.72 70.68 70.74 70.95 71.11 71.38 71.51 71.94 70.69 72.02 70.96 72.02 72.08 71.84 71.37 70.89 68.95 68.18 70.38 70.19 70.90 69.27 70.56
44.89 42.70 42.00 44.69 46.71 45.95 45.20 44.76 47.60 48.97 49.64 50.89 51.69 52.69 53.31 54.51 55.40 57.94 60.20 60.47 61.41 63.42 65.42 65.31 64.80 67.36 66.30 69.09 70.22 70.48 71.24 72.62 72.57 71.15 70.69 71.27 71.39 71.04 70.67 70.47 69.44 69.45 69.43 70.18 70.22 70.45 68.92 70.11 70.38
43.60 41.81 42.01 42.09 45.28 46.41 45.19 43.32 45.45 48.41 49.90 51.36 52.02 53.16 54.09 54.51 54.54 56.50 58.43 58.92 60.92 63.01 63.24 64.63 65.70 65.14 67.31 66.81 67.29 66.47 66.64 68.23 69.67 71.40 70.57 71.90 71.61 71.54 70.83 70.66 69.65 68.53 71.09 68.87 69.92 70.08 70.70 67.93 69.79
40.50 45.30 44.70 43.80 42.18 37.70 45.15 36.64 43.72 46.77 48.01 49.69 50.83 51.79 52.72 53.32 55.12 56.28 57.04 58.46 60.06 61.34 63.89 63.36 63.90 64.46 64.80 67.97 67.99 67.59 65.41 62.51 63.78 66.66 67.92 71.37 71.72 70.85 71.15 71.20 71.74 70.53 69.01 70.75 69.25 71.52 69.97 69.97 65.92
42.83 46.31 44.51 43.68 41.58 41.06 41.04 38.07 42.05 46.47 45.43 47.89 50.47 51.28 52.38 52.83 54.56 53.72 54.99 57.64 58.28 59.78 61.38 63.35 65.45 65.23 64.43 65.49 65.47 65.85 66.30 64.98 64.92 67.14 69.06 69.62 72.15 71.11 70.71 70.82 70.59 70.58 69.97 68.82 70.07 71.72 70.39 70.65 68.19
47.30 44.30 43.63 43.36 41.08 34.94 39.14 38.86 39.66 43.30 46.04 47.95 49.82 50.35 51.48 52.18 53.00 54.62 55.87 57.22 58.03 58.72 59.41 62.84 64.35 65.11 65.97 65.05 65.48 66.33 65.82 66.01 65.30 64.59 65.49 66.30 68.36 71.54 71.50 70.52 70.35 70.33 70.08 70.38 70.37 69.56 70.71 68.57 67.23
45.27 41.44 34.29 33.21 33.99 33.58 41.77 39.24 39.85 46.19 47.27 47.74 48.53 49.63 50.85 52.47 52.50 54.68 55.52 55.52 56.90 57.79 59.45 61.13 62.28 62.86 64.38 64.94 65.25 64.44 64.10 65.35 66.67 65.76 64.32 64.60 64.48 66.85 71.57 71.17 69.24 70.14 70.80 70.95 71.19 69.68 69.46 70.21 70.46
43.40 41.86 35.02 27.59 30.38 33.82 41.30 35.75 40.23 48.41 49.19 49.24 50.34 50.62 50.94 51.05 52.31 53.66 55.50 56.70 55.92 58.30 60.28 60.28 61.90 62.44 63.30 63.97 65.00 66.04 65.14 64.06 63.78 64.76 64.17 63.74 64.38 65.35 67.96 72.14 69.76 68.60 71.29 69.47 70.92 70.33 70.48 71.06 72.52
43.07 39.70 44.13 36.69 37.67 32.93 37.14 40.86 45.63 47.85 47.46 48.13 48.14 49.33 49.86 51.29 53.87 53.72 54.57 56.41 57.67 58.17 60.55 61.25 61.11 60.72 62.39 63.10 64.65 64.50 65.18 66.10 66.00 66.96 66.91 65.72 66.39 66.08 66.90 68.11 67.99 72.91 72.88 71.55 71.59 71.35 71.31 72.42 72.90
44.34 46.08 37.22 37.45 27.32 26.28 33.27 35.23 37.25 43.18 44.90 46.94 47.24 48.36 50.23 52.26 52.31 53.12 54.19 56.11 57.63 59.20 61.23 61.84 61.78 60.78 61.17 62.55 63.54 62.73 63.95 65.18 65.75 66.77 65.58 67.04 66.88 67.48 67.31 67.17 67.22 69.43 73.55 73.39 73.27 72.47 72.04 71.93 73.02
41.33 39.19 38.63 38.77 37.60 30.24 28.70 33.46 44.32 43.81 45.44 46.60 47.96 49.06 50.46 51.58 51.91 53.04 54.09 55.83 56.75 58.48 57.77 60.46 60.30 60.34 61.41 62.29 62.41 62.15 62.33 63.61 64.31 64.53 64.98 65.63 67.05 67.09 68.38 68.13 67.82 66.70 68.74 73.59 73.14 72.72 73.00 72.55 72.90
43.85 40.56 39.32 33.07 31.86 34.84 32.99 33.54 45.68 46.20 47.10 45.97 46.20 49.04 50.71 51.73 51.78 52.84 53.71 55.09 55.29 56.46 56.44 57.29 60.26 59.93 60.20 60.06 59.85 61.37 62.63 62.06 62.67 63.22 63.93 64.82 64.71 65.75 66.46 67.48 68.65 68.24 67.10 70.66 72.82 72.75 73.48 72.59 72.00

GFSSGP_sfc_wetblb_081.txt.gz
Wetbulb
62.04 60.28 60.16 57.02 46.29 45.68 42.49 46.49 52.90 52.10 49.71 51.00 52.86 52.79 56.77 60.87 60.04 55.45 67.26 71.79 73.23 73.66 75.81 77.43 77.91 77.94 77.69 77.40 77.02 76.67 76.33 76.64 76.67 76.64 76.78 76.91 76.83 76.79 76.51 76.34 75.82 74.84 73.61 72.75 71.67 70.24 69.18 68.39 67.55
60.03 59.85 59.03 52.28 43.25 39.56 44.04 51.38 48.40 49.65 51.05 52.60 53.15 52.76 56.83 57.12 63.90 65.04 67.08 72.01 72.96 73.75 74.56 76.27 77.95 77.71 77.43 77.20 76.91 76.51 76.43 76.51 76.56 76.59 76.83 76.88 76.66 76.51 76.06 75.99 75.37 73.90 72.63 71.35 70.35 69.49 68.91 68.70 67.96
58.75 60.15 52.39 47.72 42.87 40.76 45.60 51.07 52.20 52.76 53.13 52.49 51.94 55.66 57.38 58.77 63.82 64.53 69.27 72.23 73.12 72.77 73.12 76.02 77.58 77.62 77.40 77.15 76.79 76.61 76.63 76.50 76.66 76.72 76.99 76.88 76.48 76.25 75.83 75.42 74.82 73.41 71.76 70.51 70.01 69.64 70.05 69.32 68.67
55.49 54.37 52.99 44.43 42.90 47.40 49.66 50.73 52.90 53.69 52.70 53.83 53.22 52.97 60.05 63.50 63.42 66.19 69.88 72.63 72.67 72.20 73.05 76.44 77.39 77.41 77.47 77.28 76.87 76.69 76.61 76.68 76.74 76.96 76.96 76.78 76.45 75.92 75.50 75.09 74.40 73.59 72.11 70.54 70.16 70.68 70.95 70.18 69.22
53.42 51.16 44.33 41.78 44.54 49.26 52.54 53.07 54.27 53.79 51.46 53.69 54.43 53.03 57.40 61.53 64.73 68.78 69.41 70.99 71.69 71.72 73.94 75.04 77.04 77.38 77.59 77.63 77.09 76.88 76.70 76.72 76.80 76.96 76.93 76.67 76.24 75.57 75.18 74.74 74.10 73.37 72.80 71.84 70.69 71.27 71.08 70.64 70.06
49.01 49.57 42.34 40.00 44.66 49.71 52.41 54.57 55.74 55.94 54.92 55.32 54.44 55.11 56.86 59.85 60.31 62.80 69.42 67.99 71.39 71.12 73.61 74.52 76.80 77.04 77.11 77.06 76.98 76.74 76.53 76.66 76.79 76.77 76.74 76.33 75.84 75.27 74.83 74.34 73.90 73.39 72.85 72.59 72.21 71.54 70.96 70.72 70.55
47.67 44.65 41.95 44.04 46.22 48.49 51.33 53.80 54.42 55.51 56.06 56.47 55.58 53.76 56.96 58.10 59.01 59.64 67.26 67.53 71.13 72.17 73.19 73.35 74.77 76.38 77.10 76.73 76.59 76.51 76.52 76.47 76.34 76.21 75.98 75.79 75.53 74.77 74.26 73.75 73.55 73.53 73.00 72.67 72.50 72.01 71.39 71.10 70.86
49.37 46.43 43.37 45.56 45.02 45.46 51.81 51.74 52.05 52.17 56.12 60.03 59.43 53.87 52.54 57.32 58.99 59.49 61.24 66.28 71.79 72.52 72.76 72.29 73.47 74.54 74.29 75.25 76.51 76.30 76.40 76.27 76.16 76.14 75.88 75.37 74.88 74.42 73.76 72.48 72.90 73.38 73.01 72.98 72.88 72.58 71.97 71.40 71.35
50.30 43.52 41.69 43.54 45.64 47.53 51.68 49.79 53.26 55.63 53.94 56.06 58.39 58.27 60.18 60.64 59.14 57.94 58.57 58.95 69.94 72.99 71.75 71.58 71.84 72.27 72.16 73.11 75.21 75.97 76.52 76.07 75.87 75.59 75.32 73.97 71.48 71.48 72.05 71.60 72.41 73.13 73.08 73.03 72.98 73.02 72.50 72.03 71.78
45.81 41.21 42.49 47.63 49.00 48.19 50.23 50.74 50.73 53.63 53.11 53.03 55.66 59.65 61.74 60.07 57.87 56.67 56.12 56.32 59.33 71.96 71.76 71.07 70.76 70.90 70.51 73.38 73.11 72.55 74.39 73.92 73.49 73.34 73.13 71.34 69.07 69.37 70.64 70.83 72.38 72.73 73.01 72.88 73.07 72.94 72.86 72.30 68.38
45.80 42.85 46.40 48.33 49.88 50.71 50.14 50.43 52.19 50.80 49.67 53.03 53.40 56.54 59.25 59.12 56.76 56.57 57.04 56.05 55.37 64.49 71.98 70.38 70.51 71.03 70.58 70.33 72.01 71.13 71.19 70.49 70.41 71.27 71.38 69.35 68.27 68.85 69.23 67.32 68.25 68.62 71.83 69.60 70.78 70.43 70.07 68.84 67.75
41.75 46.99 48.43 49.13 50.72 49.96 49.15 50.70 50.26 50.33 50.24 56.09 56.74 57.68 58.10 58.06 55.52 55.83 56.66 56.44 58.74 61.20 69.39 69.54 70.40 70.64 70.69 70.17 71.23 70.49 70.49 69.69 69.34 68.65 70.09 68.57 66.76 65.95 67.95 67.38 66.85 67.34 67.28 67.09 64.85 66.03 66.33 66.86 66.04
42.52 44.67 47.67 48.69 48.43 47.81 49.80 49.10 48.69 49.34 52.19 53.64 57.46 57.95 57.43 56.74 57.06 56.56 57.44 57.46 59.64 63.91 66.72 67.43 70.38 70.41 70.21 70.28 71.25 70.28 69.82 70.00 69.53 69.14 69.81 69.87 66.98 67.46 67.73 67.96 66.91 67.19 67.84 66.95 65.12 65.27 65.74 66.52 66.88
44.94 45.27 45.10 45.61 45.23 46.28 45.80 46.10 47.73 49.81 51.67 51.52 52.21 55.68 56.44 56.57 56.57 56.45 56.56 56.27 59.60 63.18 64.97 65.99 69.42 70.92 70.95 73.31 73.46 72.52 70.25 68.65 69.91 69.96 70.58 70.17 69.79 67.48 69.72 68.28 69.47 69.12 68.64 67.95 66.95 66.48 65.90 66.59 67.01
45.96 41.99 44.21 45.04 45.20 44.11 46.54 43.99 45.07 48.86 50.91 49.81 50.65 52.93 54.99 55.86 56.90 55.80 55.54 56.31 59.33 60.96 62.61 64.58 67.85 71.08 71.17 71.22 71.10 72.06 71.64 70.32 69.50 70.54 70.41 70.78 70.29 70.69 68.41 70.53 68.39 68.52 68.58 67.20 67.12 66.64 66.53 65.93 66.77
41.52 40.34 35.56 42.55 45.99 46.70 44.46 39.89 46.42 48.70 48.61 48.49 49.90 50.18 51.34 54.31 55.60 54.87 55.57 59.11 58.76 59.64 60.51 61.80 66.32 65.16 70.90 71.13 71.85 72.18 71.54 71.16 70.59 70.70 71.09 71.67 71.13 71.37 71.21 70.31 69.12 68.36 68.34 67.03 66.02 64.70 63.77 63.44 64.09
38.66 34.00 36.88 41.00 46.10 45.58 44.25 41.52 46.54 48.65 48.08 47.04 47.92 49.02 50.37 49.98 52.76 55.01 58.65 57.95 58.00 58.50 59.02 60.57 62.32 64.73 70.66 70.76 70.80 70.68 71.08 70.12 70.26 70.00 71.87 72.09 72.58 72.91 72.15 70.21 69.75 69.03 68.07 67.06 65.48 65.00 64.76 64.31 64.61
35.05 36.21 39.31 39.25 43.56 44.98 42.32 42.35 45.03 47.37 47.30 46.65 46.99 48.27 49.44 50.51 51.74 56.52 57.20 57.10 57.43 58.26 60.32 61.38 63.29 63.62 67.18 70.67 70.48 69.68 69.46 69.85 68.95 69.14 68.87 71.28 72.91 72.58 71.61 71.21 69.27 68.92 67.51 66.14 65.01 65.17 65.94 66.33 65.72
42.11 40.66 39.41 42.10 45.13 42.28 41.10 41.35 44.03 46.04 45.84 44.54 45.60 47.39 48.46 49.73 51.74 54.42 57.10 57.38 57.94 58.94 58.57 59.17 62.49 62.44 62.91 68.58 68.76 69.12 68.76 69.20 68.41 68.61 68.28 68.38 70.71 72.51 71.62 69.90 69.82 68.92 67.35 65.57 64.99 66.20 66.69 66.12 67.12
41.61 39.07 37.85 41.75 44.06 42.70 40.71 40.67 43.26 44.79 44.93 45.40 45.94 46.29 47.68 48.38 50.26 52.64 55.14 56.33 57.42 58.46 58.80 58.54 59.52 62.01 61.94 64.49 67.03 68.64 69.74 69.60 69.17 68.60 68.82 68.52 68.97 69.73 70.51 70.28 69.18 68.20 67.49 66.68 65.53 66.63 65.31 66.31 68.14
39.94 38.46 38.54 38.80 42.57 43.18 40.87 39.08 40.90 45.22 46.27 47.03 47.65 48.67 48.38 48.70 48.75 51.74 54.44 54.15 56.40 56.82 57.42 57.75 58.91 60.03 61.42 62.40 62.71 62.03 63.74 66.90 67.90 68.70 68.51 69.31 69.53 69.01 69.04 69.25 69.78 68.56 66.54 65.47 66.57 67.53 67.33 65.33 66.71
36.49 42.72 42.34 41.21 37.97 31.31 40.62 30.88 38.72 42.08 43.91 45.95 47.15 48.11 48.58 48.23 50.49 51.43 52.89 53.64 55.36 56.32 56.15 55.97 57.40 58.13 59.86 61.17 61.53 62.16 60.53 59.49 64.27 64.55 68.36 69.54 70.46 69.43 68.95 68.53 68.66 68.05 67.14 66.67 66.88 68.11 67.98 67.43 65.45
39.72 43.97 41.80 41.24 36.16 34.00 35.95 31.23 37.29 41.29 41.16 43.76 46.22 47.38 48.45 49.15 48.48 50.55 51.10 52.05 52.84 53.82 53.89 56.16 56.23 56.25 57.35 58.97 60.12 60.24 60.04 61.61 61.67 63.13 64.16 64.94 65.76 69.00 69.75 69.46 68.77 68.29 68.14 66.84 67.57 67.49 67.96 68.75 65.58
45.70 41.77 40.02 37.59 33.76 29.04 34.98 33.80 34.86 38.26 40.60 43.82 45.79 48.18 48.53 48.94 48.56 50.06 52.33 52.10 51.84 52.35 52.90 53.76 55.32 56.82 58.95 60.00 60.24 60.45 59.72 60.67 61.36 61.18 62.37 63.45 64.96 68.30 69.81 69.13 69.17 69.67 69.29 67.83 66.81 68.31 68.78 69.21 67.68
42.81 37.68 28.88 25.49 25.52 27.46 37.33 34.91 36.64 41.78 45.77 46.31 45.69 46.44 47.41 48.20 48.49 49.74 49.87 49.95 50.76 51.18 51.89 54.40 54.52 54.95 56.63 57.25 58.67 59.10 59.57 61.69 61.03 60.62 60.24 60.96 61.24 62.24 65.68 70.15 69.15 68.97 68.88 68.97 68.90 67.44 69.24 69.13 68.41
39.93 36.10 31.07 24.38 22.56 28.61 37.58 30.84 35.60 44.56 47.75 47.59 48.68 46.96 48.03 46.85 47.74 49.45 49.76 49.93 50.38 51.70 52.58 54.54 54.61 55.11 56.93 57.76 58.61 59.53 59.90 60.64 61.59 62.20 61.44 61.29 60.23 60.93 62.77 66.73 70.27 69.63 69.47 69.50 69.27 69.02 68.39 67.04 65.62
38.52 35.47 38.88 34.13 35.57 29.77 31.20 36.12 41.72 43.86 44.74 45.54 46.65 47.65 44.55 45.21 46.40 48.20 49.37 49.95 50.21 51.49 53.69 54.03 54.31 55.48 55.46 56.53 56.50 57.87 58.81 59.53 60.91 61.90 62.78 63.39 63.95 64.28 62.83 63.44 65.78 68.24 68.55 67.39 69.51 69.46 68.81 67.90 66.15
41.00 41.94 32.25 32.57 26.48 23.87 28.79 32.19 32.29 38.38 42.05 44.07 45.35 44.95 46.56 46.61 46.19 47.33 48.65 49.56 50.44 50.78 52.09 54.31 54.22 54.23 54.64 55.44 56.47 58.13 57.72 58.82 60.54 62.03 61.92 61.91 62.91 63.82 64.47 64.62 64.45 64.55 65.76 68.22 68.93 68.78 69.13 68.72 68.54
37.37 32.82 36.06 35.32 31.14 27.47 24.66 26.90 39.71 39.37 41.38 41.81 44.00 45.73 45.86 46.47 47.30 47.21 47.77 48.76 50.18 51.13 52.15 53.92 54.56 54.82 54.79 55.57 55.02 54.24 54.41 55.92 58.03 58.46 59.72 61.10 61.79 63.70 63.87 64.69 65.01 65.33 64.87 64.31 66.88 69.87 69.78 69.19 69.00
39.36 37.08 35.13 30.99 28.62 33.17 30.92 28.72 43.12 41.57 42.03 43.76 43.26 45.52 46.39 47.54 47.64 49.37 49.18 50.77 49.82 50.02 49.89 50.71 53.80 54.37 55.31 54.85 53.87 53.92 55.11 55.49 54.81 55.59 57.37 59.16 59.59 61.31 62.46 63.15 63.56 64.04 64.57 65.09 63.26 65.73 70.96 70.35 69.48

GFSSGP_sfc_wetblb_084.txt.gz
Wetbulb
61.51 57.50 56.79 55.37 45.94 44.34 42.09 44.47 48.61 48.67 48.29 50.01 55.62 60.34 58.77 60.20 58.69 54.00 67.37 70.80 73.50 75.28 76.48 77.24 77.47 77.27 77.09 76.81 76.63 76.25 76.15 76.05 76.20 76.22 76.32 76.32 76.25 76.35 76.18 75.98 75.53 74.50 73.64 72.49 71.02 69.53 68.50 68.06 67.52
61.05 58.51 56.80 49.90 42.57 39.08 43.32 48.78 48.23 49.66 49.92 50.13 53.37 56.24 58.51 58.25 63.38 66.96 67.81 71.81 73.65 75.30 76.20 76.54 77.49 77.04 76.99 76.68 76.27 75.94 76.17 75.95 76.02 76.27 76.39 76.29 76.24 76.00 75.53 75.45 74.84 73.32 72.25 71.14 69.61 68.78 68.51 68.29 67.34
55.65 58.52 50.46 45.27 40.20 39.89 43.48 48.05 48.47 52.19 51.90 51.46 51.11 56.85 57.99 59.23 63.47 65.08 69.30 71.74 73.56 74.54 75.60 76.48 77.49 76.81 76.81 76.66 76.10 75.89 76.07 75.84 76.07 76.32 76.27 76.02 76.09 75.86 75.72 75.15 74.44 72.76 71.49 70.46 69.50 69.35 69.02 68.56 67.92
52.49 52.18 50.41 43.30 41.13 45.83 47.20 49.64 50.52 53.42 53.52 53.79 54.51 53.58 59.44 62.81 63.85 67.45 71.40 71.90 72.28 73.04 75.07 77.04 77.32 76.86 76.71 76.61 76.13 76.12 76.14 76.10 76.22 76.47 76.49 75.99 75.62 75.48 75.06 74.76 74.11 73.25 71.43 70.35 70.16 69.85 69.55 68.91 68.16
51.39 47.78 43.21 40.35 42.58 46.91 51.21 52.67 51.12 52.40 52.79 53.30 55.84 54.39 55.76 59.39 66.56 69.89 71.13 71.41 70.50 71.44 74.20 76.54 77.19 77.07 76.86 76.64 76.33 76.30 76.24 76.19 76.22 76.42 76.42 75.99 75.81 75.26 74.84 74.48 73.79 73.15 72.16 70.94 70.60 70.41 70.89 70.42 69.56
47.63 45.98 39.39 37.73 42.94 48.35 51.11 52.62 51.57 52.27 54.27 53.85 54.28 54.68 55.28 58.55 57.55 60.43 71.20 70.50 70.74 71.13 73.81 75.68 76.96 76.16 76.51 76.60 76.20 76.03 76.13 76.20 76.35 76.35 76.43 76.00 75.50 74.98 74.62 74.01 73.57 73.14 72.63 72.24 71.22 71.42 71.01 70.25 70.00
45.69 41.78 38.52 39.83 42.67 45.55 49.85 52.03 51.85 52.85 53.18 54.67 56.03 53.05 55.13 56.08 56.91 58.47 66.71 70.68 70.09 72.23 72.64 74.72 75.61 75.51 75.86 76.27 76.05 75.90 75.89 76.04 76.13 76.05 75.90 75.63 75.17 74.73 74.07 73.59 73.27 72.92 72.50 72.52 72.45 71.86 71.04 70.65 70.63
47.22 44.23 40.83 42.09 42.51 43.23 50.56 50.39 51.02 51.21 54.32 59.38 58.49 52.43 51.57 56.26 57.46 57.59 60.58 69.33 69.66 71.92 72.20 73.06 74.41 74.80 74.51 74.68 76.42 76.04 75.87 75.88 75.69 75.76 75.51 75.25 74.79 74.28 73.75 72.48 72.84 73.02 72.70 72.48 72.50 72.38 71.76 71.29 70.94
48.69 38.93 36.77 39.80 43.35 45.42 50.33 47.11 50.93 53.57 53.28 55.27 58.57 56.99 58.47 58.30 57.68 56.57 57.06 69.73 69.97 71.34 71.18 71.82 73.45 73.83 73.98 74.23 75.82 76.03 76.53 76.22 75.77 75.67 75.46 73.90 71.78 71.51 71.81 71.28 72.59 72.95 72.87 72.72 72.72 72.64 72.27 71.65 71.45
43.54 37.80 40.16 45.46 46.06 45.47 48.52 48.68 49.28 51.18 51.84 52.08 53.77 57.83 59.15 57.74 56.21 55.44 54.11 58.34 69.16 69.74 70.00 70.75 71.79 72.73 73.38 74.39 74.28 74.92 74.93 75.24 74.53 74.19 73.69 71.70 69.86 68.87 70.43 70.72 72.30 72.70 72.62 72.55 72.55 72.66 72.68 71.70 68.04
42.13 39.59 43.41 45.90 47.54 48.17 48.21 48.20 50.27 50.64 49.19 51.89 52.41 54.89 56.88 55.89 55.22 55.31 55.41 54.15 61.36 70.96 70.83 70.35 70.12 71.02 71.91 72.56 72.96 73.42 73.66 73.13 72.72 72.53 71.33 69.62 68.97 68.87 68.98 67.16 68.27 68.26 71.15 68.32 70.21 69.92 69.68 68.30 67.59
38.27 44.09 45.63 46.79 48.19 48.09 47.17 49.64 48.44 49.19 51.04 54.77 55.34 55.87 56.22 54.81 54.73 55.19 54.93 55.59 61.55 68.23 71.04 70.00 69.93 69.19 69.03 71.58 71.90 72.17 71.90 70.82 70.43 71.31 70.29 68.35 66.03 65.43 66.13 65.62 65.56 65.91 66.38 66.76 65.95 65.73 66.07 66.67 66.89
37.87 41.72 44.38 46.82 47.19 46.98 48.75 47.78 47.61 48.12 50.70 52.96 54.66 55.61 55.43 55.28 54.58 54.81 56.09 56.27 63.50 64.96 68.01 68.83 69.62 69.63 68.55 70.28 69.80 70.53 70.70 70.57 69.89 69.13 69.70 68.50 65.53 63.94 65.24 66.02 65.27 65.62 65.33 65.97 65.26 63.57 63.90 64.45 65.23
42.46 42.72 43.36 43.75 42.91 42.88 43.72 44.77 44.75 47.62 49.80 49.97 50.44 51.71 54.52 55.11 55.55 54.63 54.80 54.74 58.02 63.37 64.56 67.09 69.10 69.18 68.64 70.26 69.57 68.93 69.18 69.18 68.93 68.80 69.39 68.51 66.21 65.36 65.69 66.29 65.66 65.21 65.83 66.24 66.13 64.41 63.46 63.72 65.30
43.29 39.56 41.55 42.02 42.91 42.22 43.80 42.30 43.39 46.79 48.26 47.82 48.42 49.89 52.26 54.78 55.46 55.41 55.72 54.65 56.93 59.20 63.01 66.52 69.06 69.62 68.43 70.05 70.27 69.62 69.04 69.58 69.09 68.77 68.59 69.27 67.63 65.67 65.72 67.37 67.24 67.02 67.12 67.01 66.38 65.61 64.93 64.31 65.29
39.28 36.72 33.38 40.11 43.53 44.75 43.15 39.08 44.75 46.88 46.06 46.71 48.04 48.47 52.36 53.78 55.01 55.01 55.42 54.38 56.26 58.01 61.15 63.74 71.58 70.51 69.51 70.16 71.25 71.19 70.52 69.04 69.38 69.72 69.30 69.57 69.55 68.42 65.92 67.13 67.99 67.82 67.64 67.01 66.03 65.49 63.67 62.94 63.42
34.78 31.33 34.68 38.59 43.09 43.20 42.01 40.14 45.00 46.88 46.06 45.97 46.22 47.13 47.98 50.15 52.32 54.11 54.62 55.04 56.59 57.54 58.50 59.79 62.58 66.21 69.94 69.81 71.29 70.76 69.91 69.55 69.80 69.89 69.57 69.90 69.57 70.26 70.22 67.89 68.89 68.09 67.12 66.91 65.85 63.94 63.35 62.32 62.97
32.77 32.97 36.22 36.45 41.00 41.46 39.20 39.35 42.93 45.12 45.01 45.53 44.87 45.90 46.99 47.77 49.18 52.58 56.01 56.42 56.36 56.05 57.02 60.16 61.53 62.75 66.10 69.35 69.62 69.60 69.07 69.56 69.32 68.97 70.45 70.26 70.44 70.00 70.43 71.24 68.88 68.79 67.29 66.38 65.06 63.95 64.76 64.05 64.44
39.28 37.54 36.53 39.48 43.08 39.92 38.54 39.08 40.99 43.53 43.44 43.49 43.71 44.48 45.95 47.06 49.45 54.62 55.44 55.69 56.87 57.32 57.83 59.25 58.92 59.97 61.67 68.25 67.86 66.69 66.71 67.80 68.59 68.74 68.87 69.25 71.11 70.95 70.48 70.13 69.14 68.14 67.69 66.57 65.16 64.13 64.06 64.43 65.78
39.97 37.34 35.92 39.30 42.43 40.21 39.08 38.76 41.38 42.90 43.35 43.84 43.56 44.28 44.87 45.66 47.65 51.12 53.15 54.51 56.37 56.38 56.14 57.61 58.85 59.45 60.18 62.63 64.85 65.89 65.96 66.84 68.63 69.15 68.95 68.18 68.62 71.22 70.92 70.55 69.35 69.08 67.89 66.58 64.96 65.12 64.25 64.62 65.78
39.12 36.51 36.26 37.01 40.67 40.24 38.36 36.04 38.97 42.71 43.96 45.03 45.45 45.51 45.78 45.62 46.41 48.46 52.81 53.92 54.64 55.85 55.74 56.05 57.42 57.89 57.72 59.85 61.41 61.86 61.81 65.62 65.96 65.73 67.82 68.28 68.16 68.68 70.55 70.32 70.03 68.97 68.41 68.06 65.83 65.29 64.63 63.19 65.48
34.71 41.24 40.87 39.67 35.86 30.42 38.15 29.37 35.41 39.73 41.18 43.43 44.57 44.03 44.63 45.82 47.03 48.34 52.99 53.14 54.92 56.12 55.28 56.16 56.81 57.45 57.94 58.00 57.02 58.11 59.16 59.42 62.12 63.36 65.60 66.31 68.90 68.55 68.31 68.61 69.61 67.98 67.30 67.48 65.11 66.54 66.60 64.76 63.72
39.19 43.22 40.31 39.59 35.03 31.57 33.40 29.74 32.27 38.16 38.95 41.48 43.74 45.38 46.20 46.16 47.65 47.96 52.15 54.19 53.11 54.07 53.50 54.36 54.78 55.30 55.91 58.13 58.51 58.21 57.19 59.50 60.38 61.47 62.03 64.33 68.13 69.39 69.08 68.14 68.01 67.59 66.70 66.20 65.54 65.94 66.22 66.98 65.15
44.21 40.28 37.91 35.32 31.57 27.13 31.49 31.22 33.62 35.13 38.35 40.32 43.93 45.71 47.05 46.51 47.93 48.32 50.79 52.78 53.37 52.77 52.96 53.54 53.64 54.09 55.82 56.64 57.27 56.86 56.12 56.47 57.87 59.10 60.07 62.11 64.25 65.74 67.46 68.63 68.21 67.80 67.49 66.66 65.86 66.73 66.84 67.10 67.52
40.10 33.29 25.94 26.51 24.79 26.86 34.11 31.48 34.80 38.73 42.48 44.34 44.29 44.79 45.09 45.43 45.82 49.01 50.14 51.18 51.61 50.55 49.45 52.48 53.89 53.65 54.65 56.20 56.93 57.43 57.84 58.40 58.33 57.84 57.78 58.80 59.03 59.42 62.69 67.72 67.85 68.30 68.71 68.30 67.80 66.14 66.94 67.48 67.46
38.13 35.50 29.99 24.37 22.21 27.91 35.64 28.81 33.76 42.33 44.40 45.93 46.21 45.78 46.19 46.57 46.66 49.45 50.40 51.53 50.80 49.54 49.68 52.23 51.35 51.63 53.60 54.82 55.05 55.97 56.65 56.71 57.77 58.83 59.06 58.40 58.43 58.96 60.50 61.96 65.98 68.65 68.57 68.50 68.49 67.74 66.58 67.20 67.78
37.26 34.54 40.47 33.60 35.06 30.21 31.08 34.52 39.81 42.90 44.34 45.16 44.17 44.34 44.01 45.30 48.59 48.59 49.53 49.02 49.71 49.89 49.64 51.98 51.65 52.01 53.90 54.73 55.19 56.09 57.06 57.97 58.18 58.18 58.76 59.18 60.75 63.16 63.73 63.38 62.27 65.24 67.86 67.79 67.99 67.81 67.63 67.34 67.70
40.49 41.28 31.89 32.09 26.21 24.86 29.29 30.20 30.69 36.69 39.59 43.01 44.27 43.44 43.68 44.13 44.86 46.07 47.62 48.55 49.62 49.59 50.13 51.02 52.82 53.20 54.02 54.70 54.93 55.19 55.82 56.59 56.22 57.34 59.03 60.39 61.10 61.66 62.58 63.98 63.83 63.99 64.58 66.37 66.87 67.14 68.28 67.88 67.81
36.15 33.74 34.19 31.72 29.69 25.96 21.80 26.68 37.48 38.41 40.92 40.70 42.56 44.51 42.84 44.51 45.31 45.77 48.55 48.62 48.36 47.62 47.88 50.82 52.31 53.98 52.75 52.95 53.18 54.55 55.55 56.08 56.39 56.66 56.66 57.63 58.94 60.49 61.58 61.84 62.34 62.93 64.14 64.65 63.70 64.81 67.27 67.52 67.94
38.75 35.71 34.06 26.74 28.04 31.17 29.79 27.29 41.02 41.87 41.56 41.82 44.03 44.95 44.57 45.28 47.23 47.64 48.23 47.46 46.90 47.83 47.35 50.52 51.96 52.64 53.91 54.44 53.36 52.53 52.27 52.12 52.83 53.65 54.74 55.52 55.69 57.44 59.19 61.30 61.23 61.91 61.82 62.10 63.11 63.70 64.71 66.12 67.66

GFSSGP_sfc_wetblb_087.txt.gz
Wetbulb
60.23 57.72 56.31 53.29 45.42 43.74 40.77 43.01 46.53 47.80 48.65 50.38 58.11 57.98 58.62 58.90 57.76 52.51 67.20 70.72 73.79 74.49 75.80 76.58 77.17 77.12 76.90 76.42 76.06 75.84 75.76 75.83 75.99 76.14 76.12 76.09 76.21 76.26 76.08 75.71 75.34 74.49 73.69 72.81 71.46 69.38 68.53 68.30 68.46
57.66 56.88 54.70 48.11 41.82 38.86 42.33 46.43 46.72 47.68 50.50 50.07 51.98 55.82 56.93 56.97 63.59 66.35 66.74 72.20 73.69 74.85 75.59 75.62 77.01 76.91 76.67 76.21 75.86 75.70 75.61 75.71 75.76 75.89 75.99 75.99 75.78 75.71 75.26 75.26 74.57 73.49 72.72 71.44 69.88 68.96 68.38 67.69 67.17
53.04 56.71 49.45 43.95 38.91 40.17 43.16 47.00 47.22 49.88 50.40 52.29 50.57 56.85 56.85 58.60 63.72 66.20 68.93 72.77 74.34 74.50 75.23 75.46 76.93 76.80 76.64 76.08 75.90 75.80 75.63 75.63 75.83 76.01 76.14 75.93 75.63 75.53 75.08 74.84 74.17 72.62 71.58 70.48 69.51 69.39 69.28 68.61 67.90
51.64 50.57 48.47 42.60 40.64 44.68 47.27 49.18 49.12 50.49 52.76 54.61 53.71 54.11 58.35 59.98 61.71 67.06 71.07 73.19 73.39 74.25 75.19 76.63 76.75 76.75 76.50 76.16 75.93 75.85 75.75 75.70 75.86 75.98 75.73 75.51 74.94 74.95 75.00 74.47 73.87 72.96 71.50 70.53 69.82 69.87 69.75 69.17 68.26
50.18 47.01 41.29 39.19 41.71 46.45 49.93 51.57 50.51 49.52 49.67 52.80 54.17 52.74 54.05 57.89 65.92 69.99 70.32 72.33 72.30 73.04 73.98 76.03 76.60 76.65 76.55 76.04 75.89 75.95 75.83 75.67 75.92 75.85 75.36 75.14 74.83 74.67 74.58 74.07 73.57 72.85 71.99 70.68 70.27 70.08 70.67 70.21 69.24
47.39 44.83 37.85 36.93 42.39 47.38 49.53 51.58 51.37 50.05 50.48 52.67 52.80 52.91 52.96 57.46 59.42 68.93 70.17 70.31 71.78 72.58 74.37 75.62 76.53 76.40 76.17 76.15 75.87 75.76 75.51 75.68 75.83 75.81 75.69 75.16 74.84 74.32 74.23 73.94 73.40 73.02 72.55 71.96 71.01 71.00 71.07 70.51 69.96
44.11 41.70 37.45 37.73 41.55 44.23 48.35 50.96 49.82 50.13 51.67 51.16 54.98 51.88 53.13 54.08 55.99 66.89 69.67 69.20 70.36 72.48 74.50 75.04 75.29 75.89 76.35 75.76 75.68 75.74 75.64 75.55 75.59 75.50 75.53 75.19 74.82 74.56 74.22 73.59 73.10 72.90 72.58 72.53 72.31 71.72 70.95 70.49 70.31
46.23 43.78 38.67 41.05 41.45 42.51 48.46 48.77 48.96 48.94 50.79 55.44 57.06 51.67 50.44 53.53 56.95 65.40 68.72 68.44 69.18 71.69 73.55 74.13 74.48 74.84 74.46 74.98 75.94 75.62 75.59 75.57 75.36 75.48 75.44 74.75 74.49 74.31 73.77 72.68 72.67 72.76 72.41 72.34 72.34 71.94 71.27 70.83 70.58
46.12 38.35 36.20 39.95 42.59 45.56 47.70 46.23 49.03 51.64 50.30 52.90 55.79 55.52 56.73 56.69 58.63 67.72 67.24 67.76 69.43 70.34 71.12 73.46 73.44 73.19 73.44 74.01 75.07 75.52 75.84 75.73 75.27 75.24 75.23 73.81 72.05 71.68 71.42 71.37 71.71 72.85 72.58 72.41 72.38 72.16 71.61 71.34 71.00
41.68 35.79 38.42 43.47 45.57 44.38 46.53 45.77 48.38 47.94 48.88 48.49 53.02 57.16 57.13 56.35 55.08 64.20 66.08 66.48 68.01 69.10 70.16 71.92 72.90 72.91 72.67 73.67 74.33 74.27 74.10 74.48 74.19 73.79 73.53 72.28 70.45 69.73 70.32 70.37 72.16 72.83 72.76 72.46 72.41 72.30 72.13 71.14 67.28
39.41 37.98 41.64 44.61 46.53 46.69 46.01 45.82 48.13 47.99 46.62 49.44 50.18 53.18 55.35 54.57 53.51 53.00 57.79 67.18 67.97 69.40 70.26 70.73 72.04 72.24 72.64 72.81 73.33 73.90 73.55 73.27 73.30 73.55 73.13 70.70 69.95 69.73 69.34 66.91 68.53 67.52 70.67 67.79 69.46 69.55 69.21 67.52 66.80
36.87 42.20 43.14 44.37 46.37 45.46 45.43 47.83 46.91 46.67 48.26 51.06 53.37 54.12 55.07 54.09 52.96 52.81 52.92 56.39 64.29 69.31 69.73 70.31 70.39 71.38 71.64 72.47 72.72 72.38 72.46 72.66 72.29 72.23 71.45 69.80 68.33 67.09 66.48 65.79 64.51 65.07 65.43 65.80 64.99 65.90 66.42 66.96 66.85
37.11 39.85 42.16 43.95 43.34 43.94 46.22 45.67 46.21 47.01 49.36 51.31 52.05 52.56 52.56 54.89 54.19 53.85 53.82 58.27 63.06 68.76 69.60 69.65 69.80 69.79 69.47 71.05 71.56 72.06 71.89 71.91 71.88 71.78 70.79 69.01 66.93 66.00 65.38 64.69 64.18 64.14 63.98 64.32 64.26 63.70 63.69 64.27 64.60
40.94 40.89 41.53 42.22 42.61 41.07 41.81 43.32 42.83 45.32 48.81 49.35 50.05 50.11 49.91 51.02 54.64 53.86 53.92 60.01 62.11 66.14 69.12 69.43 69.26 69.23 69.12 70.20 70.07 70.59 70.99 71.30 71.13 70.75 70.76 69.37 67.30 64.82 63.34 64.53 64.74 63.97 64.23 64.18 64.02 63.80 63.07 62.75 63.61
41.38 37.77 40.21 40.18 41.40 41.15 42.04 40.60 41.61 45.54 46.57 47.13 47.70 48.22 49.10 50.34 52.68 54.14 54.45 57.47 61.01 63.45 67.08 67.29 68.61 68.97 68.42 68.82 69.56 69.05 69.74 69.64 69.58 69.52 69.66 69.70 67.26 64.89 63.66 63.72 64.44 65.32 64.24 64.47 64.80 64.71 64.09 62.67 63.88
37.54 35.10 31.69 38.31 41.31 42.88 42.23 36.54 43.36 45.99 44.53 44.97 45.99 46.34 48.14 49.46 51.75 54.26 55.46 54.00 56.70 60.66 62.86 66.60 69.24 68.58 68.14 68.23 69.44 69.00 68.45 68.40 67.61 67.77 68.26 68.81 68.21 65.86 64.15 64.62 64.91 65.88 65.22 65.56 65.42 65.22 64.62 63.84 63.67
33.19 29.23 32.17 37.02 41.16 41.33 40.56 37.20 42.92 44.84 43.85 43.66 44.49 45.23 46.84 47.89 49.88 52.09 54.55 54.34 53.64 57.80 60.92 63.64 66.90 67.61 67.99 68.29 69.44 69.62 68.83 68.39 68.63 68.26 67.40 67.92 68.50 67.79 65.18 64.72 66.26 66.71 66.07 66.04 65.85 64.25 64.00 62.20 61.73
30.60 31.36 34.13 34.46 39.44 39.67 38.32 37.66 41.08 43.44 42.90 43.20 43.07 43.77 44.39 45.82 47.18 49.08 51.68 53.59 53.02 54.62 57.44 59.28 62.06 65.58 67.07 68.34 69.22 69.12 68.65 68.47 68.49 68.87 69.02 68.50 68.73 68.98 68.67 67.28 65.82 68.05 66.23 65.47 64.67 63.85 63.76 63.52 62.94
37.14 35.00 34.48 38.13 41.68 38.50 37.60 37.77 39.65 41.92 41.60 41.80 42.69 42.83 43.28 44.46 47.43 49.03 52.56 53.57 53.99 53.99 55.43 58.17 59.70 61.98 66.58 67.07 67.16 66.62 67.70 67.90 67.75 68.78 69.49 70.39 69.87 69.75 68.32 69.14 69.32 67.65 67.50 67.18 65.39 63.85 63.61 63.55 64.91
36.96 34.79 34.93 38.71 40.74 37.98 37.78 37.39 39.59 40.89 41.51 42.10 42.99 43.15 42.92 43.54 45.62 48.24 52.09 52.81 54.12 54.77 56.04 57.43 57.55 58.80 60.83 65.07 65.90 65.82 65.85 66.38 67.21 67.77 67.90 68.79 69.69 70.34 70.52 68.93 68.46 68.32 67.65 66.58 65.44 64.05 63.61 63.59 64.67
37.09 34.78 35.19 35.92 39.05 38.74 37.02 34.81 37.80 41.18 42.00 43.59 43.85 44.42 44.36 44.21 44.30 45.35 48.44 51.86 53.32 54.50 55.63 57.45 57.07 57.06 58.77 61.08 60.99 60.63 61.28 63.74 64.50 65.29 66.78 67.36 68.15 68.45 68.30 69.32 69.10 68.26 67.97 66.78 65.26 64.52 63.69 62.74 64.17
33.56 39.68 39.46 38.25 34.61 30.46 36.75 29.91 34.10 37.88 39.27 41.36 42.75 42.65 43.21 44.06 44.82 45.08 46.35 50.26 52.24 54.38 53.99 55.10 56.34 55.62 56.58 58.62 57.57 57.20 59.65 60.18 61.83 61.41 62.47 64.58 66.94 67.27 67.77 67.39 68.45 68.87 69.21 67.39 65.90 66.18 65.07 63.89 62.33
37.31 41.59 38.89 38.27 33.52 29.39 31.67 28.19 31.29 36.93 37.09 39.70 41.08 42.45 42.91 43.76 43.97 44.51 45.63 49.52 53.05 54.23 54.70 55.09 55.53 54.78 55.12 55.39 54.50 55.53 55.87 57.78 58.88 59.64 60.46 62.50 65.49 67.55 68.00 66.34 65.94 67.10 68.20 67.54 65.77 65.04 65.08 65.16 64.33
42.53 38.05 35.93 32.45 29.80 24.23 31.20 30.39 30.50 33.29 37.42 38.75 41.33 43.40 45.64 45.44 45.34 45.65 46.90 48.86 51.52 52.66 52.66 53.02 53.24 53.33 54.40 55.76 55.54 54.97 54.58 54.39 54.59 55.80 57.64 59.53 62.43 64.90 66.45 67.92 67.77 68.25 67.71 66.83 65.96 65.60 65.32 65.10 65.31
38.36 32.01 24.67 23.81 23.68 25.08 33.32 30.87 31.37 37.29 41.44 41.60 41.68 44.11 45.14 44.33 44.65 46.04 45.71 48.66 51.23 52.17 51.32 51.49 51.87 52.20 53.85 54.76 55.45 55.90 55.25 55.13 54.82 55.18 55.48 55.67 56.36 57.37 59.93 63.96 67.28 66.71 66.73 65.68 65.16 65.39 65.61 65.46 65.17
34.87 33.66 27.70 22.13 22.54 27.68 34.19 28.10 33.45 40.62 43.21 44.00 44.10 43.28 43.79 43.42 44.51 46.36 47.42 48.88 49.47 48.72 49.60 52.37 51.87 52.40 53.61 55.34 55.67 55.92 55.96 55.85 55.95 56.60 56.55 56.63 56.43 56.60 58.11 59.26 60.75 65.82 67.43 66.85 66.51 66.18 65.56 65.30 66.40
36.07 32.67 35.96 29.91 30.46 23.48 28.85 33.73 38.70 40.59 41.55 42.69 42.96 44.29 43.09 43.23 43.44 45.14 45.96 48.04 49.64 49.48 49.31 51.10 50.66 50.90 51.67 52.50 52.64 53.04 54.70 55.28 55.55 56.50 57.22 57.75 57.36 59.53 61.28 61.49 60.82 61.34 63.08 66.09 66.64 66.61 66.48 66.22 65.80
39.88 40.75 30.58 29.94 24.89 23.93 27.39 29.13 30.13 35.38 37.68 40.70 41.29 41.21 43.16 44.31 44.66 44.69 45.38 46.12 47.66 48.15 48.89 48.38 50.11 50.45 51.48 52.28 52.81 53.78 54.65 56.30 56.88 56.67 56.66 57.59 58.65 59.65 60.01 61.07 61.84 62.32 63.01 63.02 64.48 63.80 65.61 66.07 66.64
36.18 34.80 34.37 33.71 31.77 26.69 24.71 25.26 35.63 35.87 37.36 37.47 39.69 42.10 42.74 44.46 43.99 45.16 46.00 46.39 47.23 47.70 48.75 50.39 49.53 49.77 50.09 51.94 53.05 53.67 53.87 54.81 55.01 54.71 55.99 58.03 57.84 58.68 59.27 59.00 59.58 60.48 61.40 61.83 62.73 61.87 62.67 64.93 65.26
37.90 35.79 33.60 25.17 24.56 31.79 27.89 26.71 39.17 38.30 38.21 39.30 38.98 41.63 44.53 45.81 47.31 46.99 47.39 47.27 49.15 47.04 47.28 47.52 49.27 50.55 51.43 52.41 52.19 53.62 53.66 53.88 54.15 54.39 54.64 55.71 56.62 56.53 56.73 57.41 57.67 58.22 59.47 60.07 60.49 60.89 62.06 62.84 62.99

GFSSGP_sfc_wetblb_090.txt.gz
Wetbulb
61.06 55.06 56.09 52.71 45.40 43.95 38.98 41.97 45.32 46.88 47.75 50.22 52.33 57.64 58.20 58.12 57.00 51.74 66.53 70.20 72.70 73.21 75.89 76.29 76.74 76.87 76.69 76.27 76.36 76.20 76.07 76.23 76.26 76.31 76.21 76.19 76.08 76.18 76.01 75.61 75.34 74.43 73.78 73.03 71.90 70.36 69.84 70.28 70.90
56.97 56.00 53.25 47.83 41.52 39.17 40.79 44.79 44.87 46.65 49.52 50.67 49.72 54.70 55.98 55.57 63.33 65.71 66.46 72.09 72.97 74.32 75.42 75.47 76.79 76.62 76.62 76.11 75.85 75.89 76.00 75.95 75.90 76.06 76.11 76.16 76.08 75.93 75.54 75.29 74.77 73.91 73.03 72.24 70.55 69.20 68.92 69.32 69.10
52.80 55.47 49.12 43.61 38.77 40.00 42.90 45.95 45.46 49.18 51.81 51.66 50.97 55.83 56.29 56.81 61.66 65.31 68.28 72.75 73.75 74.07 74.69 75.16 76.75 76.48 76.16 76.03 75.57 75.64 75.64 75.69 75.88 75.96 75.86 75.80 75.63 75.53 75.25 75.03 74.64 73.24 72.29 70.90 69.67 69.46 69.98 69.41 68.87
51.07 50.32 47.52 42.02 39.71 44.30 45.64 48.73 48.46 49.11 51.51 53.08 52.72 53.37 57.53 59.00 61.35 66.78 72.01 73.65 73.20 74.08 74.50 76.27 76.59 76.27 75.95 75.83 75.65 75.42 75.59 75.62 75.63 75.63 75.66 75.40 75.11 74.97 74.62 74.59 74.07 73.31 71.81 70.41 70.09 70.16 70.06 69.66 69.10
50.01 46.38 39.91 38.29 41.66 46.43 48.48 49.41 51.25 49.33 48.98 52.00 52.72 51.63 53.89 57.48 69.03 70.10 72.03 73.02 72.58 73.60 73.91 75.79 76.44 76.20 76.01 75.96 75.78 75.42 75.39 75.44 75.67 75.75 75.40 75.13 74.80 74.47 74.15 73.99 73.35 72.95 72.40 71.27 70.38 70.11 70.64 70.47 69.86
46.87 44.60 37.31 36.24 41.75 46.75 48.56 49.85 49.36 50.27 50.66 52.13 52.45 51.58 51.88 55.93 63.08 68.33 71.56 71.42 72.97 73.13 74.22 74.99 76.19 76.01 75.82 75.72 75.69 75.27 75.09 75.21 75.44 75.41 75.37 74.97 74.63 74.29 73.98 73.64 73.22 72.97 72.45 71.91 71.19 70.94 70.84 70.03 69.55
43.98 41.13 38.22 36.92 40.89 43.67 47.59 50.03 46.72 47.88 49.99 49.82 52.71 50.78 52.36 54.17 55.66 67.80 69.41 70.38 72.15 73.50 74.02 74.32 74.84 75.51 75.92 75.56 75.37 75.35 75.02 75.01 74.96 74.98 74.89 74.80 74.48 74.16 73.97 73.68 73.42 73.15 72.78 72.45 72.11 71.64 70.87 70.04 69.61
43.95 41.75 38.29 39.89 40.95 41.86 47.48 47.82 47.50 47.23 49.20 54.57 54.08 50.54 49.75 53.81 57.94 66.97 67.44 68.07 70.02 72.87 73.46 73.64 73.97 74.38 74.04 74.40 75.58 75.34 75.10 75.02 74.72 74.76 74.66 74.42 74.35 73.98 73.67 72.93 72.91 72.97 72.55 72.53 72.33 71.86 71.02 70.29 69.85
44.91 36.43 34.69 37.29 40.60 43.64 46.90 44.54 47.22 49.69 48.30 50.35 52.29 53.90 55.99 56.94 65.99 66.05 65.50 66.90 69.12 71.45 72.65 73.37 73.32 74.21 73.99 73.70 74.60 75.41 75.32 75.33 74.97 74.94 74.56 73.39 72.43 72.48 72.01 72.14 72.07 72.88 72.63 72.41 72.35 72.08 71.22 70.70 70.41
41.38 34.58 37.12 42.03 43.00 43.65 44.38 44.45 46.35 46.30 47.17 47.38 50.31 55.50 55.75 55.61 59.66 65.43 65.40 64.74 67.16 68.79 71.43 72.48 72.72 72.99 72.66 73.86 73.54 73.79 73.77 74.27 73.72 73.44 73.36 71.90 70.77 70.47 70.41 71.00 72.20 72.55 72.65 72.40 72.20 72.15 71.54 71.12 68.37
39.55 37.49 40.66 43.16 44.89 45.58 44.21 44.83 46.54 44.99 44.92 47.30 47.69 50.46 54.31 54.24 54.68 63.97 65.11 65.77 66.73 68.63 70.72 72.28 72.28 72.65 72.45 72.84 73.42 73.27 73.24 73.00 73.01 73.45 73.08 71.20 70.31 70.08 70.48 68.82 69.47 69.51 71.22 69.25 71.05 70.54 69.94 68.70 67.89
37.01 41.67 42.84 42.85 45.08 44.01 43.65 45.99 44.52 45.47 46.70 49.40 50.45 52.11 53.21 53.28 52.43 56.66 63.46 65.63 66.77 68.37 69.49 71.73 72.47 71.91 72.29 72.35 73.19 73.18 72.58 72.47 72.11 72.25 72.16 71.15 68.74 68.02 67.88 67.19 66.38 66.72 66.49 66.96 66.48 67.31 67.92 68.28 67.89
35.94 38.62 41.02 42.53 41.60 41.80 43.80 43.00 43.27 43.32 47.43 49.21 49.85 49.83 52.60 53.22 52.66 52.56 53.06 56.65 65.25 67.98 69.00 70.27 71.73 71.46 71.98 71.81 72.28 72.16 71.77 71.93 72.11 72.12 71.94 70.75 69.03 67.48 67.03 66.24 65.22 64.67 64.85 65.09 65.38 65.53 65.94 66.18 66.34
39.39 39.40 40.76 41.54 41.44 40.98 40.61 42.03 42.12 43.98 46.77 47.46 47.77 48.01 49.00 51.54 52.89 52.54 53.13 54.46 60.19 67.69 68.64 69.61 70.52 71.14 71.09 71.67 71.29 71.21 71.96 72.13 71.86 71.58 71.99 71.01 70.00 67.86 66.00 65.62 65.16 64.49 64.56 64.67 65.26 65.00 64.76 64.75 65.16
39.39 36.04 38.95 39.62 41.27 40.61 40.81 39.94 40.37 44.50 45.38 45.59 46.05 46.88 47.50 48.07 50.26 51.86 53.78 55.30 61.32 66.01 68.74 68.57 69.37 70.15 70.34 70.44 71.06 70.91 71.08 71.71 71.28 71.27 71.47 71.24 70.16 68.36 66.79 65.48 65.09 65.15 65.36 65.29 65.20 65.24 65.31 64.91 64.82
35.32 33.68 30.48 37.27 39.52 41.91 41.02 35.64 42.41 44.08 42.88 43.30 44.40 45.09 46.35 47.54 48.27 50.23 53.16 54.47 59.77 61.22 66.59 68.34 69.52 68.62 68.89 69.20 69.75 70.00 70.49 70.95 70.96 70.65 69.93 70.45 70.08 69.22 66.88 65.24 64.69 65.59 65.69 65.34 65.36 65.56 65.33 65.33 64.98
32.14 27.61 29.46 35.54 39.52 39.38 38.74 35.12 41.92 43.68 43.11 42.41 42.83 43.51 44.37 44.99 47.04 49.01 51.22 53.13 54.59 58.87 62.02 65.29 67.78 67.66 67.62 67.96 68.45 68.76 68.71 68.90 69.11 68.74 68.51 68.84 69.27 68.68 66.50 64.98 65.16 66.09 66.46 66.25 66.37 66.18 66.35 65.60 64.49
28.91 29.77 32.59 33.28 38.17 37.53 36.43 36.15 40.00 42.32 41.01 41.78 42.02 42.84 43.15 43.68 45.42 47.79 48.31 50.72 52.89 54.60 59.77 62.47 65.94 67.53 67.75 67.64 67.13 68.24 67.79 67.68 67.70 67.74 68.03 67.90 67.95 68.49 67.49 66.09 65.02 67.07 67.15 66.36 66.27 66.36 65.53 65.31 65.30
35.06 33.22 32.52 36.23 40.48 36.84 36.40 36.50 38.65 40.95 40.37 40.74 41.85 42.54 43.22 43.80 45.64 47.35 48.90 51.52 51.22 52.30 54.14 58.51 61.89 64.70 66.24 66.47 66.67 67.23 67.10 67.14 67.52 68.40 68.83 68.93 68.58 68.60 68.20 67.99 67.85 66.76 66.82 66.93 66.64 66.64 65.72 65.39 66.51
35.39 32.73 32.43 36.57 39.46 36.46 35.97 35.51 38.29 39.34 40.48 41.57 42.29 42.54 43.28 43.65 44.86 46.55 47.08 50.75 52.82 52.34 52.93 54.64 59.27 62.54 66.38 67.28 67.75 67.10 67.50 67.70 68.55 68.47 68.94 69.71 69.57 69.38 68.75 68.52 68.20 68.91 68.17 67.83 67.30 66.84 65.82 65.66 66.08
34.86 32.88 33.50 34.72 37.96 36.96 35.27 33.37 36.56 40.16 40.32 42.19 42.59 43.08 43.22 43.54 43.78 44.93 45.90 47.16 50.08 52.66 53.39 55.08 57.06 59.59 62.59 65.26 63.23 61.60 63.98 65.46 65.46 66.61 67.72 68.60 69.43 70.40 70.44 69.82 69.05 68.29 68.47 67.79 67.16 65.22 65.42 64.57 65.29
32.08 38.11 38.34 36.67 33.22 28.42 34.87 28.94 33.00 36.88 38.64 40.34 41.72 41.19 41.96 42.91 43.69 43.67 44.81 44.93 46.94 51.12 53.23 56.03 56.75 58.76 60.93 63.08 63.60 62.64 63.31 62.76 63.79 64.14 66.20 67.41 68.43 68.57 68.60 69.12 68.98 67.97 67.20 65.35 64.98 66.91 66.46 64.46 64.73
35.93 39.72 37.55 36.75 32.23 28.07 30.84 25.69 30.92 35.10 35.63 38.41 40.52 41.50 41.97 42.97 43.49 44.62 45.38 45.62 46.45 50.08 52.62 54.48 55.79 55.58 57.07 60.50 62.75 61.55 60.69 60.64 60.69 61.36 62.36 64.15 65.82 67.56 67.11 66.31 66.62 67.03 65.18 63.40 61.96 63.81 64.93 66.21 65.85
41.07 36.75 34.51 30.71 28.51 23.07 30.33 28.55 29.42 32.48 35.96 38.70 41.87 42.73 43.67 44.36 45.33 45.87 46.73 46.47 46.79 47.58 52.28 53.43 55.05 54.65 54.87 55.56 55.29 56.74 57.04 56.78 57.35 58.33 59.58 60.57 62.23 65.11 66.69 67.69 67.23 65.22 64.96 64.09 63.00 63.56 64.58 65.67 65.65
36.52 31.21 24.20 23.06 22.96 25.53 32.29 29.36 30.42 36.21 40.15 40.97 40.97 42.94 44.43 44.52 42.57 43.63 44.85 46.74 48.30 47.41 51.56 53.29 54.96 54.05 54.20 55.01 55.01 54.83 54.51 54.72 54.33 54.31 55.45 57.47 59.20 60.57 62.70 65.91 66.73 67.36 67.19 65.96 66.02 65.91 64.83 64.25 63.78
34.88 33.28 26.51 21.20 22.23 27.03 31.87 26.36 31.99 39.60 41.87 42.65 43.61 43.07 43.95 43.84 45.27 44.69 45.35 46.05 47.44 49.60 51.13 53.15 53.69 52.09 53.01 53.84 54.86 55.51 55.56 55.65 55.99 56.41 56.93 56.86 56.97 57.83 59.59 60.69 63.10 67.14 67.45 67.30 66.58 65.40 65.00 64.60 64.56
35.04 30.49 34.68 28.65 28.25 20.74 27.68 32.07 37.83 40.22 40.65 41.37 40.77 41.51 41.36 42.21 43.81 44.70 45.44 45.49 46.70 47.74 49.72 51.22 52.00 52.97 54.17 55.45 55.85 56.13 56.41 55.59 55.43 56.29 56.96 57.58 58.43 59.29 59.70 61.28 61.73 63.06 65.93 67.12 67.37 66.33 65.37 65.28 64.93
38.28 39.33 30.85 29.42 24.16 22.77 25.65 28.10 29.82 35.36 37.02 38.54 38.54 39.22 41.25 42.34 43.25 44.05 45.17 45.27 47.00 47.83 48.27 49.57 50.90 51.54 53.04 54.11 54.51 54.64 54.77 55.32 56.27 56.80 57.24 58.04 58.73 60.24 61.79 62.26 63.00 63.47 64.09 64.67 65.53 65.63 66.31 65.97 65.62
34.50 32.81 34.37 33.50 32.49 24.16 21.04 25.40 35.22 35.96 36.57 35.82 36.80 39.35 39.39 41.24 43.24 44.22 45.51 46.84 47.82 48.35 48.19 50.16 51.17 52.16 52.31 52.81 53.32 52.98 54.10 55.77 56.86 57.01 57.44 57.68 58.80 60.18 60.94 61.11 60.73 62.01 62.08 62.73 62.83 62.99 63.24 63.55 64.46
36.51 34.37 33.82 28.61 25.10 28.18 27.28 26.89 38.91 37.04 36.63 36.27 37.52 39.94 42.28 43.56 44.63 44.98 46.18 46.50 47.21 49.17 49.08 48.78 49.19 50.89 52.20 52.62 52.93 53.75 54.64 55.01 55.51 55.70 55.92 57.26 58.40 59.15 59.64 59.62 59.61 59.51 60.00 60.67 60.50 60.72 61.69 61.99 62.64

GFSSGP_sfc_wetblb_093.txt.gz
Wetbulb
63.14 58.49 61.06 59.43 52.24 52.87 49.88 49.74 51.99 52.61 53.68 56.19 55.40 62.00 61.62 62.64 60.74 59.14 71.51 72.59 73.11 75.50 76.85 76.52 76.84 77.02 77.24 77.16 77.13 77.13 76.98 76.88 76.86 77.04 76.79 76.49 76.48 76.66 76.43 76.36 75.81 75.15 74.18 73.27 72.15 71.29 71.59 72.33 72.95
59.28 59.62 59.48 56.11 49.82 47.16 49.64 51.13 50.93 53.14 54.72 56.07 54.66 60.28 60.55 60.01 65.98 68.94 70.23 73.01 73.68 76.07 76.64 75.96 76.78 76.86 76.86 76.63 76.67 76.54 76.78 76.83 76.71 76.61 76.61 76.41 76.36 76.18 75.86 75.56 75.08 74.42 73.55 72.68 70.85 70.36 70.64 71.02 71.76
56.40 58.57 55.80 52.61 49.21 46.54 48.72 51.09 52.33 54.45 55.96 56.17 57.09 60.10 60.12 60.49 63.57 68.74 72.15 74.24 74.45 75.84 76.45 76.22 76.81 76.50 76.51 76.48 76.40 76.24 76.35 76.45 76.50 76.53 76.43 76.28 76.08 75.82 75.50 75.38 75.16 73.91 73.00 71.34 70.08 69.70 70.23 70.20 70.09
56.00 57.24 54.78 49.40 46.80 48.48 50.39 52.46 53.82 54.12 56.32 57.97 57.11 57.84 62.13 62.88 64.60 70.43 73.96 74.68 74.51 75.53 76.07 76.56 76.55 76.20 76.26 76.18 76.10 75.99 76.14 76.25 76.23 76.28 76.31 76.03 75.87 75.57 75.34 75.15 74.81 74.11 72.41 70.99 70.39 70.39 70.30 69.79 68.93
55.93 54.54 49.09 47.26 46.78 49.11 52.08 53.30 53.65 53.11 54.26 55.85 56.67 55.40 59.53 61.34 71.69 73.80 74.22 74.63 73.82 75.10 75.83 76.29 76.37 76.22 76.10 75.91 75.60 75.89 75.84 75.82 75.85 76.03 75.98 75.75 75.40 75.16 75.07 74.70 74.16 73.87 72.99 72.00 70.76 70.52 70.98 70.41 69.72
52.98 53.02 45.88 43.87 45.71 48.96 51.82 53.58 53.28 52.73 53.49 54.74 54.40 55.16 57.76 60.71 69.34 73.15 74.59 74.59 74.33 74.76 75.79 76.06 76.24 76.05 75.79 75.70 75.62 75.58 75.33 75.46 75.67 75.57 75.44 75.42 74.99 74.62 74.60 74.28 73.84 73.46 72.96 72.39 71.65 71.35 71.30 70.58 70.23
50.93 49.60 44.81 44.98 45.27 47.10 49.43 53.68 52.08 51.78 52.35 53.12 55.29 52.98 58.90 60.43 62.28 72.98 74.31 74.68 74.36 75.13 75.60 76.02 75.48 75.92 75.87 75.56 75.41 75.22 75.30 75.20 75.26 75.18 75.01 74.83 74.77 74.37 74.30 73.96 73.84 73.42 72.96 72.49 72.39 71.83 71.28 70.62 70.17
50.46 50.75 44.85 45.84 44.28 45.05 50.46 51.81 52.86 52.56 51.55 55.43 55.29 52.56 54.03 59.52 63.12 72.08 73.10 73.96 73.77 74.50 75.12 75.48 75.55 74.81 74.57 75.28 75.53 75.35 75.25 75.19 75.04 75.14 74.89 74.58 74.36 74.24 74.05 73.36 73.36 73.47 72.99 72.72 72.47 71.85 71.29 70.62 70.40
50.52 46.32 42.87 44.31 45.29 46.90 50.58 50.35 53.21 53.73 52.37 53.14 54.22 54.65 56.87 60.28 66.84 69.98 70.42 71.66 72.19 72.84 74.46 75.16 74.79 74.93 74.45 74.31 74.92 75.15 74.95 75.11 74.89 74.78 74.85 74.03 72.50 72.90 72.78 72.01 72.89 73.31 72.97 72.80 72.50 72.08 71.44 70.92 70.38
48.36 44.42 44.36 47.95 49.51 48.73 49.79 49.31 50.11 49.94 50.50 51.11 52.75 55.60 57.24 60.97 66.53 67.58 68.83 69.25 70.34 71.26 72.89 74.46 74.96 74.63 74.53 73.68 74.71 74.75 74.37 74.21 73.96 73.63 73.79 73.31 73.15 73.11 71.66 72.11 72.18 72.99 72.87 72.65 72.40 72.30 71.63 70.48 69.56
46.42 44.47 46.39 47.45 49.35 50.05 48.79 48.87 50.68 49.43 48.34 51.14 50.89 53.00 54.89 56.26 60.64 67.65 69.34 69.76 70.06 71.24 72.45 73.43 74.57 75.12 73.88 73.72 74.17 74.26 74.31 74.37 74.58 74.67 74.67 74.23 72.92 72.81 72.09 71.17 71.04 71.26 71.77 70.17 70.71 70.61 70.01 69.68 69.73
44.29 46.71 47.53 47.91 48.97 48.48 47.05 48.53 47.43 49.31 50.40 52.60 52.89 54.00 54.42 55.07 56.11 59.14 68.35 69.95 69.94 70.46 71.94 73.40 74.52 74.60 74.31 74.36 73.92 73.88 73.72 74.41 74.03 74.20 74.50 73.55 72.83 72.41 71.67 70.98 70.54 71.05 70.06 70.46 70.36 69.30 69.93 70.52 70.81
43.24 44.41 45.45 46.73 46.54 46.66 46.95 46.64 47.31 47.69 51.06 52.56 52.87 53.09 53.47 54.96 57.08 59.88 63.82 68.87 70.77 70.77 71.61 72.85 73.74 74.48 74.93 74.67 74.31 74.23 73.80 73.78 73.95 74.03 74.08 73.52 72.31 72.18 71.77 71.43 70.80 69.96 69.75 69.20 69.30 69.06 69.49 70.50 71.00
45.89 44.87 46.14 46.78 47.01 46.56 45.67 47.08 46.60 48.43 51.13 51.18 52.05 52.72 53.30 54.76 56.57 59.35 59.89 61.09 64.90 71.16 72.23 73.11 73.35 74.36 74.71 74.68 75.45 74.38 74.45 74.44 74.20 74.09 74.00 73.80 73.01 72.97 71.67 71.28 70.63 70.19 69.68 68.89 68.72 68.93 69.68 70.23 70.95
45.47 43.46 45.17 46.30 47.67 46.60 46.39 44.58 44.65 49.65 49.26 49.65 50.78 51.49 51.99 53.19 54.49 56.85 60.20 62.36 62.72 67.60 72.13 71.96 72.79 73.81 73.79 74.04 74.72 74.80 74.50 74.39 73.90 73.69 73.81 73.34 72.80 73.41 72.54 71.20 70.61 70.17 70.23 69.73 69.19 69.67 70.09 69.74 70.14
43.04 42.48 40.64 44.37 44.98 45.90 46.07 42.26 47.15 49.09 48.22 48.57 49.24 50.13 50.91 52.67 53.60 54.88 57.05 60.34 64.46 65.15 69.71 72.58 72.40 72.68 73.24 72.99 73.69 74.00 73.77 74.01 74.06 73.66 73.29 72.47 74.01 73.71 72.42 71.17 70.34 70.49 69.28 69.43 69.25 69.55 69.55 69.90 70.34
40.63 37.89 38.00 41.78 45.47 44.50 44.13 42.30 47.78 50.26 48.84 48.79 50.06 50.39 50.84 51.92 54.16 56.22 56.35 57.65 61.28 63.94 67.56 71.43 72.87 72.31 72.82 73.46 73.31 73.46 73.99 73.02 73.27 73.43 72.97 73.88 73.54 72.83 72.91 72.05 70.49 69.50 68.41 68.41 68.84 69.04 69.60 69.87 70.88
37.15 37.91 39.23 39.56 44.06 44.81 43.71 43.90 47.03 49.03 48.73 48.79 49.48 50.43 51.57 52.18 53.76 55.52 56.21 56.62 58.16 61.26 64.67 69.20 72.14 72.71 72.24 72.08 72.28 72.08 71.93 72.23 72.72 72.56 72.92 73.47 73.62 72.62 72.20 71.30 71.46 69.41 68.37 68.08 68.35 69.02 70.01 69.99 70.38
40.68 39.15 38.75 41.98 45.01 42.40 43.84 43.63 45.86 48.34 47.83 48.61 49.78 50.98 51.85 52.98 54.82 55.41 56.60 57.28 59.03 59.97 61.76 65.50 68.97 72.47 71.76 70.80 69.51 69.71 69.48 70.32 70.73 71.40 71.95 72.40 71.96 71.76 71.68 70.50 69.28 68.61 68.22 68.83 69.29 69.40 69.81 69.74 70.27
40.60 39.43 39.74 42.65 44.53 43.34 43.75 42.96 46.13 47.27 47.68 48.91 49.46 50.59 51.75 52.83 54.02 55.26 56.72 57.28 58.00 59.85 61.82 62.50 64.33 68.92 71.33 71.41 71.68 71.26 71.15 71.15 71.14 71.33 71.40 71.63 71.28 71.45 71.04 69.06 69.61 69.53 68.95 69.35 69.99 69.92 68.79 69.69 70.30
40.95 39.61 40.15 40.42 43.32 43.89 42.14 41.69 43.99 46.98 47.22 48.80 49.89 51.01 51.57 51.84 52.48 53.52 54.35 55.98 57.05 58.30 60.55 62.16 63.27 65.95 69.58 71.94 71.52 70.97 71.73 71.49 70.47 70.65 70.59 71.55 71.66 71.94 71.47 70.61 69.36 70.83 71.68 70.35 70.61 69.89 68.50 66.97 69.31
38.61 43.60 42.10 40.92 39.95 36.76 41.88 34.90 42.68 45.11 46.02 47.09 49.08 50.56 50.93 50.64 51.64 53.42 54.71 55.66 56.83 57.21 58.28 60.64 62.73 63.89 65.42 70.54 70.84 71.10 69.24 68.67 69.99 71.32 71.67 71.90 72.43 72.48 72.49 71.80 71.78 71.86 71.76 69.79 67.86 67.82 67.77 66.76 65.09
41.05 43.66 42.43 42.03 40.23 38.48 40.06 36.46 40.78 43.19 43.48 46.26 48.83 49.09 50.42 51.98 52.21 52.54 53.63 54.70 55.17 55.97 56.52 58.62 61.50 63.25 64.54 67.01 70.65 70.78 70.52 70.58 71.07 71.11 71.75 72.42 72.49 72.75 72.69 72.92 72.85 72.25 70.42 69.70 68.39 66.82 64.61 62.91 61.77
44.62 42.74 42.18 39.63 39.13 33.36 39.03 38.03 39.21 41.84 44.01 44.99 47.32 49.56 50.06 50.81 51.45 52.30 53.53 54.74 55.76 57.10 57.39 57.52 59.13 61.65 63.77 65.10 67.89 70.85 71.11 70.20 68.24 68.93 69.79 70.50 70.86 71.41 71.98 71.89 72.31 70.76 69.69 69.13 68.09 67.78 68.18 64.99 64.79
43.24 40.23 34.00 32.53 33.05 32.46 39.61 36.26 39.54 44.77 46.43 46.98 47.23 47.92 49.08 50.35 51.07 51.40 51.83 52.63 54.18 55.63 57.13 58.00 58.49 58.97 61.83 63.29 65.91 67.84 70.41 69.15 68.94 68.02 68.23 67.63 67.38 67.62 69.35 70.87 70.53 69.88 69.76 69.51 69.36 68.13 66.94 65.66 65.46
41.51 40.92 35.21 28.28 30.39 33.76 39.83 34.15 39.86 46.65 48.03 47.86 47.21 47.34 48.51 49.40 50.39 50.79 51.63 52.78 53.35 54.76 56.27 57.90 58.45 58.58 60.14 61.49 63.43 65.02 65.56 66.24 65.70 65.41 64.71 64.69 64.70 65.99 68.23 68.47 69.74 70.54 70.71 70.44 69.66 67.55 66.13 66.27 65.79
40.71 37.91 42.63 36.96 37.71 32.61 36.26 40.08 43.72 46.39 46.57 46.29 46.33 47.01 47.59 48.89 50.07 51.14 52.40 53.37 53.80 54.78 55.71 57.08 57.67 58.54 59.73 60.53 61.87 62.11 62.43 62.66 62.79 63.70 64.76 63.81 64.83 64.11 65.42 65.89 66.27 66.71 69.06 70.72 70.38 68.47 68.06 68.40 67.69
42.26 44.35 36.68 37.95 28.41 27.33 34.20 35.60 36.44 41.68 42.94 44.80 44.91 45.69 47.13 49.08 50.42 51.51 52.63 53.44 54.30 55.39 55.85 56.96 57.64 57.73 59.60 61.01 61.88 61.93 62.61 62.73 62.91 63.26 63.24 64.02 64.54 65.00 65.40 65.67 66.84 67.17 67.09 68.89 70.47 69.69 69.45 68.59 68.16
40.31 38.79 39.31 38.75 36.52 29.93 28.43 33.71 43.01 42.94 43.97 43.28 44.62 45.90 47.56 49.22 50.05 51.34 52.52 53.17 53.80 55.05 56.12 56.58 56.85 57.85 59.06 60.32 61.47 61.37 61.33 61.61 62.15 62.46 63.57 64.40 65.22 65.14 65.85 66.22 66.69 67.10 67.42 68.04 68.36 68.65 68.40 68.11 68.21
41.14 39.82 39.72 35.39 32.25 34.90 33.23 32.58 45.37 45.99 44.43 43.97 44.96 46.93 48.72 49.37 49.89 51.34 52.42 52.47 53.04 53.53 54.21 54.91 55.23 55.11 54.88 57.98 57.57 58.44 57.37 59.35 61.46 62.43 63.23 64.49 64.09 64.82 65.45 65.71 65.26 64.52 65.04 65.95 65.04 64.72 64.45 64.71 64.72

GFSSGP_sfc_wetblb_096.txt.gz
Wetbulb
66.96 62.95 64.01 61.91 55.69 57.09 55.53 54.64 56.38 55.47 56.23 60.00 62.02 64.81 63.54 64.53 63.21 62.17 74.17 73.54 73.85 75.83 78.17 76.99 77.22 77.77 77.85 77.90 77.77 77.37 76.86 76.61 76.61 76.72 76.46 76.59 76.76 76.81 76.79 76.51 76.01 75.27 74.42 73.50 72.47 72.04 72.59 73.23 73.56
62.26 61.91 62.44 59.57 53.83 52.97 55.29 56.02 54.57 55.84 58.06 59.98 60.41 63.10 63.55 63.01 68.10 70.75 72.34 73.53 74.97 76.24 78.11 76.94 77.14 77.42 77.64 77.32 77.56 77.11 76.89 76.81 76.74 76.74 76.56 76.74 76.68 76.79 76.31 76.26 75.63 74.82 73.81 72.78 71.71 71.60 72.41 72.93 73.71
60.71 61.18 57.89 55.92 54.28 52.76 54.15 55.80 55.85 56.90 59.24 59.73 59.44 63.30 63.30 63.34 67.10 71.17 74.62 74.54 75.32 76.46 77.47 77.34 76.79 76.89 77.36 77.36 77.28 77.11 76.93 76.91 76.86 77.01 76.86 76.74 76.53 76.53 76.28 75.98 75.61 74.35 73.37 71.93 70.89 71.06 71.44 71.65 72.09
59.57 59.79 58.21 51.92 51.77 54.14 54.87 56.25 56.51 56.75 58.49 59.61 59.63 59.03 64.71 67.51 68.00 73.08 75.10 75.25 75.65 75.93 76.72 76.35 76.58 76.73 76.86 76.73 76.95 76.85 76.85 76.96 77.04 76.91 76.76 76.53 76.36 76.25 75.77 75.73 75.33 74.68 72.99 71.33 70.97 70.89 70.75 70.35 69.83
59.78 57.52 51.83 50.90 51.64 52.81 55.24 56.69 56.94 55.82 56.89 57.81 58.92 56.98 60.34 66.13 73.80 75.23 75.37 75.27 75.41 75.74 76.29 77.52 76.37 76.43 76.63 76.56 76.46 76.62 76.75 76.55 76.68 76.79 76.51 76.28 76.10 75.80 75.42 75.53 75.01 74.40 73.27 72.14 70.89 70.82 71.32 70.85 70.09
54.18 54.85 48.85 48.03 49.79 51.96 55.08 56.91 56.55 56.19 56.38 57.44 56.96 57.55 60.21 64.49 70.78 74.90 75.93 76.13 76.00 75.42 76.07 77.04 76.28 76.18 76.10 76.23 76.32 76.19 76.19 76.14 76.40 76.30 76.20 76.13 75.80 75.29 75.27 75.03 74.63 74.24 73.48 72.65 71.44 71.29 71.21 71.12 70.79
52.21 51.36 47.50 48.02 48.81 50.97 53.36 56.34 55.13 55.19 55.47 56.41 57.82 55.69 60.76 62.75 65.24 74.27 76.00 76.63 75.91 75.65 75.82 76.99 75.98 75.96 75.80 75.87 75.75 75.80 75.60 75.66 75.88 75.91 75.63 75.69 75.12 74.99 74.70 74.71 74.34 73.88 73.55 73.09 72.28 71.20 70.95 70.91 70.48
54.35 52.60 48.14 48.85 47.45 47.78 53.02 54.53 55.43 54.90 54.17 57.39 57.50 56.87 58.11 60.79 64.43 69.58 75.47 75.88 75.20 75.08 75.23 76.65 76.21 75.24 74.98 75.20 75.74 75.53 75.53 75.60 75.50 75.37 75.20 75.10 74.62 74.33 74.10 73.79 73.78 73.23 72.75 72.48 71.94 71.04 70.82 70.54 70.39
55.12 47.84 46.54 47.11 47.73 49.31 53.39 52.33 55.22 56.19 54.35 55.25 56.55 57.19 58.93 60.51 66.91 68.06 71.90 74.33 74.30 73.74 74.77 75.96 75.72 75.45 75.12 74.77 75.40 75.28 75.30 75.34 75.45 75.43 75.14 74.52 73.98 73.56 73.23 72.36 73.69 72.99 72.46 72.00 71.80 71.23 70.89 70.16 70.37
51.25 47.80 47.77 49.99 51.23 50.31 51.99 52.31 52.21 51.71 52.55 53.15 54.47 57.39 59.08 59.32 62.51 66.52 69.02 71.29 72.98 72.98 73.75 75.23 75.94 75.72 75.26 74.21 75.73 74.80 74.41 74.03 74.08 74.27 75.11 74.79 73.55 72.60 71.47 72.44 72.39 72.31 72.08 71.90 71.74 71.44 70.87 70.31 69.13
50.93 47.90 50.37 50.56 51.45 51.37 50.18 50.95 52.65 51.13 50.55 53.06 53.32 55.50 57.46 58.00 59.71 62.47 67.33 69.27 72.14 73.58 73.90 74.71 76.29 76.77 76.00 74.57 74.83 74.16 74.06 73.75 73.36 73.80 74.83 75.05 72.70 73.16 72.53 71.86 72.01 71.36 71.84 70.55 70.70 70.65 70.00 69.61 69.92
47.41 50.17 50.57 50.61 51.16 51.05 50.45 52.03 50.41 50.47 52.31 54.32 54.92 55.92 56.28 57.14 58.67 59.29 62.14 68.89 71.74 73.24 74.04 74.67 75.90 76.51 76.73 75.27 74.37 74.42 73.51 73.66 73.34 73.69 74.79 74.36 72.92 72.69 72.37 70.77 70.87 71.29 70.67 70.39 70.94 69.89 70.60 71.04 72.13
48.18 48.94 49.64 50.55 50.07 49.88 50.37 49.13 49.69 50.50 52.97 54.58 54.60 55.21 55.58 56.76 58.18 59.98 61.29 63.80 69.83 71.23 73.82 75.03 75.72 76.43 76.43 76.08 75.06 75.05 74.86 73.90 74.49 74.50 74.83 74.21 73.13 73.19 72.31 72.01 71.45 71.23 70.62 70.30 70.42 69.92 70.17 70.98 73.01
49.25 48.70 48.86 49.71 50.01 50.37 48.60 49.27 49.97 51.06 53.17 53.18 54.00 54.34 55.32 56.00 57.50 59.62 62.12 63.75 66.68 71.06 72.84 74.97 75.57 76.35 76.30 75.95 76.49 75.37 75.33 75.26 74.83 74.50 74.62 75.04 73.94 74.24 72.45 72.10 71.84 71.29 70.80 70.25 69.75 69.68 69.87 71.39 73.18
49.08 46.75 48.70 49.57 50.05 49.26 50.60 47.40 47.83 51.62 52.79 52.02 52.85 53.66 54.46 55.61 56.50 57.67 59.82 62.70 65.53 65.58 69.40 74.36 75.97 76.66 76.29 76.05 76.50 76.90 75.78 75.29 74.67 74.84 75.84 75.53 75.46 74.66 74.32 72.66 71.79 71.39 72.24 71.95 71.26 70.64 71.14 71.98 72.63
46.66 47.03 44.28 48.36 47.74 48.61 48.39 44.25 49.91 51.69 51.48 51.09 51.87 52.69 53.36 54.78 56.14 58.17 59.87 61.13 63.45 64.75 66.42 71.67 74.12 75.15 76.66 76.42 76.45 76.11 75.86 75.23 74.82 75.04 75.53 75.76 75.61 75.34 75.15 73.35 72.54 72.82 72.60 71.67 70.73 70.14 70.04 70.96 71.83
46.03 41.77 43.26 44.35 48.10 47.65 47.16 45.23 49.47 52.08 52.23 51.52 52.51 53.09 53.36 54.51 56.55 59.04 60.66 60.97 62.24 63.73 65.67 67.74 71.71 73.94 75.40 76.68 76.42 76.33 77.10 75.84 75.06 75.06 75.11 75.54 73.31 73.67 74.64 74.27 73.67 74.66 72.01 71.26 71.00 70.16 70.29 69.50 70.66
42.40 42.08 42.60 43.38 47.15 47.67 46.76 46.57 49.41 51.45 51.42 52.00 52.72 53.30 53.78 54.49 55.84 57.71 59.32 60.53 61.85 63.02 64.73 66.37 68.37 74.58 75.16 75.87 76.01 75.17 74.92 74.95 74.83 74.82 74.80 75.37 74.67 74.19 74.82 73.91 74.29 73.50 71.26 71.59 70.87 71.53 70.15 69.64 69.06
44.29 43.36 43.09 45.75 48.12 46.48 46.66 47.25 48.75 51.14 51.39 51.30 52.11 52.86 53.69 54.61 56.98 57.97 59.14 60.29 61.88 63.98 65.53 66.22 66.73 72.54 74.37 74.02 73.97 73.82 72.90 73.60 74.01 74.29 75.13 74.96 74.59 74.82 75.91 73.46 73.63 72.33 71.10 72.70 72.22 70.85 70.25 68.94 71.33
44.30 43.16 43.68 46.39 47.69 46.67 46.71 46.48 49.32 50.60 51.09 51.89 51.93 52.63 53.49 54.58 55.72 56.90 58.15 60.01 61.29 62.48 64.11 65.82 67.12 69.16 73.04 73.67 74.06 73.94 73.68 73.77 73.78 74.12 74.99 74.97 74.69 74.87 74.42 74.23 73.63 72.57 70.86 70.89 70.21 71.11 68.22 69.53 72.14
43.99 43.24 44.06 43.78 46.70 47.75 46.57 45.11 47.47 50.18 51.57 52.11 52.85 53.76 54.29 54.39 54.85 56.43 57.31 59.82 61.21 61.73 62.80 63.52 65.81 67.69 69.56 73.88 73.73 73.96 74.01 73.58 73.03 73.45 73.67 74.26 74.44 74.58 74.18 73.91 73.56 72.42 70.34 69.27 71.08 71.68 71.43 68.98 70.06
42.15 46.72 45.65 44.50 43.61 40.57 46.75 38.74 45.93 48.59 49.42 50.90 52.03 52.98 53.79 54.33 55.22 56.41 57.26 58.56 59.77 60.47 61.84 62.89 64.19 65.96 67.28 69.33 71.80 74.56 71.55 70.40 71.47 73.09 73.43 74.14 74.69 74.40 73.77 73.53 73.42 73.28 72.20 70.64 72.00 72.24 71.89 71.31 68.43
43.86 47.07 45.47 45.17 44.11 43.85 43.88 41.66 45.30 48.77 46.93 49.33 51.80 52.88 53.52 55.09 54.85 54.89 56.17 57.55 58.69 59.95 60.91 62.73 64.09 64.72 66.32 67.74 69.02 70.62 72.26 70.79 70.99 71.72 74.38 75.66 75.66 74.37 73.23 73.52 73.14 71.91 70.99 71.20 72.76 72.53 71.11 69.32 66.71
47.89 45.69 46.12 46.25 44.39 38.15 42.92 42.47 43.04 46.31 47.98 49.30 50.89 52.05 52.97 52.80 53.94 55.14 56.62 57.37 57.87 59.13 60.00 61.60 63.10 64.21 65.39 66.04 67.36 69.45 71.37 71.86 69.42 70.92 70.74 71.73 73.32 74.06 74.60 74.38 74.48 74.76 75.28 74.38 73.01 70.35 72.13 70.33 69.26
47.05 44.26 38.35 37.59 38.31 37.58 45.51 41.80 44.22 48.72 49.34 50.56 51.00 51.51 51.91 52.81 53.51 54.15 54.64 55.54 56.90 57.75 58.81 60.01 61.64 62.92 64.55 64.62 65.34 66.54 69.10 72.07 73.34 73.24 71.20 72.14 71.20 74.65 74.82 74.67 74.36 73.67 74.53 73.60 70.21 70.92 71.59 70.76 69.56
45.99 45.59 39.29 33.02 35.31 38.22 44.26 39.11 44.38 49.19 50.80 51.80 51.28 50.85 51.84 52.61 53.57 53.83 54.48 55.52 56.09 57.16 58.34 59.63 60.81 62.03 63.75 64.24 64.28 65.36 66.47 67.97 70.02 72.61 70.89 70.59 71.08 72.79 74.32 74.00 73.99 73.89 73.60 72.92 72.64 71.52 70.95 71.41 70.02
44.89 41.45 46.62 41.14 42.41 38.21 41.17 44.41 48.28 49.78 49.58 50.33 50.62 50.23 50.87 51.86 52.96 53.05 54.23 55.60 56.49 57.27 58.60 59.89 60.55 61.79 62.72 63.69 64.21 64.40 65.04 67.68 69.16 70.89 72.48 71.58 73.11 71.24 71.97 72.72 72.69 72.86 72.69 72.50 72.68 70.86 71.00 70.86 70.57
45.26 47.29 40.32 41.12 32.84 31.31 38.67 39.52 41.09 44.97 47.61 49.19 49.21 49.32 50.58 51.80 52.12 52.98 54.52 55.85 57.06 57.77 58.76 59.96 60.75 60.75 61.97 63.22 64.31 64.05 64.85 66.31 67.58 68.56 68.01 68.49 67.62 66.44 66.99 67.54 68.31 68.68 69.21 70.47 71.65 71.16 71.27 70.88 69.77
43.15 42.02 43.23 43.14 40.85 34.25 31.72 37.32 47.03 46.05 48.08 47.98 48.92 49.70 50.42 51.09 51.97 53.12 54.35 55.92 56.65 57.47 57.91 58.67 59.52 59.39 59.85 60.40 63.33 64.12 64.35 65.06 65.26 65.28 65.23 65.55 66.20 65.50 64.97 65.03 65.20 65.73 66.50 67.78 68.78 69.45 69.79 69.22 69.83
45.12 42.88 43.41 38.88 36.66 39.13 37.40 37.74 48.78 49.18 49.82 49.16 49.13 49.78 50.47 51.50 52.79 53.69 54.06 55.07 55.42 55.62 56.26 56.49 57.56 58.13 59.51 59.35 59.57 60.75 62.55 63.91 63.77 64.21 65.11 65.77 65.48 65.72 64.93 65.24 65.20 65.37 65.58 67.06 67.07 66.53 66.99 67.38 67.31

GFSSGP_sfc_wetblb_099.txt.gz
Wetbulb
67.72 64.19 64.27 62.67 56.82 57.95 55.82 57.27 59.34 57.13 57.43 60.76 62.70 63.95 63.44 64.95 64.97 63.35 75.14 73.31 74.12 76.65 77.37 77.15 78.08 78.49 78.59 78.46 77.88 77.50 76.72 76.67 76.72 76.72 76.80 76.89 76.97 76.97 76.72 76.60 76.24 75.64 74.69 73.63 72.89 72.72 73.21 73.55 73.72
63.58 62.72 62.33 60.32 55.22 53.67 55.79 59.02 57.19 58.71 59.63 61.27 61.63 63.08 62.62 63.89 69.56 71.31 71.84 73.53 74.91 76.77 77.43 77.01 77.59 78.10 78.31 78.08 78.00 77.20 76.79 76.64 76.80 76.80 76.80 77.02 76.99 76.82 76.45 76.09 75.79 74.92 73.93 72.85 72.13 72.45 73.26 73.67 73.61
63.49 62.05 58.01 56.92 55.57 54.06 55.06 59.55 59.06 59.07 60.32 60.56 60.14 63.96 64.56 65.11 68.92 72.41 74.64 74.96 75.21 76.58 77.25 77.96 77.47 77.82 77.86 77.91 77.90 77.32 76.94 76.87 76.92 76.90 76.90 76.92 76.92 76.69 76.59 76.42 75.71 74.32 73.42 72.21 71.61 72.29 72.79 73.28 73.79
59.71 59.88 58.61 53.57 53.71 57.11 57.88 60.57 59.63 58.96 60.01 60.54 60.77 60.72 65.82 69.16 69.96 73.91 74.96 75.27 75.70 75.59 76.42 76.54 77.06 77.39 77.62 77.63 77.64 77.42 77.34 77.22 77.27 77.12 76.90 76.77 76.59 76.64 76.26 76.14 75.46 74.58 73.02 71.52 71.25 71.25 71.55 71.87 72.05
59.27 56.87 53.06 52.76 53.48 57.15 58.39 59.78 59.38 58.66 59.03 59.34 59.86 58.83 62.54 69.83 72.97 74.16 74.78 75.15 75.64 75.40 75.73 77.75 76.82 77.21 77.42 77.47 77.52 77.39 77.22 77.19 77.29 77.22 76.87 76.59 76.61 75.86 75.69 75.52 74.85 74.33 72.87 71.53 70.68 70.44 70.67 70.78 70.25
54.47 55.05 49.75 49.87 52.91 56.57 57.54 59.60 59.21 59.10 59.22 59.25 58.49 58.61 61.99 68.15 72.23 73.41 74.41 75.33 75.85 75.25 75.85 77.74 76.33 76.76 76.81 77.11 77.03 76.98 76.91 77.01 77.11 77.01 76.79 76.46 75.89 75.49 75.17 75.07 74.73 74.28 73.56 72.45 71.19 70.77 70.63 70.27 69.94
52.16 51.96 48.44 49.39 51.39 54.24 55.97 59.47 57.65 57.94 59.13 58.15 59.92 57.46 62.61 63.82 66.53 73.99 74.70 75.73 75.59 75.62 75.30 76.88 75.57 76.38 76.55 76.60 76.41 76.39 76.34 76.35 76.50 76.32 76.27 76.10 75.26 74.99 74.74 74.59 74.34 73.74 73.28 72.76 71.71 70.86 70.27 69.63 69.21
53.82 51.58 48.59 50.25 48.56 49.81 55.44 57.04 58.21 57.80 56.92 60.02 59.27 57.05 58.70 62.25 65.21 68.18 74.16 74.40 74.78 75.07 75.12 76.38 75.41 74.72 74.94 75.83 76.30 76.19 75.96 76.09 75.99 76.07 75.84 75.69 75.03 74.59 74.17 74.03 73.57 72.95 72.41 72.34 71.74 70.89 70.38 69.98 70.13
55.64 49.71 47.60 48.07 49.20 50.97 54.79 53.36 56.40 58.66 56.64 57.86 58.77 58.85 61.17 61.86 63.35 66.45 69.79 72.59 73.08 73.54 74.82 76.32 75.01 74.86 74.45 74.02 75.39 75.64 75.73 75.83 75.74 75.62 75.50 74.88 74.02 74.53 73.76 72.60 73.96 73.00 72.18 71.79 71.75 71.18 70.86 70.49 70.80
52.13 48.71 48.70 51.83 52.03 51.95 53.63 53.86 54.66 54.39 54.74 54.70 56.41 58.81 59.93 60.94 61.76 64.59 66.76 68.74 71.52 72.21 73.39 75.62 76.01 75.58 75.03 73.92 75.82 73.91 73.79 74.40 74.58 74.60 75.14 74.40 74.06 73.94 71.71 73.10 73.74 72.74 72.19 71.91 71.75 71.63 71.20 70.46 68.05
52.45 48.50 51.79 52.06 52.69 53.42 52.34 52.76 54.59 52.69 51.56 54.01 54.27 56.61 59.15 59.76 61.05 61.60 64.78 67.07 69.65 72.17 73.21 74.31 76.50 77.63 75.65 74.50 74.73 74.70 72.82 72.79 73.19 74.07 75.75 76.06 74.16 73.49 71.40 72.09 71.56 71.61 71.80 69.91 70.49 70.19 69.43 68.70 69.26
49.42 51.98 52.21 52.74 52.94 52.33 51.37 52.55 51.97 52.83 53.41 55.43 56.18 57.00 57.42 57.68 59.10 60.33 62.18 64.81 67.53 71.28 73.15 74.09 76.23 77.93 78.12 75.49 74.26 74.95 72.65 73.12 72.56 72.42 76.63 76.48 74.28 75.03 74.45 71.15 72.20 72.46 70.02 70.45 71.07 69.40 71.71 70.89 71.17
50.07 50.94 51.95 52.50 52.34 52.43 52.50 50.70 50.93 51.45 53.93 54.87 55.51 56.01 56.20 56.98 58.59 60.78 62.41 63.23 66.61 69.59 72.97 74.15 75.82 78.18 78.86 78.88 75.48 75.45 74.90 73.70 73.99 73.61 74.98 74.88 73.91 74.84 73.39 73.64 71.16 71.53 70.41 70.65 70.15 70.56 71.02 70.81 71.09
51.75 50.94 51.15 51.39 51.31 51.72 50.16 50.54 51.31 52.26 54.16 54.26 54.68 54.84 55.09 56.18 57.63 60.05 61.82 62.62 64.98 70.55 72.51 73.66 75.28 78.20 77.68 77.44 77.96 76.99 77.10 74.53 74.16 73.85 74.39 75.02 74.58 75.36 72.56 73.15 71.91 71.27 71.47 70.38 70.75 71.31 70.95 70.93 71.21
51.11 48.55 50.14 50.48 50.92 50.39 51.80 48.72 49.51 53.02 54.03 53.37 54.01 54.86 55.65 56.30 57.31 58.42 60.55 63.31 65.63 66.97 70.60 72.53 75.07 76.88 78.04 77.70 77.13 77.48 75.57 75.35 74.26 74.34 77.25 76.72 76.66 76.59 74.55 72.85 72.69 72.54 73.98 74.40 72.83 71.95 71.69 70.14 71.42
48.81 49.12 45.63 50.21 51.19 51.29 50.35 45.81 51.31 54.11 53.03 52.86 53.31 54.05 54.79 55.91 56.88 58.60 60.39 61.78 63.65 65.51 66.61 68.19 71.70 75.03 77.91 77.89 77.39 76.83 76.36 75.76 75.09 75.36 76.40 76.85 75.27 75.99 76.30 72.75 72.27 73.30 73.43 72.49 71.62 70.04 69.18 69.50 70.31
48.14 43.89 45.79 47.10 50.94 49.35 48.66 46.95 50.89 53.44 53.16 52.83 53.73 54.20 54.55 55.59 57.30 59.24 59.78 61.18 62.60 64.58 66.10 66.96 69.44 71.66 75.21 78.61 77.34 77.69 78.61 77.11 76.47 76.28 76.10 77.01 76.85 76.21 74.44 73.55 72.95 75.94 72.98 72.70 71.26 70.73 70.89 70.37 70.48
44.32 45.07 45.84 45.72 48.91 49.25 47.88 47.61 50.34 52.62 52.72 52.61 53.92 54.54 54.85 55.32 56.41 58.90 60.17 61.13 62.15 63.93 65.90 66.79 67.19 71.47 74.83 75.35 77.70 75.83 75.89 77.27 77.31 76.60 76.17 77.69 77.15 76.21 76.07 74.39 72.60 75.37 72.29 71.96 71.83 72.21 71.64 70.66 70.49
47.40 45.96 45.76 47.71 49.67 48.19 48.17 48.67 50.23 52.46 52.82 52.66 53.32 54.12 54.83 55.64 57.58 58.75 59.84 61.10 61.86 63.90 65.44 67.11 67.66 69.90 70.33 69.84 72.17 73.56 73.53 75.37 75.83 76.26 77.42 77.33 77.03 75.85 76.07 74.09 75.16 73.54 73.13 73.47 74.38 72.85 72.89 70.47 72.07
47.00 45.20 45.27 47.73 49.57 49.12 48.30 47.95 50.55 51.90 52.58 53.24 53.49 54.04 54.74 55.74 56.75 57.93 59.21 60.32 60.22 63.31 65.02 66.12 66.94 69.06 69.69 69.48 73.03 73.50 74.50 74.37 75.28 75.32 77.01 77.07 76.61 76.97 75.68 75.59 75.10 74.55 72.22 73.70 73.44 72.87 69.83 69.66 71.23
46.62 45.05 45.52 45.34 48.50 49.59 48.22 46.49 48.48 51.39 52.62 53.38 54.23 54.95 55.36 55.36 55.89 57.31 57.98 59.19 61.27 62.31 63.83 64.53 66.16 67.38 69.12 71.71 72.59 75.37 74.88 74.78 73.57 73.94 74.35 75.73 76.45 76.20 76.13 76.91 75.98 75.66 74.52 72.58 73.77 72.80 71.05 67.69 70.36
44.01 47.98 46.65 45.76 44.97 41.82 48.69 41.24 48.11 50.54 51.25 52.48 53.91 54.56 54.77 55.42 56.68 57.49 58.15 59.42 60.36 61.05 62.13 63.82 65.64 66.88 67.92 70.09 70.05 71.50 71.18 70.54 71.68 72.38 73.45 75.30 76.57 76.24 76.16 76.63 76.26 76.52 74.11 73.14 73.42 73.06 71.68 71.24 68.51
45.26 48.50 47.31 46.88 45.32 45.18 45.37 43.29 46.71 50.68 49.60 51.32 53.20 54.24 55.23 56.89 56.91 56.63 57.29 58.46 59.51 60.35 61.07 62.46 64.46 65.74 67.12 68.67 70.32 68.28 69.49 69.68 71.18 72.19 74.17 75.57 76.77 76.39 74.93 76.32 76.16 75.40 74.13 73.66 73.68 73.42 72.94 71.53 69.52
49.22 47.31 47.37 47.44 45.84 40.05 44.94 44.76 45.19 48.18 50.41 52.25 53.92 53.75 54.75 55.46 55.70 56.60 57.46 58.55 58.77 59.62 60.23 61.39 62.56 65.34 65.64 66.69 67.51 70.15 70.25 69.96 69.60 71.27 71.40 72.39 72.90 75.33 76.37 75.49 75.66 75.82 74.82 74.66 73.62 74.35 73.36 72.88 71.28
48.22 45.55 39.56 39.10 39.65 39.43 47.31 45.11 47.16 50.82 52.11 52.29 52.13 53.25 55.20 55.49 55.27 55.74 56.01 56.58 57.68 58.35 59.15 59.93 60.95 61.68 64.27 64.52 66.15 67.24 69.24 70.80 71.15 71.24 70.36 71.67 71.64 72.18 75.07 75.58 74.14 74.71 74.96 74.49 73.59 73.87 73.72 73.88 71.61
46.66 45.37 39.28 33.49 36.04 40.61 46.80 42.50 46.84 52.31 52.97 53.69 53.46 54.26 54.39 54.54 55.08 55.36 55.84 56.20 56.58 57.89 59.12 59.26 59.93 60.65 61.82 63.08 64.39 66.59 67.94 65.64 66.58 69.84 69.90 70.60 70.86 72.45 76.07 75.66 75.25 75.03 75.21 75.02 75.10 73.64 73.25 73.88 72.50
45.88 42.36 47.68 42.40 43.96 40.12 43.21 46.72 50.63 52.58 51.89 52.28 53.05 53.42 53.38 53.95 54.48 54.84 55.56 56.32 57.14 58.11 59.01 59.56 59.91 60.62 61.80 62.56 64.21 65.81 66.20 67.73 66.98 69.17 71.96 71.46 72.58 71.77 71.92 74.66 74.43 74.69 74.10 74.04 74.48 72.40 73.14 73.18 73.18
46.23 48.61 40.41 42.54 34.54 33.49 39.41 42.37 44.13 48.10 49.42 51.39 51.54 52.71 53.57 53.59 54.10 54.46 54.89 55.88 57.14 58.37 59.08 59.81 60.21 60.12 61.26 61.99 62.69 64.11 65.71 66.22 66.81 69.00 70.12 71.27 72.32 73.13 72.51 72.60 73.40 73.48 73.27 70.64 72.85 72.47 72.62 72.59 72.55
44.52 43.29 43.91 43.79 42.03 35.63 34.80 39.77 49.83 48.78 50.05 50.76 51.46 52.88 53.05 53.18 53.30 53.48 54.59 56.05 56.76 57.98 58.04 58.70 58.74 59.13 60.15 61.34 61.74 62.05 63.44 64.96 65.83 66.65 67.98 69.73 71.07 71.73 67.99 69.94 70.93 71.05 71.48 72.30 71.96 71.87 70.84 70.32 71.09
47.24 44.41 44.19 39.22 38.37 41.47 40.02 40.00 51.47 51.28 52.04 52.42 51.70 52.77 53.18 53.18 52.66 53.97 55.14 55.47 55.64 56.82 57.34 57.34 58.20 58.15 58.63 59.11 60.12 61.43 61.58 62.99 61.16 62.07 65.69 67.58 66.91 66.66 66.21 66.84 66.95 66.93 66.88 69.46 68.48 67.14 67.12 67.51 68.09

GFSSGP_sfc_wetblb_102.txt.gz
Wetbulb
65.65 63.07 62.92 60.69 54.81 55.71 53.15 55.37 58.52 57.63 56.99 60.60 61.90 61.29 61.95 65.57 65.29 62.94 74.53 73.80 75.76 75.11 76.84 77.62 78.25 78.53 78.18 77.87 77.69 77.01 76.58 76.78 76.76 76.61 76.81 76.98 77.11 76.91 77.04 76.84 76.64 76.02 74.64 74.08 73.48 73.43 73.61 74.00 74.20
62.08 61.35 61.26 57.39 52.99 51.28 53.25 58.47 57.79 59.42 59.71 60.97 60.93 61.53 61.90 63.33 69.80 70.63 70.14 74.34 75.76 75.60 76.41 77.03 78.17 78.30 78.35 77.85 77.57 76.96 76.76 76.75 76.83 76.73 76.86 76.96 77.03 76.89 76.49 76.49 76.28 75.15 73.89 73.03 72.93 73.32 73.69 73.68 73.90
61.46 61.77 56.01 53.98 53.43 51.05 53.47 58.90 60.03 59.50 60.40 60.54 59.66 62.44 64.52 64.66 70.23 71.80 72.56 74.57 75.66 75.29 76.01 77.51 78.04 78.20 78.07 78.02 77.57 77.01 76.76 76.80 76.86 76.88 76.96 76.96 76.88 76.70 76.35 76.26 75.86 74.63 73.29 72.39 72.28 73.23 73.86 73.91 73.70
59.01 57.78 56.75 50.86 50.81 55.45 56.66 59.45 61.77 59.18 60.23 60.83 60.87 60.90 65.83 70.15 70.49 73.40 74.01 73.98 75.11 74.88 75.69 76.96 77.68 77.91 78.02 78.04 77.74 77.21 76.98 77.03 76.98 77.01 76.98 76.83 76.61 76.42 76.40 75.93 75.56 74.77 73.45 72.49 72.65 73.09 73.39 73.35 73.23
57.87 55.42 50.55 50.58 52.08 55.46 58.33 60.63 60.53 58.73 59.32 59.58 59.91 59.50 64.30 69.89 72.74 73.28 73.56 74.21 73.92 74.74 77.12 76.67 77.50 77.68 77.94 78.05 77.81 77.41 77.13 77.08 77.06 77.19 76.96 76.73 76.58 76.20 75.95 75.73 75.18 74.54 73.51 72.56 72.01 71.98 72.03 72.40 72.17
52.49 53.60 47.55 47.43 51.20 55.22 57.75 60.18 59.64 58.99 59.96 59.80 58.97 59.11 63.91 70.50 71.01 71.69 73.23 73.98 74.46 75.15 76.99 76.25 77.06 77.47 77.53 77.73 77.58 77.30 77.03 76.93 77.10 77.01 76.91 76.65 76.24 75.92 75.48 75.33 75.03 74.53 73.42 72.83 71.99 71.43 71.04 71.32 71.17
50.79 49.91 47.22 48.24 49.70 52.53 55.95 59.91 57.94 58.12 58.61 59.04 60.65 57.32 62.24 65.71 71.13 72.93 73.11 74.16 74.47 75.27 77.10 75.97 75.20 76.67 77.19 77.01 77.06 76.78 76.68 76.77 76.74 76.57 76.39 76.29 75.94 75.52 75.28 75.01 74.48 74.07 73.36 72.88 72.40 71.75 70.98 70.49 70.18
52.23 50.57 47.73 48.74 48.19 48.75 54.32 57.71 58.82 58.04 57.20 60.68 60.58 56.46 57.50 62.17 65.24 69.84 72.53 72.86 73.18 73.66 76.32 75.29 75.09 74.91 75.80 76.23 76.85 76.63 76.63 76.53 76.41 76.33 76.26 75.91 75.74 75.27 74.90 74.66 74.33 73.88 73.19 72.83 72.31 71.59 71.42 71.01 70.61
54.11 47.27 45.33 46.61 47.63 50.06 54.44 53.09 57.12 59.43 57.82 58.88 58.88 58.99 60.75 62.12 62.88 65.28 68.67 71.30 71.69 72.60 75.29 74.99 73.33 74.03 74.11 74.55 76.11 76.31 76.52 76.53 76.38 76.37 76.03 74.94 74.17 74.10 73.77 73.32 73.88 73.98 73.43 72.83 72.56 72.13 71.66 71.32 71.35
50.14 46.71 47.25 51.22 51.75 51.09 52.94 53.39 54.04 53.63 54.13 56.00 57.24 59.22 60.17 60.95 61.12 61.74 64.67 68.38 70.14 71.05 72.94 75.18 73.88 73.56 73.29 72.92 75.03 75.25 75.63 75.59 75.51 75.38 75.28 74.44 73.53 73.83 72.42 72.55 73.89 73.94 73.54 73.09 72.91 72.67 72.27 71.37 67.42
50.12 47.34 50.44 50.83 52.44 52.97 52.19 52.18 54.39 53.33 52.16 54.75 54.30 55.71 58.35 59.19 61.17 61.14 61.79 65.67 68.38 71.43 71.89 74.74 75.47 74.96 73.74 73.03 74.84 73.48 73.19 73.87 74.56 75.05 75.29 74.56 73.08 73.49 71.91 72.07 70.81 71.73 72.74 70.30 71.22 70.62 69.55 67.64 67.20
47.83 50.70 51.41 51.74 52.80 51.95 51.08 52.75 51.40 52.53 52.99 55.20 55.71 56.46 56.76 57.48 59.35 59.36 60.59 62.38 64.94 70.03 69.82 74.68 76.08 76.06 75.16 74.65 74.57 74.34 72.22 72.12 72.09 72.68 73.98 73.87 72.92 72.65 71.21 71.13 69.77 70.07 69.75 67.89 68.35 67.71 67.91 67.64 68.50
48.77 50.10 51.49 52.18 52.05 52.08 52.49 50.81 51.04 51.74 54.28 55.17 55.27 55.40 55.68 56.78 58.37 60.02 60.54 61.77 65.36 66.70 73.35 71.95 74.40 76.66 75.21 76.93 77.61 74.86 72.68 72.34 71.89 72.47 72.52 72.77 72.96 73.23 72.13 70.37 71.08 70.34 69.03 68.15 67.69 68.74 68.56 69.77 69.82
50.85 50.58 50.58 51.60 51.18 51.39 50.01 50.07 50.55 51.42 53.91 53.76 54.04 54.09 54.69 55.82 56.98 58.76 62.00 64.20 66.93 69.23 73.07 72.88 72.63 70.82 75.79 75.45 78.01 79.04 75.09 73.77 72.73 72.49 71.89 72.96 74.32 72.68 72.44 72.47 71.15 70.45 68.87 69.42 68.54 69.72 69.90 69.42 69.03
50.99 48.33 49.52 50.04 50.44 49.71 51.18 47.88 48.51 52.34 53.37 52.83 53.46 54.34 54.93 56.13 56.24 57.66 61.03 65.92 67.57 66.93 74.99 71.13 72.22 64.43 66.29 76.47 77.33 77.32 77.35 75.13 74.06 72.63 73.21 72.96 73.36 74.26 73.15 71.60 72.45 71.46 72.57 72.39 70.93 71.34 71.51 70.86 70.56
48.52 48.39 44.30 49.24 50.36 50.58 49.84 44.34 50.07 53.28 52.99 52.09 52.65 53.72 54.46 56.10 56.74 59.25 61.69 64.83 72.02 68.24 70.64 74.42 72.11 72.20 74.99 77.17 76.75 76.49 75.73 76.28 74.16 75.47 74.88 73.95 72.96 73.74 74.36 72.01 70.70 71.55 73.05 71.73 70.78 69.48 68.96 68.40 68.09
48.02 43.04 44.68 46.44 50.67 50.18 49.16 46.09 50.23 52.79 52.83 52.24 53.42 53.90 54.18 55.48 58.27 60.83 62.47 65.82 69.46 67.93 69.06 69.54 71.17 70.80 75.81 77.14 77.03 77.07 77.06 76.22 76.06 74.81 74.93 75.36 74.09 73.65 74.00 71.86 70.97 71.89 70.85 70.76 69.59 70.26 68.18 67.01 67.78
42.88 44.07 45.24 45.25 48.95 49.30 47.18 46.63 49.24 51.47 52.27 52.38 53.22 54.21 54.89 55.57 56.98 61.27 62.04 63.44 64.99 65.41 66.80 67.83 68.54 70.31 72.97 73.47 76.95 76.28 76.00 76.09 76.87 75.84 74.48 75.59 75.17 74.16 73.30 73.04 72.08 71.90 70.15 69.67 69.76 68.87 69.41 68.24 67.92
46.66 45.54 45.02 47.76 49.90 48.20 47.63 47.94 49.22 51.67 51.86 51.79 52.81 54.19 55.65 56.31 58.36 60.52 62.75 63.93 65.09 65.88 67.25 68.75 69.33 71.02 71.32 70.55 71.57 74.39 73.01 74.12 75.30 75.51 76.76 74.64 74.73 75.01 74.15 73.55 73.10 74.13 70.88 69.80 69.69 68.91 69.93 68.85 70.06
47.35 45.23 44.84 47.43 49.38 48.34 47.68 47.18 49.87 51.31 52.06 52.84 52.86 54.41 55.25 56.54 57.41 59.20 62.29 65.18 64.42 64.46 66.43 69.31 70.52 71.30 71.66 71.33 70.95 70.07 72.83 73.83 73.94 75.18 75.34 74.87 75.14 74.97 75.26 74.27 72.97 73.42 73.06 72.15 71.60 70.45 68.54 69.94 68.61
46.67 45.25 45.25 44.87 47.68 48.91 47.79 45.66 47.88 50.77 52.44 53.38 54.21 55.59 55.93 56.49 57.05 59.59 61.45 63.07 63.72 65.08 66.53 67.66 69.59 70.69 70.81 71.13 69.36 69.23 73.53 73.74 71.46 73.24 75.07 75.53 75.19 74.92 74.84 74.92 73.50 72.92 72.66 70.46 71.52 71.52 69.65 66.97 68.49
43.19 48.19 47.23 45.83 44.17 40.25 47.59 39.62 47.29 49.65 51.18 52.89 53.93 54.52 54.76 56.09 57.67 59.36 60.50 61.47 62.98 63.30 65.87 66.40 68.24 69.07 67.57 69.90 68.26 69.37 68.15 66.76 69.96 71.02 72.92 73.76 75.02 74.58 74.72 74.28 74.32 72.91 73.15 70.63 71.29 71.33 70.45 68.46 65.79
45.20 47.94 46.75 46.56 44.76 44.07 44.15 41.47 44.80 49.43 48.28 51.17 53.97 55.04 56.03 56.89 57.78 57.40 57.89 59.98 60.40 62.70 64.42 66.32 67.22 68.27 68.28 69.85 70.54 67.73 66.39 66.14 68.05 68.89 69.58 71.68 73.90 73.58 74.39 74.09 73.47 73.86 73.37 72.86 71.90 71.50 70.71 69.37 67.12
48.87 46.65 46.53 46.31 44.09 38.55 42.73 42.55 42.83 46.61 49.68 52.40 54.54 54.75 55.42 56.31 56.59 56.95 58.10 59.18 60.71 61.05 62.17 64.86 65.81 65.98 68.20 67.43 68.35 68.96 68.04 66.96 66.22 66.59 67.12 68.09 70.91 72.62 72.95 72.57 73.47 73.58 73.55 72.99 72.12 71.97 71.01 69.69 68.09
47.02 44.20 36.59 35.72 37.19 36.82 45.15 42.82 45.96 51.66 52.67 52.84 53.28 54.00 55.37 56.16 56.01 56.06 56.35 56.45 60.03 60.47 61.59 62.19 62.83 63.28 65.61 65.58 65.36 66.85 67.48 68.33 66.98 66.65 66.30 66.49 67.43 69.77 71.10 71.81 72.63 73.22 73.40 73.18 72.41 71.14 70.56 70.12 69.06
45.17 44.61 38.84 31.92 34.95 38.35 45.55 41.19 45.66 52.91 54.09 54.41 54.59 55.00 55.45 55.44 55.68 55.52 55.79 57.30 56.85 58.78 61.54 61.01 60.77 61.53 62.96 63.97 64.16 66.63 67.93 65.39 65.27 65.74 66.33 66.23 65.85 66.43 68.45 70.12 71.43 71.63 72.03 72.20 72.42 70.79 71.34 70.97 70.33
45.70 42.55 47.14 40.63 41.89 38.62 41.47 45.38 49.93 52.44 52.72 53.76 53.43 54.09 54.34 54.37 55.57 54.82 55.59 57.34 58.38 58.86 61.35 62.08 61.12 62.05 62.55 63.52 64.11 66.15 64.58 66.05 65.69 66.43 66.34 65.80 67.08 68.69 67.16 69.12 70.40 67.96 61.64 67.06 71.05 70.56 70.16 69.79 70.18
47.53 47.99 39.55 41.03 32.88 32.34 39.24 41.45 42.84 48.23 49.83 51.26 52.26 53.20 54.24 55.48 54.86 54.95 55.46 57.37 58.11 58.68 61.18 62.07 62.17 60.57 60.73 61.54 62.50 63.02 63.36 62.95 64.76 65.29 65.65 66.12 66.90 67.52 68.79 69.85 69.80 68.08 67.27 67.84 71.05 70.50 69.47 68.03 67.28
45.52 43.54 44.04 43.26 40.43 33.79 33.41 38.84 51.43 48.68 50.73 50.83 52.06 53.36 54.22 54.60 54.33 54.55 54.78 55.61 56.32 58.03 57.01 60.39 60.40 59.78 60.28 60.15 61.53 61.23 61.35 62.68 62.99 64.39 63.86 64.30 63.34 66.20 67.42 68.43 69.78 69.52 68.80 68.86 67.55 67.41 65.87 65.44 64.84
48.11 45.59 44.64 38.61 37.28 40.66 39.30 38.63 51.36 52.10 51.58 52.84 52.13 53.56 54.23 55.01 54.28 53.92 53.68 54.81 55.36 56.12 56.46 56.85 60.22 58.69 58.76 59.26 59.85 60.31 61.05 62.39 61.97 62.05 62.05 60.86 60.01 59.32 57.66 59.86 66.50 68.43 68.10 66.86 63.39 63.85 65.65 64.90 64.19

GFSSGP_sfc_wetblb_105.txt.gz
Wetbulb
63.91 59.22 58.53 55.78 47.19 46.68 44.83 49.17 55.24 54.51 55.04 56.10 59.10 58.08 63.60 65.19 64.52 58.96 71.34 74.29 74.94 75.58 76.82 77.19 77.49 77.72 77.57 77.24 76.98 76.60 76.46 76.62 76.62 76.80 76.75 76.85 77.17 77.23 76.95 76.63 76.24 75.91 74.76 74.02 73.48 73.59 73.73 74.13 74.19
59.76 58.98 56.49 52.03 43.84 40.44 45.89 53.00 55.17 55.15 55.64 57.40 57.97 59.34 64.59 63.89 68.47 68.89 70.18 74.38 75.15 75.61 75.65 76.56 77.47 77.27 77.42 77.21 76.60 76.35 76.59 76.64 76.47 76.64 76.80 76.85 76.82 76.85 76.88 76.63 76.11 75.21 73.89 73.38 73.19 73.50 73.81 74.10 74.24
60.08 58.41 49.75 46.25 43.80 43.46 45.11 55.01 57.67 58.12 58.18 57.48 56.60 61.40 64.06 65.28 69.27 68.54 72.78 74.46 74.68 74.23 75.38 76.97 77.67 77.22 77.34 77.31 76.71 76.35 76.57 76.64 76.62 76.67 76.95 76.85 76.57 76.46 76.37 76.18 75.76 74.65 73.11 72.69 73.08 73.55 74.30 74.32 73.93
54.38 52.20 50.17 43.47 42.61 48.15 51.19 54.73 58.72 60.75 57.45 57.81 57.86 60.59 65.84 70.39 70.82 71.28 73.52 74.31 73.61 73.21 75.91 77.47 77.60 77.33 77.22 77.22 76.83 76.55 76.67 76.72 76.75 76.80 76.80 76.85 76.64 76.43 76.03 75.95 75.31 74.77 73.33 72.42 72.71 73.78 74.10 74.28 74.05
51.70 48.72 41.76 40.95 44.32 50.81 53.88 56.08 59.94 58.88 57.97 56.27 57.80 61.77 63.45 69.89 71.75 71.92 73.26 73.74 72.55 73.72 75.41 76.75 77.34 77.55 77.54 77.52 76.91 76.73 76.73 76.49 76.60 76.83 76.95 76.62 76.21 76.05 75.96 75.72 75.21 74.50 73.51 72.95 72.32 72.79 72.47 72.15 71.74
45.80 47.21 38.80 38.43 44.30 50.68 53.85 55.68 57.85 56.83 57.40 57.28 56.72 62.14 62.89 69.36 69.62 70.33 71.96 72.78 73.02 74.63 75.10 75.94 77.33 77.39 77.35 77.33 77.03 76.65 76.37 76.32 76.45 76.42 76.57 76.43 76.10 75.93 75.63 75.39 74.96 74.45 73.28 72.79 72.07 71.59 71.02 70.42 70.10
44.24 41.92 39.29 41.86 44.60 47.81 50.27 54.36 55.85 56.02 56.55 55.92 57.59 58.24 58.74 62.48 68.46 69.99 70.61 72.78 74.94 74.99 74.33 74.79 75.88 76.99 77.34 77.15 76.88 76.50 76.40 76.30 76.13 76.08 75.98 76.10 75.78 75.50 75.46 75.04 74.68 74.08 72.96 72.40 71.88 71.27 70.48 69.92 69.35
46.43 42.81 39.62 41.49 43.35 43.93 50.84 51.70 54.76 54.90 55.48 59.10 59.85 54.44 52.70 59.14 62.59 69.49 69.60 73.97 74.05 74.48 73.64 73.42 74.51 75.47 75.48 76.04 76.92 76.61 76.49 76.35 76.17 76.02 76.02 75.74 75.63 75.20 75.08 74.17 74.32 74.13 73.46 73.04 72.47 71.80 70.97 70.25 69.65
47.49 38.75 37.35 41.06 43.43 45.53 50.42 48.72 51.80 57.22 55.82 56.60 56.95 57.16 58.88 60.35 60.84 60.12 65.24 69.26 73.30 73.86 72.85 72.50 72.89 73.31 73.68 74.62 76.13 76.43 76.86 76.57 76.17 76.07 75.91 74.69 73.60 73.73 74.02 73.54 74.32 74.16 73.56 73.12 72.74 72.20 71.36 71.01 70.74
43.35 39.61 41.34 46.95 48.16 46.72 49.38 48.31 49.23 51.17 52.68 53.48 55.21 57.97 58.75 58.53 56.59 56.38 57.88 66.13 68.10 71.88 71.82 71.80 71.97 72.25 71.83 74.82 74.60 74.35 75.28 75.19 74.91 74.98 74.70 73.23 71.78 72.14 72.99 73.00 74.10 74.06 73.54 73.11 72.87 72.59 72.12 71.68 66.38
43.46 41.84 46.78 48.53 49.77 49.20 47.74 48.31 49.85 49.04 47.78 51.70 53.91 55.09 55.35 56.04 56.16 56.53 56.95 58.46 66.35 71.91 72.08 71.26 71.46 71.64 71.06 71.35 73.86 73.77 73.85 73.99 73.92 73.68 73.79 72.50 71.90 71.96 71.95 69.86 71.45 70.79 72.66 70.03 70.84 70.24 69.13 67.11 65.42
42.44 46.79 48.09 48.99 50.62 48.66 47.46 50.28 49.34 48.62 48.98 52.52 52.71 53.73 53.71 52.81 52.73 55.02 55.61 56.61 56.99 61.29 71.66 71.10 71.48 71.03 70.53 70.78 72.46 71.97 72.39 72.91 73.17 73.38 73.42 72.61 70.98 69.33 70.54 69.32 68.59 68.95 69.82 67.52 67.20 67.07 66.76 65.59 64.51
43.87 46.25 48.82 49.87 49.03 47.28 49.88 48.67 48.42 47.79 51.72 53.12 52.81 53.12 51.91 51.74 52.68 53.06 54.31 55.77 55.91 60.95 70.25 71.55 71.82 70.98 71.03 71.28 71.74 70.98 70.26 71.02 71.04 71.95 72.44 73.09 71.34 69.51 68.60 68.67 67.48 67.94 67.77 66.57 65.04 65.14 65.23 65.09 64.69
46.29 47.18 47.74 48.38 47.79 47.35 46.66 47.38 48.42 49.68 51.79 51.49 51.99 50.87 50.57 51.17 52.72 52.46 54.26 55.21 58.18 67.95 67.94 70.70 71.49 72.23 72.95 72.95 72.54 71.89 70.64 70.39 70.11 70.16 70.58 71.69 71.81 70.08 70.03 67.72 67.48 67.74 67.35 66.79 64.11 65.34 65.04 64.79 65.83
46.92 43.50 45.80 46.97 46.84 46.33 48.00 44.57 45.35 49.03 50.72 49.93 50.83 51.79 51.87 51.97 53.03 52.00 52.88 54.62 58.02 62.25 68.08 68.66 69.30 70.78 70.68 69.91 72.40 74.31 73.74 70.88 69.42 69.68 69.77 70.47 70.81 70.44 70.13 68.54 68.46 68.18 67.11 66.29 65.61 64.10 65.24 65.85 65.41
44.23 41.99 36.83 43.82 47.12 47.90 45.85 40.28 47.71 50.29 49.18 48.99 50.36 50.97 52.24 52.41 52.84 53.28 54.47 55.51 56.32 59.81 66.48 69.20 68.11 65.90 65.24 63.76 71.06 73.78 73.78 73.53 71.23 70.48 70.17 70.77 70.13 71.24 70.80 69.56 68.75 68.64 68.45 67.30 66.39 65.48 66.51 65.66 65.14
40.87 36.37 39.38 42.72 47.69 47.33 46.01 41.68 47.51 49.55 49.20 49.56 49.51 50.04 50.56 50.41 52.06 53.03 55.35 57.91 59.45 59.59 59.88 62.08 65.69 63.43 63.90 68.79 72.57 73.16 73.10 72.82 73.36 71.13 71.32 71.15 70.78 70.74 71.40 70.15 68.93 68.50 67.54 67.74 66.82 66.04 66.58 64.99 64.14
37.33 38.38 41.00 41.72 45.35 45.73 43.83 43.20 46.47 47.89 49.46 49.05 49.36 50.11 50.72 51.24 52.02 53.52 54.55 56.96 57.68 58.45 60.11 61.38 62.10 64.14 66.50 69.63 72.30 73.51 72.50 72.99 72.81 72.70 71.79 72.07 71.05 70.70 70.78 70.58 69.68 69.23 68.48 67.55 66.96 65.22 64.56 63.85 64.39
43.50 42.04 40.60 43.31 46.45 44.42 41.57 42.92 45.16 47.51 46.42 47.06 47.97 49.02 49.82 50.88 52.83 54.67 56.01 56.03 58.23 59.45 59.22 59.21 59.32 62.12 63.72 64.03 62.93 70.59 70.93 71.90 72.92 73.53 73.03 72.29 72.60 71.12 70.56 70.80 69.96 69.28 68.00 67.83 66.97 65.60 64.26 64.42 64.23
43.89 41.40 40.80 43.98 46.66 43.90 42.68 42.57 45.58 47.01 46.63 47.46 48.01 48.48 49.48 50.95 52.13 54.03 54.98 56.79 57.36 57.10 59.11 61.27 60.72 60.10 61.28 62.37 64.28 64.96 65.84 69.72 72.38 73.37 73.53 74.02 73.10 72.59 71.15 70.33 70.15 69.00 69.22 67.87 66.83 66.85 65.51 65.24 65.45
42.92 41.18 41.67 41.77 45.19 44.87 42.60 40.49 42.91 47.05 47.78 48.83 49.37 49.50 50.37 50.63 50.87 52.39 55.79 55.42 56.55 56.90 57.46 59.94 59.06 61.21 60.29 62.03 62.56 62.17 63.11 64.87 66.90 68.63 70.78 72.63 73.66 72.64 72.50 71.36 70.79 70.77 68.69 69.45 68.32 67.53 66.41 64.45 65.05
39.16 45.22 44.68 44.37 41.01 34.25 42.09 33.66 40.30 44.68 46.28 48.24 49.28 48.89 49.49 51.04 51.94 55.10 54.39 54.31 54.23 54.56 56.29 59.23 60.11 59.39 60.65 60.39 60.61 59.50 60.01 59.78 61.92 63.15 65.67 68.62 72.36 72.98 71.53 72.42 72.35 71.26 70.35 69.96 70.28 69.34 68.07 66.37 64.19
42.59 46.61 43.78 43.40 39.05 36.00 38.79 33.28 37.59 44.05 43.79 46.06 48.03 50.05 49.77 50.30 53.43 52.63 53.19 53.78 53.99 53.85 55.26 57.44 57.31 57.12 56.52 60.84 61.62 61.11 60.07 60.35 61.47 62.60 62.95 64.06 65.30 68.71 72.22 71.98 70.35 68.04 67.73 69.04 69.81 68.74 69.20 68.29 66.16
47.70 44.21 42.80 40.66 37.02 31.42 36.50 35.95 35.65 40.96 43.99 46.57 50.04 51.47 52.37 52.24 51.97 52.26 52.92 53.08 52.62 53.58 53.70 55.76 55.04 56.71 57.25 56.77 58.12 58.04 58.90 60.90 60.88 61.07 61.57 62.76 63.59 64.70 67.68 63.76 62.33 65.49 64.19 66.36 68.92 69.29 69.15 68.71 67.65
43.20 37.42 29.97 28.60 29.86 30.39 40.46 38.19 39.31 44.56 50.46 50.74 49.61 50.93 52.07 51.25 50.38 50.83 50.72 50.70 51.48 51.37 52.97 53.30 53.82 53.66 55.49 56.56 57.07 57.78 57.55 58.64 60.67 61.52 62.11 61.52 61.87 62.32 61.79 66.31 67.15 66.30 66.06 67.42 68.36 66.86 67.10 68.83 67.24
41.69 39.85 32.60 26.05 26.31 31.66 40.85 34.37 40.37 49.66 51.46 52.17 52.84 50.97 51.98 50.75 49.76 49.81 50.23 50.37 50.60 51.90 52.79 53.55 53.41 53.37 54.46 54.96 55.60 57.51 59.45 59.91 59.99 60.34 61.17 61.76 62.73 63.66 64.13 63.84 66.64 65.25 63.49 63.99 64.89 61.71 60.21 63.72 68.16
42.84 39.74 43.39 35.42 36.04 30.75 35.14 40.90 46.33 49.77 50.33 51.05 51.73 51.91 50.20 49.01 49.25 49.44 49.99 50.36 50.63 50.94 52.34 53.55 52.98 54.56 54.62 55.31 55.96 56.53 57.56 57.48 56.17 58.83 61.51 61.97 62.82 63.66 63.73 63.90 63.20 65.97 67.00 63.67 63.67 61.62 59.61 63.97 64.17
44.12 45.82 37.83 36.78 27.29 25.06 33.55 35.82 37.70 44.11 46.69 49.26 49.89 49.80 49.59 48.92 49.30 49.15 49.81 50.16 50.19 50.35 52.04 52.79 53.88 53.31 54.12 53.75 53.99 56.64 57.03 57.36 57.69 58.08 59.48 59.95 59.11 58.50 58.03 57.27 57.30 61.79 61.01 60.97 62.77 61.92 61.93 60.69 64.42
41.17 40.78 40.20 38.28 36.66 28.24 24.82 32.05 44.05 46.12 47.36 46.76 47.72 49.94 50.12 50.47 49.34 48.91 48.76 49.33 49.93 50.71 50.58 51.61 52.57 53.08 53.43 53.79 53.61 53.93 53.70 54.44 56.32 58.57 58.49 58.55 57.23 57.37 57.01 56.53 55.87 55.05 56.31 59.33 56.80 56.49 57.56 59.52 64.55
42.97 40.16 41.80 36.07 34.01 34.75 30.54 33.96 47.10 47.42 46.44 46.64 46.61 49.11 50.17 50.07 49.33 49.71 48.74 48.48 48.61 49.78 49.90 50.15 52.15 52.31 52.70 53.35 53.48 53.49 53.51 54.64 55.41 55.45 56.44 57.84 57.32 56.41 55.79 55.64 55.45 55.79 55.94 55.89 56.43 59.72 59.70 62.85 60.48

GFSSGP_sfc_wetblb_108.txt.gz
Wetbulb
63.17 57.78 55.93 54.03 46.22 44.39 40.84 46.93 52.69 52.73 52.29 54.08 59.36 64.66 62.95 64.08 63.03 57.83 70.37 73.17 75.50 75.51 76.29 76.93 77.38 77.25 77.08 76.87 76.61 76.48 76.23 76.33 76.43 76.46 76.73 76.65 76.54 76.52 76.44 76.37 76.22 76.07 74.94 73.92 73.33 73.70 73.92 74.08 73.77
61.28 57.67 54.48 49.84 42.58 38.28 41.24 49.23 51.00 53.22 54.53 56.33 64.36 64.77 63.84 61.98 68.08 69.24 70.58 74.52 75.53 75.86 75.84 75.80 77.30 76.87 76.85 76.52 76.36 76.20 76.23 76.30 76.18 76.35 76.68 76.75 76.70 76.61 76.26 75.97 75.80 74.85 73.87 73.23 73.28 73.79 74.07 74.20 73.83
56.16 57.02 48.49 44.88 40.64 39.44 41.75 48.95 52.91 56.07 58.57 56.23 56.98 63.75 64.67 63.63 69.40 69.70 72.64 74.59 75.37 75.22 75.71 75.97 77.00 76.67 76.80 76.50 76.24 76.05 76.18 76.18 76.20 76.48 76.43 76.38 76.48 76.32 76.13 75.96 75.55 74.05 73.10 72.97 73.27 73.57 73.82 74.05 73.71
51.86 49.76 47.79 42.00 40.65 46.69 47.43 50.17 52.93 54.48 59.21 56.72 61.16 60.99 66.53 71.15 69.33 71.65 74.21 74.43 73.97 74.24 75.51 77.09 77.12 76.72 76.67 76.50 76.24 76.16 76.30 76.28 76.28 76.43 76.48 76.18 75.96 75.92 75.84 75.56 75.15 74.30 72.96 72.67 73.16 73.71 73.99 73.84 73.30
48.67 45.48 40.05 38.16 41.76 47.29 50.13 51.73 52.89 57.20 54.99 55.17 61.86 61.48 64.06 69.41 72.22 73.41 73.31 73.36 73.13 74.15 75.69 76.43 77.16 76.89 76.82 76.70 76.50 76.31 76.33 76.00 76.23 76.41 76.38 76.28 75.89 75.79 75.57 75.28 74.75 74.02 73.00 72.53 72.50 72.96 73.65 73.73 72.86
44.22 43.81 37.30 36.85 41.42 48.17 50.26 50.63 51.87 57.15 55.74 55.54 62.32 62.18 62.63 70.56 71.01 71.87 72.98 72.01 74.21 73.83 75.20 76.11 77.21 76.83 76.62 76.42 76.12 76.11 75.95 75.87 76.08 76.08 76.08 75.92 75.76 75.54 75.49 75.08 74.69 74.05 73.22 72.88 72.16 72.43 71.94 71.39 70.63
42.76 39.76 38.04 40.16 43.26 44.63 48.85 50.00 48.77 50.43 55.45 54.61 62.22 58.11 59.13 64.88 70.77 72.03 72.22 71.94 74.10 74.44 74.20 75.15 76.03 76.75 77.09 76.61 76.13 75.95 75.97 75.89 75.84 75.69 75.62 75.57 75.41 75.28 75.11 74.83 74.59 73.97 73.08 72.78 72.33 71.73 71.14 70.44 69.80
45.79 41.23 37.15 39.89 42.43 43.13 49.37 48.99 46.94 50.34 53.81 59.81 60.14 54.29 53.54 58.29 68.21 70.30 71.58 72.36 73.37 73.53 73.28 74.21 74.77 75.67 75.61 75.78 76.59 76.19 75.93 75.96 75.58 75.55 75.58 75.32 75.24 75.06 74.89 73.93 74.08 74.00 73.10 72.63 72.24 71.62 71.07 70.45 69.70
45.46 37.52 35.28 39.77 43.18 44.70 48.40 47.09 51.17 51.94 54.52 55.16 56.92 57.22 58.65 60.98 61.07 69.81 71.04 71.48 72.28 72.75 72.25 73.43 74.24 74.73 75.11 75.17 76.10 76.24 76.42 76.19 75.76 75.63 75.50 74.36 73.49 73.53 73.50 73.51 73.90 73.92 73.18 72.78 72.39 72.04 71.37 70.86 70.38
41.19 36.01 39.10 45.16 46.50 45.12 47.91 45.69 48.11 49.30 49.39 51.81 54.30 57.23 58.33 57.93 55.99 59.12 68.69 69.58 70.98 71.15 71.19 72.29 73.07 73.44 74.03 75.37 75.02 75.22 75.48 75.38 74.85 74.57 74.21 73.40 72.23 72.16 72.96 72.95 73.95 74.16 73.40 72.83 72.51 72.24 71.74 71.15 65.78
41.39 38.89 43.46 46.84 48.19 47.09 46.50 46.86 48.27 47.21 45.91 49.03 49.79 52.19 52.83 54.31 54.30 54.02 59.44 69.01 70.77 71.79 71.58 71.37 71.93 72.68 73.10 73.55 74.10 74.13 74.74 74.72 74.38 73.92 73.78 72.77 71.87 71.66 71.99 70.92 71.34 71.13 72.61 69.55 70.54 69.84 68.76 66.99 65.33
38.12 43.79 44.98 46.88 48.38 47.34 46.84 48.42 47.31 46.95 47.91 51.38 51.49 52.48 52.05 50.68 50.56 52.41 53.17 56.51 62.25 70.68 71.31 70.86 70.74 71.03 71.08 73.01 73.31 73.20 73.61 73.73 73.41 73.74 73.42 72.14 71.04 69.89 70.47 69.91 68.51 68.46 68.39 67.13 66.71 66.66 66.69 66.35 64.93
39.86 43.39 45.31 47.39 47.74 46.70 47.68 47.07 47.91 47.76 50.65 51.33 51.16 52.46 50.70 50.54 50.80 50.73 51.22 52.27 54.52 66.15 70.43 69.73 70.19 70.23 70.31 71.04 72.04 72.02 72.26 72.90 73.01 72.92 73.07 72.65 71.30 70.03 69.84 68.62 67.99 68.22 67.07 66.93 64.90 64.74 64.77 64.02 63.51
43.94 44.33 45.06 45.81 46.29 45.29 45.57 46.66 47.16 48.90 51.13 50.61 49.60 49.36 49.71 50.18 50.85 51.20 50.01 51.22 61.62 66.57 68.94 69.70 69.61 69.41 68.58 69.97 70.27 70.24 70.56 71.76 71.80 72.34 72.71 72.84 71.86 70.81 69.26 68.38 67.83 67.28 67.18 67.17 65.82 64.17 63.70 63.05 62.98
44.29 41.18 43.57 44.68 45.44 44.75 46.51 43.61 44.80 48.84 49.83 49.03 49.13 48.80 49.64 50.10 50.01 50.15 50.26 51.29 53.98 66.82 69.04 69.51 69.99 70.72 71.25 71.79 71.55 70.44 69.79 69.34 69.78 70.33 71.45 72.48 72.01 70.67 69.41 68.23 67.78 67.34 66.81 66.09 65.34 63.03 63.19 63.00 63.73
41.80 40.28 36.08 42.22 45.49 46.38 45.21 40.39 45.83 48.43 47.96 47.47 48.37 49.22 51.02 50.90 51.33 51.83 52.30 53.56 59.49 66.40 67.56 68.82 71.70 69.23 70.54 68.26 65.88 72.05 72.28 69.88 69.13 68.63 69.03 69.83 71.00 71.42 69.63 68.73 68.12 67.79 66.98 66.09 64.76 62.61 61.39 63.06 63.72
38.10 34.40 37.78 41.97 45.29 44.69 43.24 41.02 46.18 47.98 47.32 47.16 48.10 48.08 49.07 49.70 50.62 51.48 53.97 58.35 60.51 63.87 66.50 65.51 65.54 67.38 66.33 64.51 65.72 70.76 72.07 71.65 70.75 68.94 68.65 68.73 68.95 69.56 70.49 69.42 69.38 67.72 66.98 65.06 64.74 63.46 62.16 62.10 63.22
35.62 36.06 38.54 39.04 43.09 42.95 41.84 42.31 46.04 47.08 46.24 46.43 47.26 47.40 48.54 48.92 49.53 50.83 54.32 57.12 58.07 61.46 64.33 63.54 64.43 63.55 63.17 64.35 66.31 70.98 71.80 71.28 71.52 71.05 70.43 69.19 69.46 69.36 68.61 69.59 69.83 67.67 66.88 66.47 65.51 65.08 63.52 62.22 62.98
40.70 38.83 38.41 41.71 44.72 42.03 40.63 40.97 43.26 45.35 43.93 45.27 46.02 46.46 47.47 48.82 50.67 51.74 52.35 56.30 56.40 57.47 58.70 59.81 61.28 62.03 62.15 61.87 61.61 64.82 69.29 69.74 70.48 71.71 71.65 70.76 70.68 69.78 68.74 68.33 68.43 67.65 67.08 67.22 66.79 65.30 63.80 63.46 61.77
41.14 38.81 38.39 41.33 44.53 42.68 40.69 40.79 43.25 44.16 44.75 45.69 46.43 46.87 47.35 47.68 49.26 50.95 52.20 55.26 56.16 56.01 57.03 59.24 59.93 59.65 60.23 60.58 61.87 62.44 62.64 63.98 66.64 69.49 72.07 72.53 70.83 70.86 69.68 68.20 67.92 67.51 67.51 66.95 66.03 65.37 65.06 65.13 64.17
40.93 38.91 39.18 39.76 43.55 42.60 40.72 38.28 40.32 44.22 45.64 47.09 46.82 47.27 48.09 48.25 49.05 49.91 54.62 54.57 55.99 57.42 57.16 56.51 57.77 57.86 58.94 59.85 58.73 58.45 59.00 59.56 60.41 61.53 64.09 67.74 68.79 70.42 71.17 70.17 68.66 68.10 68.03 67.92 67.13 65.27 65.13 64.63 64.24
38.89 43.47 42.92 41.87 38.66 33.27 40.67 31.82 37.06 41.60 43.38 45.53 46.28 45.97 46.48 48.22 49.08 52.17 54.37 53.36 53.58 55.26 57.52 59.02 57.80 59.20 58.47 57.70 57.07 56.74 56.89 55.81 57.27 59.33 61.94 62.25 64.20 66.20 68.72 69.15 70.49 69.13 68.62 68.44 67.99 68.01 66.04 65.40 63.70
40.48 44.89 42.51 41.74 36.96 33.54 36.47 31.61 35.61 40.03 40.98 43.07 45.00 46.87 48.27 48.56 51.07 53.00 53.53 52.34 52.81 54.12 57.05 56.22 56.42 55.83 55.40 59.68 58.97 58.15 57.54 57.71 58.30 59.00 58.95 59.48 60.84 63.45 64.99 66.02 67.12 68.30 67.40 64.49 64.99 66.48 63.99 64.84 65.59
45.71 41.96 39.45 37.15 34.13 28.01 33.92 33.46 32.54 37.97 40.77 43.32 46.74 48.91 50.29 49.07 52.01 52.18 51.91 51.01 50.63 53.59 53.87 52.97 53.99 54.55 54.60 55.02 56.02 55.57 54.48 54.83 56.80 58.30 58.38 59.71 59.34 59.88 61.74 64.26 62.52 64.38 61.71 62.91 63.47 63.90 62.38 63.91 64.79
41.86 35.81 28.29 26.61 26.59 26.89 37.42 34.63 35.02 42.21 46.54 47.56 48.51 48.36 48.10 49.07 49.86 49.95 48.69 48.76 49.79 50.31 51.30 52.79 52.01 52.05 53.67 54.02 54.46 54.78 54.17 54.26 56.68 57.89 58.18 58.06 59.22 59.75 60.78 61.62 63.12 62.16 62.80 62.10 60.74 60.44 61.14 63.80 65.53
38.36 35.90 28.52 23.47 24.17 28.18 38.10 31.92 38.02 46.60 49.79 50.45 49.68 48.29 48.25 47.23 47.58 48.31 48.88 48.55 48.64 50.37 50.77 51.64 51.31 51.90 52.55 53.22 53.91 55.21 55.30 56.15 57.15 55.45 56.12 58.45 59.07 60.25 59.93 61.19 61.30 62.38 65.59 64.97 62.87 62.26 62.82 62.36 61.56
41.45 36.02 39.06 33.01 32.64 27.80 32.55 37.74 44.32 48.74 48.01 49.33 49.02 48.95 48.34 47.31 48.47 49.31 49.53 49.13 49.27 50.07 50.33 51.20 51.05 51.29 53.49 54.22 54.07 53.37 54.94 55.68 54.63 55.61 57.03 58.11 58.95 59.30 57.49 57.10 56.34 59.01 61.36 63.09 63.24 63.24 63.11 62.06 61.03
42.96 44.95 35.45 33.62 25.96 23.53 31.06 33.83 36.74 42.88 43.72 46.57 46.44 47.12 48.64 49.00 47.58 46.93 47.32 48.31 47.89 49.00 50.90 51.24 50.96 52.59 52.37 52.76 52.51 52.77 54.42 55.11 54.35 53.83 57.10 56.46 56.89 56.53 56.29 55.95 55.04 54.96 57.50 60.13 60.74 60.11 60.34 60.22 59.33
39.21 37.71 38.70 37.30 35.64 27.34 23.52 30.43 42.15 43.66 44.49 44.16 46.66 47.39 46.57 48.32 47.66 47.21 47.23 47.68 47.85 48.03 48.58 49.74 50.89 51.43 51.28 51.86 51.47 51.88 53.08 53.00 52.76 54.43 56.61 55.72 55.96 55.98 55.79 55.13 54.82 54.53 53.97 55.48 56.65 56.36 57.27 57.37 58.38
40.42 37.18 38.64 33.07 30.21 33.47 27.25 29.80 45.29 43.21 43.09 44.43 44.72 48.42 49.71 51.25 49.54 49.66 49.04 47.52 46.72 47.07 48.22 48.48 50.81 50.47 51.79 52.38 51.74 51.36 51.91 52.31 52.23 54.12 54.11 54.33 55.08 55.46 55.32 55.26 54.83 54.66 54.72 54.10 53.61 54.57 57.20 57.45 56.49

GFSSGP_sfc_wetblb_111.txt.gz
Wetbulb
62.02 58.27 54.20 52.92 46.14 43.50 40.15 45.72 50.82 50.96 51.49 57.82 61.35 62.33 61.28 62.67 61.26 55.66 69.22 72.83 74.33 74.46 75.72 75.83 77.00 77.11 76.80 76.49 76.21 75.99 75.74 75.89 75.94 75.92 75.97 76.12 76.32 76.42 76.24 76.19 76.25 75.68 74.80 73.57 73.18 73.72 74.10 74.07 73.73
59.60 56.44 52.69 48.21 42.06 37.68 41.09 47.07 49.36 51.50 53.80 61.57 63.26 63.38 62.69 61.38 68.20 68.61 69.61 74.39 74.51 74.95 75.44 75.77 77.00 76.75 76.65 76.34 76.01 75.86 75.66 75.79 75.91 76.01 76.04 76.04 75.91 75.84 75.72 76.10 75.75 74.94 74.03 73.21 73.42 73.79 73.99 73.85 73.69
53.96 54.86 47.56 43.68 38.73 38.54 41.21 47.47 50.34 52.10 53.58 55.49 59.66 63.72 63.61 64.20 69.21 69.47 72.42 74.67 74.98 74.53 75.01 75.80 76.99 76.62 76.37 76.14 75.86 75.66 75.63 75.58 75.88 76.06 75.99 75.77 75.86 75.99 75.71 75.67 75.38 74.12 73.36 72.98 73.40 73.91 74.05 73.87 73.70
49.64 48.49 46.44 41.34 39.06 43.93 45.78 47.61 49.50 51.24 52.69 57.29 60.95 61.80 66.11 69.45 69.68 71.76 74.26 75.00 74.16 74.00 74.48 76.56 76.76 76.39 76.19 76.17 75.99 75.83 75.63 75.63 75.81 75.82 75.77 75.77 75.57 75.75 75.70 75.34 74.83 74.16 73.14 72.95 73.45 73.93 74.17 74.15 73.67
47.32 44.31 39.33 37.61 41.38 46.26 47.16 49.48 49.63 49.04 52.41 57.15 61.28 61.47 63.47 69.83 72.64 73.15 73.70 73.95 73.20 73.66 74.26 75.65 76.41 76.49 76.30 76.10 76.17 75.96 75.81 75.58 75.75 75.86 75.57 75.49 75.71 75.39 75.25 75.12 74.50 73.89 73.64 73.04 73.16 73.80 74.38 74.33 73.56
43.24 42.39 36.49 36.21 41.93 47.46 46.87 48.60 48.17 47.73 51.07 61.38 62.76 61.73 62.14 70.75 71.26 71.98 72.74 72.39 73.71 73.60 74.69 74.91 76.31 76.33 75.96 76.00 76.04 75.71 75.48 75.60 75.68 75.74 75.76 75.58 75.44 75.34 75.07 74.88 74.58 73.91 73.55 73.37 73.37 73.81 73.82 73.58 72.86
41.51 38.72 36.32 36.85 41.51 43.61 47.54 47.12 45.96 46.46 48.10 54.12 63.56 60.01 61.51 68.08 70.92 71.79 71.51 72.47 73.38 73.78 74.14 74.57 74.88 75.90 76.39 75.83 75.63 75.57 75.42 75.29 75.47 75.27 75.25 75.15 75.00 75.02 74.97 74.78 74.49 74.13 73.38 73.19 73.06 73.04 72.62 72.12 71.70
44.10 41.42 36.97 38.97 39.95 42.38 48.78 46.49 45.74 46.37 48.83 59.56 62.48 55.95 55.50 65.59 70.62 71.35 70.53 71.67 71.97 72.68 73.35 73.73 74.47 74.91 74.68 74.68 75.90 75.69 75.59 75.36 75.18 75.31 75.11 74.91 74.86 74.84 74.65 73.91 73.91 74.05 73.29 72.81 72.59 72.22 71.68 71.21 70.59
46.16 37.67 35.83 39.83 42.37 42.96 46.10 45.48 48.48 50.05 50.43 53.44 55.72 58.15 60.25 65.67 69.91 68.85 69.58 70.89 71.42 71.87 71.39 73.00 73.83 74.33 74.22 74.29 74.92 75.55 76.14 75.80 75.41 75.34 75.16 74.09 72.85 72.86 72.94 73.42 72.98 74.14 73.53 72.86 72.47 71.95 71.40 70.89 70.46
41.20 35.46 39.73 44.57 46.16 44.47 44.67 44.61 46.20 47.99 49.05 50.52 53.76 55.63 57.12 67.79 68.26 68.32 68.64 68.92 69.71 70.34 71.02 72.32 72.90 73.43 73.75 74.77 74.08 73.90 74.30 74.48 74.20 73.92 73.33 72.67 71.79 71.64 72.42 72.97 73.73 73.86 73.92 73.26 72.74 72.37 71.90 71.23 65.69
40.09 38.39 43.45 45.63 47.54 45.60 44.97 46.36 47.63 47.17 46.08 48.58 49.32 50.68 51.87 53.35 59.69 67.99 68.55 69.36 69.78 70.86 70.81 71.41 72.00 72.35 72.87 73.29 74.20 74.01 73.90 74.00 73.94 73.36 73.10 72.45 71.83 70.87 71.54 70.58 70.89 70.71 72.76 70.10 70.19 69.27 68.87 67.12 66.05
39.97 43.22 44.52 45.54 47.25 43.91 44.55 46.55 46.18 45.52 47.12 50.23 50.15 51.46 50.96 49.81 50.48 56.01 64.01 67.35 68.98 70.09 70.47 70.69 71.27 71.74 71.70 72.21 73.08 72.57 73.08 73.16 72.63 73.31 72.69 72.02 71.16 70.13 70.10 69.70 69.04 68.97 69.33 68.72 67.13 67.08 67.06 66.79 66.30
38.74 42.90 44.68 45.77 45.54 44.10 45.92 45.28 45.57 45.68 49.37 49.79 49.69 50.48 49.48 48.97 49.13 50.27 53.51 56.67 65.16 69.40 70.50 70.15 70.57 71.04 71.38 71.41 72.30 72.50 72.75 72.71 72.68 72.89 72.97 72.20 70.62 69.36 69.65 69.33 68.80 68.26 68.54 68.06 66.99 65.79 65.52 64.90 64.54
42.55 43.07 44.25 44.17 43.73 43.61 44.29 45.60 45.06 47.18 50.32 50.00 48.58 48.01 48.26 48.60 49.42 48.66 49.58 51.50 53.15 62.97 69.36 69.98 69.94 70.32 70.58 71.13 70.95 71.15 71.73 72.06 72.18 72.43 72.53 72.57 71.06 70.11 69.23 69.32 68.64 67.86 67.56 67.36 66.74 64.41 63.88 62.74 61.85
43.05 40.04 42.05 43.21 44.13 43.62 45.02 42.70 43.80 48.16 49.32 48.27 47.72 47.59 47.88 48.69 48.92 49.95 49.95 49.81 60.19 61.31 63.45 68.59 69.01 69.66 68.88 69.42 70.28 69.99 70.41 70.46 70.73 71.16 71.60 72.17 71.70 70.09 69.62 68.34 68.37 68.22 66.89 65.78 65.23 64.02 62.95 61.61 61.66
40.58 39.14 35.27 42.08 43.99 45.30 45.13 39.82 45.49 48.03 46.57 46.35 46.90 47.27 48.00 48.71 49.49 49.55 50.04 49.07 57.15 65.11 66.94 67.11 69.67 68.63 68.45 68.76 69.29 70.52 69.59 68.59 69.06 69.29 69.80 71.34 72.00 71.61 69.83 68.57 68.05 67.48 65.86 64.83 64.40 64.19 62.63 62.23 62.06
37.75 34.19 36.53 40.84 44.43 43.95 42.03 39.08 45.03 46.72 46.05 45.47 46.13 46.69 47.31 47.31 49.44 50.25 51.02 51.42 60.35 66.14 66.52 67.44 68.06 68.74 69.41 66.70 67.19 70.21 71.92 69.80 68.64 68.18 67.78 68.06 69.03 70.62 70.41 69.17 68.35 67.39 65.52 64.74 64.79 63.88 63.01 61.87 60.62
35.11 35.13 37.39 38.66 42.53 41.99 40.19 40.37 43.78 46.38 44.95 45.44 45.74 46.23 46.80 47.52 48.93 50.68 51.93 56.07 61.30 65.59 65.83 65.40 67.26 67.58 66.95 64.76 64.99 66.46 68.97 70.46 70.82 69.69 68.11 67.79 67.77 68.13 67.62 68.77 67.60 67.15 65.64 65.49 64.87 64.25 62.55 62.43 61.88
39.54 37.53 37.23 40.06 43.21 40.92 39.78 39.76 42.43 44.37 41.90 42.79 43.94 44.99 46.02 46.73 49.15 48.86 53.40 56.52 59.10 63.51 64.10 63.64 63.40 63.02 63.95 63.00 62.21 63.08 66.05 68.43 68.88 70.24 70.40 70.73 69.07 68.81 67.26 67.49 67.42 66.99 66.16 66.05 65.91 65.25 63.40 61.93 61.55
39.37 36.56 36.23 40.09 42.49 40.46 39.55 39.71 42.25 42.94 42.17 42.99 44.30 45.02 45.71 45.52 47.68 49.14 51.58 54.06 56.74 58.75 58.11 59.90 60.66 61.07 61.96 61.57 61.15 61.48 61.42 62.71 63.84 65.18 65.61 68.30 67.81 68.06 68.75 66.95 67.08 66.79 66.56 66.38 66.30 64.12 63.51 63.94 63.22
38.20 36.37 36.99 38.13 41.79 41.08 38.89 36.97 39.54 43.12 44.13 45.05 44.73 44.88 45.70 46.01 46.67 46.98 50.35 53.11 54.47 55.87 57.75 59.58 59.17 58.81 58.17 59.02 58.24 56.51 56.52 55.93 55.56 57.63 59.39 62.90 63.90 64.87 66.83 67.23 67.51 67.15 66.62 67.13 67.22 66.36 64.32 63.47 63.67
35.65 41.97 42.00 40.19 37.03 31.69 38.51 29.40 35.92 40.03 41.33 43.04 44.70 44.02 44.84 45.98 47.16 47.96 51.01 52.67 54.67 55.79 56.80 56.11 56.44 56.88 57.67 56.59 55.42 54.48 54.12 53.04 54.77 56.50 58.80 59.06 61.57 63.30 64.18 63.40 65.03 66.72 67.05 67.12 67.44 67.17 65.60 64.67 63.91
39.25 43.10 40.92 40.53 35.64 32.23 33.61 30.23 34.43 37.84 39.30 41.58 43.38 45.22 45.78 46.03 46.27 48.16 52.55 54.73 55.81 55.86 55.13 55.68 56.10 56.12 55.52 55.94 56.11 55.67 55.31 55.60 56.26 56.29 56.40 57.53 59.32 60.86 62.68 62.67 63.20 62.23 64.80 66.78 67.08 66.85 65.31 65.31 63.27
44.21 40.00 37.49 34.53 32.14 27.18 32.46 32.47 30.97 36.15 39.37 41.27 44.29 48.11 48.33 47.86 47.65 49.25 51.62 52.28 52.40 55.00 54.60 53.97 52.61 52.97 56.66 55.81 56.00 55.32 53.80 52.97 53.46 54.50 57.15 57.14 58.15 58.82 60.56 61.87 61.55 61.69 60.76 62.31 63.89 63.58 64.19 64.50 63.04
39.19 33.25 26.30 25.47 25.32 25.91 34.22 31.75 33.52 39.69 43.91 46.00 46.55 46.28 45.70 45.93 46.36 46.68 46.98 49.06 51.34 51.57 51.04 51.58 52.35 51.56 52.39 53.33 53.47 53.29 53.02 52.78 53.75 55.80 55.52 55.74 57.60 58.18 57.49 58.49 57.97 58.88 60.67 61.92 60.55 59.32 58.29 59.99 60.90
36.21 34.71 27.67 23.34 23.67 27.36 35.60 30.30 35.38 44.92 47.09 47.90 47.50 45.71 46.25 45.95 46.02 47.02 47.82 48.74 49.93 50.39 50.50 51.60 50.59 50.71 51.52 51.81 51.81 52.06 53.30 55.25 55.24 54.94 55.13 57.04 57.90 58.38 56.80 56.86 55.86 56.61 58.10 58.45 60.63 60.69 60.70 59.33 59.94
39.85 33.85 36.57 30.89 30.75 27.30 31.02 35.77 41.72 45.10 45.37 46.62 46.36 46.77 46.06 45.64 46.50 47.63 47.28 47.72 48.53 49.52 49.75 50.25 49.82 50.26 50.87 51.51 51.66 53.09 53.02 54.37 54.49 53.86 55.31 57.04 57.62 58.12 56.70 56.14 54.78 54.91 55.12 55.62 56.87 58.95 61.16 62.06 62.73
43.39 44.39 34.60 31.90 25.71 23.32 29.04 31.76 33.82 41.16 42.29 45.07 44.72 44.89 45.62 46.17 46.89 46.49 46.19 46.50 47.35 48.25 48.79 49.10 49.61 50.64 51.95 51.98 52.26 52.78 51.90 53.92 53.87 53.55 52.96 55.92 56.50 56.64 55.90 55.19 54.28 53.85 54.09 54.16 53.77 53.80 56.04 57.67 59.45
38.36 36.08 36.76 35.21 31.70 25.21 22.81 29.36 40.34 42.62 42.06 42.36 43.76 44.41 45.66 45.93 46.29 46.88 47.08 47.56 47.59 47.05 48.55 50.84 50.25 50.16 50.75 50.99 51.15 50.91 51.23 53.18 53.27 51.97 52.17 54.91 54.79 55.07 55.03 54.70 54.17 53.65 53.14 52.79 52.47 52.62 54.12 54.93 55.36
38.65 36.62 36.54 31.84 30.53 29.77 26.83 28.27 42.07 41.66 42.18 42.99 43.42 46.22 45.93 49.66 50.06 48.79 49.30 49.21 48.30 47.24 47.61 46.71 46.36 48.48 49.37 49.88 50.11 49.77 50.15 51.09 51.01 50.73 52.09 54.26 54.11 54.56 55.15 54.64 54.36 54.34 53.91 52.94 52.16 52.43 53.71 53.41 53.87

GFSSGP_sfc_wetblb_114.txt.gz
Wetbulb
62.23 56.65 53.38 52.02 45.88 43.14 40.27 44.75 48.91 50.17 51.32 58.21 62.33 60.91 60.06 62.19 59.70 54.20 68.85 72.26 74.15 74.30 75.24 75.23 76.85 76.94 76.83 76.53 76.35 76.07 75.99 76.04 76.32 76.47 76.37 76.42 76.40 76.48 76.45 76.30 76.21 75.81 74.75 73.76 73.51 73.68 73.89 74.08 73.94
55.81 54.65 51.59 47.33 42.27 37.87 41.44 46.59 47.57 49.53 52.42 53.81 60.57 61.93 61.67 60.35 67.64 68.03 68.97 73.66 74.04 74.71 74.92 75.10 76.80 76.68 76.66 76.22 76.04 75.74 75.92 75.92 75.84 76.04 76.25 76.32 76.37 76.30 75.98 76.02 75.99 75.07 74.18 73.30 73.60 74.07 74.28 73.97 73.64
51.44 52.72 47.23 43.54 38.25 39.16 42.51 46.82 48.49 50.04 51.76 52.10 58.19 63.45 63.00 63.21 68.78 68.57 71.30 73.66 74.24 74.52 75.28 75.26 76.69 76.54 76.37 76.10 75.89 75.54 75.61 75.57 75.64 75.82 75.95 75.85 75.97 75.79 75.84 75.95 75.81 74.59 73.58 73.09 73.64 74.08 74.48 74.38 74.01
48.25 48.10 45.70 41.22 38.61 42.78 45.46 46.83 47.85 49.27 50.07 54.35 60.03 60.99 65.16 69.25 69.53 70.97 73.91 74.14 73.48 74.12 74.92 76.28 76.59 76.44 76.37 75.85 75.92 75.49 75.55 75.64 75.80 75.78 75.70 75.58 75.55 75.56 75.46 75.52 75.16 74.57 73.31 73.19 73.61 74.37 74.71 74.66 74.43
46.39 43.81 39.00 37.20 39.73 45.43 46.89 48.60 48.25 46.84 47.85 53.22 60.92 61.12 62.25 69.56 72.46 73.51 73.63 73.73 72.91 73.34 74.48 75.68 76.41 76.27 76.27 76.18 75.90 75.60 75.35 75.42 75.74 75.87 75.80 75.87 75.71 75.60 75.43 75.22 74.64 74.20 73.93 73.55 73.65 74.08 74.66 74.53 74.16
42.33 41.92 36.57 35.88 40.82 46.88 48.23 47.53 46.54 45.36 47.02 59.73 61.17 61.72 62.16 70.71 71.48 72.58 73.54 72.56 73.23 73.02 74.51 74.92 75.96 75.99 75.92 76.12 75.87 75.42 75.02 75.02 75.34 75.66 75.94 75.84 75.68 75.38 75.38 74.94 74.56 74.09 73.96 74.00 74.00 74.49 74.55 74.07 73.58
40.74 38.50 36.04 37.74 42.01 42.07 47.49 45.81 44.27 44.69 45.95 52.77 62.85 58.93 61.26 67.96 70.38 72.47 72.18 72.51 73.13 73.67 73.90 73.79 74.38 75.26 75.87 75.68 75.46 75.28 75.01 74.94 75.01 74.93 75.10 75.20 75.15 75.10 74.93 74.79 74.47 74.18 73.76 73.74 73.79 73.98 73.95 73.55 73.13
42.71 40.28 36.23 38.76 39.51 40.86 47.94 45.81 43.99 45.59 47.81 55.95 62.28 57.09 58.52 65.79 70.37 70.19 70.80 71.36 71.75 73.01 73.24 73.27 73.72 74.29 74.07 74.28 75.81 75.53 75.12 75.15 74.99 75.17 74.94 74.87 74.82 74.72 74.87 73.91 74.06 74.15 73.64 73.39 73.22 73.16 72.94 72.40 71.85
43.78 36.96 35.55 38.73 40.32 43.34 45.99 45.20 47.95 48.71 48.03 52.38 54.57 57.14 60.12 69.30 69.27 68.36 69.75 70.17 70.65 71.62 71.47 72.66 73.02 73.20 73.29 73.35 74.65 75.34 75.44 75.46 75.21 75.17 75.09 73.93 73.15 73.27 73.50 73.50 73.23 74.24 73.98 73.36 72.99 72.62 71.83 71.36 70.82
42.72 36.32 38.57 43.40 43.73 42.71 44.42 46.21 46.35 46.82 48.22 49.32 52.74 54.14 67.54 68.80 67.78 67.08 67.84 68.18 69.18 69.87 70.78 71.92 72.35 72.87 72.60 73.51 73.11 73.23 73.79 74.36 73.93 73.89 73.62 72.74 72.11 72.02 72.75 73.09 73.79 73.35 74.12 73.75 73.04 72.64 72.03 71.51 68.27
41.06 38.39 43.45 45.14 44.94 44.23 43.66 44.73 46.57 46.24 44.48 47.13 48.30 50.09 57.64 64.71 66.53 66.84 67.65 68.49 68.87 69.63 70.47 71.53 71.92 72.83 73.11 73.05 73.19 73.39 73.19 73.68 73.23 73.11 72.80 72.46 72.03 72.05 72.66 71.58 72.01 72.18 72.33 71.84 70.75 70.32 69.66 68.91 67.74
39.62 42.85 44.51 45.03 46.76 46.06 43.66 45.15 45.36 46.86 47.55 49.08 49.68 50.63 50.31 57.63 62.09 64.79 66.82 67.91 68.51 69.32 69.67 70.95 71.60 72.33 72.59 72.76 73.52 72.90 72.48 73.04 72.45 73.12 72.60 71.83 70.95 70.52 70.92 70.87 70.43 70.28 70.43 70.29 69.61 68.44 68.41 67.90 67.69
40.23 43.16 44.56 45.72 45.30 43.47 45.37 43.53 45.02 45.83 48.96 49.28 48.47 49.59 49.14 48.92 52.28 55.54 65.07 67.19 68.45 68.92 69.66 70.07 71.31 71.73 72.07 72.25 73.00 72.14 72.00 72.45 72.40 72.47 72.60 72.32 70.86 70.09 70.26 70.26 70.20 69.65 69.51 69.10 68.42 67.61 67.11 66.74 66.42
42.38 43.69 44.44 43.55 43.51 41.71 42.77 43.95 43.95 45.87 49.37 48.71 47.78 47.63 48.29 48.45 48.56 49.09 51.26 54.37 65.40 69.25 69.75 70.20 70.56 71.40 71.86 71.64 72.15 72.00 71.77 72.48 72.01 72.44 72.21 71.90 71.10 70.18 69.52 69.70 69.58 69.01 68.92 69.00 68.41 67.41 66.17 65.42 65.11
42.07 40.29 42.00 42.16 43.00 43.03 42.70 40.82 41.69 47.35 48.53 47.89 47.24 46.80 47.13 47.61 47.91 48.51 49.71 50.95 53.22 61.07 68.65 69.23 69.80 70.48 70.77 70.76 71.49 71.31 71.67 72.07 72.04 71.59 71.95 71.91 71.97 70.60 70.28 69.22 68.93 69.29 68.73 68.31 67.67 67.18 66.48 64.87 64.07
40.40 38.70 36.20 41.41 42.90 44.10 43.95 37.32 44.84 47.57 46.60 46.03 46.18 46.34 46.96 47.13 48.06 48.66 48.96 49.50 51.67 57.65 61.18 67.38 70.08 69.34 69.66 69.43 70.60 70.38 70.20 69.95 70.49 71.09 71.56 71.95 72.25 72.04 70.78 69.89 69.58 69.67 68.57 67.61 66.91 66.66 65.64 64.48 64.04
37.31 33.61 36.04 40.37 44.09 43.36 41.45 37.90 44.47 45.06 44.38 44.29 44.98 45.74 46.45 46.79 47.99 49.09 49.67 49.13 52.30 56.87 64.69 65.56 67.67 68.15 68.45 67.93 68.71 70.29 69.72 68.85 69.15 69.77 69.68 69.89 71.06 72.10 71.65 70.76 70.34 69.43 67.83 66.73 66.81 66.16 65.69 65.47 63.45
34.93 35.39 37.07 38.18 41.89 41.09 38.30 39.22 43.03 44.92 44.51 44.62 44.77 45.36 45.91 46.29 47.68 49.35 50.13 50.29 53.00 61.85 65.38 66.09 67.00 67.30 67.34 66.58 67.20 68.38 70.04 71.31 70.77 69.23 68.55 68.82 68.75 69.43 70.18 70.50 69.82 68.80 67.54 66.80 66.31 65.80 65.51 65.24 65.18
39.60 37.56 36.96 39.20 41.91 39.60 37.76 38.22 41.70 43.48 42.14 41.85 42.74 43.60 44.81 45.74 48.25 49.02 50.27 54.49 59.13 64.15 64.77 65.88 66.40 66.51 65.97 64.93 64.31 64.44 64.79 67.81 69.50 70.83 71.20 71.10 70.02 68.78 67.97 67.77 68.40 68.19 67.90 67.50 67.01 66.71 65.42 64.48 63.87
38.33 36.26 35.86 39.73 42.07 39.82 39.52 38.99 41.11 42.70 42.81 43.27 43.21 43.75 44.82 45.92 46.57 48.69 50.69 55.25 59.36 63.34 64.69 64.14 65.62 65.15 66.51 64.43 62.48 63.33 63.59 64.28 65.29 65.77 66.45 65.39 65.61 67.29 68.83 67.90 67.41 67.56 67.58 67.09 66.89 66.06 65.68 65.66 64.39
36.63 35.05 35.93 37.08 40.35 39.37 38.41 36.31 38.65 42.56 43.04 44.12 44.60 44.42 45.33 46.07 46.29 46.75 49.06 52.06 56.03 60.34 61.25 62.01 62.67 63.33 62.41 61.30 59.65 57.91 57.56 56.69 56.38 58.35 60.55 62.10 63.96 64.99 65.87 65.51 67.00 67.25 67.06 67.06 67.50 66.98 65.74 65.27 64.70
33.44 40.50 40.82 39.30 36.15 31.54 37.81 29.10 35.26 39.25 40.75 42.52 43.79 43.36 44.57 45.70 46.34 46.35 47.47 50.86 54.47 57.63 58.12 59.58 59.14 59.13 59.41 59.20 57.11 55.82 53.86 53.25 55.34 56.88 59.22 60.34 62.54 63.42 64.13 64.23 64.82 65.09 66.60 66.68 66.91 68.01 67.16 66.16 64.78
38.12 41.95 39.55 39.14 34.56 31.79 32.50 29.94 33.65 37.25 38.60 40.91 42.40 44.37 46.67 47.20 46.66 46.55 46.87 49.85 53.80 55.62 56.82 57.07 56.82 56.70 56.17 55.85 55.46 54.85 54.52 54.95 56.55 56.90 57.43 59.22 60.54 62.14 63.43 63.72 63.63 63.45 63.47 65.01 66.44 66.83 66.93 66.61 65.80
42.48 38.48 35.75 33.01 31.05 27.00 31.41 31.40 30.12 34.68 38.06 40.33 44.43 46.51 48.38 47.49 48.06 48.73 48.22 50.55 52.65 54.07 54.60 54.90 55.72 54.40 55.67 56.23 56.06 56.12 56.08 55.12 53.89 55.57 57.88 57.51 59.70 61.24 62.38 62.69 62.78 62.37 62.14 62.46 63.08 64.38 65.16 65.01 65.11
37.46 32.24 25.58 24.78 24.43 25.30 32.11 30.53 32.72 38.39 41.79 44.05 45.16 46.11 46.05 45.90 46.55 46.67 47.71 49.68 51.89 52.61 53.18 53.49 53.18 54.25 56.00 55.79 56.13 55.07 53.74 53.83 54.22 56.45 57.08 56.17 58.21 59.23 59.19 59.53 58.87 59.00 60.15 60.69 62.37 61.76 61.36 61.62 62.51
35.11 33.91 26.89 22.71 23.34 26.08 33.67 28.82 34.48 42.51 45.71 45.83 45.82 44.87 45.24 44.27 44.26 46.14 48.50 51.23 51.96 52.55 52.56 52.77 52.64 53.37 52.69 53.13 53.56 53.42 53.59 53.43 55.24 56.70 55.83 57.13 58.25 59.10 58.81 58.38 57.57 57.76 58.22 58.06 58.87 60.80 61.51 61.67 61.01
35.73 31.50 35.04 28.83 29.11 26.00 29.03 34.40 39.92 43.52 43.93 45.15 45.35 45.84 44.84 44.93 45.04 44.87 45.71 49.22 51.86 51.97 51.69 51.72 50.86 51.19 51.83 52.26 52.33 52.17 52.97 54.72 55.78 56.28 56.10 57.48 58.82 59.51 58.54 57.75 56.44 56.86 56.92 56.94 56.97 57.30 58.05 60.66 61.57
40.28 40.72 32.56 30.16 24.90 22.99 27.50 30.10 32.38 39.57 41.14 43.97 44.31 44.32 44.98 45.76 46.34 46.73 47.37 48.40 48.81 49.15 49.34 50.45 50.34 50.96 52.04 52.03 51.60 52.42 53.56 54.48 55.33 55.21 55.26 56.64 58.43 58.72 58.33 57.25 56.37 55.94 56.11 56.14 55.96 55.26 55.63 56.54 57.28
38.16 35.52 34.57 33.38 29.70 24.50 23.18 28.53 38.83 40.94 41.55 41.13 42.07 44.36 44.60 46.38 47.15 47.12 46.90 47.18 47.81 48.32 48.98 49.70 49.67 49.46 49.68 50.57 51.61 51.93 52.29 52.54 54.14 54.21 54.60 55.29 57.21 57.71 57.55 57.16 56.34 55.45 55.26 55.36 55.07 54.60 55.03 55.31 55.81
37.49 35.77 35.22 30.33 28.95 27.69 26.57 28.07 40.51 41.81 42.12 42.32 42.15 44.18 44.63 45.18 47.15 47.35 47.40 47.04 46.47 46.31 46.09 46.44 47.64 47.79 49.09 50.11 50.81 50.89 50.90 51.33 51.99 52.86 53.26 53.51 54.26 56.21 57.01 56.83 56.17 55.44 55.39 55.01 54.07 53.79 55.30 55.28 54.82

GFSSGP_sfc_wetblb_117.txt.gz
Wetbulb
65.28 58.39 58.90 57.47 52.57 53.56 51.36 52.01 54.32 54.75 54.73 61.21 59.06 64.00 63.48 65.51 62.67 61.17 72.84 74.85 75.28 75.96 77.02 76.10 76.85 77.16 77.11 76.83 76.83 76.82 76.84 76.84 76.95 76.93 76.75 76.60 76.67 76.85 76.70 76.70 76.43 76.12 75.03 73.89 73.98 74.06 74.18 74.15 74.37
60.32 57.31 57.81 55.74 51.29 49.40 51.92 53.31 53.18 55.15 55.91 56.08 60.07 65.99 65.31 64.21 69.32 70.09 71.54 74.93 75.71 76.18 76.40 75.88 76.67 77.03 76.98 76.55 76.22 76.24 76.39 76.51 76.59 76.60 76.65 76.70 76.57 76.45 76.17 76.20 75.88 75.20 74.49 73.53 73.96 74.17 74.43 74.18 74.07
54.58 56.06 54.12 52.32 50.67 50.32 51.75 53.84 54.78 55.16 54.75 54.94 58.06 66.72 66.29 65.35 70.20 70.81 73.59 75.40 75.82 76.17 76.33 76.44 76.72 76.65 76.70 76.15 76.09 76.01 76.06 76.11 76.39 76.42 76.45 76.52 76.34 76.17 76.14 76.12 76.08 75.02 73.82 73.57 74.03 74.54 74.66 74.20 73.85
53.53 54.87 53.46 49.24 48.95 50.87 54.22 54.16 54.03 53.47 53.45 56.55 60.34 64.04 68.41 71.59 70.93 72.76 75.08 75.33 75.20 75.86 76.07 76.54 76.49 76.46 76.37 76.27 76.19 75.99 75.87 75.87 76.04 76.32 76.22 76.24 76.20 75.93 76.01 75.89 75.58 75.06 73.66 73.67 74.15 74.81 74.72 74.76 74.14
53.41 52.61 48.76 47.24 48.41 50.01 52.40 53.50 53.28 52.01 52.02 54.85 65.24 63.83 66.20 71.55 74.26 75.30 74.92 75.04 74.58 75.40 75.93 76.36 76.49 76.36 76.37 76.28 75.95 75.69 75.69 75.56 75.77 76.07 76.05 76.02 75.69 75.63 75.66 75.57 74.98 74.61 74.36 74.11 74.03 74.57 75.10 74.93 74.68
49.42 50.27 46.28 45.50 46.65 50.25 52.08 53.86 52.43 51.24 52.18 54.21 63.45 65.49 67.03 73.04 73.90 74.85 75.18 74.82 75.34 75.34 75.93 75.62 76.10 76.14 76.09 76.07 75.69 75.39 75.21 75.47 75.59 75.57 75.59 75.64 75.58 75.46 75.29 75.17 74.60 74.35 74.29 74.23 74.11 74.35 74.28 74.32 74.10
47.64 47.71 45.24 45.15 46.69 48.09 50.76 52.55 51.01 50.84 51.89 54.72 66.35 64.18 66.82 71.05 73.92 75.03 75.03 75.07 75.25 75.73 75.77 75.53 75.33 75.96 76.19 75.93 75.53 75.23 74.96 75.21 75.41 75.45 75.39 75.65 75.70 75.43 75.41 75.04 74.35 73.95 73.80 73.50 73.57 73.51 73.78 73.53 73.33
50.00 48.97 43.90 44.98 44.76 47.16 50.73 51.16 52.05 51.13 52.14 58.50 66.32 63.68 64.18 70.58 74.26 74.70 74.80 74.51 74.67 75.18 75.36 75.09 75.15 74.58 74.75 75.47 75.76 75.38 75.11 75.11 75.02 75.14 75.31 75.23 75.19 75.10 74.78 74.27 74.09 73.40 72.81 72.60 72.44 72.61 72.64 72.74 72.29
48.85 47.67 44.35 44.08 44.42 47.12 50.06 49.76 51.44 53.03 51.88 56.22 59.45 60.59 64.96 72.53 73.23 73.04 72.73 72.78 73.41 73.93 75.01 75.11 74.11 74.62 74.32 74.39 75.02 75.20 75.10 75.21 75.17 74.92 75.05 74.34 73.47 74.06 74.09 73.87 73.46 73.73 73.26 72.39 71.94 71.86 71.92 71.72 71.42
48.92 46.81 47.71 48.19 48.22 47.55 49.26 49.47 50.40 51.29 51.73 55.51 57.32 67.81 70.73 71.59 71.43 70.76 70.64 70.67 71.51 72.44 73.73 74.58 74.40 74.30 74.22 73.35 74.83 74.78 74.50 74.60 74.40 74.52 74.97 74.24 74.22 74.13 73.46 73.51 73.69 73.26 73.58 73.50 72.69 72.37 72.17 71.01 68.42
45.52 44.70 48.52 47.30 48.38 49.64 49.31 49.23 50.79 50.57 50.63 53.16 56.00 65.44 69.99 70.67 70.40 70.00 69.99 70.39 70.76 72.49 73.60 74.31 75.01 75.07 74.05 73.29 74.17 74.39 74.38 74.84 75.12 75.30 75.41 75.19 74.37 74.35 73.96 73.71 73.57 73.88 73.37 72.72 72.47 72.11 71.04 70.10 69.42
43.38 46.31 45.85 47.34 48.69 49.64 48.49 49.55 48.93 49.74 51.64 52.89 53.43 58.08 69.00 69.78 70.33 70.32 70.25 70.85 71.32 71.95 73.02 74.09 74.97 75.13 74.94 74.18 73.96 74.22 73.97 74.69 74.47 74.85 75.54 74.88 73.94 74.04 74.14 73.89 73.79 73.70 73.19 72.69 72.61 71.17 71.38 70.98 70.75
44.23 45.06 45.84 48.64 48.51 48.47 48.78 47.54 48.24 49.49 52.36 53.80 53.80 53.71 58.90 68.50 70.38 71.40 72.15 72.38 72.23 71.53 72.63 73.64 74.72 75.07 75.20 75.30 74.76 74.68 74.48 74.43 74.88 74.93 75.11 75.10 73.99 73.77 73.86 73.97 73.97 73.97 73.77 73.26 72.54 72.22 71.63 70.62 70.21
46.56 47.04 46.65 46.86 47.45 47.87 46.19 47.25 47.90 50.08 52.62 52.70 53.02 53.76 54.54 56.69 62.26 65.62 67.10 71.91 72.55 73.14 72.72 73.68 74.14 75.24 75.49 75.07 75.62 74.90 75.29 75.14 75.07 75.01 74.37 73.80 74.07 74.72 73.78 73.81 73.50 73.44 73.92 73.89 73.51 72.90 72.37 71.46 70.74
45.85 42.76 44.78 45.32 45.77 45.78 47.00 44.88 45.61 49.80 52.29 51.69 52.56 53.79 54.01 54.81 55.30 56.81 59.65 66.23 71.95 73.36 74.65 73.95 73.80 74.94 75.21 75.02 75.41 75.07 75.24 75.03 74.77 74.69 74.20 73.75 73.27 73.75 74.91 74.03 73.64 74.01 74.33 74.09 73.61 73.04 72.75 71.65 71.28
43.23 43.57 40.01 46.21 45.81 46.98 46.60 41.76 48.18 50.96 49.88 51.17 52.36 52.79 53.16 54.90 55.06 56.87 58.16 60.46 62.68 68.30 72.30 74.63 74.05 73.97 74.60 74.86 75.01 74.67 74.74 74.74 74.63 74.13 73.90 73.90 74.18 74.25 75.09 74.07 73.63 74.05 73.47 73.11 72.58 72.35 71.50 71.42 71.06
43.68 39.24 40.64 42.92 46.32 46.50 46.03 43.79 48.14 49.91 50.33 51.17 52.20 52.90 53.34 54.41 56.52 57.84 58.11 58.70 61.00 62.78 66.43 70.82 74.06 73.83 74.08 74.28 74.27 74.46 74.79 74.46 74.39 74.62 74.64 74.70 74.88 74.83 74.89 73.85 74.21 74.83 73.55 73.05 71.91 71.85 71.48 70.87 70.68
39.69 40.26 41.80 41.59 44.89 44.94 44.68 44.64 48.01 49.78 49.73 51.12 52.35 53.07 53.02 53.46 55.06 58.60 58.86 58.53 59.97 61.59 66.05 69.92 71.37 73.37 73.79 73.44 73.52 73.72 73.61 73.81 73.88 73.61 73.53 73.87 73.49 73.45 73.80 73.97 74.04 73.75 72.74 72.69 72.43 71.84 71.95 70.78 70.26
43.80 42.32 41.35 43.66 45.57 44.80 44.77 45.80 47.88 49.96 49.31 50.41 51.70 52.10 52.53 53.34 56.29 56.38 57.07 58.56 59.04 61.98 66.08 69.19 71.20 72.27 72.26 71.48 71.39 71.79 71.69 72.86 73.53 74.53 74.82 74.52 74.36 73.40 73.35 72.85 73.05 73.02 72.14 72.46 72.49 71.50 70.61 70.34 71.10
43.58 41.96 41.20 44.00 45.49 45.14 45.06 45.07 48.83 49.33 49.61 50.79 50.63 51.35 51.52 52.90 54.19 54.86 56.68 60.20 60.74 63.92 67.89 69.90 71.54 72.02 71.48 71.44 71.85 71.41 71.31 72.05 72.88 72.99 71.59 70.95 70.68 71.42 71.56 71.69 70.84 71.07 70.44 71.15 71.20 70.55 69.63 69.48 70.65
42.80 41.87 41.20 41.46 43.77 45.25 44.17 43.08 45.55 48.83 48.58 50.05 51.23 51.49 51.91 52.71 54.03 55.80 55.64 58.89 62.06 64.24 67.90 69.98 71.60 71.87 72.01 71.84 68.64 68.20 68.67 67.73 65.65 67.32 66.36 67.31 68.21 69.17 69.95 69.34 69.48 70.17 70.07 68.61 70.12 69.49 67.85 67.20 68.57
40.24 44.40 43.90 42.62 41.28 38.25 43.38 37.12 42.80 46.27 47.82 48.84 50.65 50.80 53.26 54.95 55.73 56.45 56.43 57.42 60.46 63.15 67.09 69.88 70.80 71.26 69.92 68.98 68.12 68.58 66.61 63.97 63.42 64.17 65.32 66.15 67.60 67.93 68.62 68.73 69.10 69.40 69.38 69.20 68.71 67.94 68.25 67.92 65.89
41.97 45.15 44.25 43.66 41.45 40.42 40.04 38.98 42.20 43.61 45.27 48.02 49.89 51.71 54.35 55.86 55.50 55.94 56.95 57.91 58.59 61.10 64.94 67.66 68.61 68.71 68.49 68.34 68.08 66.43 64.95 63.39 63.52 63.63 64.96 66.49 67.36 67.79 67.73 68.57 68.79 68.65 68.03 69.03 68.90 68.73 68.81 68.62 67.70
46.42 43.49 42.09 41.39 40.85 36.36 40.33 39.97 40.43 42.93 45.89 47.11 50.60 53.07 54.44 54.57 55.12 55.84 56.98 57.84 57.29 59.49 62.82 65.61 66.10 65.72 65.83 65.28 65.25 66.14 65.28 64.38 62.62 62.90 63.59 64.17 65.44 66.65 67.70 67.41 67.83 67.80 66.94 66.83 66.69 67.47 68.13 67.49 66.46
44.83 42.66 36.07 34.51 34.89 34.29 38.77 38.22 41.80 44.85 46.64 49.71 51.70 53.18 52.95 53.39 54.09 54.66 55.54 56.92 58.56 59.12 61.47 63.58 63.46 62.52 63.33 63.66 63.88 64.81 66.02 65.68 65.33 63.81 63.38 64.02 63.70 64.46 65.97 66.18 65.73 64.48 65.06 64.84 64.88 64.99 65.47 65.97 65.76
43.55 43.23 37.19 29.87 31.76 35.51 38.62 36.64 42.18 47.62 50.05 50.48 51.26 51.72 53.05 53.29 54.04 54.72 55.96 57.79 58.23 59.28 61.75 62.02 62.33 62.13 63.45 64.01 64.25 64.63 64.66 62.56 62.66 64.35 63.52 62.92 62.97 64.20 66.48 65.18 64.69 64.23 63.48 63.20 63.03 62.04 62.76 64.30 63.99
41.53 40.09 44.63 38.13 36.80 36.49 39.01 40.80 45.36 48.64 48.98 50.61 50.87 51.92 52.28 53.30 54.13 55.16 57.32 57.36 59.01 60.67 61.78 62.35 62.25 62.48 63.22 63.25 63.59 63.02 62.79 62.63 62.75 64.32 65.46 63.70 65.55 64.15 65.38 64.93 64.11 63.21 62.94 62.53 62.57 60.41 61.51 62.38 63.16
45.18 45.64 38.84 40.28 31.91 30.32 35.93 37.49 40.12 45.66 47.09 49.22 50.25 50.94 52.07 53.03 53.99 54.74 55.17 58.07 58.50 58.52 58.68 59.63 59.49 59.77 59.91 59.71 59.96 60.10 60.28 60.97 62.01 63.31 63.73 63.96 64.66 65.09 64.45 64.36 63.80 62.83 62.13 62.10 61.96 60.46 60.93 60.71 60.64
42.84 42.08 42.17 42.64 40.25 34.46 33.06 37.61 46.57 47.11 47.95 47.95 48.89 49.95 50.65 51.60 52.50 53.90 55.40 55.07 55.23 56.39 57.41 57.55 57.67 57.57 57.67 57.99 58.48 58.73 59.18 59.93 60.45 60.57 61.43 62.09 62.92 63.59 63.72 63.80 63.18 62.35 61.70 61.65 61.17 60.60 59.72 59.19 59.78
44.12 42.99 43.67 39.87 37.04 38.65 38.29 38.92 47.07 48.54 48.99 49.45 49.10 49.55 50.99 52.00 52.17 52.94 53.89 54.83 55.23 54.98 55.11 55.17 55.57 55.65 55.49 56.02 56.68 56.68 57.35 58.06 58.51 59.11 59.93 60.96 60.59 61.06 60.96 61.21 61.57 61.73 61.33 61.30 60.54 59.13 58.07 58.05 57.70

GFSSGP_sfc_wetblb_120.txt.gz
Wetbulb
67.23 61.74 61.66 60.35 55.46 57.53 55.00 56.08 59.14 57.93 57.74 60.96 60.82 65.08 64.98 66.55 65.36 63.49 76.14 75.35 75.40 76.95 78.49 77.21 77.55 77.58 77.35 77.72 77.87 77.42 77.17 76.89 76.82 76.82 76.62 76.82 76.82 76.89 76.99 76.99 76.85 76.28 74.99 74.44 74.60 74.18 74.63 74.69 74.28
61.65 59.27 60.11 58.50 53.94 53.06 54.29 58.42 57.15 58.74 58.69 58.85 63.93 67.49 66.57 66.44 71.36 72.62 73.86 75.92 76.49 77.65 78.21 76.88 77.19 77.27 77.20 77.14 77.31 77.26 77.19 77.22 77.07 76.79 76.89 76.87 76.94 76.79 76.52 76.44 76.09 75.48 74.38 73.85 74.19 74.34 74.30 74.18 74.42
59.37 58.72 56.37 55.81 55.08 53.74 54.24 58.63 58.87 59.62 58.47 59.22 62.13 68.68 68.05 67.52 71.82 72.15 75.16 76.27 76.58 77.51 77.52 77.20 77.12 77.12 76.99 76.86 76.93 76.98 76.98 76.88 76.96 76.89 76.79 76.94 76.84 76.66 76.51 76.27 75.56 75.12 73.94 73.94 74.11 74.60 74.44 74.09 74.34
57.58 57.63 57.01 52.31 53.82 57.32 58.41 59.72 59.46 59.18 57.91 59.42 61.60 65.40 70.28 72.77 71.85 73.87 75.79 75.87 76.11 76.62 77.32 76.56 76.91 76.81 76.82 76.54 76.58 76.63 76.65 76.71 76.84 76.79 76.69 76.71 76.54 76.46 76.16 76.14 75.56 74.87 73.68 73.90 74.44 74.66 74.19 73.78 73.58
57.01 57.04 52.86 52.57 54.40 58.20 59.55 60.54 59.40 58.79 57.30 58.07 64.20 64.50 68.05 73.32 75.70 75.45 75.42 75.20 75.14 76.02 77.27 77.02 76.73 76.76 76.64 76.39 76.34 76.34 76.36 76.41 76.59 76.66 76.64 76.46 76.28 76.03 76.06 75.69 75.34 74.42 73.53 73.75 74.17 74.39 74.19 73.94 73.54
52.27 53.99 51.44 51.22 54.46 57.32 58.85 60.26 59.57 58.92 57.92 57.27 63.87 65.15 69.08 75.42 75.87 75.23 75.67 75.10 75.25 76.10 77.16 76.68 76.62 76.48 76.31 76.44 76.14 75.88 75.75 76.00 76.11 76.31 76.31 76.16 76.00 75.73 75.54 75.09 74.61 73.95 73.45 73.48 73.80 74.15 73.91 73.86 73.54
51.94 49.73 50.93 53.94 54.98 55.15 57.50 59.85 58.06 58.67 58.01 57.55 66.65 63.80 69.98 73.57 76.53 76.30 76.21 75.69 75.71 76.83 76.78 76.36 75.87 76.71 76.18 75.88 75.67 75.50 75.42 75.53 75.65 75.55 75.60 75.72 75.61 75.48 75.07 74.69 74.13 73.52 73.16 73.02 73.33 73.61 73.32 72.92 72.92
54.49 51.69 49.58 51.70 51.71 53.26 56.37 55.39 56.97 56.71 57.79 61.68 65.63 63.46 65.68 73.76 76.83 76.75 76.90 75.77 75.54 76.07 76.21 75.97 75.24 74.93 75.27 75.60 75.83 75.58 75.33 75.25 75.30 75.34 75.49 75.52 75.55 75.26 74.84 74.80 74.14 73.25 72.89 72.82 72.78 72.74 72.69 72.54 72.30
55.59 50.38 49.66 50.20 50.91 52.20 55.03 54.94 56.18 56.53 56.02 59.99 64.88 65.30 69.80 75.64 76.67 75.69 75.22 74.64 74.22 74.54 75.83 75.75 74.73 74.84 74.81 74.97 75.26 75.32 75.09 75.46 75.33 75.42 75.55 74.81 74.15 75.15 75.36 74.45 74.17 73.59 73.05 72.62 72.37 72.27 72.11 71.51 71.55
53.28 51.43 52.21 54.25 52.64 50.18 52.49 52.29 54.38 54.93 54.99 59.41 62.22 68.90 71.59 74.59 74.74 73.89 73.30 72.73 72.94 73.48 74.64 75.51 75.37 75.02 74.92 74.31 75.80 74.85 74.49 74.21 73.91 73.83 74.90 73.72 73.41 74.04 73.07 74.25 73.74 73.69 73.69 73.29 73.17 73.10 72.54 71.29 67.62
51.55 51.41 55.00 54.79 52.52 54.69 53.64 53.02 53.38 53.83 54.87 57.35 59.90 65.78 71.31 73.10 73.51 72.89 72.43 72.54 72.61 73.51 74.41 75.42 76.20 76.21 75.35 74.73 75.24 74.58 74.90 74.86 75.10 75.51 76.01 75.34 74.87 75.00 73.86 73.61 73.91 73.71 73.32 72.80 73.02 72.50 71.40 69.94 69.39
51.39 53.79 53.50 50.65 53.73 54.07 52.19 54.17 52.35 52.58 58.30 57.29 56.81 60.23 71.84 71.89 72.03 71.80 71.94 72.37 72.56 73.13 74.03 75.27 76.80 76.54 76.20 75.14 74.80 75.31 75.08 75.51 75.68 76.15 77.21 76.38 75.73 75.64 75.65 74.70 74.83 75.14 74.50 73.98 73.39 72.06 72.18 71.57 71.52
51.48 50.89 48.70 51.21 52.25 54.10 55.19 53.46 52.91 52.49 55.32 57.11 57.04 56.75 66.37 71.94 71.98 72.71 73.42 73.93 73.93 73.44 74.29 75.33 76.36 77.15 76.85 75.97 75.21 75.64 75.54 75.57 76.28 76.47 76.99 76.38 75.87 75.58 75.85 75.68 75.75 75.72 75.66 75.35 75.07 74.67 74.29 73.80 73.25
52.12 51.73 51.68 51.14 52.35 51.80 52.61 50.85 54.03 54.19 55.77 55.85 56.22 56.44 57.80 66.98 70.86 72.99 73.77 73.96 74.59 75.01 75.04 75.50 76.09 77.27 77.43 76.82 76.82 76.06 76.37 76.36 76.53 76.57 76.91 77.36 76.61 76.35 75.82 75.77 75.70 75.72 75.76 75.76 75.39 75.19 75.03 74.98 74.97
54.37 52.12 53.77 51.26 50.80 51.93 53.68 50.56 49.76 54.10 54.75 54.79 55.62 57.05 56.70 57.85 61.73 65.13 68.96 71.35 72.94 74.68 76.14 75.98 76.42 77.22 77.48 77.31 77.34 77.34 76.90 76.74 76.51 76.61 77.53 77.35 76.95 76.97 76.90 75.55 75.32 75.51 76.10 76.20 75.75 75.41 75.20 74.31 74.13
51.44 50.44 48.02 51.49 51.78 52.12 50.61 46.14 53.75 55.30 53.54 52.79 54.92 55.99 56.30 57.95 58.50 59.95 61.17 63.96 68.82 71.12 73.64 76.23 75.92 76.40 77.24 77.27 77.30 77.16 76.95 76.91 76.66 76.55 76.86 76.64 76.64 76.62 76.65 75.36 75.59 76.24 76.37 75.89 75.16 74.47 74.00 73.89 73.79
47.44 44.96 44.85 45.35 48.97 48.53 47.95 47.15 52.72 55.31 53.29 53.19 54.45 55.81 56.07 57.09 58.77 60.71 61.07 62.23 64.99 68.66 71.94 74.20 76.50 76.28 76.79 77.50 77.21 77.46 77.66 76.79 76.77 76.69 76.18 76.44 76.08 76.11 76.13 75.68 76.17 77.02 76.07 75.56 75.27 74.80 74.73 73.67 73.66
42.05 42.65 44.69 41.56 46.68 46.04 45.21 45.45 49.27 53.59 52.55 52.75 53.15 55.88 56.98 56.58 57.55 59.82 62.00 62.61 63.53 65.75 68.21 70.75 73.93 76.41 77.24 77.24 77.31 76.71 76.46 76.60 76.90 76.20 75.90 76.51 76.47 76.48 76.49 76.10 76.15 76.18 75.15 74.83 74.63 74.84 74.51 73.88 73.32
45.25 43.54 43.32 45.30 47.27 46.73 45.30 44.70 47.38 51.12 52.56 52.75 53.56 54.88 55.92 56.74 58.71 60.31 61.46 63.02 63.40 65.41 67.35 70.12 71.79 74.73 75.68 74.80 74.30 74.33 74.11 75.37 75.70 75.77 75.75 76.11 76.34 76.35 76.60 75.53 75.96 76.31 75.08 75.01 75.17 74.59 73.69 72.66 73.26
45.41 44.02 43.70 46.51 47.60 47.34 46.93 46.36 48.25 50.67 52.28 53.17 53.70 54.58 55.61 56.81 58.13 59.76 60.62 62.16 63.11 65.13 66.72 69.14 71.42 74.41 75.04 74.20 74.52 74.80 75.16 75.47 75.58 75.19 76.44 77.20 76.78 76.73 76.16 75.70 74.42 74.26 71.79 73.30 73.39 73.20 71.93 71.28 72.53
45.67 44.37 44.48 43.93 47.42 47.90 46.81 45.59 47.42 50.40 51.72 52.76 53.88 55.36 55.95 56.55 57.22 58.95 59.72 61.96 64.30 65.09 66.57 68.75 71.33 73.99 75.20 75.33 75.39 74.84 75.52 75.03 74.18 74.55 74.13 73.61 72.83 72.54 71.89 71.33 70.04 70.53 70.18 66.99 70.27 70.59 70.46 67.36 68.67
42.96 47.16 46.39 45.33 44.67 41.40 47.48 39.36 45.61 49.05 50.04 51.95 53.53 54.40 55.18 57.21 59.01 59.82 60.35 61.62 63.67 65.23 66.76 69.12 72.07 74.27 74.90 75.79 74.17 74.31 72.56 71.68 71.95 72.47 71.33 69.65 69.34 69.09 69.48 69.24 69.14 69.58 68.09 69.25 68.43 68.92 69.22 68.45 66.31
45.35 48.57 46.87 46.03 44.94 44.54 44.41 42.01 45.48 48.99 47.25 50.17 52.47 54.14 56.71 58.35 59.42 60.27 61.63 62.61 63.24 63.76 65.53 68.89 72.22 73.91 74.70 74.59 74.16 72.87 73.89 72.30 70.78 69.68 69.25 69.39 69.42 69.02 67.62 68.59 68.65 68.41 67.11 67.91 68.72 68.43 68.83 67.57 66.56
48.99 46.87 46.56 46.62 45.41 39.80 43.72 42.76 43.26 46.23 48.01 50.05 52.56 54.53 56.74 58.01 59.18 60.24 61.61 62.51 63.42 64.13 63.96 67.13 70.43 72.17 73.55 73.10 73.52 73.22 73.00 70.85 67.98 67.28 65.77 65.73 66.51 67.62 68.49 68.01 68.36 68.10 67.33 67.04 66.54 67.53 67.76 67.79 67.22
47.71 45.41 39.55 37.79 38.33 37.95 45.02 43.06 45.34 49.55 50.15 51.49 52.90 54.61 56.43 57.88 58.64 59.67 60.94 61.95 63.10 63.31 63.14 66.12 68.82 70.03 71.79 72.33 72.15 71.66 70.48 68.97 67.72 66.89 65.23 67.03 64.82 65.55 67.82 68.43 67.80 66.40 67.34 66.17 66.27 66.41 66.05 65.68 65.33
45.69 45.64 40.35 34.19 36.54 39.51 44.31 39.76 45.03 50.77 53.15 54.34 55.10 55.98 56.87 57.34 58.78 60.15 61.64 62.57 62.63 62.87 62.96 64.17 67.33 68.32 69.62 70.02 69.97 69.23 68.97 66.37 65.80 67.85 64.47 64.39 64.02 65.20 67.88 68.00 67.28 66.78 65.99 65.80 66.08 64.17 63.78 64.90 64.00
45.47 43.59 47.73 42.32 43.39 40.80 42.69 45.20 49.23 52.61 52.38 53.23 54.35 55.53 55.93 57.18 58.07 58.96 61.78 62.47 63.70 65.04 65.48 66.03 67.21 66.78 66.33 66.06 66.72 67.06 67.39 66.27 65.50 66.03 67.82 65.06 66.96 64.45 66.34 67.45 67.10 66.66 65.96 65.75 65.91 63.11 63.30 64.07 64.26
48.03 48.88 41.99 43.33 36.02 34.72 40.14 41.34 44.68 48.54 50.59 53.01 53.52 54.31 55.09 56.17 57.15 58.21 58.98 61.57 63.25 63.58 64.06 64.57 64.46 64.64 64.75 64.50 66.15 65.69 65.60 65.06 65.41 66.08 66.17 66.90 66.96 66.90 66.47 66.33 66.82 66.56 66.11 65.46 66.21 64.96 64.44 63.54 62.84
45.60 45.30 45.63 45.95 43.76 37.77 36.92 42.03 50.19 50.53 52.42 52.56 53.10 53.73 54.26 55.07 55.84 56.85 58.36 59.20 59.83 61.10 61.84 62.12 61.78 61.12 62.01 62.66 63.48 63.40 63.28 63.45 63.86 63.79 64.29 65.19 66.14 66.42 65.97 65.85 65.86 65.66 65.45 65.62 65.48 64.93 63.49 62.37 63.79
48.95 46.16 46.81 41.69 40.37 43.07 42.47 43.04 52.71 53.15 53.61 53.80 52.91 53.43 54.34 55.23 55.86 56.39 57.55 58.82 59.44 59.47 59.49 59.75 60.31 59.94 59.96 59.97 60.39 60.69 61.08 61.41 62.11 62.66 63.23 63.95 63.89 64.60 64.24 64.12 64.15 64.42 64.68 65.13 64.37 63.42 62.96 61.76 62.19